<?xml version="1.0" encoding="UTF-8" standalone="no" ?>
<gpx xmlns="http://www.topografix.com/GPX/1/1" xmlns:xsi="http://www.w3.org/2001/XMLSchema-instance" xsi:schemaLocation="http://www.topografix.com/GPX/1/1 http://www.topografix.com/GPX/1/1/gpx.xsd" version="1.1" creator="VisuGPX - https://www.visugpx.com">
  <metadata>
    <name>VOIE d'ARLES , GR653 : Etape de Saint-Jean-Blaquière a LODEVE</name>
    <desc><![CDATA[26 mai 2023 : Etape n°4  du Chemin de Compostelle dit Voie d'Arles ou VIA TOLOSONA
Courte Etape , que j'ai encore raccourci en ne faisant pas les détours du GR par le Prieuré de Grandmont et le village de Soumont. 
Le prieuré mérite le détour, à condition d'y passer pendant ses heure d'ouverture.
Le détour par Soumont n'a que peu d'intérêt.
LODEVE est une petite ville, mais pourvue de nombreux commerces et restaurants. 
Etape,agrémentée de beaux genêts en fleur, et d'autres fleurs.sauvages.
C'est la partie finale, la descente sur LODEVE , par un sentier en encorbelement dans la falaise, qui est la plus remarquable. 
]]></desc>
  </metadata>
  <trk>
    <name><![CDATA[Saint-Jean-de-la-Blaquière Course à pied]]></name>
    <extensions>
      <line xmlns="http://www.topografix.com/GPX/gpx_style/0/2">
        <color>0000FF</color>
        <width>4</width>
      </line>
    </extensions>
    <trkseg>
      <trkpt lat="43.71518" lon="3.42328">
        <ele>175.39999389648</ele>
        <time>2023-05-26T06:24:59.000Z</time>
      </trkpt>
      <trkpt lat="43.71511" lon="3.42346">
        <ele>175.39999389648</ele>
        <time>2023-05-26T06:25:00.000Z</time>
      </trkpt>
      <trkpt lat="43.7151" lon="3.42348">
        <ele>175.39999389648</ele>
        <time>2023-05-26T06:25:05.000Z</time>
      </trkpt>
      <trkpt lat="43.71509" lon="3.42345">
        <ele>175.80000305176</ele>
        <time>2023-05-26T06:25:13.000Z</time>
      </trkpt>
      <trkpt lat="43.71507" lon="3.42338">
        <ele>176</ele>
        <time>2023-05-26T06:25:19.000Z</time>
      </trkpt>
      <trkpt lat="43.71506" lon="3.42334">
        <ele>176.19999694824</ele>
        <time>2023-05-26T06:25:23.000Z</time>
      </trkpt>
      <trkpt lat="43.71505" lon="3.42335">
        <ele>176.19999694824</ele>
        <time>2023-05-26T06:25:24.000Z</time>
      </trkpt>
      <trkpt lat="43.71501" lon="3.42332">
        <ele>176.39999389648</ele>
        <time>2023-05-26T06:25:28.000Z</time>
      </trkpt>
      <trkpt lat="43.71497" lon="3.4233">
        <ele>176.60000610352</ele>
        <time>2023-05-26T06:25:32.000Z</time>
      </trkpt>
      <trkpt lat="43.71495" lon="3.42326">
        <ele>176.60000610352</ele>
        <time>2023-05-26T06:25:35.000Z</time>
      </trkpt>
      <trkpt lat="43.71492" lon="3.4232">
        <ele>176.80000305176</ele>
        <time>2023-05-26T06:25:39.000Z</time>
      </trkpt>
      <trkpt lat="43.71491" lon="3.42316">
        <ele>176.80000305176</ele>
        <time>2023-05-26T06:25:41.000Z</time>
      </trkpt>
      <trkpt lat="43.7149" lon="3.42313">
        <ele>177</ele>
        <time>2023-05-26T06:25:43.000Z</time>
      </trkpt>
      <trkpt lat="43.71489" lon="3.42313">
        <ele>176.80000305176</ele>
        <time>2023-05-26T06:25:47.000Z</time>
      </trkpt>
      <trkpt lat="43.7149" lon="3.42309">
        <ele>176.80000305176</ele>
        <time>2023-05-26T06:25:48.000Z</time>
      </trkpt>
      <trkpt lat="43.71489" lon="3.42306">
        <ele>176.80000305176</ele>
        <time>2023-05-26T06:25:51.000Z</time>
      </trkpt>
      <trkpt lat="43.71489" lon="3.42305">
        <ele>176.80000305176</ele>
        <time>2023-05-26T06:25:52.000Z</time>
      </trkpt>
      <trkpt lat="43.71488" lon="3.42304">
        <ele>176.80000305176</ele>
        <time>2023-05-26T06:25:58.000Z</time>
      </trkpt>
      <trkpt lat="43.71484" lon="3.42298">
        <ele>176.80000305176</ele>
        <time>2023-05-26T06:26:04.000Z</time>
      </trkpt>
      <trkpt lat="43.71482" lon="3.42298">
        <ele>176.80000305176</ele>
        <time>2023-05-26T06:26:09.000Z</time>
      </trkpt>
      <trkpt lat="43.71477" lon="3.42299">
        <ele>176.80000305176</ele>
        <time>2023-05-26T06:26:15.000Z</time>
      </trkpt>
      <trkpt lat="43.71472" lon="3.423">
        <ele>176.60000610352</ele>
        <time>2023-05-26T06:26:20.000Z</time>
      </trkpt>
      <trkpt lat="43.71473" lon="3.423">
        <ele>176.39999389648</ele>
        <time>2023-05-26T06:26:26.000Z</time>
      </trkpt>
      <trkpt lat="43.71474" lon="3.423">
        <ele>176.39999389648</ele>
        <time>2023-05-26T06:26:35.000Z</time>
      </trkpt>
      <trkpt lat="43.71471" lon="3.42297">
        <ele>176.39999389648</ele>
        <time>2023-05-26T06:26:43.000Z</time>
      </trkpt>
      <trkpt lat="43.7147" lon="3.4229">
        <ele>177</ele>
        <time>2023-05-26T06:26:49.000Z</time>
      </trkpt>
      <trkpt lat="43.71467" lon="3.42282">
        <ele>177</ele>
        <time>2023-05-26T06:26:54.000Z</time>
      </trkpt>
      <trkpt lat="43.71467" lon="3.42281">
        <ele>177</ele>
        <time>2023-05-26T06:26:55.000Z</time>
      </trkpt>
      <trkpt lat="43.71465" lon="3.42275">
        <ele>177.19999694824</ele>
        <time>2023-05-26T06:26:59.000Z</time>
      </trkpt>
      <trkpt lat="43.71463" lon="3.42272">
        <ele>177.19999694824</ele>
        <time>2023-05-26T06:27:01.000Z</time>
      </trkpt>
      <trkpt lat="43.71462" lon="3.4227">
        <ele>177.60000610352</ele>
        <time>2023-05-26T06:27:05.000Z</time>
      </trkpt>
      <trkpt lat="43.71462" lon="3.4227">
        <ele>177.60000610352</ele>
        <time>2023-05-26T06:27:06.000Z</time>
      </trkpt>
      <trkpt lat="43.71459" lon="3.42268">
        <ele>177.60000610352</ele>
        <time>2023-05-26T06:27:10.000Z</time>
      </trkpt>
      <trkpt lat="43.71455" lon="3.42259">
        <ele>177.80000305176</ele>
        <time>2023-05-26T06:27:17.000Z</time>
      </trkpt>
      <trkpt lat="43.71448" lon="3.42246">
        <ele>178.39999389648</ele>
        <time>2023-05-26T06:27:27.000Z</time>
      </trkpt>
      <trkpt lat="43.71446" lon="3.42236">
        <ele>178.39999389648</ele>
        <time>2023-05-26T06:27:34.000Z</time>
      </trkpt>
      <trkpt lat="43.71446" lon="3.42235">
        <ele>178.60000610352</ele>
        <time>2023-05-26T06:27:35.000Z</time>
      </trkpt>
      <trkpt lat="43.71446" lon="3.42234">
        <ele>178.60000610352</ele>
        <time>2023-05-26T06:27:36.000Z</time>
      </trkpt>
      <trkpt lat="43.71447" lon="3.42227">
        <ele>179</ele>
        <time>2023-05-26T06:27:40.000Z</time>
      </trkpt>
      <trkpt lat="43.71447" lon="3.42215">
        <ele>179.39999389648</ele>
        <time>2023-05-26T06:27:47.000Z</time>
      </trkpt>
      <trkpt lat="43.71447" lon="3.42214">
        <ele>179.39999389648</ele>
        <time>2023-05-26T06:27:48.000Z</time>
      </trkpt>
      <trkpt lat="43.71447" lon="3.42203">
        <ele>179.60000610352</ele>
        <time>2023-05-26T06:27:54.000Z</time>
      </trkpt>
      <trkpt lat="43.71447" lon="3.42201">
        <ele>179.60000610352</ele>
        <time>2023-05-26T06:27:55.000Z</time>
      </trkpt>
      <trkpt lat="43.71447" lon="3.422">
        <ele>179.60000610352</ele>
        <time>2023-05-26T06:27:56.000Z</time>
      </trkpt>
      <trkpt lat="43.71444" lon="3.42192">
        <ele>180</ele>
        <time>2023-05-26T06:28:01.000Z</time>
      </trkpt>
      <trkpt lat="43.71445" lon="3.42183">
        <ele>180.19999694824</ele>
        <time>2023-05-26T06:28:07.000Z</time>
      </trkpt>
      <trkpt lat="43.71443" lon="3.42177">
        <ele>180.39999389648</ele>
        <time>2023-05-26T06:28:11.000Z</time>
      </trkpt>
      <trkpt lat="43.71442" lon="3.42173">
        <ele>180.39999389648</ele>
        <time>2023-05-26T06:28:14.000Z</time>
      </trkpt>
      <trkpt lat="43.71442" lon="3.4217">
        <ele>180.39999389648</ele>
        <time>2023-05-26T06:28:16.000Z</time>
      </trkpt>
      <trkpt lat="43.7144" lon="3.42164">
        <ele>180.39999389648</ele>
        <time>2023-05-26T06:28:20.000Z</time>
      </trkpt>
      <trkpt lat="43.71439" lon="3.42153">
        <ele>180.39999389648</ele>
        <time>2023-05-26T06:28:27.000Z</time>
      </trkpt>
      <trkpt lat="43.71438" lon="3.42143">
        <ele>180.39999389648</ele>
        <time>2023-05-26T06:28:34.000Z</time>
      </trkpt>
      <trkpt lat="43.71435" lon="3.4213">
        <ele>179.80000305176</ele>
        <time>2023-05-26T06:28:42.000Z</time>
      </trkpt>
      <trkpt lat="43.71433" lon="3.4212">
        <ele>179.39999389648</ele>
        <time>2023-05-26T06:28:49.000Z</time>
      </trkpt>
      <trkpt lat="43.71426" lon="3.42106">
        <ele>178.60000610352</ele>
        <time>2023-05-26T06:28:59.000Z</time>
      </trkpt>
      <trkpt lat="43.71425" lon="3.42104">
        <ele>178.60000610352</ele>
        <time>2023-05-26T06:29:01.000Z</time>
      </trkpt>
      <trkpt lat="43.7142" lon="3.42094">
        <ele>177.80000305176</ele>
        <time>2023-05-26T06:29:08.000Z</time>
      </trkpt>
      <trkpt lat="43.71416" lon="3.42088">
        <ele>177.39999389648</ele>
        <time>2023-05-26T06:29:13.000Z</time>
      </trkpt>
      <trkpt lat="43.71415" lon="3.42082">
        <ele>177</ele>
        <time>2023-05-26T06:29:17.000Z</time>
      </trkpt>
      <trkpt lat="43.7141" lon="3.42072">
        <ele>176.39999389648</ele>
        <time>2023-05-26T06:29:25.000Z</time>
      </trkpt>
      <trkpt lat="43.71409" lon="3.42071">
        <ele>176.19999694824</ele>
        <time>2023-05-26T06:29:26.000Z</time>
      </trkpt>
      <trkpt lat="43.71404" lon="3.42061">
        <ele>175.80000305176</ele>
        <time>2023-05-26T06:29:34.000Z</time>
      </trkpt>
      <trkpt lat="43.71401" lon="3.42055">
        <ele>175.39999389648</ele>
        <time>2023-05-26T06:29:41.000Z</time>
      </trkpt>
      <trkpt lat="43.71402" lon="3.42054">
        <ele>175.39999389648</ele>
        <time>2023-05-26T06:29:49.000Z</time>
      </trkpt>
      <trkpt lat="43.71402" lon="3.4205">
        <ele>175.39999389648</ele>
        <time>2023-05-26T06:29:56.000Z</time>
      </trkpt>
      <trkpt lat="43.71402" lon="3.42049">
        <ele>175.19999694824</ele>
        <time>2023-05-26T06:29:57.000Z</time>
      </trkpt>
      <trkpt lat="43.71397" lon="3.42041">
        <ele>175.19999694824</ele>
        <time>2023-05-26T06:30:03.000Z</time>
      </trkpt>
      <trkpt lat="43.71391" lon="3.42029">
        <ele>175</ele>
        <time>2023-05-26T06:30:12.000Z</time>
      </trkpt>
      <trkpt lat="43.71382" lon="3.42014">
        <ele>175</ele>
        <time>2023-05-26T06:30:24.000Z</time>
      </trkpt>
      <trkpt lat="43.71378" lon="3.42006">
        <ele>175.19999694824</ele>
        <time>2023-05-26T06:30:31.000Z</time>
      </trkpt>
      <trkpt lat="43.71377" lon="3.42005">
        <ele>175.19999694824</ele>
        <time>2023-05-26T06:30:34.000Z</time>
      </trkpt>
      <trkpt lat="43.71375" lon="3.42002">
        <ele>175.19999694824</ele>
        <time>2023-05-26T06:30:36.000Z</time>
      </trkpt>
      <trkpt lat="43.71372" lon="3.41994">
        <ele>175.19999694824</ele>
        <time>2023-05-26T06:30:43.000Z</time>
      </trkpt>
      <trkpt lat="43.71366" lon="3.41982">
        <ele>175.19999694824</ele>
        <time>2023-05-26T06:30:52.000Z</time>
      </trkpt>
      <trkpt lat="43.71359" lon="3.41968">
        <ele>175.60000610352</ele>
        <time>2023-05-26T06:31:02.000Z</time>
      </trkpt>
      <trkpt lat="43.71352" lon="3.41955">
        <ele>175.80000305176</ele>
        <time>2023-05-26T06:31:12.000Z</time>
      </trkpt>
      <trkpt lat="43.71345" lon="3.41941">
        <ele>176</ele>
        <time>2023-05-26T06:31:22.000Z</time>
      </trkpt>
      <trkpt lat="43.71339" lon="3.41931">
        <ele>176.39999389648</ele>
        <time>2023-05-26T06:31:30.000Z</time>
      </trkpt>
      <trkpt lat="43.71338" lon="3.4193">
        <ele>176.39999389648</ele>
        <time>2023-05-26T06:31:31.000Z</time>
      </trkpt>
      <trkpt lat="43.71334" lon="3.41919">
        <ele>176.60000610352</ele>
        <time>2023-05-26T06:31:39.000Z</time>
      </trkpt>
      <trkpt lat="43.71327" lon="3.41908">
        <ele>176.80000305176</ele>
        <time>2023-05-26T06:31:48.000Z</time>
      </trkpt>
      <trkpt lat="43.71321" lon="3.419">
        <ele>176.80000305176</ele>
        <time>2023-05-26T06:31:55.000Z</time>
      </trkpt>
      <trkpt lat="43.71316" lon="3.4189">
        <ele>177.39999389648</ele>
        <time>2023-05-26T06:32:02.000Z</time>
      </trkpt>
      <trkpt lat="43.71311" lon="3.41879">
        <ele>177</ele>
        <time>2023-05-26T06:32:10.000Z</time>
      </trkpt>
      <trkpt lat="43.7131" lon="3.41875">
        <ele>177</ele>
        <time>2023-05-26T06:32:13.000Z</time>
      </trkpt>
      <trkpt lat="43.71311" lon="3.41872">
        <ele>176.80000305176</ele>
        <time>2023-05-26T06:32:15.000Z</time>
      </trkpt>
      <trkpt lat="43.71314" lon="3.41869">
        <ele>176</ele>
        <time>2023-05-26T06:32:22.000Z</time>
      </trkpt>
      <trkpt lat="43.71314" lon="3.41869">
        <ele>175.60000610352</ele>
        <time>2023-05-26T06:32:32.000Z</time>
      </trkpt>
      <trkpt lat="43.71315" lon="3.41868">
        <ele>175.60000610352</ele>
        <time>2023-05-26T06:32:42.000Z</time>
      </trkpt>
      <trkpt lat="43.71315" lon="3.41868">
        <ele>175.80000305176</ele>
        <time>2023-05-26T06:32:50.000Z</time>
      </trkpt>
      <trkpt lat="43.71315" lon="3.41867">
        <ele>175.60000610352</ele>
        <time>2023-05-26T06:32:57.000Z</time>
      </trkpt>
      <trkpt lat="43.71314" lon="3.41866">
        <ele>175.39999389648</ele>
        <time>2023-05-26T06:33:08.000Z</time>
      </trkpt>
      <trkpt lat="43.71314" lon="3.41866">
        <ele>175.39999389648</ele>
        <time>2023-05-26T06:33:10.000Z</time>
      </trkpt>
      <trkpt lat="43.71316" lon="3.41863">
        <ele>175.19999694824</ele>
        <time>2023-05-26T06:33:13.000Z</time>
      </trkpt>
      <trkpt lat="43.71318" lon="3.41861">
        <ele>174.80000305176</ele>
        <time>2023-05-26T06:33:19.000Z</time>
      </trkpt>
      <trkpt lat="43.71322" lon="3.41856">
        <ele>174.60000610352</ele>
        <time>2023-05-26T06:33:25.000Z</time>
      </trkpt>
      <trkpt lat="43.71326" lon="3.41848">
        <ele>174.39999389648</ele>
        <time>2023-05-26T06:33:31.000Z</time>
      </trkpt>
      <trkpt lat="43.71328" lon="3.41844">
        <ele>174.19999694824</ele>
        <time>2023-05-26T06:33:34.000Z</time>
      </trkpt>
      <trkpt lat="43.71331" lon="3.41838">
        <ele>174</ele>
        <time>2023-05-26T06:33:42.000Z</time>
      </trkpt>
      <trkpt lat="43.71329" lon="3.41835">
        <ele>174.19999694824</ele>
        <time>2023-05-26T06:33:48.000Z</time>
      </trkpt>
      <trkpt lat="43.71326" lon="3.41828">
        <ele>173.19999694824</ele>
        <time>2023-05-26T06:33:56.000Z</time>
      </trkpt>
      <trkpt lat="43.71321" lon="3.41822">
        <ele>172.60000610352</ele>
        <time>2023-05-26T06:34:02.000Z</time>
      </trkpt>
      <trkpt lat="43.71315" lon="3.41812">
        <ele>172.39999389648</ele>
        <time>2023-05-26T06:34:10.000Z</time>
      </trkpt>
      <trkpt lat="43.7131" lon="3.41803">
        <ele>172.19999694824</ele>
        <time>2023-05-26T06:34:18.000Z</time>
      </trkpt>
      <trkpt lat="43.71309" lon="3.41801">
        <ele>172.19999694824</ele>
        <time>2023-05-26T06:34:19.000Z</time>
      </trkpt>
      <trkpt lat="43.71303" lon="3.41791">
        <ele>171.80000305176</ele>
        <time>2023-05-26T06:34:28.000Z</time>
      </trkpt>
      <trkpt lat="43.71298" lon="3.41782">
        <ele>172</ele>
        <time>2023-05-26T06:34:36.000Z</time>
      </trkpt>
      <trkpt lat="43.71296" lon="3.41775">
        <ele>171.39999389648</ele>
        <time>2023-05-26T06:34:43.000Z</time>
      </trkpt>
      <trkpt lat="43.71296" lon="3.41775">
        <ele>171.39999389648</ele>
        <time>2023-05-26T06:34:44.000Z</time>
      </trkpt>
      <trkpt lat="43.71294" lon="3.41769">
        <ele>171.19999694824</ele>
        <time>2023-05-26T06:34:50.000Z</time>
      </trkpt>
      <trkpt lat="43.71293" lon="3.41768">
        <ele>171.19999694824</ele>
        <time>2023-05-26T06:34:51.000Z</time>
      </trkpt>
      <trkpt lat="43.71289" lon="3.4176">
        <ele>171</ele>
        <time>2023-05-26T06:34:58.000Z</time>
      </trkpt>
      <trkpt lat="43.71287" lon="3.41753">
        <ele>170.80000305176</ele>
        <time>2023-05-26T06:35:07.000Z</time>
      </trkpt>
      <trkpt lat="43.71285" lon="3.41753">
        <ele>170.39999389648</ele>
        <time>2023-05-26T06:35:15.000Z</time>
      </trkpt>
      <trkpt lat="43.71286" lon="3.41754">
        <ele>170.39999389648</ele>
        <time>2023-05-26T06:35:21.000Z</time>
      </trkpt>
      <trkpt lat="43.71286" lon="3.41755">
        <ele>170.60000610352</ele>
        <time>2023-05-26T06:35:29.000Z</time>
      </trkpt>
      <trkpt lat="43.71286" lon="3.41755">
        <ele>170.60000610352</ele>
        <time>2023-05-26T06:35:37.000Z</time>
      </trkpt>
      <trkpt lat="43.71284" lon="3.41752">
        <ele>170.39999389648</ele>
        <time>2023-05-26T06:35:43.000Z</time>
      </trkpt>
      <trkpt lat="43.71279" lon="3.41745">
        <ele>170.39999389648</ele>
        <time>2023-05-26T06:35:50.000Z</time>
      </trkpt>
      <trkpt lat="43.71279" lon="3.41744">
        <ele>170.19999694824</ele>
        <time>2023-05-26T06:35:51.000Z</time>
      </trkpt>
      <trkpt lat="43.71275" lon="3.41736">
        <ele>170.19999694824</ele>
        <time>2023-05-26T06:35:58.000Z</time>
      </trkpt>
      <trkpt lat="43.71273" lon="3.41734">
        <ele>170.19999694824</ele>
        <time>2023-05-26T06:36:00.000Z</time>
      </trkpt>
      <trkpt lat="43.71272" lon="3.4173">
        <ele>170</ele>
        <time>2023-05-26T06:36:04.000Z</time>
      </trkpt>
      <trkpt lat="43.71268" lon="3.41721">
        <ele>169.80000305176</ele>
        <time>2023-05-26T06:36:12.000Z</time>
      </trkpt>
      <trkpt lat="43.71265" lon="3.41714">
        <ele>169.80000305176</ele>
        <time>2023-05-26T06:36:20.000Z</time>
      </trkpt>
      <trkpt lat="43.7126" lon="3.41703">
        <ele>169.39999389648</ele>
        <time>2023-05-26T06:36:29.000Z</time>
      </trkpt>
      <trkpt lat="43.7126" lon="3.41701">
        <ele>169.39999389648</ele>
        <time>2023-05-26T06:36:30.000Z</time>
      </trkpt>
      <trkpt lat="43.7126" lon="3.41696">
        <ele>169.60000610352</ele>
        <time>2023-05-26T06:36:34.000Z</time>
      </trkpt>
      <trkpt lat="43.71258" lon="3.41688">
        <ele>169.80000305176</ele>
        <time>2023-05-26T06:36:41.000Z</time>
      </trkpt>
      <trkpt lat="43.71257" lon="3.41686">
        <ele>170</ele>
        <time>2023-05-26T06:36:42.000Z</time>
      </trkpt>
      <trkpt lat="43.71256" lon="3.41679">
        <ele>170.19999694824</ele>
        <time>2023-05-26T06:36:49.000Z</time>
      </trkpt>
      <trkpt lat="43.71255" lon="3.4167">
        <ele>170.39999389648</ele>
        <time>2023-05-26T06:36:57.000Z</time>
      </trkpt>
      <trkpt lat="43.71255" lon="3.41659">
        <ele>171</ele>
        <time>2023-05-26T06:37:06.000Z</time>
      </trkpt>
      <trkpt lat="43.71255" lon="3.41653">
        <ele>171.19999694824</ele>
        <time>2023-05-26T06:37:10.000Z</time>
      </trkpt>
      <trkpt lat="43.71256" lon="3.41645">
        <ele>171.19999694824</ele>
        <time>2023-05-26T06:37:15.000Z</time>
      </trkpt>
      <trkpt lat="43.71257" lon="3.41633">
        <ele>171</ele>
        <time>2023-05-26T06:37:24.000Z</time>
      </trkpt>
      <trkpt lat="43.71258" lon="3.41629">
        <ele>170.80000305176</ele>
        <time>2023-05-26T06:37:29.000Z</time>
      </trkpt>
      <trkpt lat="43.71258" lon="3.41626">
        <ele>170.80000305176</ele>
        <time>2023-05-26T06:37:32.000Z</time>
      </trkpt>
      <trkpt lat="43.71258" lon="3.41614">
        <ele>170.60000610352</ele>
        <time>2023-05-26T06:37:41.000Z</time>
      </trkpt>
      <trkpt lat="43.71257" lon="3.41605">
        <ele>170.19999694824</ele>
        <time>2023-05-26T06:37:46.000Z</time>
      </trkpt>
      <trkpt lat="43.71256" lon="3.41599">
        <ele>169.80000305176</ele>
        <time>2023-05-26T06:37:50.000Z</time>
      </trkpt>
      <trkpt lat="43.71256" lon="3.41596">
        <ele>169.60000610352</ele>
        <time>2023-05-26T06:37:52.000Z</time>
      </trkpt>
      <trkpt lat="43.71255" lon="3.41594">
        <ele>169.19999694824</ele>
        <time>2023-05-26T06:37:55.000Z</time>
      </trkpt>
      <trkpt lat="43.71254" lon="3.41587">
        <ele>169.39999389648</ele>
        <time>2023-05-26T06:38:01.000Z</time>
      </trkpt>
      <trkpt lat="43.71253" lon="3.41575">
        <ele>168.80000305176</ele>
        <time>2023-05-26T06:38:10.000Z</time>
      </trkpt>
      <trkpt lat="43.71252" lon="3.41572">
        <ele>168.39999389648</ele>
        <time>2023-05-26T06:38:13.000Z</time>
      </trkpt>
      <trkpt lat="43.71251" lon="3.4157">
        <ele>168.39999389648</ele>
        <time>2023-05-26T06:38:16.000Z</time>
      </trkpt>
      <trkpt lat="43.71251" lon="3.41568">
        <ele>168.19999694824</ele>
        <time>2023-05-26T06:38:18.000Z</time>
      </trkpt>
      <trkpt lat="43.7125" lon="3.41568">
        <ele>168.19999694824</ele>
        <time>2023-05-26T06:38:19.000Z</time>
      </trkpt>
      <trkpt lat="43.71249" lon="3.41561">
        <ele>167.80000305176</ele>
        <time>2023-05-26T06:38:25.000Z</time>
      </trkpt>
      <trkpt lat="43.71247" lon="3.41554">
        <ele>167.39999389648</ele>
        <time>2023-05-26T06:38:32.000Z</time>
      </trkpt>
      <trkpt lat="43.71246" lon="3.41553">
        <ele>167.39999389648</ele>
        <time>2023-05-26T06:38:33.000Z</time>
      </trkpt>
      <trkpt lat="43.71246" lon="3.41548">
        <ele>167</ele>
        <time>2023-05-26T06:38:37.000Z</time>
      </trkpt>
      <trkpt lat="43.71245" lon="3.41548">
        <ele>167</ele>
        <time>2023-05-26T06:38:38.000Z</time>
      </trkpt>
      <trkpt lat="43.71243" lon="3.41541">
        <ele>166.60000610352</ele>
        <time>2023-05-26T06:38:44.000Z</time>
      </trkpt>
      <trkpt lat="43.71242" lon="3.41541">
        <ele>166.39999389648</ele>
        <time>2023-05-26T06:38:45.000Z</time>
      </trkpt>
      <trkpt lat="43.71241" lon="3.41538">
        <ele>166</ele>
        <time>2023-05-26T06:38:50.000Z</time>
      </trkpt>
      <trkpt lat="43.7124" lon="3.41536">
        <ele>165.80000305176</ele>
        <time>2023-05-26T06:38:53.000Z</time>
      </trkpt>
      <trkpt lat="43.71236" lon="3.41529">
        <ele>165.19999694824</ele>
        <time>2023-05-26T06:39:00.000Z</time>
      </trkpt>
      <trkpt lat="43.71236" lon="3.41528">
        <ele>165</ele>
        <time>2023-05-26T06:39:01.000Z</time>
      </trkpt>
      <trkpt lat="43.71232" lon="3.41522">
        <ele>164.60000610352</ele>
        <time>2023-05-26T06:39:07.000Z</time>
      </trkpt>
      <trkpt lat="43.71231" lon="3.41521">
        <ele>164.60000610352</ele>
        <time>2023-05-26T06:39:08.000Z</time>
      </trkpt>
      <trkpt lat="43.71226" lon="3.41513">
        <ele>164</ele>
        <time>2023-05-26T06:39:15.000Z</time>
      </trkpt>
      <trkpt lat="43.71226" lon="3.41512">
        <ele>164</ele>
        <time>2023-05-26T06:39:16.000Z</time>
      </trkpt>
      <trkpt lat="43.71219" lon="3.41506">
        <ele>163.19999694824</ele>
        <time>2023-05-26T06:39:24.000Z</time>
      </trkpt>
      <trkpt lat="43.71214" lon="3.41502">
        <ele>163</ele>
        <time>2023-05-26T06:39:29.000Z</time>
      </trkpt>
      <trkpt lat="43.71213" lon="3.415">
        <ele>162.80000305176</ele>
        <time>2023-05-26T06:39:32.000Z</time>
      </trkpt>
      <trkpt lat="43.71207" lon="3.41494">
        <ele>162.19999694824</ele>
        <time>2023-05-26T06:39:40.000Z</time>
      </trkpt>
      <trkpt lat="43.71205" lon="3.41492">
        <ele>162</ele>
        <time>2023-05-26T06:39:42.000Z</time>
      </trkpt>
      <trkpt lat="43.71202" lon="3.41491">
        <ele>161.80000305176</ele>
        <time>2023-05-26T06:39:44.000Z</time>
      </trkpt>
      <trkpt lat="43.71199" lon="3.41489">
        <ele>161.80000305176</ele>
        <time>2023-05-26T06:39:47.000Z</time>
      </trkpt>
      <trkpt lat="43.71191" lon="3.41483">
        <ele>161.19999694824</ele>
        <time>2023-05-26T06:39:55.000Z</time>
      </trkpt>
      <trkpt lat="43.71189" lon="3.4148">
        <ele>160.80000305176</ele>
        <time>2023-05-26T06:39:58.000Z</time>
      </trkpt>
      <trkpt lat="43.71185" lon="3.41478">
        <ele>160.39999389648</ele>
        <time>2023-05-26T06:40:02.000Z</time>
      </trkpt>
      <trkpt lat="43.71183" lon="3.41477">
        <ele>160.19999694824</ele>
        <time>2023-05-26T06:40:04.000Z</time>
      </trkpt>
      <trkpt lat="43.7118" lon="3.41474">
        <ele>159.80000305176</ele>
        <time>2023-05-26T06:40:07.000Z</time>
      </trkpt>
      <trkpt lat="43.71177" lon="3.41473">
        <ele>159.60000610352</ele>
        <time>2023-05-26T06:40:10.000Z</time>
      </trkpt>
      <trkpt lat="43.71176" lon="3.41473">
        <ele>159.39999389648</ele>
        <time>2023-05-26T06:40:11.000Z</time>
      </trkpt>
      <trkpt lat="43.71168" lon="3.41467">
        <ele>159.19999694824</ele>
        <time>2023-05-26T06:40:20.000Z</time>
      </trkpt>
      <trkpt lat="43.71163" lon="3.4146">
        <ele>159</ele>
        <time>2023-05-26T06:40:27.000Z</time>
      </trkpt>
      <trkpt lat="43.7116" lon="3.41457">
        <ele>159.60000610352</ele>
        <time>2023-05-26T06:40:32.000Z</time>
      </trkpt>
      <trkpt lat="43.71159" lon="3.41455">
        <ele>160</ele>
        <time>2023-05-26T06:40:35.000Z</time>
      </trkpt>
      <trkpt lat="43.71155" lon="3.41448">
        <ele>160.80000305176</ele>
        <time>2023-05-26T06:40:42.000Z</time>
      </trkpt>
      <trkpt lat="43.71154" lon="3.41447">
        <ele>161</ele>
        <time>2023-05-26T06:40:43.000Z</time>
      </trkpt>
      <trkpt lat="43.71149" lon="3.41437">
        <ele>161.60000610352</ele>
        <time>2023-05-26T06:40:51.000Z</time>
      </trkpt>
      <trkpt lat="43.71146" lon="3.41429">
        <ele>162</ele>
        <time>2023-05-26T06:40:58.000Z</time>
      </trkpt>
      <trkpt lat="43.71144" lon="3.41426">
        <ele>162</ele>
        <time>2023-05-26T06:41:00.000Z</time>
      </trkpt>
      <trkpt lat="43.71139" lon="3.41412">
        <ele>162.39999389648</ele>
        <time>2023-05-26T06:41:11.000Z</time>
      </trkpt>
      <trkpt lat="43.71134" lon="3.414">
        <ele>163</ele>
        <time>2023-05-26T06:41:20.000Z</time>
      </trkpt>
      <trkpt lat="43.71133" lon="3.41399">
        <ele>163</ele>
        <time>2023-05-26T06:41:21.000Z</time>
      </trkpt>
      <trkpt lat="43.71129" lon="3.41387">
        <ele>163.19999694824</ele>
        <time>2023-05-26T06:41:30.000Z</time>
      </trkpt>
      <trkpt lat="43.71124" lon="3.41374">
        <ele>163.60000610352</ele>
        <time>2023-05-26T06:41:40.000Z</time>
      </trkpt>
      <trkpt lat="43.7112" lon="3.41364">
        <ele>163.80000305176</ele>
        <time>2023-05-26T06:41:48.000Z</time>
      </trkpt>
      <trkpt lat="43.71115" lon="3.41352">
        <ele>164</ele>
        <time>2023-05-26T06:41:57.000Z</time>
      </trkpt>
      <trkpt lat="43.71112" lon="3.41341">
        <ele>164.19999694824</ele>
        <time>2023-05-26T06:42:06.000Z</time>
      </trkpt>
      <trkpt lat="43.7111" lon="3.41334">
        <ele>164.80000305176</ele>
        <time>2023-05-26T06:42:12.000Z</time>
      </trkpt>
      <trkpt lat="43.7111" lon="3.4133">
        <ele>165.19999694824</ele>
        <time>2023-05-26T06:42:16.000Z</time>
      </trkpt>
      <trkpt lat="43.7111" lon="3.41328">
        <ele>165.19999694824</ele>
        <time>2023-05-26T06:42:17.000Z</time>
      </trkpt>
      <trkpt lat="43.71114" lon="3.41325">
        <ele>165.39999389648</ele>
        <time>2023-05-26T06:42:22.000Z</time>
      </trkpt>
      <trkpt lat="43.71116" lon="3.41326">
        <ele>165.60000610352</ele>
        <time>2023-05-26T06:42:25.000Z</time>
      </trkpt>
      <trkpt lat="43.71121" lon="3.41327">
        <ele>165.60000610352</ele>
        <time>2023-05-26T06:42:30.000Z</time>
      </trkpt>
      <trkpt lat="43.71127" lon="3.41329">
        <ele>165.60000610352</ele>
        <time>2023-05-26T06:42:37.000Z</time>
      </trkpt>
      <trkpt lat="43.71129" lon="3.4133">
        <ele>165.60000610352</ele>
        <time>2023-05-26T06:42:43.000Z</time>
      </trkpt>
      <trkpt lat="43.71133" lon="3.41329">
        <ele>165.60000610352</ele>
        <time>2023-05-26T06:42:54.000Z</time>
      </trkpt>
      <trkpt lat="43.71141" lon="3.41327">
        <ele>165.80000305176</ele>
        <time>2023-05-26T06:43:03.000Z</time>
      </trkpt>
      <trkpt lat="43.71147" lon="3.41325">
        <ele>166.19999694824</ele>
        <time>2023-05-26T06:43:09.000Z</time>
      </trkpt>
      <trkpt lat="43.71148" lon="3.41324">
        <ele>166.19999694824</ele>
        <time>2023-05-26T06:43:10.000Z</time>
      </trkpt>
      <trkpt lat="43.7115" lon="3.41324">
        <ele>166.19999694824</ele>
        <time>2023-05-26T06:43:12.000Z</time>
      </trkpt>
      <trkpt lat="43.71155" lon="3.41322">
        <ele>166.60000610352</ele>
        <time>2023-05-26T06:43:17.000Z</time>
      </trkpt>
      <trkpt lat="43.71162" lon="3.41319">
        <ele>167</ele>
        <time>2023-05-26T06:43:25.000Z</time>
      </trkpt>
      <trkpt lat="43.71166" lon="3.41317">
        <ele>167.19999694824</ele>
        <time>2023-05-26T06:43:29.000Z</time>
      </trkpt>
      <trkpt lat="43.7117" lon="3.41315">
        <ele>167.19999694824</ele>
        <time>2023-05-26T06:43:33.000Z</time>
      </trkpt>
      <trkpt lat="43.71176" lon="3.4131">
        <ele>167.60000610352</ele>
        <time>2023-05-26T06:43:40.000Z</time>
      </trkpt>
      <trkpt lat="43.71183" lon="3.41306">
        <ele>168.19999694824</ele>
        <time>2023-05-26T06:43:47.000Z</time>
      </trkpt>
      <trkpt lat="43.71184" lon="3.41305">
        <ele>168.19999694824</ele>
        <time>2023-05-26T06:43:48.000Z</time>
      </trkpt>
      <trkpt lat="43.7119" lon="3.41301">
        <ele>168.60000610352</ele>
        <time>2023-05-26T06:43:55.000Z</time>
      </trkpt>
      <trkpt lat="43.71193" lon="3.41298">
        <ele>168.80000305176</ele>
        <time>2023-05-26T06:43:59.000Z</time>
      </trkpt>
      <trkpt lat="43.71199" lon="3.41296">
        <ele>169</ele>
        <time>2023-05-26T06:44:05.000Z</time>
      </trkpt>
      <trkpt lat="43.71202" lon="3.41294">
        <ele>169.19999694824</ele>
        <time>2023-05-26T06:44:08.000Z</time>
      </trkpt>
      <trkpt lat="43.71208" lon="3.41293">
        <ele>169.60000610352</ele>
        <time>2023-05-26T06:44:14.000Z</time>
      </trkpt>
      <trkpt lat="43.71213" lon="3.41292">
        <ele>170.19999694824</ele>
        <time>2023-05-26T06:44:21.000Z</time>
      </trkpt>
      <trkpt lat="43.71213" lon="3.41292">
        <ele>170.39999389648</ele>
        <time>2023-05-26T06:44:23.000Z</time>
      </trkpt>
      <trkpt lat="43.71214" lon="3.41291">
        <ele>170.80000305176</ele>
        <time>2023-05-26T06:44:31.000Z</time>
      </trkpt>
      <trkpt lat="43.71217" lon="3.41293">
        <ele>170.60000610352</ele>
        <time>2023-05-26T06:44:39.000Z</time>
      </trkpt>
      <trkpt lat="43.71226" lon="3.41294">
        <ele>170.80000305176</ele>
        <time>2023-05-26T06:44:49.000Z</time>
      </trkpt>
      <trkpt lat="43.71233" lon="3.41295">
        <ele>170.60000610352</ele>
        <time>2023-05-26T06:44:56.000Z</time>
      </trkpt>
      <trkpt lat="43.71242" lon="3.41297">
        <ele>170.39999389648</ele>
        <time>2023-05-26T06:45:04.000Z</time>
      </trkpt>
      <trkpt lat="43.7125" lon="3.41298">
        <ele>170.19999694824</ele>
        <time>2023-05-26T06:45:12.000Z</time>
      </trkpt>
      <trkpt lat="43.71251" lon="3.41297">
        <ele>170.39999389648</ele>
        <time>2023-05-26T06:45:13.000Z</time>
      </trkpt>
      <trkpt lat="43.71257" lon="3.41295">
        <ele>171</ele>
        <time>2023-05-26T06:45:18.000Z</time>
      </trkpt>
      <trkpt lat="43.71259" lon="3.41294">
        <ele>171</ele>
        <time>2023-05-26T06:45:20.000Z</time>
      </trkpt>
      <trkpt lat="43.71261" lon="3.41293">
        <ele>171.39999389648</ele>
        <time>2023-05-26T06:45:22.000Z</time>
      </trkpt>
      <trkpt lat="43.71267" lon="3.4129">
        <ele>172.19999694824</ele>
        <time>2023-05-26T06:45:29.000Z</time>
      </trkpt>
      <trkpt lat="43.71269" lon="3.41289">
        <ele>172.39999389648</ele>
        <time>2023-05-26T06:45:31.000Z</time>
      </trkpt>
      <trkpt lat="43.71276" lon="3.41288">
        <ele>173</ele>
        <time>2023-05-26T06:45:38.000Z</time>
      </trkpt>
      <trkpt lat="43.71277" lon="3.41288">
        <ele>173.39999389648</ele>
        <time>2023-05-26T06:45:43.000Z</time>
      </trkpt>
      <trkpt lat="43.71277" lon="3.41288">
        <ele>173.39999389648</ele>
        <time>2023-05-26T06:45:44.000Z</time>
      </trkpt>
      <trkpt lat="43.71278" lon="3.41288">
        <ele>173.80000305176</ele>
        <time>2023-05-26T06:45:51.000Z</time>
      </trkpt>
      <trkpt lat="43.7128" lon="3.41286">
        <ele>173.60000610352</ele>
        <time>2023-05-26T06:45:56.000Z</time>
      </trkpt>
      <trkpt lat="43.71287" lon="3.41281">
        <ele>174.19999694824</ele>
        <time>2023-05-26T06:46:04.000Z</time>
      </trkpt>
      <trkpt lat="43.71294" lon="3.41275">
        <ele>174.19999694824</ele>
        <time>2023-05-26T06:46:12.000Z</time>
      </trkpt>
      <trkpt lat="43.71303" lon="3.41269">
        <ele>174.39999389648</ele>
        <time>2023-05-26T06:46:21.000Z</time>
      </trkpt>
      <trkpt lat="43.71307" lon="3.41265">
        <ele>174.39999389648</ele>
        <time>2023-05-26T06:46:26.000Z</time>
      </trkpt>
      <trkpt lat="43.71308" lon="3.41264">
        <ele>174.60000610352</ele>
        <time>2023-05-26T06:46:27.000Z</time>
      </trkpt>
      <trkpt lat="43.71318" lon="3.41257">
        <ele>175</ele>
        <time>2023-05-26T06:46:38.000Z</time>
      </trkpt>
      <trkpt lat="43.71321" lon="3.41254">
        <ele>175.19999694824</ele>
        <time>2023-05-26T06:46:42.000Z</time>
      </trkpt>
      <trkpt lat="43.71324" lon="3.41252">
        <ele>175</ele>
        <time>2023-05-26T06:46:45.000Z</time>
      </trkpt>
      <trkpt lat="43.71332" lon="3.41248">
        <ele>174.60000610352</ele>
        <time>2023-05-26T06:46:53.000Z</time>
      </trkpt>
      <trkpt lat="43.71336" lon="3.41245">
        <ele>174.80000305176</ele>
        <time>2023-05-26T06:46:57.000Z</time>
      </trkpt>
      <trkpt lat="43.71338" lon="3.41244">
        <ele>174.80000305176</ele>
        <time>2023-05-26T06:47:00.000Z</time>
      </trkpt>
      <trkpt lat="43.71339" lon="3.41243">
        <ele>175</ele>
        <time>2023-05-26T06:47:02.000Z</time>
      </trkpt>
      <trkpt lat="43.71342" lon="3.41241">
        <ele>175.19999694824</ele>
        <time>2023-05-26T06:47:05.000Z</time>
      </trkpt>
      <trkpt lat="43.71344" lon="3.41239">
        <ele>175.19999694824</ele>
        <time>2023-05-26T06:47:07.000Z</time>
      </trkpt>
      <trkpt lat="43.7135" lon="3.41234">
        <ele>174.80000305176</ele>
        <time>2023-05-26T06:47:14.000Z</time>
      </trkpt>
      <trkpt lat="43.71359" lon="3.41227">
        <ele>174.60000610352</ele>
        <time>2023-05-26T06:47:24.000Z</time>
      </trkpt>
      <trkpt lat="43.71364" lon="3.4122">
        <ele>174.39999389648</ele>
        <time>2023-05-26T06:47:31.000Z</time>
      </trkpt>
      <trkpt lat="43.71364" lon="3.41219">
        <ele>174.39999389648</ele>
        <time>2023-05-26T06:47:32.000Z</time>
      </trkpt>
      <trkpt lat="43.71369" lon="3.41212">
        <ele>174</ele>
        <time>2023-05-26T06:47:39.000Z</time>
      </trkpt>
      <trkpt lat="43.71369" lon="3.41211">
        <ele>173.80000305176</ele>
        <time>2023-05-26T06:47:40.000Z</time>
      </trkpt>
      <trkpt lat="43.71372" lon="3.41208">
        <ele>173.80000305176</ele>
        <time>2023-05-26T06:47:44.000Z</time>
      </trkpt>
      <trkpt lat="43.71375" lon="3.41205">
        <ele>173.39999389648</ele>
        <time>2023-05-26T06:47:49.000Z</time>
      </trkpt>
      <trkpt lat="43.71377" lon="3.41203">
        <ele>173.19999694824</ele>
        <time>2023-05-26T06:47:52.000Z</time>
      </trkpt>
      <trkpt lat="43.7138" lon="3.412">
        <ele>173.19999694824</ele>
        <time>2023-05-26T06:47:55.000Z</time>
      </trkpt>
      <trkpt lat="43.71384" lon="3.41199">
        <ele>173</ele>
        <time>2023-05-26T06:47:59.000Z</time>
      </trkpt>
      <trkpt lat="43.71388" lon="3.41199">
        <ele>172.39999389648</ele>
        <time>2023-05-26T06:48:05.000Z</time>
      </trkpt>
      <trkpt lat="43.71389" lon="3.412">
        <ele>172.39999389648</ele>
        <time>2023-05-26T06:48:06.000Z</time>
      </trkpt>
      <trkpt lat="43.71394" lon="3.41205">
        <ele>171.80000305176</ele>
        <time>2023-05-26T06:48:11.000Z</time>
      </trkpt>
      <trkpt lat="43.71394" lon="3.41206">
        <ele>171.60000610352</ele>
        <time>2023-05-26T06:48:12.000Z</time>
      </trkpt>
      <trkpt lat="43.71395" lon="3.41209">
        <ele>171.19999694824</ele>
        <time>2023-05-26T06:48:14.000Z</time>
      </trkpt>
      <trkpt lat="43.71395" lon="3.4121">
        <ele>171</ele>
        <time>2023-05-26T06:48:15.000Z</time>
      </trkpt>
      <trkpt lat="43.71395" lon="3.41213">
        <ele>170.80000305176</ele>
        <time>2023-05-26T06:48:17.000Z</time>
      </trkpt>
      <trkpt lat="43.71394" lon="3.41225">
        <ele>170.60000610352</ele>
        <time>2023-05-26T06:48:25.000Z</time>
      </trkpt>
      <trkpt lat="43.71393" lon="3.41226">
        <ele>170.60000610352</ele>
        <time>2023-05-26T06:48:26.000Z</time>
      </trkpt>
      <trkpt lat="43.71393" lon="3.4124">
        <ele>170.80000305176</ele>
        <time>2023-05-26T06:48:36.000Z</time>
      </trkpt>
      <trkpt lat="43.71394" lon="3.41252">
        <ele>170.80000305176</ele>
        <time>2023-05-26T06:48:45.000Z</time>
      </trkpt>
      <trkpt lat="43.71396" lon="3.41259">
        <ele>171.80000305176</ele>
        <time>2023-05-26T06:48:52.000Z</time>
      </trkpt>
      <trkpt lat="43.71397" lon="3.41261">
        <ele>172</ele>
        <time>2023-05-26T06:48:54.000Z</time>
      </trkpt>
      <trkpt lat="43.71398" lon="3.41264">
        <ele>172.19999694824</ele>
        <time>2023-05-26T06:48:57.000Z</time>
      </trkpt>
      <trkpt lat="43.71399" lon="3.41265">
        <ele>172.39999389648</ele>
        <time>2023-05-26T06:48:58.000Z</time>
      </trkpt>
      <trkpt lat="43.714" lon="3.41267">
        <ele>172.39999389648</ele>
        <time>2023-05-26T06:49:00.000Z</time>
      </trkpt>
      <trkpt lat="43.714" lon="3.41267">
        <ele>172.80000305176</ele>
        <time>2023-05-26T06:49:04.000Z</time>
      </trkpt>
      <trkpt lat="43.71404" lon="3.41271">
        <ele>173.19999694824</ele>
        <time>2023-05-26T06:49:11.000Z</time>
      </trkpt>
      <trkpt lat="43.71405" lon="3.41272">
        <ele>173.19999694824</ele>
        <time>2023-05-26T06:49:12.000Z</time>
      </trkpt>
      <trkpt lat="43.71413" lon="3.41275">
        <ele>174</ele>
        <time>2023-05-26T06:49:20.000Z</time>
      </trkpt>
      <trkpt lat="43.71416" lon="3.41276">
        <ele>174.39999389648</ele>
        <time>2023-05-26T06:49:23.000Z</time>
      </trkpt>
      <trkpt lat="43.7142" lon="3.41279">
        <ele>174.60000610352</ele>
        <time>2023-05-26T06:49:28.000Z</time>
      </trkpt>
      <trkpt lat="43.71421" lon="3.41279">
        <ele>174.60000610352</ele>
        <time>2023-05-26T06:49:29.000Z</time>
      </trkpt>
      <trkpt lat="43.71425" lon="3.41281">
        <ele>174.80000305176</ele>
        <time>2023-05-26T06:49:33.000Z</time>
      </trkpt>
      <trkpt lat="43.71435" lon="3.41281">
        <ele>175</ele>
        <time>2023-05-26T06:49:42.000Z</time>
      </trkpt>
      <trkpt lat="43.71437" lon="3.41281">
        <ele>175</ele>
        <time>2023-05-26T06:49:48.000Z</time>
      </trkpt>
      <trkpt lat="43.71444" lon="3.4128">
        <ele>175</ele>
        <time>2023-05-26T06:49:55.000Z</time>
      </trkpt>
      <trkpt lat="43.71451" lon="3.41279">
        <ele>175</ele>
        <time>2023-05-26T06:50:02.000Z</time>
      </trkpt>
      <trkpt lat="43.71463" lon="3.4128">
        <ele>175</ele>
        <time>2023-05-26T06:50:12.000Z</time>
      </trkpt>
      <trkpt lat="43.7147" lon="3.4128">
        <ele>175.19999694824</ele>
        <time>2023-05-26T06:50:19.000Z</time>
      </trkpt>
      <trkpt lat="43.71472" lon="3.4128">
        <ele>175.39999389648</ele>
        <time>2023-05-26T06:50:21.000Z</time>
      </trkpt>
      <trkpt lat="43.71476" lon="3.4128">
        <ele>175.19999694824</ele>
        <time>2023-05-26T06:50:25.000Z</time>
      </trkpt>
      <trkpt lat="43.71477" lon="3.4128">
        <ele>175.19999694824</ele>
        <time>2023-05-26T06:50:26.000Z</time>
      </trkpt>
      <trkpt lat="43.71484" lon="3.4128">
        <ele>175.19999694824</ele>
        <time>2023-05-26T06:50:32.000Z</time>
      </trkpt>
      <trkpt lat="43.71492" lon="3.41282">
        <ele>175.19999694824</ele>
        <time>2023-05-26T06:50:39.000Z</time>
      </trkpt>
      <trkpt lat="43.71497" lon="3.41285">
        <ele>175.39999389648</ele>
        <time>2023-05-26T06:50:45.000Z</time>
      </trkpt>
      <trkpt lat="43.71502" lon="3.41289">
        <ele>175.19999694824</ele>
        <time>2023-05-26T06:50:52.000Z</time>
      </trkpt>
      <trkpt lat="43.71505" lon="3.41289">
        <ele>175.39999389648</ele>
        <time>2023-05-26T06:50:56.000Z</time>
      </trkpt>
      <trkpt lat="43.71505" lon="3.41289">
        <ele>175.60000610352</ele>
        <time>2023-05-26T06:50:58.000Z</time>
      </trkpt>
      <trkpt lat="43.71505" lon="3.41288">
        <ele>175.80000305176</ele>
        <time>2023-05-26T06:51:09.000Z</time>
      </trkpt>
      <trkpt lat="43.71507" lon="3.41291">
        <ele>176</ele>
        <time>2023-05-26T06:51:16.000Z</time>
      </trkpt>
      <trkpt lat="43.71507" lon="3.41292">
        <ele>175.60000610352</ele>
        <time>2023-05-26T06:51:26.000Z</time>
      </trkpt>
      <trkpt lat="43.71509" lon="3.41291">
        <ele>176</ele>
        <time>2023-05-26T06:51:39.000Z</time>
      </trkpt>
      <trkpt lat="43.71509" lon="3.41292">
        <ele>176</ele>
        <time>2023-05-26T06:51:51.000Z</time>
      </trkpt>
      <trkpt lat="43.71509" lon="3.41293">
        <ele>176</ele>
        <time>2023-05-26T06:51:59.000Z</time>
      </trkpt>
      <trkpt lat="43.7151" lon="3.41293">
        <ele>176</ele>
        <time>2023-05-26T06:52:10.000Z</time>
      </trkpt>
      <trkpt lat="43.71511" lon="3.41295">
        <ele>175.60000610352</ele>
        <time>2023-05-26T06:52:23.000Z</time>
      </trkpt>
      <trkpt lat="43.7151" lon="3.41294">
        <ele>175.80000305176</ele>
        <time>2023-05-26T06:52:27.000Z</time>
      </trkpt>
      <trkpt lat="43.71509" lon="3.41296">
        <ele>175.80000305176</ele>
        <time>2023-05-26T06:52:35.000Z</time>
      </trkpt>
      <trkpt lat="43.71513" lon="3.41299">
        <ele>175</ele>
        <time>2023-05-26T06:52:40.000Z</time>
      </trkpt>
      <trkpt lat="43.7152" lon="3.41304">
        <ele>174.39999389648</ele>
        <time>2023-05-26T06:52:47.000Z</time>
      </trkpt>
      <trkpt lat="43.71525" lon="3.41305">
        <ele>174.19999694824</ele>
        <time>2023-05-26T06:52:51.000Z</time>
      </trkpt>
      <trkpt lat="43.71526" lon="3.41305">
        <ele>174.19999694824</ele>
        <time>2023-05-26T06:52:52.000Z</time>
      </trkpt>
      <trkpt lat="43.71526" lon="3.41305">
        <ele>174</ele>
        <time>2023-05-26T06:52:53.000Z</time>
      </trkpt>
      <trkpt lat="43.7153" lon="3.41305">
        <ele>173.60000610352</ele>
        <time>2023-05-26T06:52:57.000Z</time>
      </trkpt>
      <trkpt lat="43.71534" lon="3.41306">
        <ele>173.60000610352</ele>
        <time>2023-05-26T06:53:00.000Z</time>
      </trkpt>
      <trkpt lat="43.71543" lon="3.41306">
        <ele>173.39999389648</ele>
        <time>2023-05-26T06:53:09.000Z</time>
      </trkpt>
      <trkpt lat="43.7155" lon="3.41304">
        <ele>173.39999389648</ele>
        <time>2023-05-26T06:53:16.000Z</time>
      </trkpt>
      <trkpt lat="43.71558" lon="3.41302">
        <ele>173.80000305176</ele>
        <time>2023-05-26T06:53:25.000Z</time>
      </trkpt>
      <trkpt lat="43.71563" lon="3.41302">
        <ele>174.19999694824</ele>
        <time>2023-05-26T06:53:31.000Z</time>
      </trkpt>
      <trkpt lat="43.71566" lon="3.41301">
        <ele>174.80000305176</ele>
        <time>2023-05-26T06:53:34.000Z</time>
      </trkpt>
      <trkpt lat="43.7157" lon="3.41301">
        <ele>175.19999694824</ele>
        <time>2023-05-26T06:53:39.000Z</time>
      </trkpt>
      <trkpt lat="43.71571" lon="3.41301">
        <ele>175.39999389648</ele>
        <time>2023-05-26T06:53:40.000Z</time>
      </trkpt>
      <trkpt lat="43.71578" lon="3.41301">
        <ele>175.60000610352</ele>
        <time>2023-05-26T06:53:47.000Z</time>
      </trkpt>
      <trkpt lat="43.71587" lon="3.41301">
        <ele>175.39999389648</ele>
        <time>2023-05-26T06:53:55.000Z</time>
      </trkpt>
      <trkpt lat="43.71593" lon="3.41302">
        <ele>175.19999694824</ele>
        <time>2023-05-26T06:54:03.000Z</time>
      </trkpt>
      <trkpt lat="43.716" lon="3.41303">
        <ele>175.19999694824</ele>
        <time>2023-05-26T06:54:10.000Z</time>
      </trkpt>
      <trkpt lat="43.71607" lon="3.41304">
        <ele>174.60000610352</ele>
        <time>2023-05-26T06:54:17.000Z</time>
      </trkpt>
      <trkpt lat="43.71611" lon="3.41304">
        <ele>174.19999694824</ele>
        <time>2023-05-26T06:54:21.000Z</time>
      </trkpt>
      <trkpt lat="43.71614" lon="3.41304">
        <ele>174.19999694824</ele>
        <time>2023-05-26T06:54:24.000Z</time>
      </trkpt>
      <trkpt lat="43.71622" lon="3.41303">
        <ele>174</ele>
        <time>2023-05-26T06:54:32.000Z</time>
      </trkpt>
      <trkpt lat="43.71628" lon="3.41303">
        <ele>174</ele>
        <time>2023-05-26T06:54:39.000Z</time>
      </trkpt>
      <trkpt lat="43.71635" lon="3.41303">
        <ele>174.39999389648</ele>
        <time>2023-05-26T06:54:46.000Z</time>
      </trkpt>
      <trkpt lat="43.71642" lon="3.41304">
        <ele>174.60000610352</ele>
        <time>2023-05-26T06:54:53.000Z</time>
      </trkpt>
      <trkpt lat="43.71649" lon="3.41302">
        <ele>175.19999694824</ele>
        <time>2023-05-26T06:55:00.000Z</time>
      </trkpt>
      <trkpt lat="43.7165" lon="3.41302">
        <ele>175.39999389648</ele>
        <time>2023-05-26T06:55:01.000Z</time>
      </trkpt>
      <trkpt lat="43.71657" lon="3.41301">
        <ele>176.39999389648</ele>
        <time>2023-05-26T06:55:08.000Z</time>
      </trkpt>
      <trkpt lat="43.71664" lon="3.413">
        <ele>177.39999389648</ele>
        <time>2023-05-26T06:55:16.000Z</time>
      </trkpt>
      <trkpt lat="43.71665" lon="3.41299">
        <ele>177.39999389648</ele>
        <time>2023-05-26T06:55:17.000Z</time>
      </trkpt>
      <trkpt lat="43.71673" lon="3.41297">
        <ele>177.80000305176</ele>
        <time>2023-05-26T06:55:25.000Z</time>
      </trkpt>
      <trkpt lat="43.71682" lon="3.41294">
        <ele>178</ele>
        <time>2023-05-26T06:55:34.000Z</time>
      </trkpt>
      <trkpt lat="43.71688" lon="3.41291">
        <ele>178.19999694824</ele>
        <time>2023-05-26T06:55:42.000Z</time>
      </trkpt>
      <trkpt lat="43.71692" lon="3.41289">
        <ele>178.39999389648</ele>
        <time>2023-05-26T06:55:46.000Z</time>
      </trkpt>
      <trkpt lat="43.71695" lon="3.41288">
        <ele>178.39999389648</ele>
        <time>2023-05-26T06:55:49.000Z</time>
      </trkpt>
      <trkpt lat="43.71696" lon="3.41288">
        <ele>178.39999389648</ele>
        <time>2023-05-26T06:55:51.000Z</time>
      </trkpt>
      <trkpt lat="43.71697" lon="3.41288">
        <ele>178.60000610352</ele>
        <time>2023-05-26T06:55:52.000Z</time>
      </trkpt>
      <trkpt lat="43.71703" lon="3.41288">
        <ele>178.80000305176</ele>
        <time>2023-05-26T06:55:58.000Z</time>
      </trkpt>
      <trkpt lat="43.71708" lon="3.41288">
        <ele>179.19999694824</ele>
        <time>2023-05-26T06:56:05.000Z</time>
      </trkpt>
      <trkpt lat="43.71709" lon="3.41288">
        <ele>179.39999389648</ele>
        <time>2023-05-26T06:56:06.000Z</time>
      </trkpt>
      <trkpt lat="43.7171" lon="3.41288">
        <ele>179.39999389648</ele>
        <time>2023-05-26T06:56:07.000Z</time>
      </trkpt>
      <trkpt lat="43.71717" lon="3.41288">
        <ele>180.19999694824</ele>
        <time>2023-05-26T06:56:16.000Z</time>
      </trkpt>
      <trkpt lat="43.7172" lon="3.41288">
        <ele>180.60000610352</ele>
        <time>2023-05-26T06:56:20.000Z</time>
      </trkpt>
      <trkpt lat="43.71724" lon="3.41287">
        <ele>180.80000305176</ele>
        <time>2023-05-26T06:56:25.000Z</time>
      </trkpt>
      <trkpt lat="43.71725" lon="3.41286">
        <ele>181.19999694824</ele>
        <time>2023-05-26T06:56:32.000Z</time>
      </trkpt>
      <trkpt lat="43.71725" lon="3.41286">
        <ele>181.39999389648</ele>
        <time>2023-05-26T06:56:42.000Z</time>
      </trkpt>
      <trkpt lat="43.71729" lon="3.41284">
        <ele>181</ele>
        <time>2023-05-26T06:56:48.000Z</time>
      </trkpt>
      <trkpt lat="43.71735" lon="3.4128">
        <ele>181</ele>
        <time>2023-05-26T06:56:54.000Z</time>
      </trkpt>
      <trkpt lat="43.71736" lon="3.4128">
        <ele>181</ele>
        <time>2023-05-26T06:56:55.000Z</time>
      </trkpt>
      <trkpt lat="43.71746" lon="3.41274">
        <ele>180.39999389648</ele>
        <time>2023-05-26T06:57:04.000Z</time>
      </trkpt>
      <trkpt lat="43.71752" lon="3.4127">
        <ele>180.19999694824</ele>
        <time>2023-05-26T06:57:11.000Z</time>
      </trkpt>
      <trkpt lat="43.71756" lon="3.41268">
        <ele>179.80000305176</ele>
        <time>2023-05-26T06:57:15.000Z</time>
      </trkpt>
      <trkpt lat="43.71758" lon="3.41268">
        <ele>179.80000305176</ele>
        <time>2023-05-26T06:57:17.000Z</time>
      </trkpt>
      <trkpt lat="43.71762" lon="3.41266">
        <ele>179.60000610352</ele>
        <time>2023-05-26T06:57:22.000Z</time>
      </trkpt>
      <trkpt lat="43.71765" lon="3.41264">
        <ele>179.39999389648</ele>
        <time>2023-05-26T06:57:24.000Z</time>
      </trkpt>
      <trkpt lat="43.71766" lon="3.41264">
        <ele>179.39999389648</ele>
        <time>2023-05-26T06:57:25.000Z</time>
      </trkpt>
      <trkpt lat="43.71772" lon="3.4126">
        <ele>178.80000305176</ele>
        <time>2023-05-26T06:57:32.000Z</time>
      </trkpt>
      <trkpt lat="43.71776" lon="3.41257">
        <ele>178.39999389648</ele>
        <time>2023-05-26T06:57:38.000Z</time>
      </trkpt>
      <trkpt lat="43.7178" lon="3.41255">
        <ele>177.80000305176</ele>
        <time>2023-05-26T06:57:44.000Z</time>
      </trkpt>
      <trkpt lat="43.71784" lon="3.41254">
        <ele>177.39999389648</ele>
        <time>2023-05-26T06:57:48.000Z</time>
      </trkpt>
      <trkpt lat="43.7179" lon="3.41252">
        <ele>176.60000610352</ele>
        <time>2023-05-26T06:57:53.000Z</time>
      </trkpt>
      <trkpt lat="43.71797" lon="3.41251">
        <ele>176.39999389648</ele>
        <time>2023-05-26T06:57:59.000Z</time>
      </trkpt>
      <trkpt lat="43.71798" lon="3.41251">
        <ele>176.19999694824</ele>
        <time>2023-05-26T06:58:00.000Z</time>
      </trkpt>
      <trkpt lat="43.71807" lon="3.41248">
        <ele>175.19999694824</ele>
        <time>2023-05-26T06:58:07.000Z</time>
      </trkpt>
      <trkpt lat="43.71808" lon="3.41248">
        <ele>175.19999694824</ele>
        <time>2023-05-26T06:58:08.000Z</time>
      </trkpt>
      <trkpt lat="43.71817" lon="3.41244">
        <ele>175</ele>
        <time>2023-05-26T06:58:18.000Z</time>
      </trkpt>
      <trkpt lat="43.71826" lon="3.41239">
        <ele>175</ele>
        <time>2023-05-26T06:58:27.000Z</time>
      </trkpt>
      <trkpt lat="43.71833" lon="3.41234">
        <ele>175.39999389648</ele>
        <time>2023-05-26T06:58:34.000Z</time>
      </trkpt>
      <trkpt lat="43.71842" lon="3.4123">
        <ele>175.39999389648</ele>
        <time>2023-05-26T06:58:43.000Z</time>
      </trkpt>
      <trkpt lat="43.71849" lon="3.41228">
        <ele>175.39999389648</ele>
        <time>2023-05-26T06:58:50.000Z</time>
      </trkpt>
      <trkpt lat="43.71857" lon="3.41227">
        <ele>175.19999694824</ele>
        <time>2023-05-26T06:58:58.000Z</time>
      </trkpt>
      <trkpt lat="43.71865" lon="3.41227">
        <ele>175</ele>
        <time>2023-05-26T06:59:06.000Z</time>
      </trkpt>
      <trkpt lat="43.71872" lon="3.41227">
        <ele>174.80000305176</ele>
        <time>2023-05-26T06:59:13.000Z</time>
      </trkpt>
      <trkpt lat="43.71882" lon="3.41223">
        <ele>174.60000610352</ele>
        <time>2023-05-26T06:59:22.000Z</time>
      </trkpt>
      <trkpt lat="43.71884" lon="3.41222">
        <ele>174.60000610352</ele>
        <time>2023-05-26T06:59:26.000Z</time>
      </trkpt>
      <trkpt lat="43.71885" lon="3.41222">
        <ele>174.60000610352</ele>
        <time>2023-05-26T06:59:27.000Z</time>
      </trkpt>
      <trkpt lat="43.71888" lon="3.41221">
        <ele>174.60000610352</ele>
        <time>2023-05-26T06:59:34.000Z</time>
      </trkpt>
      <trkpt lat="43.71888" lon="3.41221">
        <ele>174.39999389648</ele>
        <time>2023-05-26T06:59:39.000Z</time>
      </trkpt>
      <trkpt lat="43.71887" lon="3.41219">
        <ele>174.39999389648</ele>
        <time>2023-05-26T06:59:45.000Z</time>
      </trkpt>
      <trkpt lat="43.71889" lon="3.41216">
        <ele>174.80000305176</ele>
        <time>2023-05-26T06:59:51.000Z</time>
      </trkpt>
      <trkpt lat="43.71891" lon="3.41213">
        <ele>175.19999694824</ele>
        <time>2023-05-26T06:59:57.000Z</time>
      </trkpt>
      <trkpt lat="43.71892" lon="3.41211">
        <ele>176</ele>
        <time>2023-05-26T07:00:04.000Z</time>
      </trkpt>
      <trkpt lat="43.71893" lon="3.41209">
        <ele>176.39999389648</ele>
        <time>2023-05-26T07:00:07.000Z</time>
      </trkpt>
      <trkpt lat="43.71894" lon="3.41208">
        <ele>176.39999389648</ele>
        <time>2023-05-26T07:00:09.000Z</time>
      </trkpt>
      <trkpt lat="43.71896" lon="3.41206">
        <ele>176.80000305176</ele>
        <time>2023-05-26T07:00:14.000Z</time>
      </trkpt>
      <trkpt lat="43.71896" lon="3.41205">
        <ele>177.39999389648</ele>
        <time>2023-05-26T07:00:21.000Z</time>
      </trkpt>
      <trkpt lat="43.71898" lon="3.41203">
        <ele>177.60000610352</ele>
        <time>2023-05-26T07:00:23.000Z</time>
      </trkpt>
      <trkpt lat="43.71901" lon="3.41201">
        <ele>178.19999694824</ele>
        <time>2023-05-26T07:00:30.000Z</time>
      </trkpt>
      <trkpt lat="43.71901" lon="3.41199">
        <ele>178.39999389648</ele>
        <time>2023-05-26T07:00:34.000Z</time>
      </trkpt>
      <trkpt lat="43.71901" lon="3.41199">
        <ele>178.60000610352</ele>
        <time>2023-05-26T07:00:36.000Z</time>
      </trkpt>
      <trkpt lat="43.71902" lon="3.41197">
        <ele>179.60000610352</ele>
        <time>2023-05-26T07:00:42.000Z</time>
      </trkpt>
      <trkpt lat="43.71903" lon="3.41196">
        <ele>179.60000610352</ele>
        <time>2023-05-26T07:00:43.000Z</time>
      </trkpt>
      <trkpt lat="43.71905" lon="3.41195">
        <ele>180</ele>
        <time>2023-05-26T07:00:50.000Z</time>
      </trkpt>
      <trkpt lat="43.71907" lon="3.41194">
        <ele>180.60000610352</ele>
        <time>2023-05-26T07:00:55.000Z</time>
      </trkpt>
      <trkpt lat="43.71907" lon="3.41193">
        <ele>180.80000305176</ele>
        <time>2023-05-26T07:00:57.000Z</time>
      </trkpt>
      <trkpt lat="43.71908" lon="3.41192">
        <ele>181.60000610352</ele>
        <time>2023-05-26T07:01:03.000Z</time>
      </trkpt>
      <trkpt lat="43.71909" lon="3.41193">
        <ele>181.80000305176</ele>
        <time>2023-05-26T07:01:05.000Z</time>
      </trkpt>
      <trkpt lat="43.71909" lon="3.41187">
        <ele>182</ele>
        <time>2023-05-26T07:01:11.000Z</time>
      </trkpt>
      <trkpt lat="43.7191" lon="3.41185">
        <ele>182.60000610352</ele>
        <time>2023-05-26T07:01:18.000Z</time>
      </trkpt>
      <trkpt lat="43.71911" lon="3.41183">
        <ele>182.80000305176</ele>
        <time>2023-05-26T07:01:19.000Z</time>
      </trkpt>
      <trkpt lat="43.71913" lon="3.41181">
        <ele>183</ele>
        <time>2023-05-26T07:01:25.000Z</time>
      </trkpt>
      <trkpt lat="43.71913" lon="3.4118">
        <ele>183.60000610352</ele>
        <time>2023-05-26T07:01:30.000Z</time>
      </trkpt>
      <trkpt lat="43.71913" lon="3.41179">
        <ele>183.60000610352</ele>
        <time>2023-05-26T07:01:31.000Z</time>
      </trkpt>
      <trkpt lat="43.71916" lon="3.41175">
        <ele>184.19999694824</ele>
        <time>2023-05-26T07:01:37.000Z</time>
      </trkpt>
      <trkpt lat="43.71918" lon="3.41173">
        <ele>184.80000305176</ele>
        <time>2023-05-26T07:01:42.000Z</time>
      </trkpt>
      <trkpt lat="43.71918" lon="3.41173">
        <ele>185</ele>
        <time>2023-05-26T07:01:44.000Z</time>
      </trkpt>
      <trkpt lat="43.7192" lon="3.41169">
        <ele>185.80000305176</ele>
        <time>2023-05-26T07:01:52.000Z</time>
      </trkpt>
      <trkpt lat="43.7192" lon="3.41169">
        <ele>185.80000305176</ele>
        <time>2023-05-26T07:01:53.000Z</time>
      </trkpt>
      <trkpt lat="43.71922" lon="3.41167">
        <ele>186.39999389648</ele>
        <time>2023-05-26T07:02:00.000Z</time>
      </trkpt>
      <trkpt lat="43.71925" lon="3.41164">
        <ele>186.80000305176</ele>
        <time>2023-05-26T07:02:06.000Z</time>
      </trkpt>
      <trkpt lat="43.71925" lon="3.41163">
        <ele>187</ele>
        <time>2023-05-26T07:02:09.000Z</time>
      </trkpt>
      <trkpt lat="43.71925" lon="3.4116">
        <ele>187.19999694824</ele>
        <time>2023-05-26T07:02:13.000Z</time>
      </trkpt>
      <trkpt lat="43.71927" lon="3.4116">
        <ele>188</ele>
        <time>2023-05-26T07:02:18.000Z</time>
      </trkpt>
      <trkpt lat="43.71928" lon="3.41159">
        <ele>188.19999694824</ele>
        <time>2023-05-26T07:02:21.000Z</time>
      </trkpt>
      <trkpt lat="43.7193" lon="3.41156">
        <ele>189</ele>
        <time>2023-05-26T07:02:27.000Z</time>
      </trkpt>
      <trkpt lat="43.7193" lon="3.41156">
        <ele>189</ele>
        <time>2023-05-26T07:02:28.000Z</time>
      </trkpt>
      <trkpt lat="43.71931" lon="3.41154">
        <ele>189.60000610352</ele>
        <time>2023-05-26T07:02:34.000Z</time>
      </trkpt>
      <trkpt lat="43.71932" lon="3.41152">
        <ele>190</ele>
        <time>2023-05-26T07:02:40.000Z</time>
      </trkpt>
      <trkpt lat="43.71933" lon="3.4115">
        <ele>190.80000305176</ele>
        <time>2023-05-26T07:02:46.000Z</time>
      </trkpt>
      <trkpt lat="43.71936" lon="3.41147">
        <ele>191</ele>
        <time>2023-05-26T07:02:49.000Z</time>
      </trkpt>
      <trkpt lat="43.71937" lon="3.41146">
        <ele>191.39999389648</ele>
        <time>2023-05-26T07:02:52.000Z</time>
      </trkpt>
      <trkpt lat="43.71939" lon="3.41144">
        <ele>192</ele>
        <time>2023-05-26T07:02:59.000Z</time>
      </trkpt>
      <trkpt lat="43.71938" lon="3.41144">
        <ele>192</ele>
        <time>2023-05-26T07:03:00.000Z</time>
      </trkpt>
      <trkpt lat="43.7194" lon="3.41141">
        <ele>192.60000610352</ele>
        <time>2023-05-26T07:03:07.000Z</time>
      </trkpt>
      <trkpt lat="43.71943" lon="3.41137">
        <ele>193</ele>
        <time>2023-05-26T07:03:12.000Z</time>
      </trkpt>
      <trkpt lat="43.71943" lon="3.41137">
        <ele>193.19999694824</ele>
        <time>2023-05-26T07:03:14.000Z</time>
      </trkpt>
      <trkpt lat="43.71946" lon="3.41135">
        <ele>193.39999389648</ele>
        <time>2023-05-26T07:03:18.000Z</time>
      </trkpt>
      <trkpt lat="43.71948" lon="3.41132">
        <ele>194.19999694824</ele>
        <time>2023-05-26T07:03:25.000Z</time>
      </trkpt>
      <trkpt lat="43.71948" lon="3.41131">
        <ele>194.19999694824</ele>
        <time>2023-05-26T07:03:26.000Z</time>
      </trkpt>
      <trkpt lat="43.71949" lon="3.4113">
        <ele>194.80000305176</ele>
        <time>2023-05-26T07:03:32.000Z</time>
      </trkpt>
      <trkpt lat="43.71952" lon="3.41127">
        <ele>195.19999694824</ele>
        <time>2023-05-26T07:03:39.000Z</time>
      </trkpt>
      <trkpt lat="43.71953" lon="3.41125">
        <ele>195.60000610352</ele>
        <time>2023-05-26T07:03:45.000Z</time>
      </trkpt>
      <trkpt lat="43.71953" lon="3.41124">
        <ele>196.19999694824</ele>
        <time>2023-05-26T07:03:50.000Z</time>
      </trkpt>
      <trkpt lat="43.71954" lon="3.41124">
        <ele>196.39999389648</ele>
        <time>2023-05-26T07:03:52.000Z</time>
      </trkpt>
      <trkpt lat="43.71956" lon="3.41121">
        <ele>196.80000305176</ele>
        <time>2023-05-26T07:03:59.000Z</time>
      </trkpt>
      <trkpt lat="43.71957" lon="3.41117">
        <ele>197.39999389648</ele>
        <time>2023-05-26T07:04:06.000Z</time>
      </trkpt>
      <trkpt lat="43.71961" lon="3.41111">
        <ele>197.80000305176</ele>
        <time>2023-05-26T07:04:14.000Z</time>
      </trkpt>
      <trkpt lat="43.71963" lon="3.41105">
        <ele>198.19999694824</ele>
        <time>2023-05-26T07:04:21.000Z</time>
      </trkpt>
      <trkpt lat="43.71964" lon="3.41104">
        <ele>198.39999389648</ele>
        <time>2023-05-26T07:04:23.000Z</time>
      </trkpt>
      <trkpt lat="43.71965" lon="3.41102">
        <ele>198.80000305176</ele>
        <time>2023-05-26T07:04:28.000Z</time>
      </trkpt>
      <trkpt lat="43.71967" lon="3.41098">
        <ele>199.39999389648</ele>
        <time>2023-05-26T07:04:34.000Z</time>
      </trkpt>
      <trkpt lat="43.71967" lon="3.41097">
        <ele>199.39999389648</ele>
        <time>2023-05-26T07:04:35.000Z</time>
      </trkpt>
      <trkpt lat="43.71967" lon="3.4109">
        <ele>200.19999694824</ele>
        <time>2023-05-26T07:04:42.000Z</time>
      </trkpt>
      <trkpt lat="43.71965" lon="3.41087">
        <ele>200.39999389648</ele>
        <time>2023-05-26T07:04:45.000Z</time>
      </trkpt>
      <trkpt lat="43.71963" lon="3.41084">
        <ele>200.60000610352</ele>
        <time>2023-05-26T07:04:49.000Z</time>
      </trkpt>
      <trkpt lat="43.71958" lon="3.41074">
        <ele>201.19999694824</ele>
        <time>2023-05-26T07:04:58.000Z</time>
      </trkpt>
      <trkpt lat="43.71957" lon="3.41071">
        <ele>201.39999389648</ele>
        <time>2023-05-26T07:05:02.000Z</time>
      </trkpt>
      <trkpt lat="43.71956" lon="3.4107">
        <ele>201.39999389648</ele>
        <time>2023-05-26T07:05:03.000Z</time>
      </trkpt>
      <trkpt lat="43.71956" lon="3.41068">
        <ele>201.60000610352</ele>
        <time>2023-05-26T07:05:05.000Z</time>
      </trkpt>
      <trkpt lat="43.71955" lon="3.41062">
        <ele>201.80000305176</ele>
        <time>2023-05-26T07:05:11.000Z</time>
      </trkpt>
      <trkpt lat="43.71954" lon="3.41056">
        <ele>202.39999389648</ele>
        <time>2023-05-26T07:05:18.000Z</time>
      </trkpt>
      <trkpt lat="43.71953" lon="3.41051">
        <ele>202.39999389648</ele>
        <time>2023-05-26T07:05:23.000Z</time>
      </trkpt>
      <trkpt lat="43.71953" lon="3.4105">
        <ele>202.39999389648</ele>
        <time>2023-05-26T07:05:24.000Z</time>
      </trkpt>
      <trkpt lat="43.71953" lon="3.41045">
        <ele>202.80000305176</ele>
        <time>2023-05-26T07:05:30.000Z</time>
      </trkpt>
      <trkpt lat="43.71952" lon="3.4104">
        <ele>203.19999694824</ele>
        <time>2023-05-26T07:05:36.000Z</time>
      </trkpt>
      <trkpt lat="43.71953" lon="3.41037">
        <ele>203.39999389648</ele>
        <time>2023-05-26T07:05:40.000Z</time>
      </trkpt>
      <trkpt lat="43.71953" lon="3.41036">
        <ele>203.39999389648</ele>
        <time>2023-05-26T07:05:41.000Z</time>
      </trkpt>
      <trkpt lat="43.71954" lon="3.41028">
        <ele>204</ele>
        <time>2023-05-26T07:05:49.000Z</time>
      </trkpt>
      <trkpt lat="43.71957" lon="3.41023">
        <ele>204.60000610352</ele>
        <time>2023-05-26T07:05:57.000Z</time>
      </trkpt>
      <trkpt lat="43.71963" lon="3.41016">
        <ele>205</ele>
        <time>2023-05-26T07:06:04.000Z</time>
      </trkpt>
      <trkpt lat="43.71963" lon="3.41015">
        <ele>205</ele>
        <time>2023-05-26T07:06:05.000Z</time>
      </trkpt>
      <trkpt lat="43.71965" lon="3.41012">
        <ele>205.19999694824</ele>
        <time>2023-05-26T07:06:08.000Z</time>
      </trkpt>
      <trkpt lat="43.71967" lon="3.4101">
        <ele>205.39999389648</ele>
        <time>2023-05-26T07:06:10.000Z</time>
      </trkpt>
      <trkpt lat="43.71968" lon="3.41008">
        <ele>205.60000610352</ele>
        <time>2023-05-26T07:06:12.000Z</time>
      </trkpt>
      <trkpt lat="43.7197" lon="3.41006">
        <ele>206</ele>
        <time>2023-05-26T07:06:15.000Z</time>
      </trkpt>
      <trkpt lat="43.7197" lon="3.41003">
        <ele>206</ele>
        <time>2023-05-26T07:06:18.000Z</time>
      </trkpt>
      <trkpt lat="43.71971" lon="3.40999">
        <ele>206.19999694824</ele>
        <time>2023-05-26T07:06:21.000Z</time>
      </trkpt>
      <trkpt lat="43.71971" lon="3.40999">
        <ele>206.19999694824</ele>
        <time>2023-05-26T07:06:22.000Z</time>
      </trkpt>
      <trkpt lat="43.71974" lon="3.40995">
        <ele>206.60000610352</ele>
        <time>2023-05-26T07:06:26.000Z</time>
      </trkpt>
      <trkpt lat="43.71974" lon="3.40995">
        <ele>206.60000610352</ele>
        <time>2023-05-26T07:06:29.000Z</time>
      </trkpt>
      <trkpt lat="43.71974" lon="3.40994">
        <ele>206.80000305176</ele>
        <time>2023-05-26T07:06:35.000Z</time>
      </trkpt>
      <trkpt lat="43.71973" lon="3.40992">
        <ele>207.19999694824</ele>
        <time>2023-05-26T07:06:43.000Z</time>
      </trkpt>
      <trkpt lat="43.71974" lon="3.40991">
        <ele>207.19999694824</ele>
        <time>2023-05-26T07:06:48.000Z</time>
      </trkpt>
      <trkpt lat="43.71974" lon="3.40989">
        <ele>207</ele>
        <time>2023-05-26T07:06:55.000Z</time>
      </trkpt>
      <trkpt lat="43.71974" lon="3.40989">
        <ele>207.39999389648</ele>
        <time>2023-05-26T07:07:03.000Z</time>
      </trkpt>
      <trkpt lat="43.71974" lon="3.40989">
        <ele>206.80000305176</ele>
        <time>2023-05-26T07:07:14.000Z</time>
      </trkpt>
      <trkpt lat="43.71975" lon="3.40989">
        <ele>207</ele>
        <time>2023-05-26T07:07:20.000Z</time>
      </trkpt>
      <trkpt lat="43.71975" lon="3.40989">
        <ele>207.19999694824</ele>
        <time>2023-05-26T07:07:32.000Z</time>
      </trkpt>
      <trkpt lat="43.71976" lon="3.40989">
        <ele>206.80000305176</ele>
        <time>2023-05-26T07:07:37.000Z</time>
      </trkpt>
      <trkpt lat="43.71975" lon="3.40989">
        <ele>207.19999694824</ele>
        <time>2023-05-26T07:07:43.000Z</time>
      </trkpt>
      <trkpt lat="43.71976" lon="3.40989">
        <ele>207.60000610352</ele>
        <time>2023-05-26T07:07:47.000Z</time>
      </trkpt>
      <trkpt lat="43.71977" lon="3.40988">
        <ele>207.80000305176</ele>
        <time>2023-05-26T07:07:57.000Z</time>
      </trkpt>
      <trkpt lat="43.71975" lon="3.40987">
        <ele>207.80000305176</ele>
        <time>2023-05-26T07:08:08.000Z</time>
      </trkpt>
      <trkpt lat="43.71976" lon="3.40987">
        <ele>206.80000305176</ele>
        <time>2023-05-26T07:08:16.000Z</time>
      </trkpt>
      <trkpt lat="43.71976" lon="3.40987">
        <ele>207.19999694824</ele>
        <time>2023-05-26T07:08:21.000Z</time>
      </trkpt>
      <trkpt lat="43.71978" lon="3.40984">
        <ele>207</ele>
        <time>2023-05-26T07:08:28.000Z</time>
      </trkpt>
      <trkpt lat="43.7198" lon="3.40985">
        <ele>207</ele>
        <time>2023-05-26T07:08:34.000Z</time>
      </trkpt>
      <trkpt lat="43.71979" lon="3.40985">
        <ele>207</ele>
        <time>2023-05-26T07:08:41.000Z</time>
      </trkpt>
      <trkpt lat="43.71978" lon="3.40986">
        <ele>206.80000305176</ele>
        <time>2023-05-26T07:08:53.000Z</time>
      </trkpt>
      <trkpt lat="43.71979" lon="3.40988">
        <ele>206.80000305176</ele>
        <time>2023-05-26T07:09:06.000Z</time>
      </trkpt>
      <trkpt lat="43.71979" lon="3.40988">
        <ele>206.80000305176</ele>
        <time>2023-05-26T07:09:15.000Z</time>
      </trkpt>
      <trkpt lat="43.71979" lon="3.40988">
        <ele>206.80000305176</ele>
        <time>2023-05-26T07:09:28.000Z</time>
      </trkpt>
      <trkpt lat="43.71979" lon="3.40989">
        <ele>206.80000305176</ele>
        <time>2023-05-26T07:09:40.000Z</time>
      </trkpt>
      <trkpt lat="43.7198" lon="3.40988">
        <ele>207</ele>
        <time>2023-05-26T07:09:49.000Z</time>
      </trkpt>
      <trkpt lat="43.71979" lon="3.4099">
        <ele>207.19999694824</ele>
        <time>2023-05-26T07:09:55.000Z</time>
      </trkpt>
      <trkpt lat="43.71979" lon="3.4099">
        <ele>207.19999694824</ele>
        <time>2023-05-26T07:10:01.000Z</time>
      </trkpt>
      <trkpt lat="43.7198" lon="3.4099">
        <ele>207.19999694824</ele>
        <time>2023-05-26T07:10:08.000Z</time>
      </trkpt>
      <trkpt lat="43.71979" lon="3.4099">
        <ele>207.39999389648</ele>
        <time>2023-05-26T07:10:16.000Z</time>
      </trkpt>
      <trkpt lat="43.71979" lon="3.40989">
        <ele>207</ele>
        <time>2023-05-26T07:10:23.000Z</time>
      </trkpt>
      <trkpt lat="43.71982" lon="3.40987">
        <ele>207</ele>
        <time>2023-05-26T07:10:31.000Z</time>
      </trkpt>
      <trkpt lat="43.71985" lon="3.40982">
        <ele>207.80000305176</ele>
        <time>2023-05-26T07:10:40.000Z</time>
      </trkpt>
      <trkpt lat="43.71986" lon="3.40977">
        <ele>208</ele>
        <time>2023-05-26T07:10:46.000Z</time>
      </trkpt>
      <trkpt lat="43.71991" lon="3.40974">
        <ele>208.39999389648</ele>
        <time>2023-05-26T07:10:51.000Z</time>
      </trkpt>
      <trkpt lat="43.71993" lon="3.40971">
        <ele>208.60000610352</ele>
        <time>2023-05-26T07:10:54.000Z</time>
      </trkpt>
      <trkpt lat="43.71993" lon="3.40969">
        <ele>208.80000305176</ele>
        <time>2023-05-26T07:10:56.000Z</time>
      </trkpt>
      <trkpt lat="43.71995" lon="3.40966">
        <ele>209.19999694824</ele>
        <time>2023-05-26T07:11:01.000Z</time>
      </trkpt>
      <trkpt lat="43.71997" lon="3.40962">
        <ele>209.60000610352</ele>
        <time>2023-05-26T07:11:06.000Z</time>
      </trkpt>
      <trkpt lat="43.71998" lon="3.4096">
        <ele>209.80000305176</ele>
        <time>2023-05-26T07:11:07.000Z</time>
      </trkpt>
      <trkpt lat="43.71999" lon="3.40958">
        <ele>210</ele>
        <time>2023-05-26T07:11:10.000Z</time>
      </trkpt>
      <trkpt lat="43.71999" lon="3.40957">
        <ele>210</ele>
        <time>2023-05-26T07:11:11.000Z</time>
      </trkpt>
      <trkpt lat="43.72001" lon="3.40952">
        <ele>210.60000610352</ele>
        <time>2023-05-26T07:11:19.000Z</time>
      </trkpt>
      <trkpt lat="43.72003" lon="3.40951">
        <ele>210.80000305176</ele>
        <time>2023-05-26T07:11:21.000Z</time>
      </trkpt>
      <trkpt lat="43.72004" lon="3.40949">
        <ele>211.39999389648</ele>
        <time>2023-05-26T07:11:26.000Z</time>
      </trkpt>
      <trkpt lat="43.72004" lon="3.40946">
        <ele>211.80000305176</ele>
        <time>2023-05-26T07:11:29.000Z</time>
      </trkpt>
      <trkpt lat="43.72006" lon="3.40944">
        <ele>212.19999694824</ele>
        <time>2023-05-26T07:11:32.000Z</time>
      </trkpt>
      <trkpt lat="43.72008" lon="3.40941">
        <ele>212.39999389648</ele>
        <time>2023-05-26T07:11:40.000Z</time>
      </trkpt>
      <trkpt lat="43.72009" lon="3.40938">
        <ele>212.80000305176</ele>
        <time>2023-05-26T07:11:44.000Z</time>
      </trkpt>
      <trkpt lat="43.72011" lon="3.40937">
        <ele>213</ele>
        <time>2023-05-26T07:11:46.000Z</time>
      </trkpt>
      <trkpt lat="43.72013" lon="3.40932">
        <ele>213.19999694824</ele>
        <time>2023-05-26T07:11:54.000Z</time>
      </trkpt>
      <trkpt lat="43.72015" lon="3.40928">
        <ele>213.60000610352</ele>
        <time>2023-05-26T07:12:01.000Z</time>
      </trkpt>
      <trkpt lat="43.72017" lon="3.40925">
        <ele>213.80000305176</ele>
        <time>2023-05-26T07:12:04.000Z</time>
      </trkpt>
      <trkpt lat="43.72018" lon="3.40923">
        <ele>214.39999389648</ele>
        <time>2023-05-26T07:12:08.000Z</time>
      </trkpt>
      <trkpt lat="43.72022" lon="3.4092">
        <ele>214.80000305176</ele>
        <time>2023-05-26T07:12:16.000Z</time>
      </trkpt>
      <trkpt lat="43.72023" lon="3.40919">
        <ele>215</ele>
        <time>2023-05-26T07:12:17.000Z</time>
      </trkpt>
      <trkpt lat="43.72024" lon="3.40917">
        <ele>215.39999389648</ele>
        <time>2023-05-26T07:12:21.000Z</time>
      </trkpt>
      <trkpt lat="43.72025" lon="3.40915">
        <ele>216</ele>
        <time>2023-05-26T07:12:27.000Z</time>
      </trkpt>
      <trkpt lat="43.72026" lon="3.40914">
        <ele>216.39999389648</ele>
        <time>2023-05-26T07:12:29.000Z</time>
      </trkpt>
      <trkpt lat="43.72027" lon="3.40911">
        <ele>216.60000610352</ele>
        <time>2023-05-26T07:12:35.000Z</time>
      </trkpt>
      <trkpt lat="43.72029" lon="3.40909">
        <ele>216.80000305176</ele>
        <time>2023-05-26T07:12:40.000Z</time>
      </trkpt>
      <trkpt lat="43.72031" lon="3.40907">
        <ele>216.80000305176</ele>
        <time>2023-05-26T07:12:45.000Z</time>
      </trkpt>
      <trkpt lat="43.72033" lon="3.40906">
        <ele>217</ele>
        <time>2023-05-26T07:12:47.000Z</time>
      </trkpt>
      <trkpt lat="43.72035" lon="3.40905">
        <ele>217.39999389648</ele>
        <time>2023-05-26T07:12:50.000Z</time>
      </trkpt>
      <trkpt lat="43.72037" lon="3.40902">
        <ele>217.80000305176</ele>
        <time>2023-05-26T07:12:57.000Z</time>
      </trkpt>
      <trkpt lat="43.72038" lon="3.409">
        <ele>218.19999694824</ele>
        <time>2023-05-26T07:12:59.000Z</time>
      </trkpt>
      <trkpt lat="43.7204" lon="3.40898">
        <ele>218.39999389648</ele>
        <time>2023-05-26T07:13:04.000Z</time>
      </trkpt>
      <trkpt lat="43.72042" lon="3.40894">
        <ele>219.19999694824</ele>
        <time>2023-05-26T07:13:11.000Z</time>
      </trkpt>
      <trkpt lat="43.72044" lon="3.40891">
        <ele>219.80000305176</ele>
        <time>2023-05-26T07:13:17.000Z</time>
      </trkpt>
      <trkpt lat="43.72046" lon="3.40887">
        <ele>220.19999694824</ele>
        <time>2023-05-26T07:13:24.000Z</time>
      </trkpt>
      <trkpt lat="43.72048" lon="3.40884">
        <ele>221</ele>
        <time>2023-05-26T07:13:31.000Z</time>
      </trkpt>
      <trkpt lat="43.72049" lon="3.40882">
        <ele>221.39999389648</ele>
        <time>2023-05-26T07:13:35.000Z</time>
      </trkpt>
      <trkpt lat="43.7205" lon="3.40879">
        <ele>221.39999389648</ele>
        <time>2023-05-26T07:13:38.000Z</time>
      </trkpt>
      <trkpt lat="43.72051" lon="3.40877">
        <ele>222</ele>
        <time>2023-05-26T07:13:45.000Z</time>
      </trkpt>
      <trkpt lat="43.72052" lon="3.40874">
        <ele>222.19999694824</ele>
        <time>2023-05-26T07:13:50.000Z</time>
      </trkpt>
      <trkpt lat="43.72052" lon="3.40875">
        <ele>222.39999389648</ele>
        <time>2023-05-26T07:13:51.000Z</time>
      </trkpt>
      <trkpt lat="43.72053" lon="3.40872">
        <ele>223.19999694824</ele>
        <time>2023-05-26T07:13:56.000Z</time>
      </trkpt>
      <trkpt lat="43.72056" lon="3.40869">
        <ele>223.60000610352</ele>
        <time>2023-05-26T07:14:02.000Z</time>
      </trkpt>
      <trkpt lat="43.72058" lon="3.40867">
        <ele>223.80000305176</ele>
        <time>2023-05-26T07:14:05.000Z</time>
      </trkpt>
      <trkpt lat="43.72062" lon="3.40863">
        <ele>224.19999694824</ele>
        <time>2023-05-26T07:14:13.000Z</time>
      </trkpt>
      <trkpt lat="43.72067" lon="3.40858">
        <ele>224.39999389648</ele>
        <time>2023-05-26T07:14:21.000Z</time>
      </trkpt>
      <trkpt lat="43.72068" lon="3.40858">
        <ele>224.60000610352</ele>
        <time>2023-05-26T07:14:23.000Z</time>
      </trkpt>
      <trkpt lat="43.72071" lon="3.40853">
        <ele>225.19999694824</ele>
        <time>2023-05-26T07:14:30.000Z</time>
      </trkpt>
      <trkpt lat="43.72074" lon="3.4085">
        <ele>225.60000610352</ele>
        <time>2023-05-26T07:14:36.000Z</time>
      </trkpt>
      <trkpt lat="43.72074" lon="3.40849">
        <ele>225.60000610352</ele>
        <time>2023-05-26T07:14:37.000Z</time>
      </trkpt>
      <trkpt lat="43.72077" lon="3.40845">
        <ele>226</ele>
        <time>2023-05-26T07:14:43.000Z</time>
      </trkpt>
      <trkpt lat="43.72081" lon="3.40841">
        <ele>226.39999389648</ele>
        <time>2023-05-26T07:14:51.000Z</time>
      </trkpt>
      <trkpt lat="43.72084" lon="3.40837">
        <ele>226.60000610352</ele>
        <time>2023-05-26T07:14:56.000Z</time>
      </trkpt>
      <trkpt lat="43.72085" lon="3.40836">
        <ele>226.80000305176</ele>
        <time>2023-05-26T07:14:58.000Z</time>
      </trkpt>
      <trkpt lat="43.72089" lon="3.40831">
        <ele>227.39999389648</ele>
        <time>2023-05-26T07:15:05.000Z</time>
      </trkpt>
      <trkpt lat="43.72094" lon="3.40825">
        <ele>227.60000610352</ele>
        <time>2023-05-26T07:15:13.000Z</time>
      </trkpt>
      <trkpt lat="43.72094" lon="3.40825">
        <ele>227.60000610352</ele>
        <time>2023-05-26T07:15:14.000Z</time>
      </trkpt>
      <trkpt lat="43.72097" lon="3.40822">
        <ele>228</ele>
        <time>2023-05-26T07:15:20.000Z</time>
      </trkpt>
      <trkpt lat="43.72101" lon="3.40818">
        <ele>228.19999694824</ele>
        <time>2023-05-26T07:15:27.000Z</time>
      </trkpt>
      <trkpt lat="43.72106" lon="3.40812">
        <ele>228.19999694824</ele>
        <time>2023-05-26T07:15:35.000Z</time>
      </trkpt>
      <trkpt lat="43.72112" lon="3.40804">
        <ele>228.60000610352</ele>
        <time>2023-05-26T07:15:44.000Z</time>
      </trkpt>
      <trkpt lat="43.72113" lon="3.40803">
        <ele>228.80000305176</ele>
        <time>2023-05-26T07:15:46.000Z</time>
      </trkpt>
      <trkpt lat="43.72116" lon="3.40799">
        <ele>229</ele>
        <time>2023-05-26T07:15:50.000Z</time>
      </trkpt>
      <trkpt lat="43.7212" lon="3.40795">
        <ele>229.80000305176</ele>
        <time>2023-05-26T07:15:56.000Z</time>
      </trkpt>
      <trkpt lat="43.7212" lon="3.40795">
        <ele>229.80000305176</ele>
        <time>2023-05-26T07:15:57.000Z</time>
      </trkpt>
      <trkpt lat="43.72124" lon="3.4079">
        <ele>230</ele>
        <time>2023-05-26T07:16:04.000Z</time>
      </trkpt>
      <trkpt lat="43.72127" lon="3.40783">
        <ele>230.39999389648</ele>
        <time>2023-05-26T07:16:12.000Z</time>
      </trkpt>
      <trkpt lat="43.7213" lon="3.40777">
        <ele>230.80000305176</ele>
        <time>2023-05-26T07:16:21.000Z</time>
      </trkpt>
      <trkpt lat="43.72132" lon="3.40773">
        <ele>231.39999389648</ele>
        <time>2023-05-26T07:16:28.000Z</time>
      </trkpt>
      <trkpt lat="43.72135" lon="3.40768">
        <ele>231.60000610352</ele>
        <time>2023-05-26T07:16:34.000Z</time>
      </trkpt>
      <trkpt lat="43.72139" lon="3.40759">
        <ele>231.80000305176</ele>
        <time>2023-05-26T07:16:42.000Z</time>
      </trkpt>
      <trkpt lat="43.7214" lon="3.40757">
        <ele>231.80000305176</ele>
        <time>2023-05-26T07:16:44.000Z</time>
      </trkpt>
      <trkpt lat="43.72141" lon="3.40755">
        <ele>232</ele>
        <time>2023-05-26T07:16:46.000Z</time>
      </trkpt>
      <trkpt lat="43.72143" lon="3.40751">
        <ele>232.39999389648</ele>
        <time>2023-05-26T07:16:50.000Z</time>
      </trkpt>
      <trkpt lat="43.72143" lon="3.4075">
        <ele>232.60000610352</ele>
        <time>2023-05-26T07:16:51.000Z</time>
      </trkpt>
      <trkpt lat="43.72145" lon="3.40746">
        <ele>233</ele>
        <time>2023-05-26T07:16:56.000Z</time>
      </trkpt>
      <trkpt lat="43.72146" lon="3.40743">
        <ele>233.19999694824</ele>
        <time>2023-05-26T07:16:59.000Z</time>
      </trkpt>
      <trkpt lat="43.72146" lon="3.40742">
        <ele>233.39999389648</ele>
        <time>2023-05-26T07:17:00.000Z</time>
      </trkpt>
      <trkpt lat="43.72147" lon="3.40738">
        <ele>234</ele>
        <time>2023-05-26T07:17:05.000Z</time>
      </trkpt>
      <trkpt lat="43.72147" lon="3.40735">
        <ele>234.19999694824</ele>
        <time>2023-05-26T07:17:08.000Z</time>
      </trkpt>
      <trkpt lat="43.72149" lon="3.40729">
        <ele>235</ele>
        <time>2023-05-26T07:17:16.000Z</time>
      </trkpt>
      <trkpt lat="43.7215" lon="3.40728">
        <ele>235</ele>
        <time>2023-05-26T07:17:17.000Z</time>
      </trkpt>
      <trkpt lat="43.72151" lon="3.40721">
        <ele>236.19999694824</ele>
        <time>2023-05-26T07:17:24.000Z</time>
      </trkpt>
      <trkpt lat="43.72152" lon="3.40715">
        <ele>236.39999389648</ele>
        <time>2023-05-26T07:17:31.000Z</time>
      </trkpt>
      <trkpt lat="43.72152" lon="3.40708">
        <ele>237.19999694824</ele>
        <time>2023-05-26T07:17:39.000Z</time>
      </trkpt>
      <trkpt lat="43.72152" lon="3.40707">
        <ele>237.39999389648</ele>
        <time>2023-05-26T07:17:40.000Z</time>
      </trkpt>
      <trkpt lat="43.72152" lon="3.407">
        <ele>238.19999694824</ele>
        <time>2023-05-26T07:17:48.000Z</time>
      </trkpt>
      <trkpt lat="43.72152" lon="3.407">
        <ele>238.39999389648</ele>
        <time>2023-05-26T07:17:49.000Z</time>
      </trkpt>
      <trkpt lat="43.72151" lon="3.40695">
        <ele>238.80000305176</ele>
        <time>2023-05-26T07:17:55.000Z</time>
      </trkpt>
      <trkpt lat="43.72151" lon="3.40694">
        <ele>239</ele>
        <time>2023-05-26T07:18:07.000Z</time>
      </trkpt>
      <trkpt lat="43.72151" lon="3.40695">
        <ele>238.80000305176</ele>
        <time>2023-05-26T07:18:14.000Z</time>
      </trkpt>
      <trkpt lat="43.7215" lon="3.40694">
        <ele>238.80000305176</ele>
        <time>2023-05-26T07:18:34.000Z</time>
      </trkpt>
      <trkpt lat="43.72149" lon="3.40691">
        <ele>239</ele>
        <time>2023-05-26T07:18:45.000Z</time>
      </trkpt>
      <trkpt lat="43.72149" lon="3.4069">
        <ele>239.39999389648</ele>
        <time>2023-05-26T07:18:51.000Z</time>
      </trkpt>
      <trkpt lat="43.72149" lon="3.4069">
        <ele>239.60000610352</ele>
        <time>2023-05-26T07:18:52.000Z</time>
      </trkpt>
      <trkpt lat="43.72148" lon="3.40689">
        <ele>239.19999694824</ele>
        <time>2023-05-26T07:19:05.000Z</time>
      </trkpt>
      <trkpt lat="43.72149" lon="3.40685">
        <ele>239</ele>
        <time>2023-05-26T07:19:12.000Z</time>
      </trkpt>
      <trkpt lat="43.72153" lon="3.40678">
        <ele>238.80000305176</ele>
        <time>2023-05-26T07:19:20.000Z</time>
      </trkpt>
      <trkpt lat="43.72156" lon="3.40672">
        <ele>238.19999694824</ele>
        <time>2023-05-26T07:19:25.000Z</time>
      </trkpt>
      <trkpt lat="43.7216" lon="3.40669">
        <ele>237.60000610352</ele>
        <time>2023-05-26T07:19:29.000Z</time>
      </trkpt>
      <trkpt lat="43.72163" lon="3.40665">
        <ele>237</ele>
        <time>2023-05-26T07:19:33.000Z</time>
      </trkpt>
      <trkpt lat="43.72166" lon="3.40661">
        <ele>236.19999694824</ele>
        <time>2023-05-26T07:19:38.000Z</time>
      </trkpt>
      <trkpt lat="43.72166" lon="3.40661">
        <ele>236.19999694824</ele>
        <time>2023-05-26T07:19:39.000Z</time>
      </trkpt>
      <trkpt lat="43.72167" lon="3.40658">
        <ele>236</ele>
        <time>2023-05-26T07:19:42.000Z</time>
      </trkpt>
      <trkpt lat="43.72167" lon="3.40658">
        <ele>235.80000305176</ele>
        <time>2023-05-26T07:19:43.000Z</time>
      </trkpt>
      <trkpt lat="43.7217" lon="3.40656">
        <ele>235</ele>
        <time>2023-05-26T07:19:47.000Z</time>
      </trkpt>
      <trkpt lat="43.72172" lon="3.40655">
        <ele>234.19999694824</ele>
        <time>2023-05-26T07:19:50.000Z</time>
      </trkpt>
      <trkpt lat="43.72173" lon="3.40653">
        <ele>233.80000305176</ele>
        <time>2023-05-26T07:19:53.000Z</time>
      </trkpt>
      <trkpt lat="43.72175" lon="3.40651">
        <ele>233.19999694824</ele>
        <time>2023-05-26T07:19:57.000Z</time>
      </trkpt>
      <trkpt lat="43.72179" lon="3.40646">
        <ele>232.80000305176</ele>
        <time>2023-05-26T07:20:04.000Z</time>
      </trkpt>
      <trkpt lat="43.7218" lon="3.40646">
        <ele>232.60000610352</ele>
        <time>2023-05-26T07:20:05.000Z</time>
      </trkpt>
      <trkpt lat="43.72185" lon="3.4064">
        <ele>231.60000610352</ele>
        <time>2023-05-26T07:20:12.000Z</time>
      </trkpt>
      <trkpt lat="43.72186" lon="3.40638">
        <ele>231.19999694824</ele>
        <time>2023-05-26T07:20:15.000Z</time>
      </trkpt>
      <trkpt lat="43.7219" lon="3.40633">
        <ele>230.60000610352</ele>
        <time>2023-05-26T07:20:21.000Z</time>
      </trkpt>
      <trkpt lat="43.72193" lon="3.40629">
        <ele>230</ele>
        <time>2023-05-26T07:20:26.000Z</time>
      </trkpt>
      <trkpt lat="43.72194" lon="3.40629">
        <ele>229.60000610352</ele>
        <time>2023-05-26T07:20:28.000Z</time>
      </trkpt>
      <trkpt lat="43.72195" lon="3.40628">
        <ele>229.60000610352</ele>
        <time>2023-05-26T07:20:29.000Z</time>
      </trkpt>
      <trkpt lat="43.72198" lon="3.40626">
        <ele>229</ele>
        <time>2023-05-26T07:20:35.000Z</time>
      </trkpt>
      <trkpt lat="43.72201" lon="3.40623">
        <ele>228.60000610352</ele>
        <time>2023-05-26T07:20:39.000Z</time>
      </trkpt>
      <trkpt lat="43.72202" lon="3.40622">
        <ele>228.19999694824</ele>
        <time>2023-05-26T07:20:42.000Z</time>
      </trkpt>
      <trkpt lat="43.72203" lon="3.40617">
        <ele>227.80000305176</ele>
        <time>2023-05-26T07:20:48.000Z</time>
      </trkpt>
      <trkpt lat="43.72205" lon="3.40616">
        <ele>227.39999389648</ele>
        <time>2023-05-26T07:20:54.000Z</time>
      </trkpt>
      <trkpt lat="43.72206" lon="3.40615">
        <ele>227.39999389648</ele>
        <time>2023-05-26T07:20:55.000Z</time>
      </trkpt>
      <trkpt lat="43.72209" lon="3.40609">
        <ele>226.39999389648</ele>
        <time>2023-05-26T07:21:03.000Z</time>
      </trkpt>
      <trkpt lat="43.72212" lon="3.40603">
        <ele>225.60000610352</ele>
        <time>2023-05-26T07:21:10.000Z</time>
      </trkpt>
      <trkpt lat="43.72212" lon="3.40602">
        <ele>225.39999389648</ele>
        <time>2023-05-26T07:21:11.000Z</time>
      </trkpt>
      <trkpt lat="43.72215" lon="3.40599">
        <ele>224.80000305176</ele>
        <time>2023-05-26T07:21:16.000Z</time>
      </trkpt>
      <trkpt lat="43.72215" lon="3.40596">
        <ele>224.39999389648</ele>
        <time>2023-05-26T07:21:19.000Z</time>
      </trkpt>
      <trkpt lat="43.72216" lon="3.40594">
        <ele>224</ele>
        <time>2023-05-26T07:21:22.000Z</time>
      </trkpt>
      <trkpt lat="43.72218" lon="3.40591">
        <ele>223.60000610352</ele>
        <time>2023-05-26T07:21:27.000Z</time>
      </trkpt>
      <trkpt lat="43.7222" lon="3.40588">
        <ele>223.19999694824</ele>
        <time>2023-05-26T07:21:32.000Z</time>
      </trkpt>
      <trkpt lat="43.72223" lon="3.40584">
        <ele>222.60000610352</ele>
        <time>2023-05-26T07:21:37.000Z</time>
      </trkpt>
      <trkpt lat="43.72225" lon="3.4058">
        <ele>222.39999389648</ele>
        <time>2023-05-26T07:21:42.000Z</time>
      </trkpt>
      <trkpt lat="43.72226" lon="3.40579">
        <ele>222.19999694824</ele>
        <time>2023-05-26T07:21:43.000Z</time>
      </trkpt>
      <trkpt lat="43.7223" lon="3.40575">
        <ele>221.80000305176</ele>
        <time>2023-05-26T07:21:49.000Z</time>
      </trkpt>
      <trkpt lat="43.72231" lon="3.40573">
        <ele>221.60000610352</ele>
        <time>2023-05-26T07:21:51.000Z</time>
      </trkpt>
      <trkpt lat="43.72233" lon="3.40573">
        <ele>221.19999694824</ele>
        <time>2023-05-26T07:21:54.000Z</time>
      </trkpt>
      <trkpt lat="43.72237" lon="3.40573">
        <ele>220.80000305176</ele>
        <time>2023-05-26T07:21:59.000Z</time>
      </trkpt>
      <trkpt lat="43.72238" lon="3.40573">
        <ele>220.80000305176</ele>
        <time>2023-05-26T07:22:00.000Z</time>
      </trkpt>
      <trkpt lat="43.72245" lon="3.40572">
        <ele>220.19999694824</ele>
        <time>2023-05-26T07:22:08.000Z</time>
      </trkpt>
      <trkpt lat="43.72251" lon="3.40575">
        <ele>219.19999694824</ele>
        <time>2023-05-26T07:22:16.000Z</time>
      </trkpt>
      <trkpt lat="43.72252" lon="3.40575">
        <ele>219.19999694824</ele>
        <time>2023-05-26T07:22:17.000Z</time>
      </trkpt>
      <trkpt lat="43.72254" lon="3.40576">
        <ele>218.80000305176</ele>
        <time>2023-05-26T07:22:20.000Z</time>
      </trkpt>
      <trkpt lat="43.72257" lon="3.40576">
        <ele>218.39999389648</ele>
        <time>2023-05-26T07:22:24.000Z</time>
      </trkpt>
      <trkpt lat="43.7226" lon="3.40577">
        <ele>218</ele>
        <time>2023-05-26T07:22:28.000Z</time>
      </trkpt>
      <trkpt lat="43.72262" lon="3.40577">
        <ele>217.80000305176</ele>
        <time>2023-05-26T07:22:31.000Z</time>
      </trkpt>
      <trkpt lat="43.72265" lon="3.40578">
        <ele>217</ele>
        <time>2023-05-26T07:22:36.000Z</time>
      </trkpt>
      <trkpt lat="43.72265" lon="3.40577">
        <ele>216.80000305176</ele>
        <time>2023-05-26T07:22:38.000Z</time>
      </trkpt>
      <trkpt lat="43.72266" lon="3.40578">
        <ele>216.60000610352</ele>
        <time>2023-05-26T07:22:44.000Z</time>
      </trkpt>
      <trkpt lat="43.72268" lon="3.40575">
        <ele>216.39999389648</ele>
        <time>2023-05-26T07:22:53.000Z</time>
      </trkpt>
      <trkpt lat="43.72272" lon="3.40576">
        <ele>216</ele>
        <time>2023-05-26T07:22:57.000Z</time>
      </trkpt>
      <trkpt lat="43.72274" lon="3.40577">
        <ele>215.60000610352</ele>
        <time>2023-05-26T07:22:59.000Z</time>
      </trkpt>
      <trkpt lat="43.72278" lon="3.40579">
        <ele>214.80000305176</ele>
        <time>2023-05-26T07:23:04.000Z</time>
      </trkpt>
      <trkpt lat="43.72279" lon="3.4058">
        <ele>214.60000610352</ele>
        <time>2023-05-26T07:23:05.000Z</time>
      </trkpt>
      <trkpt lat="43.72282" lon="3.40583">
        <ele>213.80000305176</ele>
        <time>2023-05-26T07:23:10.000Z</time>
      </trkpt>
      <trkpt lat="43.72285" lon="3.40584">
        <ele>213.60000610352</ele>
        <time>2023-05-26T07:23:13.000Z</time>
      </trkpt>
      <trkpt lat="43.72288" lon="3.40585">
        <ele>212.60000610352</ele>
        <time>2023-05-26T07:23:18.000Z</time>
      </trkpt>
      <trkpt lat="43.72291" lon="3.40585">
        <ele>212</ele>
        <time>2023-05-26T07:23:22.000Z</time>
      </trkpt>
      <trkpt lat="43.72293" lon="3.40587">
        <ele>211.60000610352</ele>
        <time>2023-05-26T07:23:25.000Z</time>
      </trkpt>
      <trkpt lat="43.72294" lon="3.40587">
        <ele>211</ele>
        <time>2023-05-26T07:23:28.000Z</time>
      </trkpt>
      <trkpt lat="43.72297" lon="3.40588">
        <ele>210.39999389648</ele>
        <time>2023-05-26T07:23:32.000Z</time>
      </trkpt>
      <trkpt lat="43.72298" lon="3.40589">
        <ele>210</ele>
        <time>2023-05-26T07:23:34.000Z</time>
      </trkpt>
      <trkpt lat="43.72301" lon="3.40588">
        <ele>209.39999389648</ele>
        <time>2023-05-26T07:23:38.000Z</time>
      </trkpt>
      <trkpt lat="43.72303" lon="3.40589">
        <ele>208.80000305176</ele>
        <time>2023-05-26T07:23:41.000Z</time>
      </trkpt>
      <trkpt lat="43.72303" lon="3.40589">
        <ele>208.39999389648</ele>
        <time>2023-05-26T07:23:43.000Z</time>
      </trkpt>
      <trkpt lat="43.72305" lon="3.40587">
        <ele>207.60000610352</ele>
        <time>2023-05-26T07:23:48.000Z</time>
      </trkpt>
      <trkpt lat="43.72306" lon="3.40587">
        <ele>207.39999389648</ele>
        <time>2023-05-26T07:23:49.000Z</time>
      </trkpt>
      <trkpt lat="43.72309" lon="3.40583">
        <ele>206.60000610352</ele>
        <time>2023-05-26T07:23:53.000Z</time>
      </trkpt>
      <trkpt lat="43.7231" lon="3.40581">
        <ele>206.39999389648</ele>
        <time>2023-05-26T07:23:55.000Z</time>
      </trkpt>
      <trkpt lat="43.72312" lon="3.40579">
        <ele>206</ele>
        <time>2023-05-26T07:23:59.000Z</time>
      </trkpt>
      <trkpt lat="43.72313" lon="3.40578">
        <ele>206</ele>
        <time>2023-05-26T07:24:00.000Z</time>
      </trkpt>
      <trkpt lat="43.72315" lon="3.40576">
        <ele>205.39999389648</ele>
        <time>2023-05-26T07:24:05.000Z</time>
      </trkpt>
      <trkpt lat="43.72315" lon="3.40576">
        <ele>205.19999694824</ele>
        <time>2023-05-26T07:24:06.000Z</time>
      </trkpt>
      <trkpt lat="43.72317" lon="3.40571">
        <ele>204.80000305176</ele>
        <time>2023-05-26T07:24:12.000Z</time>
      </trkpt>
      <trkpt lat="43.72317" lon="3.40569">
        <ele>204.39999389648</ele>
        <time>2023-05-26T07:24:17.000Z</time>
      </trkpt>
      <trkpt lat="43.72318" lon="3.40569">
        <ele>204.80000305176</ele>
        <time>2023-05-26T07:24:24.000Z</time>
      </trkpt>
      <trkpt lat="43.72317" lon="3.40568">
        <ele>204.60000610352</ele>
        <time>2023-05-26T07:24:29.000Z</time>
      </trkpt>
      <trkpt lat="43.72317" lon="3.40569">
        <ele>205</ele>
        <time>2023-05-26T07:24:35.000Z</time>
      </trkpt>
      <trkpt lat="43.72318" lon="3.40568">
        <ele>204.60000610352</ele>
        <time>2023-05-26T07:24:42.000Z</time>
      </trkpt>
      <trkpt lat="43.72318" lon="3.40569">
        <ele>204.80000305176</ele>
        <time>2023-05-26T07:24:52.000Z</time>
      </trkpt>
      <trkpt lat="43.72319" lon="3.40567">
        <ele>204.60000610352</ele>
        <time>2023-05-26T07:24:59.000Z</time>
      </trkpt>
      <trkpt lat="43.72321" lon="3.40563">
        <ele>204.19999694824</ele>
        <time>2023-05-26T07:25:04.000Z</time>
      </trkpt>
      <trkpt lat="43.72322" lon="3.40562">
        <ele>204.39999389648</ele>
        <time>2023-05-26T07:25:06.000Z</time>
      </trkpt>
      <trkpt lat="43.72327" lon="3.40559">
        <ele>205</ele>
        <time>2023-05-26T07:25:13.000Z</time>
      </trkpt>
      <trkpt lat="43.72331" lon="3.40556">
        <ele>205.19999694824</ele>
        <time>2023-05-26T07:25:20.000Z</time>
      </trkpt>
      <trkpt lat="43.72337" lon="3.40551">
        <ele>206.19999694824</ele>
        <time>2023-05-26T07:25:29.000Z</time>
      </trkpt>
      <trkpt lat="43.72339" lon="3.40545">
        <ele>206.80000305176</ele>
        <time>2023-05-26T07:25:37.000Z</time>
      </trkpt>
      <trkpt lat="43.7234" lon="3.4054">
        <ele>207.19999694824</ele>
        <time>2023-05-26T07:25:42.000Z</time>
      </trkpt>
      <trkpt lat="43.7234" lon="3.40539">
        <ele>207.39999389648</ele>
        <time>2023-05-26T07:25:43.000Z</time>
      </trkpt>
      <trkpt lat="43.72343" lon="3.40535">
        <ele>207.80000305176</ele>
        <time>2023-05-26T07:25:49.000Z</time>
      </trkpt>
      <trkpt lat="43.72345" lon="3.40533">
        <ele>208.39999389648</ele>
        <time>2023-05-26T07:25:53.000Z</time>
      </trkpt>
      <trkpt lat="43.72347" lon="3.40532">
        <ele>209.19999694824</ele>
        <time>2023-05-26T07:25:57.000Z</time>
      </trkpt>
      <trkpt lat="43.72347" lon="3.40532">
        <ele>209.60000610352</ele>
        <time>2023-05-26T07:26:00.000Z</time>
      </trkpt>
      <trkpt lat="43.72348" lon="3.40531">
        <ele>210</ele>
        <time>2023-05-26T07:26:04.000Z</time>
      </trkpt>
      <trkpt lat="43.72351" lon="3.40531">
        <ele>210</ele>
        <time>2023-05-26T07:26:09.000Z</time>
      </trkpt>
      <trkpt lat="43.72356" lon="3.40529">
        <ele>210.60000610352</ele>
        <time>2023-05-26T07:26:16.000Z</time>
      </trkpt>
      <trkpt lat="43.72357" lon="3.40528">
        <ele>210.80000305176</ele>
        <time>2023-05-26T07:26:18.000Z</time>
      </trkpt>
      <trkpt lat="43.72363" lon="3.40526">
        <ele>211.39999389648</ele>
        <time>2023-05-26T07:26:25.000Z</time>
      </trkpt>
      <trkpt lat="43.72364" lon="3.40525">
        <ele>211.60000610352</ele>
        <time>2023-05-26T07:26:28.000Z</time>
      </trkpt>
      <trkpt lat="43.72367" lon="3.40524">
        <ele>212.19999694824</ele>
        <time>2023-05-26T07:26:33.000Z</time>
      </trkpt>
      <trkpt lat="43.7237" lon="3.40523">
        <ele>212.60000610352</ele>
        <time>2023-05-26T07:26:37.000Z</time>
      </trkpt>
      <trkpt lat="43.72372" lon="3.40521">
        <ele>213</ele>
        <time>2023-05-26T07:26:41.000Z</time>
      </trkpt>
      <trkpt lat="43.72375" lon="3.40519">
        <ele>213.60000610352</ele>
        <time>2023-05-26T07:26:47.000Z</time>
      </trkpt>
      <trkpt lat="43.72377" lon="3.40517">
        <ele>214.19999694824</ele>
        <time>2023-05-26T07:26:51.000Z</time>
      </trkpt>
      <trkpt lat="43.72377" lon="3.40517">
        <ele>214.60000610352</ele>
        <time>2023-05-26T07:26:54.000Z</time>
      </trkpt>
      <trkpt lat="43.7238" lon="3.40515">
        <ele>215</ele>
        <time>2023-05-26T07:26:58.000Z</time>
      </trkpt>
      <trkpt lat="43.72384" lon="3.4051">
        <ele>215.60000610352</ele>
        <time>2023-05-26T07:27:06.000Z</time>
      </trkpt>
      <trkpt lat="43.72385" lon="3.4051">
        <ele>215.80000305176</ele>
        <time>2023-05-26T07:27:08.000Z</time>
      </trkpt>
      <trkpt lat="43.72385" lon="3.40508">
        <ele>216.60000610352</ele>
        <time>2023-05-26T07:27:14.000Z</time>
      </trkpt>
      <trkpt lat="43.72386" lon="3.40508">
        <ele>216.80000305176</ele>
        <time>2023-05-26T07:27:16.000Z</time>
      </trkpt>
      <trkpt lat="43.72385" lon="3.40505">
        <ele>217.39999389648</ele>
        <time>2023-05-26T07:27:22.000Z</time>
      </trkpt>
      <trkpt lat="43.72383" lon="3.40502">
        <ele>218</ele>
        <time>2023-05-26T07:27:28.000Z</time>
      </trkpt>
      <trkpt lat="43.7238" lon="3.40502">
        <ele>218.80000305176</ele>
        <time>2023-05-26T07:27:35.000Z</time>
      </trkpt>
      <trkpt lat="43.72379" lon="3.40501">
        <ele>219</ele>
        <time>2023-05-26T07:27:37.000Z</time>
      </trkpt>
      <trkpt lat="43.72377" lon="3.40499">
        <ele>219.60000610352</ele>
        <time>2023-05-26T07:27:43.000Z</time>
      </trkpt>
      <trkpt lat="43.72376" lon="3.40498">
        <ele>220</ele>
        <time>2023-05-26T07:27:46.000Z</time>
      </trkpt>
      <trkpt lat="43.72374" lon="3.40496">
        <ele>220.60000610352</ele>
        <time>2023-05-26T07:27:50.000Z</time>
      </trkpt>
      <trkpt lat="43.72372" lon="3.40492">
        <ele>221.19999694824</ele>
        <time>2023-05-26T07:27:57.000Z</time>
      </trkpt>
      <trkpt lat="43.72372" lon="3.40487">
        <ele>221.80000305176</ele>
        <time>2023-05-26T07:28:03.000Z</time>
      </trkpt>
      <trkpt lat="43.7237" lon="3.40485">
        <ele>222.19999694824</ele>
        <time>2023-05-26T07:28:06.000Z</time>
      </trkpt>
      <trkpt lat="43.72368" lon="3.40482">
        <ele>223</ele>
        <time>2023-05-26T07:28:13.000Z</time>
      </trkpt>
      <trkpt lat="43.72368" lon="3.40481">
        <ele>223.19999694824</ele>
        <time>2023-05-26T07:28:15.000Z</time>
      </trkpt>
      <trkpt lat="43.72367" lon="3.40477">
        <ele>224</ele>
        <time>2023-05-26T07:28:21.000Z</time>
      </trkpt>
      <trkpt lat="43.72367" lon="3.40476">
        <ele>224.39999389648</ele>
        <time>2023-05-26T07:28:23.000Z</time>
      </trkpt>
      <trkpt lat="43.72367" lon="3.40471">
        <ele>225</ele>
        <time>2023-05-26T07:28:29.000Z</time>
      </trkpt>
      <trkpt lat="43.72367" lon="3.40469">
        <ele>225.39999389648</ele>
        <time>2023-05-26T07:28:33.000Z</time>
      </trkpt>
      <trkpt lat="43.72366" lon="3.40466">
        <ele>225.80000305176</ele>
        <time>2023-05-26T07:28:36.000Z</time>
      </trkpt>
      <trkpt lat="43.72365" lon="3.40464">
        <ele>226.39999389648</ele>
        <time>2023-05-26T07:28:42.000Z</time>
      </trkpt>
      <trkpt lat="43.72365" lon="3.40464">
        <ele>226.60000610352</ele>
        <time>2023-05-26T07:28:43.000Z</time>
      </trkpt>
      <trkpt lat="43.72364" lon="3.40461">
        <ele>227.39999389648</ele>
        <time>2023-05-26T07:28:49.000Z</time>
      </trkpt>
      <trkpt lat="43.72363" lon="3.4046">
        <ele>227.60000610352</ele>
        <time>2023-05-26T07:28:50.000Z</time>
      </trkpt>
      <trkpt lat="43.72362" lon="3.40455">
        <ele>228.19999694824</ele>
        <time>2023-05-26T07:28:57.000Z</time>
      </trkpt>
      <trkpt lat="43.72361" lon="3.40453">
        <ele>228.60000610352</ele>
        <time>2023-05-26T07:29:00.000Z</time>
      </trkpt>
      <trkpt lat="43.72358" lon="3.40449">
        <ele>229.39999389648</ele>
        <time>2023-05-26T07:29:06.000Z</time>
      </trkpt>
      <trkpt lat="43.72357" lon="3.40447">
        <ele>229.80000305176</ele>
        <time>2023-05-26T07:29:09.000Z</time>
      </trkpt>
      <trkpt lat="43.72355" lon="3.40445">
        <ele>230.19999694824</ele>
        <time>2023-05-26T07:29:13.000Z</time>
      </trkpt>
      <trkpt lat="43.7235" lon="3.40441">
        <ele>230.60000610352</ele>
        <time>2023-05-26T07:29:21.000Z</time>
      </trkpt>
      <trkpt lat="43.72348" lon="3.40438">
        <ele>230.80000305176</ele>
        <time>2023-05-26T07:29:25.000Z</time>
      </trkpt>
      <trkpt lat="43.72347" lon="3.40435">
        <ele>231.60000610352</ele>
        <time>2023-05-26T07:29:30.000Z</time>
      </trkpt>
      <trkpt lat="43.72347" lon="3.40434">
        <ele>232</ele>
        <time>2023-05-26T07:29:32.000Z</time>
      </trkpt>
      <trkpt lat="43.72347" lon="3.40431">
        <ele>232.60000610352</ele>
        <time>2023-05-26T07:29:36.000Z</time>
      </trkpt>
      <trkpt lat="43.72347" lon="3.4043">
        <ele>233</ele>
        <time>2023-05-26T07:29:38.000Z</time>
      </trkpt>
      <trkpt lat="43.72349" lon="3.40429">
        <ele>233.60000610352</ele>
        <time>2023-05-26T07:29:44.000Z</time>
      </trkpt>
      <trkpt lat="43.7235" lon="3.40429">
        <ele>234</ele>
        <time>2023-05-26T07:29:52.000Z</time>
      </trkpt>
      <trkpt lat="43.72348" lon="3.40428">
        <ele>234</ele>
        <time>2023-05-26T07:30:01.000Z</time>
      </trkpt>
      <trkpt lat="43.72349" lon="3.40427">
        <ele>233.80000305176</ele>
        <time>2023-05-26T07:30:09.000Z</time>
      </trkpt>
      <trkpt lat="43.7235" lon="3.40426">
        <ele>233.60000610352</ele>
        <time>2023-05-26T07:30:17.000Z</time>
      </trkpt>
      <trkpt lat="43.7235" lon="3.40425">
        <ele>233.80000305176</ele>
        <time>2023-05-26T07:30:27.000Z</time>
      </trkpt>
      <trkpt lat="43.7235" lon="3.40426">
        <ele>234</ele>
        <time>2023-05-26T07:30:32.000Z</time>
      </trkpt>
      <trkpt lat="43.72348" lon="3.40426">
        <ele>233.60000610352</ele>
        <time>2023-05-26T07:30:39.000Z</time>
      </trkpt>
      <trkpt lat="43.72342" lon="3.40423">
        <ele>233.80000305176</ele>
        <time>2023-05-26T07:30:48.000Z</time>
      </trkpt>
      <trkpt lat="43.7234" lon="3.4042">
        <ele>234.19999694824</ele>
        <time>2023-05-26T07:30:52.000Z</time>
      </trkpt>
      <trkpt lat="43.72338" lon="3.40419">
        <ele>234.39999389648</ele>
        <time>2023-05-26T07:30:56.000Z</time>
      </trkpt>
      <trkpt lat="43.72336" lon="3.40417">
        <ele>235.19999694824</ele>
        <time>2023-05-26T07:31:01.000Z</time>
      </trkpt>
      <trkpt lat="43.72335" lon="3.40416">
        <ele>235.19999694824</ele>
        <time>2023-05-26T07:31:03.000Z</time>
      </trkpt>
      <trkpt lat="43.72331" lon="3.40413">
        <ele>235.60000610352</ele>
        <time>2023-05-26T07:31:10.000Z</time>
      </trkpt>
      <trkpt lat="43.72328" lon="3.40411">
        <ele>236.19999694824</ele>
        <time>2023-05-26T07:31:16.000Z</time>
      </trkpt>
      <trkpt lat="43.72327" lon="3.4041">
        <ele>236.60000610352</ele>
        <time>2023-05-26T07:31:18.000Z</time>
      </trkpt>
      <trkpt lat="43.72325" lon="3.40408">
        <ele>237.19999694824</ele>
        <time>2023-05-26T07:31:22.000Z</time>
      </trkpt>
      <trkpt lat="43.72323" lon="3.40407">
        <ele>237.60000610352</ele>
        <time>2023-05-26T07:31:26.000Z</time>
      </trkpt>
      <trkpt lat="43.7232" lon="3.40405">
        <ele>238.39999389648</ele>
        <time>2023-05-26T07:31:31.000Z</time>
      </trkpt>
      <trkpt lat="43.72319" lon="3.40403">
        <ele>238.80000305176</ele>
        <time>2023-05-26T07:31:34.000Z</time>
      </trkpt>
      <trkpt lat="43.72317" lon="3.404">
        <ele>239.39999389648</ele>
        <time>2023-05-26T07:31:39.000Z</time>
      </trkpt>
      <trkpt lat="43.72315" lon="3.40398">
        <ele>240</ele>
        <time>2023-05-26T07:31:43.000Z</time>
      </trkpt>
      <trkpt lat="43.72313" lon="3.40395">
        <ele>240.60000610352</ele>
        <time>2023-05-26T07:31:48.000Z</time>
      </trkpt>
      <trkpt lat="43.72311" lon="3.40392">
        <ele>241</ele>
        <time>2023-05-26T07:31:53.000Z</time>
      </trkpt>
      <trkpt lat="43.72309" lon="3.40386">
        <ele>241.60000610352</ele>
        <time>2023-05-26T07:32:00.000Z</time>
      </trkpt>
      <trkpt lat="43.72308" lon="3.40383">
        <ele>242.39999389648</ele>
        <time>2023-05-26T07:32:07.000Z</time>
      </trkpt>
      <trkpt lat="43.72307" lon="3.40381">
        <ele>242.60000610352</ele>
        <time>2023-05-26T07:32:09.000Z</time>
      </trkpt>
      <trkpt lat="43.72306" lon="3.40378">
        <ele>243.19999694824</ele>
        <time>2023-05-26T07:32:14.000Z</time>
      </trkpt>
      <trkpt lat="43.72306" lon="3.40376">
        <ele>243.60000610352</ele>
        <time>2023-05-26T07:32:17.000Z</time>
      </trkpt>
      <trkpt lat="43.72306" lon="3.40374">
        <ele>244</ele>
        <time>2023-05-26T07:32:20.000Z</time>
      </trkpt>
      <trkpt lat="43.72305" lon="3.4037">
        <ele>244.80000305176</ele>
        <time>2023-05-26T07:32:26.000Z</time>
      </trkpt>
      <trkpt lat="43.72306" lon="3.40366">
        <ele>245.60000610352</ele>
        <time>2023-05-26T07:32:31.000Z</time>
      </trkpt>
      <trkpt lat="43.72306" lon="3.40365">
        <ele>245.80000305176</ele>
        <time>2023-05-26T07:32:33.000Z</time>
      </trkpt>
      <trkpt lat="43.72303" lon="3.40363">
        <ele>246.60000610352</ele>
        <time>2023-05-26T07:32:38.000Z</time>
      </trkpt>
      <trkpt lat="43.72302" lon="3.40363">
        <ele>246.60000610352</ele>
        <time>2023-05-26T07:32:46.000Z</time>
      </trkpt>
      <trkpt lat="43.72294" lon="3.40359">
        <ele>246.19999694824</ele>
        <time>2023-05-26T07:32:56.000Z</time>
      </trkpt>
      <trkpt lat="43.72292" lon="3.40354">
        <ele>246.19999694824</ele>
        <time>2023-05-26T07:33:01.000Z</time>
      </trkpt>
      <trkpt lat="43.72291" lon="3.40348">
        <ele>246.60000610352</ele>
        <time>2023-05-26T07:33:08.000Z</time>
      </trkpt>
      <trkpt lat="43.7229" lon="3.40344">
        <ele>247</ele>
        <time>2023-05-26T07:33:12.000Z</time>
      </trkpt>
      <trkpt lat="43.72291" lon="3.40344">
        <ele>247.19999694824</ele>
        <time>2023-05-26T07:33:14.000Z</time>
      </trkpt>
      <trkpt lat="43.7229" lon="3.4034">
        <ele>247.60000610352</ele>
        <time>2023-05-26T07:33:19.000Z</time>
      </trkpt>
      <trkpt lat="43.72292" lon="3.40335">
        <ele>248</ele>
        <time>2023-05-26T07:33:24.000Z</time>
      </trkpt>
      <trkpt lat="43.72292" lon="3.40333">
        <ele>248</ele>
        <time>2023-05-26T07:33:25.000Z</time>
      </trkpt>
      <trkpt lat="43.72292" lon="3.40329">
        <ele>248</ele>
        <time>2023-05-26T07:33:28.000Z</time>
      </trkpt>
      <trkpt lat="43.72291" lon="3.40323">
        <ele>247.80000305176</ele>
        <time>2023-05-26T07:33:31.000Z</time>
      </trkpt>
      <trkpt lat="43.72292" lon="3.40316">
        <ele>247.19999694824</ele>
        <time>2023-05-26T07:33:36.000Z</time>
      </trkpt>
      <trkpt lat="43.72293" lon="3.40315">
        <ele>246.80000305176</ele>
        <time>2023-05-26T07:33:40.000Z</time>
      </trkpt>
      <trkpt lat="43.72294" lon="3.40314">
        <ele>246.80000305176</ele>
        <time>2023-05-26T07:33:42.000Z</time>
      </trkpt>
      <trkpt lat="43.72294" lon="3.40313">
        <ele>247</ele>
        <time>2023-05-26T07:33:48.000Z</time>
      </trkpt>
      <trkpt lat="43.72293" lon="3.40313">
        <ele>247.60000610352</ele>
        <time>2023-05-26T07:33:55.000Z</time>
      </trkpt>
      <trkpt lat="43.72292" lon="3.4031">
        <ele>247.19999694824</ele>
        <time>2023-05-26T07:34:06.000Z</time>
      </trkpt>
      <trkpt lat="43.72292" lon="3.40307">
        <ele>247.39999389648</ele>
        <time>2023-05-26T07:34:14.000Z</time>
      </trkpt>
      <trkpt lat="43.72292" lon="3.40306">
        <ele>246.80000305176</ele>
        <time>2023-05-26T07:34:21.000Z</time>
      </trkpt>
      <trkpt lat="43.72292" lon="3.40304">
        <ele>247.39999389648</ele>
        <time>2023-05-26T07:34:27.000Z</time>
      </trkpt>
      <trkpt lat="43.72292" lon="3.40305">
        <ele>247.39999389648</ele>
        <time>2023-05-26T07:34:37.000Z</time>
      </trkpt>
      <trkpt lat="43.72292" lon="3.40304">
        <ele>247</ele>
        <time>2023-05-26T07:34:44.000Z</time>
      </trkpt>
      <trkpt lat="43.72292" lon="3.40305">
        <ele>247.39999389648</ele>
        <time>2023-05-26T07:34:51.000Z</time>
      </trkpt>
      <trkpt lat="43.72291" lon="3.40305">
        <ele>247.80000305176</ele>
        <time>2023-05-26T07:34:59.000Z</time>
      </trkpt>
      <trkpt lat="43.72291" lon="3.40305">
        <ele>247.19999694824</ele>
        <time>2023-05-26T07:35:05.000Z</time>
      </trkpt>
      <trkpt lat="43.72291" lon="3.40304">
        <ele>247.19999694824</ele>
        <time>2023-05-26T07:35:18.000Z</time>
      </trkpt>
      <trkpt lat="43.72291" lon="3.40304">
        <ele>247</ele>
        <time>2023-05-26T07:35:25.000Z</time>
      </trkpt>
      <trkpt lat="43.7229" lon="3.40304">
        <ele>248</ele>
        <time>2023-05-26T07:35:32.000Z</time>
      </trkpt>
      <trkpt lat="43.7229" lon="3.40304">
        <ele>247.60000610352</ele>
        <time>2023-05-26T07:35:34.000Z</time>
      </trkpt>
      <trkpt lat="43.72289" lon="3.40303">
        <ele>247.19999694824</ele>
        <time>2023-05-26T07:35:42.000Z</time>
      </trkpt>
      <trkpt lat="43.72289" lon="3.40303">
        <ele>247.19999694824</ele>
        <time>2023-05-26T07:35:50.000Z</time>
      </trkpt>
      <trkpt lat="43.72289" lon="3.40301">
        <ele>247</ele>
        <time>2023-05-26T07:36:02.000Z</time>
      </trkpt>
      <trkpt lat="43.72289" lon="3.403">
        <ele>247.19999694824</ele>
        <time>2023-05-26T07:36:07.000Z</time>
      </trkpt>
      <trkpt lat="43.72288" lon="3.40299">
        <ele>247.19999694824</ele>
        <time>2023-05-26T07:36:12.000Z</time>
      </trkpt>
      <trkpt lat="43.72288" lon="3.403">
        <ele>247</ele>
        <time>2023-05-26T07:36:15.000Z</time>
      </trkpt>
      <trkpt lat="43.72288" lon="3.40299">
        <ele>247</ele>
        <time>2023-05-26T07:36:19.000Z</time>
      </trkpt>
      <trkpt lat="43.72289" lon="3.40301">
        <ele>247</ele>
        <time>2023-05-26T07:36:25.000Z</time>
      </trkpt>
      <trkpt lat="43.72289" lon="3.40302">
        <ele>247</ele>
        <time>2023-05-26T07:36:31.000Z</time>
      </trkpt>
      <trkpt lat="43.72288" lon="3.40301">
        <ele>247</ele>
        <time>2023-05-26T07:36:42.000Z</time>
      </trkpt>
      <trkpt lat="43.72291" lon="3.40295">
        <ele>247.19999694824</ele>
        <time>2023-05-26T07:36:48.000Z</time>
      </trkpt>
      <trkpt lat="43.72295" lon="3.40291">
        <ele>247.19999694824</ele>
        <time>2023-05-26T07:36:53.000Z</time>
      </trkpt>
      <trkpt lat="43.72297" lon="3.4029">
        <ele>247.39999389648</ele>
        <time>2023-05-26T07:36:55.000Z</time>
      </trkpt>
      <trkpt lat="43.72301" lon="3.40289">
        <ele>247.80000305176</ele>
        <time>2023-05-26T07:37:00.000Z</time>
      </trkpt>
      <trkpt lat="43.72302" lon="3.40289">
        <ele>247.80000305176</ele>
        <time>2023-05-26T07:37:01.000Z</time>
      </trkpt>
      <trkpt lat="43.72304" lon="3.40288">
        <ele>248</ele>
        <time>2023-05-26T07:37:03.000Z</time>
      </trkpt>
      <trkpt lat="43.72306" lon="3.40285">
        <ele>248.19999694824</ele>
        <time>2023-05-26T07:37:06.000Z</time>
      </trkpt>
      <trkpt lat="43.7231" lon="3.40278">
        <ele>248</ele>
        <time>2023-05-26T07:37:12.000Z</time>
      </trkpt>
      <trkpt lat="43.72313" lon="3.40275">
        <ele>248.19999694824</ele>
        <time>2023-05-26T07:37:15.000Z</time>
      </trkpt>
      <trkpt lat="43.72313" lon="3.40274">
        <ele>248.39999389648</ele>
        <time>2023-05-26T07:37:17.000Z</time>
      </trkpt>
      <trkpt lat="43.72313" lon="3.40272">
        <ele>248.39999389648</ele>
        <time>2023-05-26T07:37:18.000Z</time>
      </trkpt>
      <trkpt lat="43.72315" lon="3.4027">
        <ele>248.39999389648</ele>
        <time>2023-05-26T07:37:21.000Z</time>
      </trkpt>
      <trkpt lat="43.72319" lon="3.40268">
        <ele>248.80000305176</ele>
        <time>2023-05-26T07:37:25.000Z</time>
      </trkpt>
      <trkpt lat="43.7232" lon="3.40268">
        <ele>249</ele>
        <time>2023-05-26T07:37:29.000Z</time>
      </trkpt>
      <trkpt lat="43.7232" lon="3.40268">
        <ele>249</ele>
        <time>2023-05-26T07:37:30.000Z</time>
      </trkpt>
      <trkpt lat="43.72326" lon="3.40266">
        <ele>249.19999694824</ele>
        <time>2023-05-26T07:37:37.000Z</time>
      </trkpt>
      <trkpt lat="43.7233" lon="3.40259">
        <ele>249.60000610352</ele>
        <time>2023-05-26T07:37:45.000Z</time>
      </trkpt>
      <trkpt lat="43.72331" lon="3.40257">
        <ele>249.60000610352</ele>
        <time>2023-05-26T07:37:47.000Z</time>
      </trkpt>
      <trkpt lat="43.72334" lon="3.40254">
        <ele>249.60000610352</ele>
        <time>2023-05-26T07:37:51.000Z</time>
      </trkpt>
      <trkpt lat="43.72336" lon="3.40251">
        <ele>249.60000610352</ele>
        <time>2023-05-26T07:37:53.000Z</time>
      </trkpt>
      <trkpt lat="43.7234" lon="3.40248">
        <ele>250</ele>
        <time>2023-05-26T07:37:57.000Z</time>
      </trkpt>
      <trkpt lat="43.72342" lon="3.40242">
        <ele>250.39999389648</ele>
        <time>2023-05-26T07:38:03.000Z</time>
      </trkpt>
      <trkpt lat="43.72342" lon="3.40234">
        <ele>251</ele>
        <time>2023-05-26T07:38:10.000Z</time>
      </trkpt>
      <trkpt lat="43.72342" lon="3.40232">
        <ele>251.19999694824</ele>
        <time>2023-05-26T07:38:11.000Z</time>
      </trkpt>
      <trkpt lat="43.72344" lon="3.40225">
        <ele>251.60000610352</ele>
        <time>2023-05-26T07:38:18.000Z</time>
      </trkpt>
      <trkpt lat="43.72344" lon="3.40224">
        <ele>251.60000610352</ele>
        <time>2023-05-26T07:38:19.000Z</time>
      </trkpt>
      <trkpt lat="43.72347" lon="3.40218">
        <ele>251.80000305176</ele>
        <time>2023-05-26T07:38:24.000Z</time>
      </trkpt>
      <trkpt lat="43.72348" lon="3.40216">
        <ele>252</ele>
        <time>2023-05-26T07:38:26.000Z</time>
      </trkpt>
      <trkpt lat="43.7235" lon="3.40211">
        <ele>252.19999694824</ele>
        <time>2023-05-26T07:38:30.000Z</time>
      </trkpt>
      <trkpt lat="43.72351" lon="3.40209">
        <ele>252.19999694824</ele>
        <time>2023-05-26T07:38:32.000Z</time>
      </trkpt>
      <trkpt lat="43.72352" lon="3.40207">
        <ele>252.39999389648</ele>
        <time>2023-05-26T07:38:34.000Z</time>
      </trkpt>
      <trkpt lat="43.72354" lon="3.40203">
        <ele>252.60000610352</ele>
        <time>2023-05-26T07:38:38.000Z</time>
      </trkpt>
      <trkpt lat="43.72355" lon="3.402">
        <ele>253</ele>
        <time>2023-05-26T07:38:41.000Z</time>
      </trkpt>
      <trkpt lat="43.72356" lon="3.40197">
        <ele>253.19999694824</ele>
        <time>2023-05-26T07:38:44.000Z</time>
      </trkpt>
      <trkpt lat="43.72357" lon="3.40195">
        <ele>253.39999389648</ele>
        <time>2023-05-26T07:38:46.000Z</time>
      </trkpt>
      <trkpt lat="43.72358" lon="3.40189">
        <ele>254</ele>
        <time>2023-05-26T07:38:52.000Z</time>
      </trkpt>
      <trkpt lat="43.7236" lon="3.40184">
        <ele>254.19999694824</ele>
        <time>2023-05-26T07:38:57.000Z</time>
      </trkpt>
      <trkpt lat="43.72361" lon="3.40182">
        <ele>254.60000610352</ele>
        <time>2023-05-26T07:38:59.000Z</time>
      </trkpt>
      <trkpt lat="43.72363" lon="3.40176">
        <ele>255.60000610352</ele>
        <time>2023-05-26T07:39:05.000Z</time>
      </trkpt>
      <trkpt lat="43.72364" lon="3.40176">
        <ele>255.80000305176</ele>
        <time>2023-05-26T07:39:06.000Z</time>
      </trkpt>
      <trkpt lat="43.72367" lon="3.40169">
        <ele>256.39999389648</ele>
        <time>2023-05-26T07:39:14.000Z</time>
      </trkpt>
      <trkpt lat="43.72367" lon="3.40169">
        <ele>256.60000610352</ele>
        <time>2023-05-26T07:39:15.000Z</time>
      </trkpt>
      <trkpt lat="43.72372" lon="3.40164">
        <ele>257</ele>
        <time>2023-05-26T07:39:23.000Z</time>
      </trkpt>
      <trkpt lat="43.72374" lon="3.4016">
        <ele>257.60000610352</ele>
        <time>2023-05-26T07:39:28.000Z</time>
      </trkpt>
      <trkpt lat="43.72375" lon="3.40159">
        <ele>257.60000610352</ele>
        <time>2023-05-26T07:39:29.000Z</time>
      </trkpt>
      <trkpt lat="43.72377" lon="3.40155">
        <ele>257.60000610352</ele>
        <time>2023-05-26T07:39:33.000Z</time>
      </trkpt>
      <trkpt lat="43.72379" lon="3.40153">
        <ele>258</ele>
        <time>2023-05-26T07:39:36.000Z</time>
      </trkpt>
      <trkpt lat="43.7238" lon="3.4015">
        <ele>258.60000610352</ele>
        <time>2023-05-26T07:39:39.000Z</time>
      </trkpt>
      <trkpt lat="43.72383" lon="3.40145">
        <ele>259.39999389648</ele>
        <time>2023-05-26T07:39:45.000Z</time>
      </trkpt>
      <trkpt lat="43.72385" lon="3.40142">
        <ele>259.60000610352</ele>
        <time>2023-05-26T07:39:49.000Z</time>
      </trkpt>
      <trkpt lat="43.72386" lon="3.4014">
        <ele>260</ele>
        <time>2023-05-26T07:39:53.000Z</time>
      </trkpt>
      <trkpt lat="43.72388" lon="3.40137">
        <ele>260.60000610352</ele>
        <time>2023-05-26T07:39:59.000Z</time>
      </trkpt>
      <trkpt lat="43.72389" lon="3.40136">
        <ele>260.60000610352</ele>
        <time>2023-05-26T07:40:01.000Z</time>
      </trkpt>
      <trkpt lat="43.72393" lon="3.40131">
        <ele>261.60000610352</ele>
        <time>2023-05-26T07:40:09.000Z</time>
      </trkpt>
      <trkpt lat="43.72394" lon="3.4013">
        <ele>261.79998779297</ele>
        <time>2023-05-26T07:40:10.000Z</time>
      </trkpt>
      <trkpt lat="43.72398" lon="3.40124">
        <ele>262.79998779297</ele>
        <time>2023-05-26T07:40:19.000Z</time>
      </trkpt>
      <trkpt lat="43.72402" lon="3.40119">
        <ele>263.60000610352</ele>
        <time>2023-05-26T07:40:27.000Z</time>
      </trkpt>
      <trkpt lat="43.72404" lon="3.40118">
        <ele>263.79998779297</ele>
        <time>2023-05-26T07:40:30.000Z</time>
      </trkpt>
      <trkpt lat="43.72408" lon="3.40116">
        <ele>264.39999389648</ele>
        <time>2023-05-26T07:40:35.000Z</time>
      </trkpt>
      <trkpt lat="43.72412" lon="3.40112">
        <ele>264.79998779297</ele>
        <time>2023-05-26T07:40:42.000Z</time>
      </trkpt>
      <trkpt lat="43.72413" lon="3.40111">
        <ele>265</ele>
        <time>2023-05-26T07:40:44.000Z</time>
      </trkpt>
      <trkpt lat="43.72419" lon="3.40109">
        <ele>265.39999389648</ele>
        <time>2023-05-26T07:40:52.000Z</time>
      </trkpt>
      <trkpt lat="43.72424" lon="3.40107">
        <ele>266</ele>
        <time>2023-05-26T07:40:59.000Z</time>
      </trkpt>
      <trkpt lat="43.72426" lon="3.40107">
        <ele>266.20001220703</ele>
        <time>2023-05-26T07:41:02.000Z</time>
      </trkpt>
      <trkpt lat="43.72432" lon="3.40105">
        <ele>267</ele>
        <time>2023-05-26T07:41:10.000Z</time>
      </trkpt>
      <trkpt lat="43.72433" lon="3.40105">
        <ele>267.20001220703</ele>
        <time>2023-05-26T07:41:12.000Z</time>
      </trkpt>
      <trkpt lat="43.7244" lon="3.40103">
        <ele>267.79998779297</ele>
        <time>2023-05-26T07:41:22.000Z</time>
      </trkpt>
      <trkpt lat="43.72441" lon="3.40102">
        <ele>268</ele>
        <time>2023-05-26T07:41:24.000Z</time>
      </trkpt>
      <trkpt lat="43.72446" lon="3.401">
        <ele>268.60000610352</ele>
        <time>2023-05-26T07:41:30.000Z</time>
      </trkpt>
      <trkpt lat="43.72451" lon="3.40096">
        <ele>269</ele>
        <time>2023-05-26T07:41:39.000Z</time>
      </trkpt>
      <trkpt lat="43.72451" lon="3.40097">
        <ele>269</ele>
        <time>2023-05-26T07:41:40.000Z</time>
      </trkpt>
      <trkpt lat="43.72452" lon="3.40096">
        <ele>269.20001220703</ele>
        <time>2023-05-26T07:41:49.000Z</time>
      </trkpt>
      <trkpt lat="43.72453" lon="3.40096">
        <ele>269.39999389648</ele>
        <time>2023-05-26T07:42:00.000Z</time>
      </trkpt>
      <trkpt lat="43.72453" lon="3.40096">
        <ele>269.39999389648</ele>
        <time>2023-05-26T07:42:09.000Z</time>
      </trkpt>
      <trkpt lat="43.72454" lon="3.40093">
        <ele>269.39999389648</ele>
        <time>2023-05-26T07:42:19.000Z</time>
      </trkpt>
      <trkpt lat="43.7246" lon="3.40089">
        <ele>270</ele>
        <time>2023-05-26T07:42:27.000Z</time>
      </trkpt>
      <trkpt lat="43.72461" lon="3.40088">
        <ele>270.20001220703</ele>
        <time>2023-05-26T07:42:29.000Z</time>
      </trkpt>
      <trkpt lat="43.72468" lon="3.40089">
        <ele>270.79998779297</ele>
        <time>2023-05-26T07:42:36.000Z</time>
      </trkpt>
      <trkpt lat="43.7247" lon="3.4009">
        <ele>271.20001220703</ele>
        <time>2023-05-26T07:42:38.000Z</time>
      </trkpt>
      <trkpt lat="43.72476" lon="3.4009">
        <ele>272</ele>
        <time>2023-05-26T07:42:45.000Z</time>
      </trkpt>
      <trkpt lat="43.72478" lon="3.40088">
        <ele>272.20001220703</ele>
        <time>2023-05-26T07:42:48.000Z</time>
      </trkpt>
      <trkpt lat="43.72479" lon="3.40087">
        <ele>272.20001220703</ele>
        <time>2023-05-26T07:42:49.000Z</time>
      </trkpt>
      <trkpt lat="43.72481" lon="3.40084">
        <ele>272.60000610352</ele>
        <time>2023-05-26T07:42:53.000Z</time>
      </trkpt>
      <trkpt lat="43.72485" lon="3.40075">
        <ele>273</ele>
        <time>2023-05-26T07:43:03.000Z</time>
      </trkpt>
      <trkpt lat="43.72488" lon="3.40068">
        <ele>273.20001220703</ele>
        <time>2023-05-26T07:43:10.000Z</time>
      </trkpt>
      <trkpt lat="43.72489" lon="3.40067">
        <ele>273.20001220703</ele>
        <time>2023-05-26T07:43:11.000Z</time>
      </trkpt>
      <trkpt lat="43.72492" lon="3.40061">
        <ele>274</ele>
        <time>2023-05-26T07:43:18.000Z</time>
      </trkpt>
      <trkpt lat="43.72493" lon="3.40058">
        <ele>273.79998779297</ele>
        <time>2023-05-26T07:43:23.000Z</time>
      </trkpt>
      <trkpt lat="43.72497" lon="3.40055">
        <ele>273.79998779297</ele>
        <time>2023-05-26T07:43:29.000Z</time>
      </trkpt>
      <trkpt lat="43.72502" lon="3.40049">
        <ele>274</ele>
        <time>2023-05-26T07:43:38.000Z</time>
      </trkpt>
      <trkpt lat="43.72505" lon="3.40044">
        <ele>274.20001220703</ele>
        <time>2023-05-26T07:43:44.000Z</time>
      </trkpt>
      <trkpt lat="43.72506" lon="3.40043">
        <ele>274.20001220703</ele>
        <time>2023-05-26T07:43:45.000Z</time>
      </trkpt>
      <trkpt lat="43.72511" lon="3.40037">
        <ele>274.60000610352</ele>
        <time>2023-05-26T07:43:53.000Z</time>
      </trkpt>
      <trkpt lat="43.72516" lon="3.4003">
        <ele>274.79998779297</ele>
        <time>2023-05-26T07:44:02.000Z</time>
      </trkpt>
      <trkpt lat="43.7252" lon="3.40025">
        <ele>275.20001220703</ele>
        <time>2023-05-26T07:44:08.000Z</time>
      </trkpt>
      <trkpt lat="43.7252" lon="3.40025">
        <ele>275.39999389648</ele>
        <time>2023-05-26T07:44:10.000Z</time>
      </trkpt>
      <trkpt lat="43.72524" lon="3.40019">
        <ele>275.60000610352</ele>
        <time>2023-05-26T07:44:16.000Z</time>
      </trkpt>
      <trkpt lat="43.72529" lon="3.40013">
        <ele>276</ele>
        <time>2023-05-26T07:44:23.000Z</time>
      </trkpt>
      <trkpt lat="43.72532" lon="3.40011">
        <ele>276.20001220703</ele>
        <time>2023-05-26T07:44:27.000Z</time>
      </trkpt>
      <trkpt lat="43.72536" lon="3.40006">
        <ele>276.60000610352</ele>
        <time>2023-05-26T07:44:34.000Z</time>
      </trkpt>
      <trkpt lat="43.72543" lon="3.4">
        <ele>277</ele>
        <time>2023-05-26T07:44:43.000Z</time>
      </trkpt>
      <trkpt lat="43.72544" lon="3.39998">
        <ele>277.20001220703</ele>
        <time>2023-05-26T07:44:46.000Z</time>
      </trkpt>
      <trkpt lat="43.72547" lon="3.39996">
        <ele>277.60000610352</ele>
        <time>2023-05-26T07:44:50.000Z</time>
      </trkpt>
      <trkpt lat="43.72548" lon="3.39995">
        <ele>277.60000610352</ele>
        <time>2023-05-26T07:44:51.000Z</time>
      </trkpt>
      <trkpt lat="43.72553" lon="3.3999">
        <ele>278</ele>
        <time>2023-05-26T07:44:59.000Z</time>
      </trkpt>
      <trkpt lat="43.72556" lon="3.39987">
        <ele>278.20001220703</ele>
        <time>2023-05-26T07:45:04.000Z</time>
      </trkpt>
      <trkpt lat="43.72559" lon="3.39985">
        <ele>278.60000610352</ele>
        <time>2023-05-26T07:45:08.000Z</time>
      </trkpt>
      <trkpt lat="43.72564" lon="3.3998">
        <ele>279.20001220703</ele>
        <time>2023-05-26T07:45:16.000Z</time>
      </trkpt>
      <trkpt lat="43.72565" lon="3.39979">
        <ele>279.39999389648</ele>
        <time>2023-05-26T07:45:18.000Z</time>
      </trkpt>
      <trkpt lat="43.72568" lon="3.39974">
        <ele>279.79998779297</ele>
        <time>2023-05-26T07:45:24.000Z</time>
      </trkpt>
      <trkpt lat="43.72571" lon="3.39967">
        <ele>280.39999389648</ele>
        <time>2023-05-26T07:45:32.000Z</time>
      </trkpt>
      <trkpt lat="43.72572" lon="3.39965">
        <ele>280.79998779297</ele>
        <time>2023-05-26T07:45:34.000Z</time>
      </trkpt>
      <trkpt lat="43.72575" lon="3.39957">
        <ele>281.39999389648</ele>
        <time>2023-05-26T07:45:43.000Z</time>
      </trkpt>
      <trkpt lat="43.72575" lon="3.39956">
        <ele>281.39999389648</ele>
        <time>2023-05-26T07:45:44.000Z</time>
      </trkpt>
      <trkpt lat="43.72578" lon="3.39948">
        <ele>282.39999389648</ele>
        <time>2023-05-26T07:45:52.000Z</time>
      </trkpt>
      <trkpt lat="43.72578" lon="3.39947">
        <ele>282.60000610352</ele>
        <time>2023-05-26T07:45:53.000Z</time>
      </trkpt>
      <trkpt lat="43.72581" lon="3.39943">
        <ele>283</ele>
        <time>2023-05-26T07:45:59.000Z</time>
      </trkpt>
      <trkpt lat="43.72585" lon="3.39936">
        <ele>283.60000610352</ele>
        <time>2023-05-26T07:46:07.000Z</time>
      </trkpt>
      <trkpt lat="43.72587" lon="3.39932">
        <ele>284.79998779297</ele>
        <time>2023-05-26T07:46:13.000Z</time>
      </trkpt>
      <trkpt lat="43.72587" lon="3.39931">
        <ele>285</ele>
        <time>2023-05-26T07:46:15.000Z</time>
      </trkpt>
      <trkpt lat="43.7259" lon="3.39925">
        <ele>285.79998779297</ele>
        <time>2023-05-26T07:46:23.000Z</time>
      </trkpt>
      <trkpt lat="43.72591" lon="3.3992">
        <ele>286.79998779297</ele>
        <time>2023-05-26T07:46:29.000Z</time>
      </trkpt>
      <trkpt lat="43.72592" lon="3.39917">
        <ele>287.39999389648</ele>
        <time>2023-05-26T07:46:34.000Z</time>
      </trkpt>
      <trkpt lat="43.72593" lon="3.39915">
        <ele>287.79998779297</ele>
        <time>2023-05-26T07:46:39.000Z</time>
      </trkpt>
      <trkpt lat="43.72593" lon="3.39915">
        <ele>288.20001220703</ele>
        <time>2023-05-26T07:46:42.000Z</time>
      </trkpt>
      <trkpt lat="43.72593" lon="3.39911">
        <ele>288.39999389648</ele>
        <time>2023-05-26T07:46:48.000Z</time>
      </trkpt>
      <trkpt lat="43.72594" lon="3.39906">
        <ele>289</ele>
        <time>2023-05-26T07:46:54.000Z</time>
      </trkpt>
      <trkpt lat="43.72594" lon="3.39904">
        <ele>289</ele>
        <time>2023-05-26T07:46:56.000Z</time>
      </trkpt>
      <trkpt lat="43.72593" lon="3.39897">
        <ele>290</ele>
        <time>2023-05-26T07:47:03.000Z</time>
      </trkpt>
      <trkpt lat="43.72593" lon="3.39894">
        <ele>290.39999389648</ele>
        <time>2023-05-26T07:47:06.000Z</time>
      </trkpt>
      <trkpt lat="43.72592" lon="3.39889">
        <ele>291.20001220703</ele>
        <time>2023-05-26T07:47:12.000Z</time>
      </trkpt>
      <trkpt lat="43.72592" lon="3.39886">
        <ele>291.39999389648</ele>
        <time>2023-05-26T07:47:15.000Z</time>
      </trkpt>
      <trkpt lat="43.72593" lon="3.3988">
        <ele>292.39999389648</ele>
        <time>2023-05-26T07:47:21.000Z</time>
      </trkpt>
      <trkpt lat="43.72594" lon="3.39877">
        <ele>292.60000610352</ele>
        <time>2023-05-26T07:47:25.000Z</time>
      </trkpt>
      <trkpt lat="43.72597" lon="3.39869">
        <ele>293.39999389648</ele>
        <time>2023-05-26T07:47:34.000Z</time>
      </trkpt>
      <trkpt lat="43.72597" lon="3.39868">
        <ele>293.39999389648</ele>
        <time>2023-05-26T07:47:35.000Z</time>
      </trkpt>
      <trkpt lat="43.726" lon="3.39863">
        <ele>294.39999389648</ele>
        <time>2023-05-26T07:47:42.000Z</time>
      </trkpt>
      <trkpt lat="43.72601" lon="3.39861">
        <ele>294.60000610352</ele>
        <time>2023-05-26T07:47:44.000Z</time>
      </trkpt>
      <trkpt lat="43.72606" lon="3.39855">
        <ele>295.60000610352</ele>
        <time>2023-05-26T07:47:54.000Z</time>
      </trkpt>
      <trkpt lat="43.7261" lon="3.3985">
        <ele>296.60000610352</ele>
        <time>2023-05-26T07:48:02.000Z</time>
      </trkpt>
      <trkpt lat="43.72611" lon="3.39848">
        <ele>296.79998779297</ele>
        <time>2023-05-26T07:48:04.000Z</time>
      </trkpt>
      <trkpt lat="43.72615" lon="3.39844">
        <ele>297.60000610352</ele>
        <time>2023-05-26T07:48:12.000Z</time>
      </trkpt>
      <trkpt lat="43.72618" lon="3.39841">
        <ele>298.60000610352</ele>
        <time>2023-05-26T07:48:19.000Z</time>
      </trkpt>
      <trkpt lat="43.72619" lon="3.3984">
        <ele>298.79998779297</ele>
        <time>2023-05-26T07:48:21.000Z</time>
      </trkpt>
      <trkpt lat="43.72625" lon="3.39836">
        <ele>299.79998779297</ele>
        <time>2023-05-26T07:48:30.000Z</time>
      </trkpt>
      <trkpt lat="43.7263" lon="3.39832">
        <ele>300.60000610352</ele>
        <time>2023-05-26T07:48:38.000Z</time>
      </trkpt>
      <trkpt lat="43.72632" lon="3.39831">
        <ele>300.79998779297</ele>
        <time>2023-05-26T07:48:41.000Z</time>
      </trkpt>
      <trkpt lat="43.72634" lon="3.3983">
        <ele>301</ele>
        <time>2023-05-26T07:48:45.000Z</time>
      </trkpt>
      <trkpt lat="43.72636" lon="3.39828">
        <ele>301.79998779297</ele>
        <time>2023-05-26T07:48:49.000Z</time>
      </trkpt>
      <trkpt lat="43.72639" lon="3.39824">
        <ele>302.39999389648</ele>
        <time>2023-05-26T07:48:54.000Z</time>
      </trkpt>
      <trkpt lat="43.72641" lon="3.39823">
        <ele>302.79998779297</ele>
        <time>2023-05-26T07:48:57.000Z</time>
      </trkpt>
      <trkpt lat="43.72643" lon="3.39822">
        <ele>303.20001220703</ele>
        <time>2023-05-26T07:49:03.000Z</time>
      </trkpt>
      <trkpt lat="43.72642" lon="3.39821">
        <ele>303</ele>
        <time>2023-05-26T07:49:11.000Z</time>
      </trkpt>
      <trkpt lat="43.72642" lon="3.39821">
        <ele>303.20001220703</ele>
        <time>2023-05-26T07:49:23.000Z</time>
      </trkpt>
      <trkpt lat="43.72642" lon="3.39821">
        <ele>303.20001220703</ele>
        <time>2023-05-26T07:49:33.000Z</time>
      </trkpt>
      <trkpt lat="43.72643" lon="3.39822">
        <ele>303.60000610352</ele>
        <time>2023-05-26T07:49:45.000Z</time>
      </trkpt>
      <trkpt lat="43.72643" lon="3.39822">
        <ele>303.39999389648</ele>
        <time>2023-05-26T07:49:54.000Z</time>
      </trkpt>
      <trkpt lat="43.72643" lon="3.39822">
        <ele>303.39999389648</ele>
        <time>2023-05-26T07:50:05.000Z</time>
      </trkpt>
      <trkpt lat="43.72642" lon="3.39822">
        <ele>302.79998779297</ele>
        <time>2023-05-26T07:50:16.000Z</time>
      </trkpt>
      <trkpt lat="43.72642" lon="3.39822">
        <ele>303.60000610352</ele>
        <time>2023-05-26T07:50:26.000Z</time>
      </trkpt>
      <trkpt lat="43.72642" lon="3.39822">
        <ele>303.39999389648</ele>
        <time>2023-05-26T07:50:36.000Z</time>
      </trkpt>
      <trkpt lat="43.72642" lon="3.39822">
        <ele>303.39999389648</ele>
        <time>2023-05-26T07:50:44.000Z</time>
      </trkpt>
      <trkpt lat="43.72643" lon="3.3982">
        <ele>303.20001220703</ele>
        <time>2023-05-26T07:50:52.000Z</time>
      </trkpt>
      <trkpt lat="43.72646" lon="3.39815">
        <ele>303.79998779297</ele>
        <time>2023-05-26T07:50:59.000Z</time>
      </trkpt>
      <trkpt lat="43.72647" lon="3.39814">
        <ele>304</ele>
        <time>2023-05-26T07:51:01.000Z</time>
      </trkpt>
      <trkpt lat="43.72651" lon="3.3981">
        <ele>304.60000610352</ele>
        <time>2023-05-26T07:51:09.000Z</time>
      </trkpt>
      <trkpt lat="43.72653" lon="3.39808">
        <ele>305</ele>
        <time>2023-05-26T07:51:12.000Z</time>
      </trkpt>
      <trkpt lat="43.72656" lon="3.39804">
        <ele>305.79998779297</ele>
        <time>2023-05-26T07:51:18.000Z</time>
      </trkpt>
      <trkpt lat="43.72658" lon="3.39803">
        <ele>306</ele>
        <time>2023-05-26T07:51:21.000Z</time>
      </trkpt>
      <trkpt lat="43.7266" lon="3.39801">
        <ele>306.39999389648</ele>
        <time>2023-05-26T07:51:25.000Z</time>
      </trkpt>
      <trkpt lat="43.72663" lon="3.39799">
        <ele>307.20001220703</ele>
        <time>2023-05-26T07:51:30.000Z</time>
      </trkpt>
      <trkpt lat="43.72667" lon="3.39796">
        <ele>307.60000610352</ele>
        <time>2023-05-26T07:51:35.000Z</time>
      </trkpt>
      <trkpt lat="43.72672" lon="3.39792">
        <ele>308.20001220703</ele>
        <time>2023-05-26T07:51:44.000Z</time>
      </trkpt>
      <trkpt lat="43.72673" lon="3.39792">
        <ele>308.39999389648</ele>
        <time>2023-05-26T07:51:45.000Z</time>
      </trkpt>
      <trkpt lat="43.72678" lon="3.39789">
        <ele>309</ele>
        <time>2023-05-26T07:51:52.000Z</time>
      </trkpt>
      <trkpt lat="43.7268" lon="3.39788">
        <ele>309.20001220703</ele>
        <time>2023-05-26T07:51:55.000Z</time>
      </trkpt>
      <trkpt lat="43.72683" lon="3.39785">
        <ele>309.79998779297</ele>
        <time>2023-05-26T07:52:00.000Z</time>
      </trkpt>
      <trkpt lat="43.72687" lon="3.39783">
        <ele>310.39999389648</ele>
        <time>2023-05-26T07:52:05.000Z</time>
      </trkpt>
      <trkpt lat="43.72689" lon="3.39781">
        <ele>310.79998779297</ele>
        <time>2023-05-26T07:52:09.000Z</time>
      </trkpt>
      <trkpt lat="43.72694" lon="3.39778">
        <ele>311.39999389648</ele>
        <time>2023-05-26T07:52:16.000Z</time>
      </trkpt>
      <trkpt lat="43.72696" lon="3.39777">
        <ele>311.79998779297</ele>
        <time>2023-05-26T07:52:19.000Z</time>
      </trkpt>
      <trkpt lat="43.727" lon="3.39776">
        <ele>312.39999389648</ele>
        <time>2023-05-26T07:52:25.000Z</time>
      </trkpt>
      <trkpt lat="43.72707" lon="3.39774">
        <ele>313</ele>
        <time>2023-05-26T07:52:33.000Z</time>
      </trkpt>
      <trkpt lat="43.72711" lon="3.39775">
        <ele>313.39999389648</ele>
        <time>2023-05-26T07:52:38.000Z</time>
      </trkpt>
      <trkpt lat="43.72714" lon="3.39775">
        <ele>313.60000610352</ele>
        <time>2023-05-26T07:52:41.000Z</time>
      </trkpt>
      <trkpt lat="43.72715" lon="3.39775">
        <ele>313.79998779297</ele>
        <time>2023-05-26T07:52:43.000Z</time>
      </trkpt>
      <trkpt lat="43.72717" lon="3.39776">
        <ele>313.79998779297</ele>
        <time>2023-05-26T07:52:46.000Z</time>
      </trkpt>
      <trkpt lat="43.72721" lon="3.39775">
        <ele>314</ele>
        <time>2023-05-26T07:52:52.000Z</time>
      </trkpt>
      <trkpt lat="43.72726" lon="3.39774">
        <ele>314.60000610352</ele>
        <time>2023-05-26T07:52:58.000Z</time>
      </trkpt>
      <trkpt lat="43.72727" lon="3.39774">
        <ele>314.60000610352</ele>
        <time>2023-05-26T07:52:59.000Z</time>
      </trkpt>
      <trkpt lat="43.72734" lon="3.39773">
        <ele>315.20001220703</ele>
        <time>2023-05-26T07:53:08.000Z</time>
      </trkpt>
      <trkpt lat="43.72736" lon="3.39772">
        <ele>315.60000610352</ele>
        <time>2023-05-26T07:53:12.000Z</time>
      </trkpt>
      <trkpt lat="43.72739" lon="3.3977">
        <ele>315.60000610352</ele>
        <time>2023-05-26T07:53:15.000Z</time>
      </trkpt>
      <trkpt lat="43.72744" lon="3.39768">
        <ele>316.20001220703</ele>
        <time>2023-05-26T07:53:22.000Z</time>
      </trkpt>
      <trkpt lat="43.72747" lon="3.39765">
        <ele>316.60000610352</ele>
        <time>2023-05-26T07:53:28.000Z</time>
      </trkpt>
      <trkpt lat="43.72749" lon="3.39764">
        <ele>316.60000610352</ele>
        <time>2023-05-26T07:53:30.000Z</time>
      </trkpt>
      <trkpt lat="43.72753" lon="3.39761">
        <ele>317.39999389648</ele>
        <time>2023-05-26T07:53:36.000Z</time>
      </trkpt>
      <trkpt lat="43.72754" lon="3.3976">
        <ele>317.60000610352</ele>
        <time>2023-05-26T07:53:38.000Z</time>
      </trkpt>
      <trkpt lat="43.72758" lon="3.39759">
        <ele>318.20001220703</ele>
        <time>2023-05-26T07:53:44.000Z</time>
      </trkpt>
      <trkpt lat="43.72762" lon="3.39757">
        <ele>318.60000610352</ele>
        <time>2023-05-26T07:53:50.000Z</time>
      </trkpt>
      <trkpt lat="43.72763" lon="3.39756">
        <ele>318.79998779297</ele>
        <time>2023-05-26T07:53:52.000Z</time>
      </trkpt>
      <trkpt lat="43.72767" lon="3.39752">
        <ele>319.60000610352</ele>
        <time>2023-05-26T07:53:59.000Z</time>
      </trkpt>
      <trkpt lat="43.72768" lon="3.39752">
        <ele>319.60000610352</ele>
        <time>2023-05-26T07:54:00.000Z</time>
      </trkpt>
      <trkpt lat="43.72771" lon="3.39751">
        <ele>320</ele>
        <time>2023-05-26T07:54:05.000Z</time>
      </trkpt>
      <trkpt lat="43.72775" lon="3.39749">
        <ele>320.79998779297</ele>
        <time>2023-05-26T07:54:10.000Z</time>
      </trkpt>
      <trkpt lat="43.72776" lon="3.39748">
        <ele>321</ele>
        <time>2023-05-26T07:54:12.000Z</time>
      </trkpt>
      <trkpt lat="43.7278" lon="3.39745">
        <ele>321.60000610352</ele>
        <time>2023-05-26T07:54:19.000Z</time>
      </trkpt>
      <trkpt lat="43.72782" lon="3.39743">
        <ele>322</ele>
        <time>2023-05-26T07:54:22.000Z</time>
      </trkpt>
      <trkpt lat="43.72785" lon="3.39741">
        <ele>322.60000610352</ele>
        <time>2023-05-26T07:54:27.000Z</time>
      </trkpt>
      <trkpt lat="43.72786" lon="3.3974">
        <ele>323</ele>
        <time>2023-05-26T07:54:29.000Z</time>
      </trkpt>
      <trkpt lat="43.7279" lon="3.39737">
        <ele>323.60000610352</ele>
        <time>2023-05-26T07:54:34.000Z</time>
      </trkpt>
      <trkpt lat="43.72792" lon="3.39733">
        <ele>324</ele>
        <time>2023-05-26T07:54:40.000Z</time>
      </trkpt>
      <trkpt lat="43.72797" lon="3.3973">
        <ele>325</ele>
        <time>2023-05-26T07:54:48.000Z</time>
      </trkpt>
      <trkpt lat="43.72801" lon="3.39726">
        <ele>326</ele>
        <time>2023-05-26T07:54:55.000Z</time>
      </trkpt>
      <trkpt lat="43.72802" lon="3.39726">
        <ele>326.20001220703</ele>
        <time>2023-05-26T07:54:56.000Z</time>
      </trkpt>
      <trkpt lat="43.72806" lon="3.39723">
        <ele>327</ele>
        <time>2023-05-26T07:55:02.000Z</time>
      </trkpt>
      <trkpt lat="43.72807" lon="3.39722">
        <ele>327.20001220703</ele>
        <time>2023-05-26T07:55:04.000Z</time>
      </trkpt>
      <trkpt lat="43.72811" lon="3.3972">
        <ele>327.79998779297</ele>
        <time>2023-05-26T07:55:10.000Z</time>
      </trkpt>
      <trkpt lat="43.72815" lon="3.39717">
        <ele>328.20001220703</ele>
        <time>2023-05-26T07:55:15.000Z</time>
      </trkpt>
      <trkpt lat="43.72817" lon="3.39715">
        <ele>329</ele>
        <time>2023-05-26T07:55:19.000Z</time>
      </trkpt>
      <trkpt lat="43.72818" lon="3.39714">
        <ele>329.39999389648</ele>
        <time>2023-05-26T07:55:21.000Z</time>
      </trkpt>
      <trkpt lat="43.72822" lon="3.39711">
        <ele>330.20001220703</ele>
        <time>2023-05-26T07:55:27.000Z</time>
      </trkpt>
      <trkpt lat="43.72824" lon="3.39709">
        <ele>330.39999389648</ele>
        <time>2023-05-26T07:55:30.000Z</time>
      </trkpt>
      <trkpt lat="43.72828" lon="3.39705">
        <ele>330.79998779297</ele>
        <time>2023-05-26T07:55:36.000Z</time>
      </trkpt>
      <trkpt lat="43.7283" lon="3.39704">
        <ele>331.39999389648</ele>
        <time>2023-05-26T07:55:39.000Z</time>
      </trkpt>
      <trkpt lat="43.72833" lon="3.39701">
        <ele>331.79998779297</ele>
        <time>2023-05-26T07:55:44.000Z</time>
      </trkpt>
      <trkpt lat="43.72836" lon="3.39698">
        <ele>332.39999389648</ele>
        <time>2023-05-26T07:55:48.000Z</time>
      </trkpt>
      <trkpt lat="43.72837" lon="3.39698">
        <ele>332.39999389648</ele>
        <time>2023-05-26T07:55:49.000Z</time>
      </trkpt>
      <trkpt lat="43.72839" lon="3.397">
        <ele>332.79998779297</ele>
        <time>2023-05-26T07:55:52.000Z</time>
      </trkpt>
      <trkpt lat="43.7284" lon="3.39701">
        <ele>333</ele>
        <time>2023-05-26T07:55:53.000Z</time>
      </trkpt>
      <trkpt lat="43.72841" lon="3.39702">
        <ele>333.39999389648</ele>
        <time>2023-05-26T07:55:56.000Z</time>
      </trkpt>
      <trkpt lat="43.72841" lon="3.39702">
        <ele>333.60000610352</ele>
        <time>2023-05-26T07:55:59.000Z</time>
      </trkpt>
      <trkpt lat="43.7284" lon="3.397">
        <ele>333.79998779297</ele>
        <time>2023-05-26T07:56:07.000Z</time>
      </trkpt>
      <trkpt lat="43.72841" lon="3.397">
        <ele>333.79998779297</ele>
        <time>2023-05-26T07:56:13.000Z</time>
      </trkpt>
      <trkpt lat="43.72841" lon="3.39699">
        <ele>333.20001220703</ele>
        <time>2023-05-26T07:56:20.000Z</time>
      </trkpt>
      <trkpt lat="43.72841" lon="3.39701">
        <ele>333.60000610352</ele>
        <time>2023-05-26T07:56:26.000Z</time>
      </trkpt>
      <trkpt lat="43.72841" lon="3.39703">
        <ele>333.79998779297</ele>
        <time>2023-05-26T07:56:34.000Z</time>
      </trkpt>
      <trkpt lat="43.72842" lon="3.39704">
        <ele>333.79998779297</ele>
        <time>2023-05-26T07:56:45.000Z</time>
      </trkpt>
      <trkpt lat="43.72843" lon="3.39704">
        <ele>333.79998779297</ele>
        <time>2023-05-26T07:56:51.000Z</time>
      </trkpt>
      <trkpt lat="43.72843" lon="3.39705">
        <ele>333.79998779297</ele>
        <time>2023-05-26T07:56:58.000Z</time>
      </trkpt>
      <trkpt lat="43.72842" lon="3.39705">
        <ele>333.79998779297</ele>
        <time>2023-05-26T07:57:06.000Z</time>
      </trkpt>
      <trkpt lat="43.72843" lon="3.39706">
        <ele>333.39999389648</ele>
        <time>2023-05-26T07:57:14.000Z</time>
      </trkpt>
      <trkpt lat="43.72843" lon="3.39706">
        <ele>333</ele>
        <time>2023-05-26T07:57:21.000Z</time>
      </trkpt>
      <trkpt lat="43.72843" lon="3.39704">
        <ele>333</ele>
        <time>2023-05-26T07:57:27.000Z</time>
      </trkpt>
      <trkpt lat="43.72843" lon="3.39704">
        <ele>333</ele>
        <time>2023-05-26T07:57:36.000Z</time>
      </trkpt>
      <trkpt lat="43.72842" lon="3.39702">
        <ele>333.20001220703</ele>
        <time>2023-05-26T07:57:42.000Z</time>
      </trkpt>
      <trkpt lat="43.72842" lon="3.39702">
        <ele>333.39999389648</ele>
        <time>2023-05-26T07:57:47.000Z</time>
      </trkpt>
      <trkpt lat="43.72842" lon="3.39704">
        <ele>333.20001220703</ele>
        <time>2023-05-26T07:57:55.000Z</time>
      </trkpt>
      <trkpt lat="43.72843" lon="3.39705">
        <ele>333.39999389648</ele>
        <time>2023-05-26T07:58:05.000Z</time>
      </trkpt>
      <trkpt lat="43.72843" lon="3.39705">
        <ele>333.39999389648</ele>
        <time>2023-05-26T07:58:13.000Z</time>
      </trkpt>
      <trkpt lat="43.72844" lon="3.39706">
        <ele>333.20001220703</ele>
        <time>2023-05-26T07:58:27.000Z</time>
      </trkpt>
      <trkpt lat="43.72844" lon="3.39706">
        <ele>333.20001220703</ele>
        <time>2023-05-26T07:58:36.000Z</time>
      </trkpt>
      <trkpt lat="43.72843" lon="3.39707">
        <ele>333.39999389648</ele>
        <time>2023-05-26T07:58:55.000Z</time>
      </trkpt>
      <trkpt lat="43.72843" lon="3.39706">
        <ele>333.39999389648</ele>
        <time>2023-05-26T07:59:14.000Z</time>
      </trkpt>
      <trkpt lat="43.72844" lon="3.39708">
        <ele>333.20001220703</ele>
        <time>2023-05-26T07:59:27.000Z</time>
      </trkpt>
      <trkpt lat="43.72843" lon="3.39707">
        <ele>333</ele>
        <time>2023-05-26T07:59:53.000Z</time>
      </trkpt>
      <trkpt lat="43.72843" lon="3.39708">
        <ele>333</ele>
        <time>2023-05-26T08:00:10.000Z</time>
      </trkpt>
      <trkpt lat="43.72843" lon="3.39708">
        <ele>333</ele>
        <time>2023-05-26T08:00:35.000Z</time>
      </trkpt>
      <trkpt lat="43.72843" lon="3.39708">
        <ele>333</ele>
        <time>2023-05-26T08:00:58.000Z</time>
      </trkpt>
      <trkpt lat="43.72843" lon="3.39708">
        <ele>333</ele>
        <time>2023-05-26T08:01:18.000Z</time>
      </trkpt>
      <trkpt lat="43.72843" lon="3.39708">
        <ele>333</ele>
        <time>2023-05-26T08:01:34.000Z</time>
      </trkpt>
      <trkpt lat="43.72843" lon="3.39708">
        <ele>333</ele>
        <time>2023-05-26T08:01:57.000Z</time>
      </trkpt>
      <trkpt lat="43.72842" lon="3.39708">
        <ele>333.20001220703</ele>
        <time>2023-05-26T08:02:15.000Z</time>
      </trkpt>
      <trkpt lat="43.72842" lon="3.39707">
        <ele>333</ele>
        <time>2023-05-26T08:02:27.000Z</time>
      </trkpt>
      <trkpt lat="43.72842" lon="3.39706">
        <ele>333.20001220703</ele>
        <time>2023-05-26T08:02:43.000Z</time>
      </trkpt>
      <trkpt lat="43.72842" lon="3.39705">
        <ele>333</ele>
        <time>2023-05-26T08:02:49.000Z</time>
      </trkpt>
      <trkpt lat="43.72843" lon="3.39704">
        <ele>333.20001220703</ele>
        <time>2023-05-26T08:02:58.000Z</time>
      </trkpt>
      <trkpt lat="43.72841" lon="3.39703">
        <ele>333.79998779297</ele>
        <time>2023-05-26T08:03:05.000Z</time>
      </trkpt>
      <trkpt lat="43.72843" lon="3.39705">
        <ele>334</ele>
        <time>2023-05-26T08:03:19.000Z</time>
      </trkpt>
      <trkpt lat="43.72843" lon="3.39704">
        <ele>333</ele>
        <time>2023-05-26T08:03:29.000Z</time>
      </trkpt>
      <trkpt lat="43.72842" lon="3.39703">
        <ele>333</ele>
        <time>2023-05-26T08:03:38.000Z</time>
      </trkpt>
      <trkpt lat="43.7284" lon="3.39705">
        <ele>333.60000610352</ele>
        <time>2023-05-26T08:03:47.000Z</time>
      </trkpt>
      <trkpt lat="43.72843" lon="3.39704">
        <ele>333.79998779297</ele>
        <time>2023-05-26T08:03:54.000Z</time>
      </trkpt>
      <trkpt lat="43.72844" lon="3.39705">
        <ele>333.39999389648</ele>
        <time>2023-05-26T08:04:02.000Z</time>
      </trkpt>
      <trkpt lat="43.72845" lon="3.39704">
        <ele>333</ele>
        <time>2023-05-26T08:04:11.000Z</time>
      </trkpt>
      <trkpt lat="43.72844" lon="3.39705">
        <ele>333.39999389648</ele>
        <time>2023-05-26T08:04:18.000Z</time>
      </trkpt>
      <trkpt lat="43.72845" lon="3.39706">
        <ele>333.39999389648</ele>
        <time>2023-05-26T08:04:29.000Z</time>
      </trkpt>
      <trkpt lat="43.72844" lon="3.39705">
        <ele>333.20001220703</ele>
        <time>2023-05-26T08:04:36.000Z</time>
      </trkpt>
      <trkpt lat="43.72842" lon="3.39702">
        <ele>333</ele>
        <time>2023-05-26T08:04:43.000Z</time>
      </trkpt>
      <trkpt lat="43.72842" lon="3.39701">
        <ele>332.60000610352</ele>
        <time>2023-05-26T08:04:56.000Z</time>
      </trkpt>
      <trkpt lat="43.72842" lon="3.39701">
        <ele>332.39999389648</ele>
        <time>2023-05-26T08:04:57.000Z</time>
      </trkpt>
      <trkpt lat="43.72842" lon="3.397">
        <ele>332.60000610352</ele>
        <time>2023-05-26T08:05:07.000Z</time>
      </trkpt>
      <trkpt lat="43.72843" lon="3.39699">
        <ele>332.39999389648</ele>
        <time>2023-05-26T08:05:20.000Z</time>
      </trkpt>
      <trkpt lat="43.72843" lon="3.39701">
        <ele>333</ele>
        <time>2023-05-26T08:05:27.000Z</time>
      </trkpt>
      <trkpt lat="43.72844" lon="3.397">
        <ele>333.39999389648</ele>
        <time>2023-05-26T08:05:34.000Z</time>
      </trkpt>
      <trkpt lat="43.72842" lon="3.39701">
        <ele>333.60000610352</ele>
        <time>2023-05-26T08:05:40.000Z</time>
      </trkpt>
      <trkpt lat="43.72842" lon="3.39703">
        <ele>333.39999389648</ele>
        <time>2023-05-26T08:05:57.000Z</time>
      </trkpt>
      <trkpt lat="43.72842" lon="3.39703">
        <ele>333.39999389648</ele>
        <time>2023-05-26T08:06:06.000Z</time>
      </trkpt>
      <trkpt lat="43.72843" lon="3.39702">
        <ele>333.39999389648</ele>
        <time>2023-05-26T08:06:23.000Z</time>
      </trkpt>
      <trkpt lat="43.72842" lon="3.39703">
        <ele>333.20001220703</ele>
        <time>2023-05-26T08:06:31.000Z</time>
      </trkpt>
      <trkpt lat="43.72844" lon="3.39703">
        <ele>333.20001220703</ele>
        <time>2023-05-26T08:06:41.000Z</time>
      </trkpt>
      <trkpt lat="43.72844" lon="3.39705">
        <ele>332.79998779297</ele>
        <time>2023-05-26T08:06:51.000Z</time>
      </trkpt>
      <trkpt lat="43.72844" lon="3.39704">
        <ele>333.60000610352</ele>
        <time>2023-05-26T08:06:58.000Z</time>
      </trkpt>
      <trkpt lat="43.72844" lon="3.39704">
        <ele>333.20001220703</ele>
        <time>2023-05-26T08:07:05.000Z</time>
      </trkpt>
      <trkpt lat="43.72843" lon="3.39704">
        <ele>333.60000610352</ele>
        <time>2023-05-26T08:07:12.000Z</time>
      </trkpt>
      <trkpt lat="43.72843" lon="3.39704">
        <ele>333.39999389648</ele>
        <time>2023-05-26T08:07:23.000Z</time>
      </trkpt>
      <trkpt lat="43.72843" lon="3.39704">
        <ele>333.79998779297</ele>
        <time>2023-05-26T08:07:33.000Z</time>
      </trkpt>
      <trkpt lat="43.72843" lon="3.39701">
        <ele>333.60000610352</ele>
        <time>2023-05-26T08:07:43.000Z</time>
      </trkpt>
      <trkpt lat="43.72847" lon="3.39695">
        <ele>333.60000610352</ele>
        <time>2023-05-26T08:07:50.000Z</time>
      </trkpt>
      <trkpt lat="43.72849" lon="3.39695">
        <ele>334</ele>
        <time>2023-05-26T08:07:56.000Z</time>
      </trkpt>
      <trkpt lat="43.72856" lon="3.39691">
        <ele>334.20001220703</ele>
        <time>2023-05-26T08:08:05.000Z</time>
      </trkpt>
      <trkpt lat="43.72863" lon="3.39687">
        <ele>334.20001220703</ele>
        <time>2023-05-26T08:08:13.000Z</time>
      </trkpt>
      <trkpt lat="43.72867" lon="3.39686">
        <ele>334.60000610352</ele>
        <time>2023-05-26T08:08:19.000Z</time>
      </trkpt>
      <trkpt lat="43.7287" lon="3.39685">
        <ele>334.79998779297</ele>
        <time>2023-05-26T08:08:23.000Z</time>
      </trkpt>
      <trkpt lat="43.72876" lon="3.39684">
        <ele>335.60000610352</ele>
        <time>2023-05-26T08:08:31.000Z</time>
      </trkpt>
      <trkpt lat="43.72877" lon="3.39683">
        <ele>335.79998779297</ele>
        <time>2023-05-26T08:08:32.000Z</time>
      </trkpt>
      <trkpt lat="43.72882" lon="3.39682">
        <ele>336.60000610352</ele>
        <time>2023-05-26T08:08:39.000Z</time>
      </trkpt>
      <trkpt lat="43.72884" lon="3.39681">
        <ele>337</ele>
        <time>2023-05-26T08:08:42.000Z</time>
      </trkpt>
      <trkpt lat="43.72892" lon="3.39679">
        <ele>337.60000610352</ele>
        <time>2023-05-26T08:08:53.000Z</time>
      </trkpt>
      <trkpt lat="43.72893" lon="3.39679">
        <ele>337.79998779297</ele>
        <time>2023-05-26T08:08:54.000Z</time>
      </trkpt>
      <trkpt lat="43.72899" lon="3.39677">
        <ele>338.20001220703</ele>
        <time>2023-05-26T08:09:02.000Z</time>
      </trkpt>
      <trkpt lat="43.72903" lon="3.39676">
        <ele>338.79998779297</ele>
        <time>2023-05-26T08:09:08.000Z</time>
      </trkpt>
      <trkpt lat="43.72904" lon="3.39676">
        <ele>339.20001220703</ele>
        <time>2023-05-26T08:09:10.000Z</time>
      </trkpt>
      <trkpt lat="43.72912" lon="3.39674">
        <ele>339.20001220703</ele>
        <time>2023-05-26T08:09:20.000Z</time>
      </trkpt>
      <trkpt lat="43.7292" lon="3.39671">
        <ele>339.60000610352</ele>
        <time>2023-05-26T08:09:30.000Z</time>
      </trkpt>
      <trkpt lat="43.7292" lon="3.39671">
        <ele>339.79998779297</ele>
        <time>2023-05-26T08:09:33.000Z</time>
      </trkpt>
      <trkpt lat="43.7292" lon="3.39671">
        <ele>340</ele>
        <time>2023-05-26T08:09:35.000Z</time>
      </trkpt>
      <trkpt lat="43.7292" lon="3.39671">
        <ele>340.20001220703</ele>
        <time>2023-05-26T08:09:42.000Z</time>
      </trkpt>
      <trkpt lat="43.72924" lon="3.39668">
        <ele>340.39999389648</ele>
        <time>2023-05-26T08:09:49.000Z</time>
      </trkpt>
      <trkpt lat="43.7293" lon="3.39665">
        <ele>340.20001220703</ele>
        <time>2023-05-26T08:09:56.000Z</time>
      </trkpt>
      <trkpt lat="43.72938" lon="3.39661">
        <ele>340.60000610352</ele>
        <time>2023-05-26T08:10:06.000Z</time>
      </trkpt>
      <trkpt lat="43.72946" lon="3.39657">
        <ele>340.79998779297</ele>
        <time>2023-05-26T08:10:15.000Z</time>
      </trkpt>
      <trkpt lat="43.72946" lon="3.39656">
        <ele>340.79998779297</ele>
        <time>2023-05-26T08:10:16.000Z</time>
      </trkpt>
      <trkpt lat="43.72947" lon="3.39656">
        <ele>341</ele>
        <time>2023-05-26T08:10:17.000Z</time>
      </trkpt>
      <trkpt lat="43.72952" lon="3.39654">
        <ele>341.79998779297</ele>
        <time>2023-05-26T08:10:22.000Z</time>
      </trkpt>
      <trkpt lat="43.72953" lon="3.39654">
        <ele>342</ele>
        <time>2023-05-26T08:10:23.000Z</time>
      </trkpt>
      <trkpt lat="43.72956" lon="3.39652">
        <ele>342.20001220703</ele>
        <time>2023-05-26T08:10:28.000Z</time>
      </trkpt>
      <trkpt lat="43.72962" lon="3.3965">
        <ele>342.60000610352</ele>
        <time>2023-05-26T08:10:35.000Z</time>
      </trkpt>
      <trkpt lat="43.72967" lon="3.39648">
        <ele>343</ele>
        <time>2023-05-26T08:10:41.000Z</time>
      </trkpt>
      <trkpt lat="43.7297" lon="3.39647">
        <ele>343.39999389648</ele>
        <time>2023-05-26T08:10:45.000Z</time>
      </trkpt>
      <trkpt lat="43.72974" lon="3.39646">
        <ele>343.79998779297</ele>
        <time>2023-05-26T08:10:51.000Z</time>
      </trkpt>
      <trkpt lat="43.72977" lon="3.39645">
        <ele>344</ele>
        <time>2023-05-26T08:10:54.000Z</time>
      </trkpt>
      <trkpt lat="43.72977" lon="3.39645">
        <ele>344</ele>
        <time>2023-05-26T08:10:55.000Z</time>
      </trkpt>
      <trkpt lat="43.72982" lon="3.39642">
        <ele>345</ele>
        <time>2023-05-26T08:11:03.000Z</time>
      </trkpt>
      <trkpt lat="43.72983" lon="3.39642">
        <ele>345</ele>
        <time>2023-05-26T08:11:04.000Z</time>
      </trkpt>
      <trkpt lat="43.72988" lon="3.39641">
        <ele>346</ele>
        <time>2023-05-26T08:11:12.000Z</time>
      </trkpt>
      <trkpt lat="43.72989" lon="3.39641">
        <ele>346.20001220703</ele>
        <time>2023-05-26T08:11:13.000Z</time>
      </trkpt>
      <trkpt lat="43.72992" lon="3.39643">
        <ele>346.60000610352</ele>
        <time>2023-05-26T08:11:20.000Z</time>
      </trkpt>
      <trkpt lat="43.72993" lon="3.39641">
        <ele>347.20001220703</ele>
        <time>2023-05-26T08:11:28.000Z</time>
      </trkpt>
      <trkpt lat="43.73" lon="3.39638">
        <ele>347</ele>
        <time>2023-05-26T08:11:37.000Z</time>
      </trkpt>
      <trkpt lat="43.73006" lon="3.39627">
        <ele>346.79998779297</ele>
        <time>2023-05-26T08:11:48.000Z</time>
      </trkpt>
      <trkpt lat="43.73009" lon="3.39617">
        <ele>347</ele>
        <time>2023-05-26T08:11:57.000Z</time>
      </trkpt>
      <trkpt lat="43.73013" lon="3.39605">
        <ele>347.79998779297</ele>
        <time>2023-05-26T08:12:08.000Z</time>
      </trkpt>
      <trkpt lat="43.73018" lon="3.39594">
        <ele>348.20001220703</ele>
        <time>2023-05-26T08:12:18.000Z</time>
      </trkpt>
      <trkpt lat="43.73019" lon="3.39592">
        <ele>348.20001220703</ele>
        <time>2023-05-26T08:12:19.000Z</time>
      </trkpt>
      <trkpt lat="43.73023" lon="3.39583">
        <ele>348.20001220703</ele>
        <time>2023-05-26T08:12:27.000Z</time>
      </trkpt>
      <trkpt lat="43.7303" lon="3.39571">
        <ele>348.60000610352</ele>
        <time>2023-05-26T08:12:38.000Z</time>
      </trkpt>
      <trkpt lat="43.73036" lon="3.3956">
        <ele>349.20001220703</ele>
        <time>2023-05-26T08:12:49.000Z</time>
      </trkpt>
      <trkpt lat="43.73037" lon="3.39558">
        <ele>349.20001220703</ele>
        <time>2023-05-26T08:12:51.000Z</time>
      </trkpt>
      <trkpt lat="43.73041" lon="3.39552">
        <ele>349.60000610352</ele>
        <time>2023-05-26T08:12:57.000Z</time>
      </trkpt>
      <trkpt lat="43.73042" lon="3.39549">
        <ele>349.60000610352</ele>
        <time>2023-05-26T08:12:59.000Z</time>
      </trkpt>
      <trkpt lat="43.73046" lon="3.39541">
        <ele>350</ele>
        <time>2023-05-26T08:13:07.000Z</time>
      </trkpt>
      <trkpt lat="43.73047" lon="3.39539">
        <ele>350</ele>
        <time>2023-05-26T08:13:09.000Z</time>
      </trkpt>
      <trkpt lat="43.73048" lon="3.39535">
        <ele>350.20001220703</ele>
        <time>2023-05-26T08:13:13.000Z</time>
      </trkpt>
      <trkpt lat="43.7305" lon="3.39524">
        <ele>350.79998779297</ele>
        <time>2023-05-26T08:13:23.000Z</time>
      </trkpt>
      <trkpt lat="43.73051" lon="3.39519">
        <ele>351.39999389648</ele>
        <time>2023-05-26T08:13:29.000Z</time>
      </trkpt>
      <trkpt lat="43.73051" lon="3.39514">
        <ele>351.79998779297</ele>
        <time>2023-05-26T08:13:35.000Z</time>
      </trkpt>
      <trkpt lat="43.73051" lon="3.39511">
        <ele>352.60000610352</ele>
        <time>2023-05-26T08:13:39.000Z</time>
      </trkpt>
      <trkpt lat="43.73051" lon="3.39503">
        <ele>353.60000610352</ele>
        <time>2023-05-26T08:13:47.000Z</time>
      </trkpt>
      <trkpt lat="43.73052" lon="3.39501">
        <ele>353.79998779297</ele>
        <time>2023-05-26T08:13:49.000Z</time>
      </trkpt>
      <trkpt lat="43.73052" lon="3.39491">
        <ele>354.60000610352</ele>
        <time>2023-05-26T08:14:00.000Z</time>
      </trkpt>
      <trkpt lat="43.73052" lon="3.3949">
        <ele>354.60000610352</ele>
        <time>2023-05-26T08:14:01.000Z</time>
      </trkpt>
      <trkpt lat="43.73053" lon="3.39481">
        <ele>355.79998779297</ele>
        <time>2023-05-26T08:14:11.000Z</time>
      </trkpt>
      <trkpt lat="43.73053" lon="3.39472">
        <ele>356.79998779297</ele>
        <time>2023-05-26T08:14:22.000Z</time>
      </trkpt>
      <trkpt lat="43.73053" lon="3.3947">
        <ele>357</ele>
        <time>2023-05-26T08:14:24.000Z</time>
      </trkpt>
      <trkpt lat="43.73054" lon="3.39464">
        <ele>357.79998779297</ele>
        <time>2023-05-26T08:14:31.000Z</time>
      </trkpt>
      <trkpt lat="43.73054" lon="3.39463">
        <ele>358</ele>
        <time>2023-05-26T08:14:32.000Z</time>
      </trkpt>
      <trkpt lat="43.73056" lon="3.39456">
        <ele>358.79998779297</ele>
        <time>2023-05-26T08:14:40.000Z</time>
      </trkpt>
      <trkpt lat="43.73056" lon="3.39453">
        <ele>359</ele>
        <time>2023-05-26T08:14:43.000Z</time>
      </trkpt>
      <trkpt lat="43.73058" lon="3.39448">
        <ele>359.79998779297</ele>
        <time>2023-05-26T08:14:50.000Z</time>
      </trkpt>
      <trkpt lat="43.73058" lon="3.39447">
        <ele>360</ele>
        <time>2023-05-26T08:14:51.000Z</time>
      </trkpt>
      <trkpt lat="43.7306" lon="3.39444">
        <ele>361</ele>
        <time>2023-05-26T08:14:58.000Z</time>
      </trkpt>
      <trkpt lat="43.7306" lon="3.3944">
        <ele>361.20001220703</ele>
        <time>2023-05-26T08:15:05.000Z</time>
      </trkpt>
      <trkpt lat="43.7306" lon="3.3944">
        <ele>362</ele>
        <time>2023-05-26T08:15:11.000Z</time>
      </trkpt>
      <trkpt lat="43.73062" lon="3.39438">
        <ele>361.39999389648</ele>
        <time>2023-05-26T08:15:18.000Z</time>
      </trkpt>
      <trkpt lat="43.73065" lon="3.39432">
        <ele>361.79998779297</ele>
        <time>2023-05-26T08:15:26.000Z</time>
      </trkpt>
      <trkpt lat="43.73069" lon="3.39426">
        <ele>362.39999389648</ele>
        <time>2023-05-26T08:15:35.000Z</time>
      </trkpt>
      <trkpt lat="43.73073" lon="3.39423">
        <ele>363.20001220703</ele>
        <time>2023-05-26T08:15:41.000Z</time>
      </trkpt>
      <trkpt lat="43.73074" lon="3.39423">
        <ele>363.60000610352</ele>
        <time>2023-05-26T08:15:44.000Z</time>
      </trkpt>
      <trkpt lat="43.73078" lon="3.39424">
        <ele>364.20001220703</ele>
        <time>2023-05-26T08:15:51.000Z</time>
      </trkpt>
      <trkpt lat="43.73079" lon="3.39424">
        <ele>364.60000610352</ele>
        <time>2023-05-26T08:15:55.000Z</time>
      </trkpt>
      <trkpt lat="43.73082" lon="3.39424">
        <ele>365.39999389648</ele>
        <time>2023-05-26T08:16:00.000Z</time>
      </trkpt>
      <trkpt lat="43.73083" lon="3.39424">
        <ele>365.79998779297</ele>
        <time>2023-05-26T08:16:02.000Z</time>
      </trkpt>
      <trkpt lat="43.73086" lon="3.39424">
        <ele>366.39999389648</ele>
        <time>2023-05-26T08:16:11.000Z</time>
      </trkpt>
      <trkpt lat="43.73089" lon="3.39425">
        <ele>367</ele>
        <time>2023-05-26T08:16:22.000Z</time>
      </trkpt>
      <trkpt lat="43.73095" lon="3.39427">
        <ele>367.20001220703</ele>
        <time>2023-05-26T08:16:30.000Z</time>
      </trkpt>
      <trkpt lat="43.73097" lon="3.39428">
        <ele>367.39999389648</ele>
        <time>2023-05-26T08:16:32.000Z</time>
      </trkpt>
      <trkpt lat="43.73101" lon="3.39431">
        <ele>368.39999389648</ele>
        <time>2023-05-26T08:16:40.000Z</time>
      </trkpt>
      <trkpt lat="43.73106" lon="3.39435">
        <ele>369.60000610352</ele>
        <time>2023-05-26T08:16:49.000Z</time>
      </trkpt>
      <trkpt lat="43.73108" lon="3.39436">
        <ele>369.79998779297</ele>
        <time>2023-05-26T08:16:52.000Z</time>
      </trkpt>
      <trkpt lat="43.73113" lon="3.39439">
        <ele>370.60000610352</ele>
        <time>2023-05-26T08:16:59.000Z</time>
      </trkpt>
      <trkpt lat="43.73114" lon="3.39439">
        <ele>370.79998779297</ele>
        <time>2023-05-26T08:17:01.000Z</time>
      </trkpt>
      <trkpt lat="43.73121" lon="3.39441">
        <ele>371.60000610352</ele>
        <time>2023-05-26T08:17:09.000Z</time>
      </trkpt>
      <trkpt lat="43.73122" lon="3.39441">
        <ele>371.79998779297</ele>
        <time>2023-05-26T08:17:11.000Z</time>
      </trkpt>
      <trkpt lat="43.73128" lon="3.39442">
        <ele>372.39999389648</ele>
        <time>2023-05-26T08:17:18.000Z</time>
      </trkpt>
      <trkpt lat="43.7313" lon="3.39442">
        <ele>372.60000610352</ele>
        <time>2023-05-26T08:17:21.000Z</time>
      </trkpt>
      <trkpt lat="43.73135" lon="3.39442">
        <ele>373.20001220703</ele>
        <time>2023-05-26T08:17:27.000Z</time>
      </trkpt>
      <trkpt lat="43.73137" lon="3.39442">
        <ele>373.79998779297</ele>
        <time>2023-05-26T08:17:30.000Z</time>
      </trkpt>
      <trkpt lat="43.73143" lon="3.3944">
        <ele>374.20001220703</ele>
        <time>2023-05-26T08:17:37.000Z</time>
      </trkpt>
      <trkpt lat="43.73153" lon="3.39438">
        <ele>374.60000610352</ele>
        <time>2023-05-26T08:17:48.000Z</time>
      </trkpt>
      <trkpt lat="43.73158" lon="3.39436">
        <ele>374.79998779297</ele>
        <time>2023-05-26T08:17:54.000Z</time>
      </trkpt>
      <trkpt lat="43.73161" lon="3.39434">
        <ele>374.79998779297</ele>
        <time>2023-05-26T08:17:57.000Z</time>
      </trkpt>
      <trkpt lat="43.73169" lon="3.39429">
        <ele>375</ele>
        <time>2023-05-26T08:18:07.000Z</time>
      </trkpt>
      <trkpt lat="43.73175" lon="3.39424">
        <ele>375.60000610352</ele>
        <time>2023-05-26T08:18:15.000Z</time>
      </trkpt>
      <trkpt lat="43.73178" lon="3.39424">
        <ele>375.60000610352</ele>
        <time>2023-05-26T08:18:19.000Z</time>
      </trkpt>
      <trkpt lat="43.73179" lon="3.39423">
        <ele>375.79998779297</ele>
        <time>2023-05-26T08:18:24.000Z</time>
      </trkpt>
      <trkpt lat="43.73179" lon="3.39422">
        <ele>375.79998779297</ele>
        <time>2023-05-26T08:18:34.000Z</time>
      </trkpt>
      <trkpt lat="43.73179" lon="3.39421">
        <ele>376.39999389648</ele>
        <time>2023-05-26T08:18:41.000Z</time>
      </trkpt>
      <trkpt lat="43.73179" lon="3.39421">
        <ele>376.39999389648</ele>
        <time>2023-05-26T08:18:52.000Z</time>
      </trkpt>
      <trkpt lat="43.7318" lon="3.39421">
        <ele>376</ele>
        <time>2023-05-26T08:19:01.000Z</time>
      </trkpt>
      <trkpt lat="43.73181" lon="3.3942">
        <ele>376</ele>
        <time>2023-05-26T08:19:07.000Z</time>
      </trkpt>
      <trkpt lat="43.73188" lon="3.39414">
        <ele>376.79998779297</ele>
        <time>2023-05-26T08:19:18.000Z</time>
      </trkpt>
      <trkpt lat="43.73191" lon="3.3941">
        <ele>377.79998779297</ele>
        <time>2023-05-26T08:19:24.000Z</time>
      </trkpt>
      <trkpt lat="43.73192" lon="3.39409">
        <ele>377.79998779297</ele>
        <time>2023-05-26T08:19:25.000Z</time>
      </trkpt>
      <trkpt lat="43.73196" lon="3.39403">
        <ele>378.60000610352</ele>
        <time>2023-05-26T08:19:34.000Z</time>
      </trkpt>
      <trkpt lat="43.73197" lon="3.39401">
        <ele>379</ele>
        <time>2023-05-26T08:19:36.000Z</time>
      </trkpt>
      <trkpt lat="43.732" lon="3.39399">
        <ele>379.60000610352</ele>
        <time>2023-05-26T08:19:41.000Z</time>
      </trkpt>
      <trkpt lat="43.73202" lon="3.39397">
        <ele>380.20001220703</ele>
        <time>2023-05-26T08:19:44.000Z</time>
      </trkpt>
      <trkpt lat="43.73204" lon="3.39394">
        <ele>380.60000610352</ele>
        <time>2023-05-26T08:19:49.000Z</time>
      </trkpt>
      <trkpt lat="43.73208" lon="3.3939">
        <ele>381.20001220703</ele>
        <time>2023-05-26T08:19:56.000Z</time>
      </trkpt>
      <trkpt lat="43.73208" lon="3.39389">
        <ele>381.20001220703</ele>
        <time>2023-05-26T08:19:57.000Z</time>
      </trkpt>
      <trkpt lat="43.73211" lon="3.39384">
        <ele>382.20001220703</ele>
        <time>2023-05-26T08:20:05.000Z</time>
      </trkpt>
      <trkpt lat="43.73212" lon="3.39382">
        <ele>382.79998779297</ele>
        <time>2023-05-26T08:20:08.000Z</time>
      </trkpt>
      <trkpt lat="43.73214" lon="3.39381">
        <ele>383.39999389648</ele>
        <time>2023-05-26T08:20:11.000Z</time>
      </trkpt>
      <trkpt lat="43.73217" lon="3.39377">
        <ele>384</ele>
        <time>2023-05-26T08:20:18.000Z</time>
      </trkpt>
      <trkpt lat="43.73222" lon="3.39374">
        <ele>384.39999389648</ele>
        <time>2023-05-26T08:20:25.000Z</time>
      </trkpt>
      <trkpt lat="43.73222" lon="3.39374">
        <ele>384.39999389648</ele>
        <time>2023-05-26T08:20:26.000Z</time>
      </trkpt>
      <trkpt lat="43.73227" lon="3.39366">
        <ele>385.39999389648</ele>
        <time>2023-05-26T08:20:36.000Z</time>
      </trkpt>
      <trkpt lat="43.73227" lon="3.39365">
        <ele>385.39999389648</ele>
        <time>2023-05-26T08:20:37.000Z</time>
      </trkpt>
      <trkpt lat="43.73229" lon="3.39358">
        <ele>385.79998779297</ele>
        <time>2023-05-26T08:20:45.000Z</time>
      </trkpt>
      <trkpt lat="43.73231" lon="3.39354">
        <ele>386.39999389648</ele>
        <time>2023-05-26T08:20:50.000Z</time>
      </trkpt>
      <trkpt lat="43.73232" lon="3.39352">
        <ele>386.60000610352</ele>
        <time>2023-05-26T08:20:53.000Z</time>
      </trkpt>
      <trkpt lat="43.73235" lon="3.39345">
        <ele>387.39999389648</ele>
        <time>2023-05-26T08:21:03.000Z</time>
      </trkpt>
      <trkpt lat="43.73236" lon="3.39343">
        <ele>387.39999389648</ele>
        <time>2023-05-26T08:21:05.000Z</time>
      </trkpt>
      <trkpt lat="43.73238" lon="3.39338">
        <ele>388</ele>
        <time>2023-05-26T08:21:13.000Z</time>
      </trkpt>
      <trkpt lat="43.73239" lon="3.39336">
        <ele>388.60000610352</ele>
        <time>2023-05-26T08:21:16.000Z</time>
      </trkpt>
      <trkpt lat="43.73242" lon="3.39333">
        <ele>389.39999389648</ele>
        <time>2023-05-26T08:21:23.000Z</time>
      </trkpt>
      <trkpt lat="43.73243" lon="3.39331">
        <ele>389.60000610352</ele>
        <time>2023-05-26T08:21:25.000Z</time>
      </trkpt>
      <trkpt lat="43.73244" lon="3.39329">
        <ele>390.20001220703</ele>
        <time>2023-05-26T08:21:29.000Z</time>
      </trkpt>
      <trkpt lat="43.73246" lon="3.39327">
        <ele>390.60000610352</ele>
        <time>2023-05-26T08:21:34.000Z</time>
      </trkpt>
      <trkpt lat="43.73247" lon="3.39326">
        <ele>391</ele>
        <time>2023-05-26T08:21:37.000Z</time>
      </trkpt>
      <trkpt lat="43.73249" lon="3.39321">
        <ele>391.79998779297</ele>
        <time>2023-05-26T08:21:44.000Z</time>
      </trkpt>
      <trkpt lat="43.73249" lon="3.3932">
        <ele>391.79998779297</ele>
        <time>2023-05-26T08:21:45.000Z</time>
      </trkpt>
      <trkpt lat="43.73251" lon="3.39314">
        <ele>392.79998779297</ele>
        <time>2023-05-26T08:21:54.000Z</time>
      </trkpt>
      <trkpt lat="43.73251" lon="3.39313">
        <ele>393</ele>
        <time>2023-05-26T08:21:55.000Z</time>
      </trkpt>
      <trkpt lat="43.73252" lon="3.39308">
        <ele>394</ele>
        <time>2023-05-26T08:22:02.000Z</time>
      </trkpt>
      <trkpt lat="43.73253" lon="3.39306">
        <ele>394.39999389648</ele>
        <time>2023-05-26T08:22:06.000Z</time>
      </trkpt>
      <trkpt lat="43.73253" lon="3.39302">
        <ele>395</ele>
        <time>2023-05-26T08:22:11.000Z</time>
      </trkpt>
      <trkpt lat="43.73254" lon="3.393">
        <ele>395.20001220703</ele>
        <time>2023-05-26T08:22:14.000Z</time>
      </trkpt>
      <trkpt lat="43.73255" lon="3.39296">
        <ele>396</ele>
        <time>2023-05-26T08:22:20.000Z</time>
      </trkpt>
      <trkpt lat="43.73256" lon="3.39293">
        <ele>396.39999389648</ele>
        <time>2023-05-26T08:22:24.000Z</time>
      </trkpt>
      <trkpt lat="43.73258" lon="3.39291">
        <ele>397</ele>
        <time>2023-05-26T08:22:29.000Z</time>
      </trkpt>
      <trkpt lat="43.73259" lon="3.3929">
        <ele>397.39999389648</ele>
        <time>2023-05-26T08:22:32.000Z</time>
      </trkpt>
      <trkpt lat="43.7326" lon="3.39285">
        <ele>398</ele>
        <time>2023-05-26T08:22:39.000Z</time>
      </trkpt>
      <trkpt lat="43.73263" lon="3.39281">
        <ele>399.20001220703</ele>
        <time>2023-05-26T08:22:47.000Z</time>
      </trkpt>
      <trkpt lat="43.73264" lon="3.39281">
        <ele>399.20001220703</ele>
        <time>2023-05-26T08:22:48.000Z</time>
      </trkpt>
      <trkpt lat="43.73265" lon="3.39276">
        <ele>400.20001220703</ele>
        <time>2023-05-26T08:22:56.000Z</time>
      </trkpt>
      <trkpt lat="43.73265" lon="3.39275">
        <ele>400.39999389648</ele>
        <time>2023-05-26T08:22:58.000Z</time>
      </trkpt>
      <trkpt lat="43.73266" lon="3.39272">
        <ele>401.60000610352</ele>
        <time>2023-05-26T08:23:02.000Z</time>
      </trkpt>
      <trkpt lat="43.73267" lon="3.3927">
        <ele>401.79998779297</ele>
        <time>2023-05-26T08:23:04.000Z</time>
      </trkpt>
      <trkpt lat="43.73269" lon="3.39264">
        <ele>402.39999389648</ele>
        <time>2023-05-26T08:23:13.000Z</time>
      </trkpt>
      <trkpt lat="43.7327" lon="3.39263">
        <ele>402.60000610352</ele>
        <time>2023-05-26T08:23:15.000Z</time>
      </trkpt>
      <trkpt lat="43.73271" lon="3.39259">
        <ele>403.39999389648</ele>
        <time>2023-05-26T08:23:21.000Z</time>
      </trkpt>
      <trkpt lat="43.73272" lon="3.39257">
        <ele>403.79998779297</ele>
        <time>2023-05-26T08:23:24.000Z</time>
      </trkpt>
      <trkpt lat="43.73274" lon="3.39254">
        <ele>404.39999389648</ele>
        <time>2023-05-26T08:23:30.000Z</time>
      </trkpt>
      <trkpt lat="43.73275" lon="3.39251">
        <ele>404.79998779297</ele>
        <time>2023-05-26T08:23:34.000Z</time>
      </trkpt>
      <trkpt lat="43.73276" lon="3.39248">
        <ele>405.39999389648</ele>
        <time>2023-05-26T08:23:39.000Z</time>
      </trkpt>
      <trkpt lat="43.73278" lon="3.39243">
        <ele>405.79998779297</ele>
        <time>2023-05-26T08:23:45.000Z</time>
      </trkpt>
      <trkpt lat="43.73279" lon="3.39241">
        <ele>406.20001220703</ele>
        <time>2023-05-26T08:23:48.000Z</time>
      </trkpt>
      <trkpt lat="43.73282" lon="3.39236">
        <ele>407</ele>
        <time>2023-05-26T08:23:56.000Z</time>
      </trkpt>
      <trkpt lat="43.73282" lon="3.39235">
        <ele>407</ele>
        <time>2023-05-26T08:23:57.000Z</time>
      </trkpt>
      <trkpt lat="43.73284" lon="3.39229">
        <ele>408</ele>
        <time>2023-05-26T08:24:05.000Z</time>
      </trkpt>
      <trkpt lat="43.73284" lon="3.39228">
        <ele>408</ele>
        <time>2023-05-26T08:24:06.000Z</time>
      </trkpt>
      <trkpt lat="43.73288" lon="3.39221">
        <ele>409</ele>
        <time>2023-05-26T08:24:15.000Z</time>
      </trkpt>
      <trkpt lat="43.73288" lon="3.3922">
        <ele>409</ele>
        <time>2023-05-26T08:24:16.000Z</time>
      </trkpt>
      <trkpt lat="43.7329" lon="3.39216">
        <ele>409.79998779297</ele>
        <time>2023-05-26T08:24:22.000Z</time>
      </trkpt>
      <trkpt lat="43.73292" lon="3.39213">
        <ele>410</ele>
        <time>2023-05-26T08:24:25.000Z</time>
      </trkpt>
      <trkpt lat="43.73293" lon="3.39209">
        <ele>410.60000610352</ele>
        <time>2023-05-26T08:24:30.000Z</time>
      </trkpt>
      <trkpt lat="43.73295" lon="3.39204">
        <ele>411.20001220703</ele>
        <time>2023-05-26T08:24:36.000Z</time>
      </trkpt>
      <trkpt lat="43.73296" lon="3.39204">
        <ele>411.20001220703</ele>
        <time>2023-05-26T08:24:37.000Z</time>
      </trkpt>
      <trkpt lat="43.73299" lon="3.39198">
        <ele>412</ele>
        <time>2023-05-26T08:24:45.000Z</time>
      </trkpt>
      <trkpt lat="43.733" lon="3.39197">
        <ele>412.20001220703</ele>
        <time>2023-05-26T08:24:47.000Z</time>
      </trkpt>
      <trkpt lat="43.73303" lon="3.39193">
        <ele>413</ele>
        <time>2023-05-26T08:24:53.000Z</time>
      </trkpt>
      <trkpt lat="43.73303" lon="3.39192">
        <ele>413.39999389648</ele>
        <time>2023-05-26T08:24:55.000Z</time>
      </trkpt>
      <trkpt lat="43.73306" lon="3.39188">
        <ele>414.20001220703</ele>
        <time>2023-05-26T08:25:02.000Z</time>
      </trkpt>
      <trkpt lat="43.73306" lon="3.39188">
        <ele>414.39999389648</ele>
        <time>2023-05-26T08:25:03.000Z</time>
      </trkpt>
      <trkpt lat="43.73308" lon="3.39185">
        <ele>414.79998779297</ele>
        <time>2023-05-26T08:25:08.000Z</time>
      </trkpt>
      <trkpt lat="43.73311" lon="3.3918">
        <ele>415.39999389648</ele>
        <time>2023-05-26T08:25:14.000Z</time>
      </trkpt>
      <trkpt lat="43.73312" lon="3.39179">
        <ele>415.60000610352</ele>
        <time>2023-05-26T08:25:16.000Z</time>
      </trkpt>
      <trkpt lat="43.73314" lon="3.39175">
        <ele>416.39999389648</ele>
        <time>2023-05-26T08:25:22.000Z</time>
      </trkpt>
      <trkpt lat="43.73315" lon="3.39175">
        <ele>416.60000610352</ele>
        <time>2023-05-26T08:25:23.000Z</time>
      </trkpt>
      <trkpt lat="43.73319" lon="3.39171">
        <ele>417.60000610352</ele>
        <time>2023-05-26T08:25:31.000Z</time>
      </trkpt>
      <trkpt lat="43.73322" lon="3.39167">
        <ele>418.60000610352</ele>
        <time>2023-05-26T08:25:38.000Z</time>
      </trkpt>
      <trkpt lat="43.73322" lon="3.39167">
        <ele>418.60000610352</ele>
        <time>2023-05-26T08:25:39.000Z</time>
      </trkpt>
      <trkpt lat="43.73326" lon="3.39162">
        <ele>419.60000610352</ele>
        <time>2023-05-26T08:25:47.000Z</time>
      </trkpt>
      <trkpt lat="43.73326" lon="3.39161">
        <ele>419.60000610352</ele>
        <time>2023-05-26T08:25:48.000Z</time>
      </trkpt>
      <trkpt lat="43.73329" lon="3.39158">
        <ele>420.20001220703</ele>
        <time>2023-05-26T08:25:53.000Z</time>
      </trkpt>
      <trkpt lat="43.73331" lon="3.39156">
        <ele>420.79998779297</ele>
        <time>2023-05-26T08:25:56.000Z</time>
      </trkpt>
      <trkpt lat="43.73332" lon="3.39154">
        <ele>421.20001220703</ele>
        <time>2023-05-26T08:26:00.000Z</time>
      </trkpt>
      <trkpt lat="43.73336" lon="3.39149">
        <ele>421.79998779297</ele>
        <time>2023-05-26T08:26:06.000Z</time>
      </trkpt>
      <trkpt lat="43.73338" lon="3.39147">
        <ele>422</ele>
        <time>2023-05-26T08:26:08.000Z</time>
      </trkpt>
      <trkpt lat="43.73342" lon="3.3914">
        <ele>422.60000610352</ele>
        <time>2023-05-26T08:26:15.000Z</time>
      </trkpt>
      <trkpt lat="43.73343" lon="3.39138">
        <ele>422.79998779297</ele>
        <time>2023-05-26T08:26:17.000Z</time>
      </trkpt>
      <trkpt lat="43.73346" lon="3.39135">
        <ele>423</ele>
        <time>2023-05-26T08:26:21.000Z</time>
      </trkpt>
      <trkpt lat="43.7335" lon="3.39128">
        <ele>423.20001220703</ele>
        <time>2023-05-26T08:26:28.000Z</time>
      </trkpt>
      <trkpt lat="43.73351" lon="3.39126">
        <ele>423.20001220703</ele>
        <time>2023-05-26T08:26:30.000Z</time>
      </trkpt>
      <trkpt lat="43.73354" lon="3.39122">
        <ele>423.39999389648</ele>
        <time>2023-05-26T08:26:34.000Z</time>
      </trkpt>
      <trkpt lat="43.73356" lon="3.3912">
        <ele>423.60000610352</ele>
        <time>2023-05-26T08:26:38.000Z</time>
      </trkpt>
      <trkpt lat="43.73356" lon="3.3912">
        <ele>423.79998779297</ele>
        <time>2023-05-26T08:26:40.000Z</time>
      </trkpt>
      <trkpt lat="43.73357" lon="3.3912">
        <ele>423.79998779297</ele>
        <time>2023-05-26T08:26:41.000Z</time>
      </trkpt>
      <trkpt lat="43.73357" lon="3.39119">
        <ele>424.39999389648</ele>
        <time>2023-05-26T08:26:47.000Z</time>
      </trkpt>
      <trkpt lat="43.73356" lon="3.39121">
        <ele>424.39999389648</ele>
        <time>2023-05-26T08:26:55.000Z</time>
      </trkpt>
      <trkpt lat="43.73358" lon="3.39118">
        <ele>424.20001220703</ele>
        <time>2023-05-26T08:27:04.000Z</time>
      </trkpt>
      <trkpt lat="43.73357" lon="3.39116">
        <ele>424.39999389648</ele>
        <time>2023-05-26T08:27:13.000Z</time>
      </trkpt>
      <trkpt lat="43.73357" lon="3.39117">
        <ele>424.39999389648</ele>
        <time>2023-05-26T08:27:20.000Z</time>
      </trkpt>
      <trkpt lat="43.73359" lon="3.39118">
        <ele>424.79998779297</ele>
        <time>2023-05-26T08:27:28.000Z</time>
      </trkpt>
      <trkpt lat="43.7336" lon="3.39119">
        <ele>424.39999389648</ele>
        <time>2023-05-26T08:27:36.000Z</time>
      </trkpt>
      <trkpt lat="43.73361" lon="3.39119">
        <ele>424.20001220703</ele>
        <time>2023-05-26T08:27:45.000Z</time>
      </trkpt>
      <trkpt lat="43.73362" lon="3.39119">
        <ele>423.79998779297</ele>
        <time>2023-05-26T08:27:48.000Z</time>
      </trkpt>
      <trkpt lat="43.73362" lon="3.39119">
        <ele>424</ele>
        <time>2023-05-26T08:27:52.000Z</time>
      </trkpt>
      <trkpt lat="43.73363" lon="3.3912">
        <ele>424.20001220703</ele>
        <time>2023-05-26T08:27:57.000Z</time>
      </trkpt>
      <trkpt lat="43.73364" lon="3.39119">
        <ele>424</ele>
        <time>2023-05-26T08:28:09.000Z</time>
      </trkpt>
      <trkpt lat="43.73365" lon="3.3912">
        <ele>424</ele>
        <time>2023-05-26T08:28:18.000Z</time>
      </trkpt>
      <trkpt lat="43.73365" lon="3.3912">
        <ele>424</ele>
        <time>2023-05-26T08:28:27.000Z</time>
      </trkpt>
      <trkpt lat="43.73364" lon="3.3912">
        <ele>423.79998779297</ele>
        <time>2023-05-26T08:28:37.000Z</time>
      </trkpt>
      <trkpt lat="43.73365" lon="3.39116">
        <ele>424.60000610352</ele>
        <time>2023-05-26T08:28:44.000Z</time>
      </trkpt>
      <trkpt lat="43.73364" lon="3.39119">
        <ele>424.79998779297</ele>
        <time>2023-05-26T08:28:52.000Z</time>
      </trkpt>
      <trkpt lat="43.73364" lon="3.39118">
        <ele>424.79998779297</ele>
        <time>2023-05-26T08:28:53.000Z</time>
      </trkpt>
      <trkpt lat="43.7336" lon="3.39116">
        <ele>424.39999389648</ele>
        <time>2023-05-26T08:29:02.000Z</time>
      </trkpt>
      <trkpt lat="43.7336" lon="3.39115">
        <ele>424</ele>
        <time>2023-05-26T08:29:09.000Z</time>
      </trkpt>
      <trkpt lat="43.7336" lon="3.39111">
        <ele>424.20001220703</ele>
        <time>2023-05-26T08:29:15.000Z</time>
      </trkpt>
      <trkpt lat="43.7336" lon="3.39111">
        <ele>424.20001220703</ele>
        <time>2023-05-26T08:29:24.000Z</time>
      </trkpt>
      <trkpt lat="43.73361" lon="3.3911">
        <ele>424</ele>
        <time>2023-05-26T08:29:33.000Z</time>
      </trkpt>
      <trkpt lat="43.73362" lon="3.39118">
        <ele>424</ele>
        <time>2023-05-26T08:29:43.000Z</time>
      </trkpt>
      <trkpt lat="43.73362" lon="3.39117">
        <ele>424.20001220703</ele>
        <time>2023-05-26T08:29:50.000Z</time>
      </trkpt>
      <trkpt lat="43.73362" lon="3.39113">
        <ele>424.20001220703</ele>
        <time>2023-05-26T08:29:57.000Z</time>
      </trkpt>
      <trkpt lat="43.73363" lon="3.39108">
        <ele>424.39999389648</ele>
        <time>2023-05-26T08:30:04.000Z</time>
      </trkpt>
      <trkpt lat="43.73363" lon="3.39106">
        <ele>423</ele>
        <time>2023-05-26T08:30:06.000Z</time>
      </trkpt>
      <trkpt lat="43.73362" lon="3.39105">
        <ele>421.60000610352</ele>
        <time>2023-05-26T08:30:07.000Z</time>
      </trkpt>
      <trkpt lat="43.73362" lon="3.39103">
        <ele>421.60000610352</ele>
        <time>2023-05-26T08:30:10.000Z</time>
      </trkpt>
      <trkpt lat="43.73362" lon="3.39107">
        <ele>422.60000610352</ele>
        <time>2023-05-26T08:30:16.000Z</time>
      </trkpt>
      <trkpt lat="43.73362" lon="3.39107">
        <ele>422.60000610352</ele>
        <time>2023-05-26T08:30:17.000Z</time>
      </trkpt>
      <trkpt lat="43.73362" lon="3.39113">
        <ele>422.20001220703</ele>
        <time>2023-05-26T08:30:22.000Z</time>
      </trkpt>
      <trkpt lat="43.73362" lon="3.39118">
        <ele>421.39999389648</ele>
        <time>2023-05-26T08:30:30.000Z</time>
      </trkpt>
      <trkpt lat="43.73364" lon="3.39119">
        <ele>420.79998779297</ele>
        <time>2023-05-26T08:30:37.000Z</time>
      </trkpt>
      <trkpt lat="43.73364" lon="3.3912">
        <ele>421.20001220703</ele>
        <time>2023-05-26T08:30:45.000Z</time>
      </trkpt>
      <trkpt lat="43.73363" lon="3.39117">
        <ele>421.39999389648</ele>
        <time>2023-05-26T08:30:51.000Z</time>
      </trkpt>
      <trkpt lat="43.73364" lon="3.39118">
        <ele>422.39999389648</ele>
        <time>2023-05-26T08:30:57.000Z</time>
      </trkpt>
      <trkpt lat="43.73364" lon="3.39118">
        <ele>422.39999389648</ele>
        <time>2023-05-26T08:30:58.000Z</time>
      </trkpt>
      <trkpt lat="43.73366" lon="3.39119">
        <ele>423.39999389648</ele>
        <time>2023-05-26T08:31:04.000Z</time>
      </trkpt>
      <trkpt lat="43.73366" lon="3.39119">
        <ele>423.39999389648</ele>
        <time>2023-05-26T08:31:05.000Z</time>
      </trkpt>
      <trkpt lat="43.73364" lon="3.39118">
        <ele>424.60000610352</ele>
        <time>2023-05-26T08:31:11.000Z</time>
      </trkpt>
      <trkpt lat="43.73364" lon="3.39117">
        <ele>427.79998779297</ele>
        <time>2023-05-26T08:31:13.000Z</time>
      </trkpt>
      <trkpt lat="43.73362" lon="3.39116">
        <ele>427.79998779297</ele>
        <time>2023-05-26T08:31:15.000Z</time>
      </trkpt>
      <trkpt lat="43.73362" lon="3.39115">
        <ele>424.60000610352</ele>
        <time>2023-05-26T08:31:18.000Z</time>
      </trkpt>
      <trkpt lat="43.73362" lon="3.39116">
        <ele>424.60000610352</ele>
        <time>2023-05-26T08:31:21.000Z</time>
      </trkpt>
      <trkpt lat="43.73362" lon="3.39117">
        <ele>423.79998779297</ele>
        <time>2023-05-26T08:31:29.000Z</time>
      </trkpt>
      <trkpt lat="43.73363" lon="3.39117">
        <ele>423.60000610352</ele>
        <time>2023-05-26T08:31:31.000Z</time>
      </trkpt>
      <trkpt lat="43.73364" lon="3.39118">
        <ele>423.20001220703</ele>
        <time>2023-05-26T08:31:35.000Z</time>
      </trkpt>
      <trkpt lat="43.73365" lon="3.39122">
        <ele>422.39999389648</ele>
        <time>2023-05-26T08:31:41.000Z</time>
      </trkpt>
      <trkpt lat="43.73366" lon="3.39123">
        <ele>422.20001220703</ele>
        <time>2023-05-26T08:31:43.000Z</time>
      </trkpt>
      <trkpt lat="43.73367" lon="3.39127">
        <ele>421.39999389648</ele>
        <time>2023-05-26T08:31:49.000Z</time>
      </trkpt>
      <trkpt lat="43.73368" lon="3.39129">
        <ele>422</ele>
        <time>2023-05-26T08:31:55.000Z</time>
      </trkpt>
      <trkpt lat="43.73368" lon="3.39131">
        <ele>423</ele>
        <time>2023-05-26T08:32:07.000Z</time>
      </trkpt>
      <trkpt lat="43.73368" lon="3.39131">
        <ele>423.39999389648</ele>
        <time>2023-05-26T08:32:09.000Z</time>
      </trkpt>
      <trkpt lat="43.73368" lon="3.39132">
        <ele>424.39999389648</ele>
        <time>2023-05-26T08:32:17.000Z</time>
      </trkpt>
      <trkpt lat="43.73368" lon="3.39133">
        <ele>424.60000610352</ele>
        <time>2023-05-26T08:32:21.000Z</time>
      </trkpt>
      <trkpt lat="43.73368" lon="3.39135">
        <ele>424</ele>
        <time>2023-05-26T08:32:34.000Z</time>
      </trkpt>
      <trkpt lat="43.73368" lon="3.39132">
        <ele>424</ele>
        <time>2023-05-26T08:32:41.000Z</time>
      </trkpt>
      <trkpt lat="43.73368" lon="3.39129">
        <ele>424</ele>
        <time>2023-05-26T08:32:48.000Z</time>
      </trkpt>
      <trkpt lat="43.73367" lon="3.39125">
        <ele>424.20001220703</ele>
        <time>2023-05-26T08:32:55.000Z</time>
      </trkpt>
      <trkpt lat="43.73365" lon="3.39126">
        <ele>424.20001220703</ele>
        <time>2023-05-26T08:33:02.000Z</time>
      </trkpt>
      <trkpt lat="43.73364" lon="3.39125">
        <ele>424.20001220703</ele>
        <time>2023-05-26T08:33:09.000Z</time>
      </trkpt>
      <trkpt lat="43.73363" lon="3.39123">
        <ele>424.39999389648</ele>
        <time>2023-05-26T08:33:16.000Z</time>
      </trkpt>
      <trkpt lat="43.73363" lon="3.39122">
        <ele>424.79998779297</ele>
        <time>2023-05-26T08:33:26.000Z</time>
      </trkpt>
      <trkpt lat="43.73363" lon="3.39121">
        <ele>424.79998779297</ele>
        <time>2023-05-26T08:33:42.000Z</time>
      </trkpt>
      <trkpt lat="43.73363" lon="3.39119">
        <ele>424.79998779297</ele>
        <time>2023-05-26T08:33:55.000Z</time>
      </trkpt>
      <trkpt lat="43.73363" lon="3.3912">
        <ele>424.39999389648</ele>
        <time>2023-05-26T08:34:03.000Z</time>
      </trkpt>
      <trkpt lat="43.73363" lon="3.39118">
        <ele>423.79998779297</ele>
        <time>2023-05-26T08:34:10.000Z</time>
      </trkpt>
      <trkpt lat="43.73363" lon="3.39118">
        <ele>423.79998779297</ele>
        <time>2023-05-26T08:34:18.000Z</time>
      </trkpt>
      <trkpt lat="43.73363" lon="3.39116">
        <ele>424</ele>
        <time>2023-05-26T08:34:27.000Z</time>
      </trkpt>
      <trkpt lat="43.73362" lon="3.39115">
        <ele>424.39999389648</ele>
        <time>2023-05-26T08:34:35.000Z</time>
      </trkpt>
      <trkpt lat="43.73362" lon="3.39116">
        <ele>424</ele>
        <time>2023-05-26T08:34:41.000Z</time>
      </trkpt>
      <trkpt lat="43.73362" lon="3.39119">
        <ele>424</ele>
        <time>2023-05-26T08:34:49.000Z</time>
      </trkpt>
      <trkpt lat="43.73362" lon="3.39116">
        <ele>424</ele>
        <time>2023-05-26T08:34:54.000Z</time>
      </trkpt>
      <trkpt lat="43.73363" lon="3.39117">
        <ele>424.20001220703</ele>
        <time>2023-05-26T08:34:59.000Z</time>
      </trkpt>
      <trkpt lat="43.73363" lon="3.39118">
        <ele>424</ele>
        <time>2023-05-26T08:35:07.000Z</time>
      </trkpt>
      <trkpt lat="43.73362" lon="3.39117">
        <ele>423.79998779297</ele>
        <time>2023-05-26T08:35:14.000Z</time>
      </trkpt>
      <trkpt lat="43.73362" lon="3.39117">
        <ele>424</ele>
        <time>2023-05-26T08:35:21.000Z</time>
      </trkpt>
      <trkpt lat="43.73363" lon="3.39116">
        <ele>424.39999389648</ele>
        <time>2023-05-26T08:35:29.000Z</time>
      </trkpt>
      <trkpt lat="43.73362" lon="3.39117">
        <ele>424.20001220703</ele>
        <time>2023-05-26T08:35:39.000Z</time>
      </trkpt>
      <trkpt lat="43.73361" lon="3.39118">
        <ele>424.20001220703</ele>
        <time>2023-05-26T08:35:46.000Z</time>
      </trkpt>
      <trkpt lat="43.73361" lon="3.39114">
        <ele>424.20001220703</ele>
        <time>2023-05-26T08:35:54.000Z</time>
      </trkpt>
      <trkpt lat="43.7336" lon="3.39113">
        <ele>424.60000610352</ele>
        <time>2023-05-26T08:36:05.000Z</time>
      </trkpt>
      <trkpt lat="43.73361" lon="3.39112">
        <ele>424.60000610352</ele>
        <time>2023-05-26T08:36:19.000Z</time>
      </trkpt>
      <trkpt lat="43.73363" lon="3.39112">
        <ele>424.60000610352</ele>
        <time>2023-05-26T08:36:26.000Z</time>
      </trkpt>
      <trkpt lat="43.73364" lon="3.39112">
        <ele>424.39999389648</ele>
        <time>2023-05-26T08:36:39.000Z</time>
      </trkpt>
      <trkpt lat="43.73365" lon="3.3911">
        <ele>424.39999389648</ele>
        <time>2023-05-26T08:36:56.000Z</time>
      </trkpt>
      <trkpt lat="43.73364" lon="3.3911">
        <ele>424.20001220703</ele>
        <time>2023-05-26T08:37:07.000Z</time>
      </trkpt>
      <trkpt lat="43.73363" lon="3.39112">
        <ele>424.39999389648</ele>
        <time>2023-05-26T08:37:22.000Z</time>
      </trkpt>
      <trkpt lat="43.73361" lon="3.39113">
        <ele>424.20001220703</ele>
        <time>2023-05-26T08:37:33.000Z</time>
      </trkpt>
      <trkpt lat="43.73359" lon="3.39114">
        <ele>424.20001220703</ele>
        <time>2023-05-26T08:37:41.000Z</time>
      </trkpt>
      <trkpt lat="43.73358" lon="3.39115">
        <ele>423.60000610352</ele>
        <time>2023-05-26T08:37:47.000Z</time>
      </trkpt>
      <trkpt lat="43.73358" lon="3.39116">
        <ele>424.39999389648</ele>
        <time>2023-05-26T08:37:53.000Z</time>
      </trkpt>
      <trkpt lat="43.7336" lon="3.39117">
        <ele>424.39999389648</ele>
        <time>2023-05-26T08:38:02.000Z</time>
      </trkpt>
      <trkpt lat="43.7336" lon="3.39117">
        <ele>424</ele>
        <time>2023-05-26T08:38:09.000Z</time>
      </trkpt>
      <trkpt lat="43.7336" lon="3.39118">
        <ele>424</ele>
        <time>2023-05-26T08:38:18.000Z</time>
      </trkpt>
      <trkpt lat="43.7336" lon="3.39117">
        <ele>424.39999389648</ele>
        <time>2023-05-26T08:38:25.000Z</time>
      </trkpt>
      <trkpt lat="43.7336" lon="3.39117">
        <ele>424</ele>
        <time>2023-05-26T08:38:31.000Z</time>
      </trkpt>
      <trkpt lat="43.73359" lon="3.39117">
        <ele>424</ele>
        <time>2023-05-26T08:38:37.000Z</time>
      </trkpt>
      <trkpt lat="43.73358" lon="3.39118">
        <ele>424</ele>
        <time>2023-05-26T08:38:47.000Z</time>
      </trkpt>
      <trkpt lat="43.73358" lon="3.39115">
        <ele>424.20001220703</ele>
        <time>2023-05-26T08:38:54.000Z</time>
      </trkpt>
      <trkpt lat="43.73359" lon="3.3911">
        <ele>424.39999389648</ele>
        <time>2023-05-26T08:39:00.000Z</time>
      </trkpt>
      <trkpt lat="43.7336" lon="3.39102">
        <ele>424.39999389648</ele>
        <time>2023-05-26T08:39:07.000Z</time>
      </trkpt>
      <trkpt lat="43.7336" lon="3.39095">
        <ele>424.79998779297</ele>
        <time>2023-05-26T08:39:13.000Z</time>
      </trkpt>
      <trkpt lat="43.7336" lon="3.39094">
        <ele>424.79998779297</ele>
        <time>2023-05-26T08:39:14.000Z</time>
      </trkpt>
      <trkpt lat="43.73359" lon="3.39094">
        <ele>424.79998779297</ele>
        <time>2023-05-26T08:39:15.000Z</time>
      </trkpt>
      <trkpt lat="43.73356" lon="3.39091">
        <ele>425</ele>
        <time>2023-05-26T08:39:20.000Z</time>
      </trkpt>
      <trkpt lat="43.73352" lon="3.39089">
        <ele>425.39999389648</ele>
        <time>2023-05-26T08:39:25.000Z</time>
      </trkpt>
      <trkpt lat="43.73352" lon="3.39088">
        <ele>425.39999389648</ele>
        <time>2023-05-26T08:39:26.000Z</time>
      </trkpt>
      <trkpt lat="43.73349" lon="3.39086">
        <ele>426.39999389648</ele>
        <time>2023-05-26T08:39:32.000Z</time>
      </trkpt>
      <trkpt lat="43.73348" lon="3.39085">
        <ele>426.39999389648</ele>
        <time>2023-05-26T08:39:33.000Z</time>
      </trkpt>
      <trkpt lat="43.73341" lon="3.39082">
        <ele>427.20001220703</ele>
        <time>2023-05-26T08:39:41.000Z</time>
      </trkpt>
      <trkpt lat="43.73334" lon="3.3908">
        <ele>427.39999389648</ele>
        <time>2023-05-26T08:39:49.000Z</time>
      </trkpt>
      <trkpt lat="43.73334" lon="3.3908">
        <ele>427.60000610352</ele>
        <time>2023-05-26T08:39:53.000Z</time>
      </trkpt>
      <trkpt lat="43.73333" lon="3.3908">
        <ele>427.60000610352</ele>
        <time>2023-05-26T08:39:55.000Z</time>
      </trkpt>
      <trkpt lat="43.73327" lon="3.39076">
        <ele>427.79998779297</ele>
        <time>2023-05-26T08:40:03.000Z</time>
      </trkpt>
      <trkpt lat="43.73321" lon="3.39071">
        <ele>427.79998779297</ele>
        <time>2023-05-26T08:40:11.000Z</time>
      </trkpt>
      <trkpt lat="43.73312" lon="3.39064">
        <ele>428</ele>
        <time>2023-05-26T08:40:21.000Z</time>
      </trkpt>
      <trkpt lat="43.7331" lon="3.39061">
        <ele>428</ele>
        <time>2023-05-26T08:40:25.000Z</time>
      </trkpt>
      <trkpt lat="43.73308" lon="3.39058">
        <ele>427.79998779297</ele>
        <time>2023-05-26T08:40:28.000Z</time>
      </trkpt>
      <trkpt lat="43.73307" lon="3.39057">
        <ele>427.79998779297</ele>
        <time>2023-05-26T08:40:34.000Z</time>
      </trkpt>
      <trkpt lat="43.7331" lon="3.39049">
        <ele>428.39999389648</ele>
        <time>2023-05-26T08:40:41.000Z</time>
      </trkpt>
      <trkpt lat="43.73314" lon="3.39043">
        <ele>428.39999389648</ele>
        <time>2023-05-26T08:40:47.000Z</time>
      </trkpt>
      <trkpt lat="43.73317" lon="3.39036">
        <ele>428.60000610352</ele>
        <time>2023-05-26T08:40:52.000Z</time>
      </trkpt>
      <trkpt lat="43.73318" lon="3.39032">
        <ele>429</ele>
        <time>2023-05-26T08:40:55.000Z</time>
      </trkpt>
      <trkpt lat="43.73321" lon="3.39022">
        <ele>429</ele>
        <time>2023-05-26T08:41:02.000Z</time>
      </trkpt>
      <trkpt lat="43.73324" lon="3.39013">
        <ele>429.20001220703</ele>
        <time>2023-05-26T08:41:09.000Z</time>
      </trkpt>
      <trkpt lat="43.73325" lon="3.39011">
        <ele>429.20001220703</ele>
        <time>2023-05-26T08:41:10.000Z</time>
      </trkpt>
      <trkpt lat="43.73328" lon="3.39005">
        <ele>429.20001220703</ele>
        <time>2023-05-26T08:41:16.000Z</time>
      </trkpt>
      <trkpt lat="43.73329" lon="3.39004">
        <ele>429.20001220703</ele>
        <time>2023-05-26T08:41:17.000Z</time>
      </trkpt>
      <trkpt lat="43.73332" lon="3.38995">
        <ele>429.20001220703</ele>
        <time>2023-05-26T08:41:23.000Z</time>
      </trkpt>
      <trkpt lat="43.73336" lon="3.38986">
        <ele>429.39999389648</ele>
        <time>2023-05-26T08:41:30.000Z</time>
      </trkpt>
      <trkpt lat="43.73337" lon="3.38983">
        <ele>429.60000610352</ele>
        <time>2023-05-26T08:41:32.000Z</time>
      </trkpt>
      <trkpt lat="43.73339" lon="3.38978">
        <ele>430</ele>
        <time>2023-05-26T08:41:36.000Z</time>
      </trkpt>
      <trkpt lat="43.7334" lon="3.38976">
        <ele>430</ele>
        <time>2023-05-26T08:41:37.000Z</time>
      </trkpt>
      <trkpt lat="43.73341" lon="3.38973">
        <ele>430</ele>
        <time>2023-05-26T08:41:40.000Z</time>
      </trkpt>
      <trkpt lat="43.73342" lon="3.3897">
        <ele>430.20001220703</ele>
        <time>2023-05-26T08:41:42.000Z</time>
      </trkpt>
      <trkpt lat="43.73343" lon="3.38966">
        <ele>430.20001220703</ele>
        <time>2023-05-26T08:41:44.000Z</time>
      </trkpt>
      <trkpt lat="43.73344" lon="3.38965">
        <ele>430.20001220703</ele>
        <time>2023-05-26T08:41:45.000Z</time>
      </trkpt>
      <trkpt lat="43.73345" lon="3.38962">
        <ele>430.39999389648</ele>
        <time>2023-05-26T08:41:47.000Z</time>
      </trkpt>
      <trkpt lat="43.73348" lon="3.38957">
        <ele>430.39999389648</ele>
        <time>2023-05-26T08:41:51.000Z</time>
      </trkpt>
      <trkpt lat="43.73349" lon="3.38955">
        <ele>430.60000610352</ele>
        <time>2023-05-26T08:41:53.000Z</time>
      </trkpt>
      <trkpt lat="43.7335" lon="3.38952">
        <ele>430.79998779297</ele>
        <time>2023-05-26T08:41:56.000Z</time>
      </trkpt>
      <trkpt lat="43.73351" lon="3.38948">
        <ele>430.79998779297</ele>
        <time>2023-05-26T08:41:59.000Z</time>
      </trkpt>
      <trkpt lat="43.73352" lon="3.38946">
        <ele>431</ele>
        <time>2023-05-26T08:42:01.000Z</time>
      </trkpt>
      <trkpt lat="43.73353" lon="3.38944">
        <ele>431.20001220703</ele>
        <time>2023-05-26T08:42:03.000Z</time>
      </trkpt>
      <trkpt lat="43.73354" lon="3.38942">
        <ele>431.39999389648</ele>
        <time>2023-05-26T08:42:06.000Z</time>
      </trkpt>
      <trkpt lat="43.73355" lon="3.38941">
        <ele>431.60000610352</ele>
        <time>2023-05-26T08:42:07.000Z</time>
      </trkpt>
      <trkpt lat="43.73355" lon="3.38939">
        <ele>431.79998779297</ele>
        <time>2023-05-26T08:42:09.000Z</time>
      </trkpt>
      <trkpt lat="43.73356" lon="3.38939">
        <ele>431.79998779297</ele>
        <time>2023-05-26T08:42:10.000Z</time>
      </trkpt>
      <trkpt lat="43.73357" lon="3.38937">
        <ele>432</ele>
        <time>2023-05-26T08:42:12.000Z</time>
      </trkpt>
      <trkpt lat="43.7336" lon="3.38931">
        <ele>432.39999389648</ele>
        <time>2023-05-26T08:42:18.000Z</time>
      </trkpt>
      <trkpt lat="43.7336" lon="3.38927">
        <ele>432.39999389648</ele>
        <time>2023-05-26T08:42:20.000Z</time>
      </trkpt>
      <trkpt lat="43.73362" lon="3.38923">
        <ele>432.60000610352</ele>
        <time>2023-05-26T08:42:24.000Z</time>
      </trkpt>
      <trkpt lat="43.73364" lon="3.38918">
        <ele>432.79998779297</ele>
        <time>2023-05-26T08:42:29.000Z</time>
      </trkpt>
      <trkpt lat="43.73366" lon="3.38916">
        <ele>433</ele>
        <time>2023-05-26T08:42:31.000Z</time>
      </trkpt>
      <trkpt lat="43.73369" lon="3.38911">
        <ele>433.20001220703</ele>
        <time>2023-05-26T08:42:37.000Z</time>
      </trkpt>
      <trkpt lat="43.73372" lon="3.38908">
        <ele>433.20001220703</ele>
        <time>2023-05-26T08:42:42.000Z</time>
      </trkpt>
      <trkpt lat="43.73373" lon="3.38905">
        <ele>433.20001220703</ele>
        <time>2023-05-26T08:42:44.000Z</time>
      </trkpt>
      <trkpt lat="43.73377" lon="3.38898">
        <ele>433.39999389648</ele>
        <time>2023-05-26T08:42:50.000Z</time>
      </trkpt>
      <trkpt lat="43.73379" lon="3.38893">
        <ele>433.39999389648</ele>
        <time>2023-05-26T08:42:54.000Z</time>
      </trkpt>
      <trkpt lat="43.7338" lon="3.38891">
        <ele>433.60000610352</ele>
        <time>2023-05-26T08:42:56.000Z</time>
      </trkpt>
      <trkpt lat="43.73383" lon="3.38884">
        <ele>433.60000610352</ele>
        <time>2023-05-26T08:43:02.000Z</time>
      </trkpt>
      <trkpt lat="43.73384" lon="3.38881">
        <ele>433.79998779297</ele>
        <time>2023-05-26T08:43:05.000Z</time>
      </trkpt>
      <trkpt lat="43.73385" lon="3.3888">
        <ele>433.79998779297</ele>
        <time>2023-05-26T08:43:07.000Z</time>
      </trkpt>
      <trkpt lat="43.73386" lon="3.38879">
        <ele>434</ele>
        <time>2023-05-26T08:43:08.000Z</time>
      </trkpt>
      <trkpt lat="43.73387" lon="3.38878">
        <ele>434</ele>
        <time>2023-05-26T08:43:10.000Z</time>
      </trkpt>
      <trkpt lat="43.73389" lon="3.38871">
        <ele>434.39999389648</ele>
        <time>2023-05-26T08:43:16.000Z</time>
      </trkpt>
      <trkpt lat="43.73389" lon="3.38869">
        <ele>434.60000610352</ele>
        <time>2023-05-26T08:43:17.000Z</time>
      </trkpt>
      <trkpt lat="43.7339" lon="3.38867">
        <ele>435</ele>
        <time>2023-05-26T08:43:19.000Z</time>
      </trkpt>
      <trkpt lat="43.73391" lon="3.38863">
        <ele>435</ele>
        <time>2023-05-26T08:43:22.000Z</time>
      </trkpt>
      <trkpt lat="43.73393" lon="3.38858">
        <ele>435</ele>
        <time>2023-05-26T08:43:26.000Z</time>
      </trkpt>
      <trkpt lat="43.73394" lon="3.38854">
        <ele>435</ele>
        <time>2023-05-26T08:43:29.000Z</time>
      </trkpt>
      <trkpt lat="43.73394" lon="3.38853">
        <ele>435</ele>
        <time>2023-05-26T08:43:30.000Z</time>
      </trkpt>
      <trkpt lat="43.73396" lon="3.38845">
        <ele>435</ele>
        <time>2023-05-26T08:43:36.000Z</time>
      </trkpt>
      <trkpt lat="43.734" lon="3.38836">
        <ele>435.60000610352</ele>
        <time>2023-05-26T08:43:44.000Z</time>
      </trkpt>
      <trkpt lat="43.73402" lon="3.38832">
        <ele>436</ele>
        <time>2023-05-26T08:43:47.000Z</time>
      </trkpt>
      <trkpt lat="43.73402" lon="3.38832">
        <ele>436</ele>
        <time>2023-05-26T08:43:48.000Z</time>
      </trkpt>
      <trkpt lat="43.73404" lon="3.38829">
        <ele>436.39999389648</ele>
        <time>2023-05-26T08:43:51.000Z</time>
      </trkpt>
      <trkpt lat="43.73405" lon="3.38827">
        <ele>436.39999389648</ele>
        <time>2023-05-26T08:43:53.000Z</time>
      </trkpt>
      <trkpt lat="43.73408" lon="3.38822">
        <ele>436.39999389648</ele>
        <time>2023-05-26T08:43:58.000Z</time>
      </trkpt>
      <trkpt lat="43.73409" lon="3.38817">
        <ele>436.60000610352</ele>
        <time>2023-05-26T08:44:01.000Z</time>
      </trkpt>
      <trkpt lat="43.73412" lon="3.38812">
        <ele>436.60000610352</ele>
        <time>2023-05-26T08:44:05.000Z</time>
      </trkpt>
      <trkpt lat="43.73414" lon="3.38807">
        <ele>436.79998779297</ele>
        <time>2023-05-26T08:44:09.000Z</time>
      </trkpt>
      <trkpt lat="43.73415" lon="3.38804">
        <ele>437</ele>
        <time>2023-05-26T08:44:12.000Z</time>
      </trkpt>
      <trkpt lat="43.73416" lon="3.38802">
        <ele>437.20001220703</ele>
        <time>2023-05-26T08:44:13.000Z</time>
      </trkpt>
      <trkpt lat="43.73417" lon="3.38801">
        <ele>437.20001220703</ele>
        <time>2023-05-26T08:44:14.000Z</time>
      </trkpt>
      <trkpt lat="43.7342" lon="3.38796">
        <ele>437.39999389648</ele>
        <time>2023-05-26T08:44:18.000Z</time>
      </trkpt>
      <trkpt lat="43.73425" lon="3.38787">
        <ele>437.39999389648</ele>
        <time>2023-05-26T08:44:26.000Z</time>
      </trkpt>
      <trkpt lat="43.7343" lon="3.38779">
        <ele>437.60000610352</ele>
        <time>2023-05-26T08:44:33.000Z</time>
      </trkpt>
      <trkpt lat="43.73435" lon="3.38773">
        <ele>437.79998779297</ele>
        <time>2023-05-26T08:44:40.000Z</time>
      </trkpt>
      <trkpt lat="43.73438" lon="3.38765">
        <ele>438</ele>
        <time>2023-05-26T08:44:47.000Z</time>
      </trkpt>
      <trkpt lat="43.73439" lon="3.38763">
        <ele>437.79998779297</ele>
        <time>2023-05-26T08:44:49.000Z</time>
      </trkpt>
      <trkpt lat="43.73442" lon="3.38757">
        <ele>438</ele>
        <time>2023-05-26T08:44:54.000Z</time>
      </trkpt>
      <trkpt lat="43.73445" lon="3.3875">
        <ele>438</ele>
        <time>2023-05-26T08:45:01.000Z</time>
      </trkpt>
      <trkpt lat="43.73446" lon="3.38749">
        <ele>438</ele>
        <time>2023-05-26T08:45:02.000Z</time>
      </trkpt>
      <trkpt lat="43.73449" lon="3.38743">
        <ele>438.20001220703</ele>
        <time>2023-05-26T08:45:07.000Z</time>
      </trkpt>
      <trkpt lat="43.7345" lon="3.38742">
        <ele>438.20001220703</ele>
        <time>2023-05-26T08:45:08.000Z</time>
      </trkpt>
      <trkpt lat="43.73451" lon="3.38741">
        <ele>438.20001220703</ele>
        <time>2023-05-26T08:45:09.000Z</time>
      </trkpt>
      <trkpt lat="43.73455" lon="3.38734">
        <ele>438.39999389648</ele>
        <time>2023-05-26T08:45:16.000Z</time>
      </trkpt>
      <trkpt lat="43.7346" lon="3.38725">
        <ele>438.60000610352</ele>
        <time>2023-05-26T08:45:24.000Z</time>
      </trkpt>
      <trkpt lat="43.73461" lon="3.38724">
        <ele>438.60000610352</ele>
        <time>2023-05-26T08:45:25.000Z</time>
      </trkpt>
      <trkpt lat="43.73464" lon="3.38718">
        <ele>439</ele>
        <time>2023-05-26T08:45:30.000Z</time>
      </trkpt>
      <trkpt lat="43.73466" lon="3.38713">
        <ele>439.20001220703</ele>
        <time>2023-05-26T08:45:34.000Z</time>
      </trkpt>
      <trkpt lat="43.73467" lon="3.3871">
        <ele>439.20001220703</ele>
        <time>2023-05-26T08:45:36.000Z</time>
      </trkpt>
      <trkpt lat="43.73468" lon="3.38708">
        <ele>439.39999389648</ele>
        <time>2023-05-26T08:45:38.000Z</time>
      </trkpt>
      <trkpt lat="43.7347" lon="3.38701">
        <ele>440</ele>
        <time>2023-05-26T08:45:44.000Z</time>
      </trkpt>
      <trkpt lat="43.73471" lon="3.387">
        <ele>440</ele>
        <time>2023-05-26T08:45:45.000Z</time>
      </trkpt>
      <trkpt lat="43.73473" lon="3.38694">
        <ele>440.20001220703</ele>
        <time>2023-05-26T08:45:49.000Z</time>
      </trkpt>
      <trkpt lat="43.73475" lon="3.38691">
        <ele>440.39999389648</ele>
        <time>2023-05-26T08:45:52.000Z</time>
      </trkpt>
      <trkpt lat="43.73476" lon="3.38689">
        <ele>440.39999389648</ele>
        <time>2023-05-26T08:45:53.000Z</time>
      </trkpt>
      <trkpt lat="43.73479" lon="3.38683">
        <ele>440.39999389648</ele>
        <time>2023-05-26T08:45:58.000Z</time>
      </trkpt>
      <trkpt lat="43.7348" lon="3.38681">
        <ele>440.60000610352</ele>
        <time>2023-05-26T08:45:59.000Z</time>
      </trkpt>
      <trkpt lat="43.7348" lon="3.3868">
        <ele>440.60000610352</ele>
        <time>2023-05-26T08:46:00.000Z</time>
      </trkpt>
      <trkpt lat="43.73484" lon="3.38675">
        <ele>440.60000610352</ele>
        <time>2023-05-26T08:46:05.000Z</time>
      </trkpt>
      <trkpt lat="43.73486" lon="3.38669">
        <ele>440.60000610352</ele>
        <time>2023-05-26T08:46:10.000Z</time>
      </trkpt>
      <trkpt lat="43.73488" lon="3.38663">
        <ele>440.79998779297</ele>
        <time>2023-05-26T08:46:15.000Z</time>
      </trkpt>
      <trkpt lat="43.73492" lon="3.38657">
        <ele>441.20001220703</ele>
        <time>2023-05-26T08:46:21.000Z</time>
      </trkpt>
      <trkpt lat="43.73497" lon="3.38648">
        <ele>441.60000610352</ele>
        <time>2023-05-26T08:46:29.000Z</time>
      </trkpt>
      <trkpt lat="43.735" lon="3.38642">
        <ele>441.79998779297</ele>
        <time>2023-05-26T08:46:35.000Z</time>
      </trkpt>
      <trkpt lat="43.73504" lon="3.38634">
        <ele>441.79998779297</ele>
        <time>2023-05-26T08:46:41.000Z</time>
      </trkpt>
      <trkpt lat="43.73509" lon="3.38626">
        <ele>442.20001220703</ele>
        <time>2023-05-26T08:46:48.000Z</time>
      </trkpt>
      <trkpt lat="43.73509" lon="3.38625">
        <ele>442.20001220703</ele>
        <time>2023-05-26T08:46:49.000Z</time>
      </trkpt>
      <trkpt lat="43.73511" lon="3.38624">
        <ele>442.39999389648</ele>
        <time>2023-05-26T08:46:50.000Z</time>
      </trkpt>
      <trkpt lat="43.73513" lon="3.38622">
        <ele>442.39999389648</ele>
        <time>2023-05-26T08:46:53.000Z</time>
      </trkpt>
      <trkpt lat="43.73518" lon="3.38611">
        <ele>442.20001220703</ele>
        <time>2023-05-26T08:47:02.000Z</time>
      </trkpt>
      <trkpt lat="43.73522" lon="3.38604">
        <ele>442.20001220703</ele>
        <time>2023-05-26T08:47:08.000Z</time>
      </trkpt>
      <trkpt lat="43.73523" lon="3.38602">
        <ele>442.20001220703</ele>
        <time>2023-05-26T08:47:10.000Z</time>
      </trkpt>
      <trkpt lat="43.73526" lon="3.38594">
        <ele>442.60000610352</ele>
        <time>2023-05-26T08:47:15.000Z</time>
      </trkpt>
      <trkpt lat="43.73526" lon="3.38593">
        <ele>442.60000610352</ele>
        <time>2023-05-26T08:47:16.000Z</time>
      </trkpt>
      <trkpt lat="43.73531" lon="3.38583">
        <ele>442.60000610352</ele>
        <time>2023-05-26T08:47:24.000Z</time>
      </trkpt>
      <trkpt lat="43.73535" lon="3.38574">
        <ele>442.60000610352</ele>
        <time>2023-05-26T08:47:32.000Z</time>
      </trkpt>
      <trkpt lat="43.73537" lon="3.3857">
        <ele>442.60000610352</ele>
        <time>2023-05-26T08:47:35.000Z</time>
      </trkpt>
      <trkpt lat="43.73539" lon="3.38565">
        <ele>442.39999389648</ele>
        <time>2023-05-26T08:47:39.000Z</time>
      </trkpt>
      <trkpt lat="43.73543" lon="3.38556">
        <ele>442.39999389648</ele>
        <time>2023-05-26T08:47:46.000Z</time>
      </trkpt>
      <trkpt lat="43.73545" lon="3.38553">
        <ele>442.39999389648</ele>
        <time>2023-05-26T08:47:49.000Z</time>
      </trkpt>
      <trkpt lat="43.73547" lon="3.38547">
        <ele>442.20001220703</ele>
        <time>2023-05-26T08:47:53.000Z</time>
      </trkpt>
      <trkpt lat="43.73553" lon="3.38537">
        <ele>442.20001220703</ele>
        <time>2023-05-26T08:48:02.000Z</time>
      </trkpt>
      <trkpt lat="43.73557" lon="3.38528">
        <ele>442</ele>
        <time>2023-05-26T08:48:09.000Z</time>
      </trkpt>
      <trkpt lat="43.73562" lon="3.38517">
        <ele>441.20001220703</ele>
        <time>2023-05-26T08:48:18.000Z</time>
      </trkpt>
      <trkpt lat="43.73562" lon="3.38516">
        <ele>441.20001220703</ele>
        <time>2023-05-26T08:48:19.000Z</time>
      </trkpt>
      <trkpt lat="43.73564" lon="3.38512">
        <ele>441</ele>
        <time>2023-05-26T08:48:22.000Z</time>
      </trkpt>
      <trkpt lat="43.73566" lon="3.38509">
        <ele>440.79998779297</ele>
        <time>2023-05-26T08:48:25.000Z</time>
      </trkpt>
      <trkpt lat="43.73566" lon="3.38506">
        <ele>440.79998779297</ele>
        <time>2023-05-26T08:48:27.000Z</time>
      </trkpt>
      <trkpt lat="43.73566" lon="3.38501">
        <ele>440.60000610352</ele>
        <time>2023-05-26T08:48:31.000Z</time>
      </trkpt>
      <trkpt lat="43.73567" lon="3.385">
        <ele>440.60000610352</ele>
        <time>2023-05-26T08:48:32.000Z</time>
      </trkpt>
      <trkpt lat="43.73569" lon="3.38498">
        <ele>440.39999389648</ele>
        <time>2023-05-26T08:48:35.000Z</time>
      </trkpt>
      <trkpt lat="43.7357" lon="3.38496">
        <ele>440.20001220703</ele>
        <time>2023-05-26T08:48:37.000Z</time>
      </trkpt>
      <trkpt lat="43.7357" lon="3.38495">
        <ele>440</ele>
        <time>2023-05-26T08:48:38.000Z</time>
      </trkpt>
      <trkpt lat="43.73576" lon="3.38485">
        <ele>439.20001220703</ele>
        <time>2023-05-26T08:48:47.000Z</time>
      </trkpt>
      <trkpt lat="43.73577" lon="3.38482">
        <ele>439.20001220703</ele>
        <time>2023-05-26T08:48:50.000Z</time>
      </trkpt>
      <trkpt lat="43.7358" lon="3.38477">
        <ele>438.60000610352</ele>
        <time>2023-05-26T08:48:55.000Z</time>
      </trkpt>
      <trkpt lat="43.73585" lon="3.38469">
        <ele>438</ele>
        <time>2023-05-26T08:49:03.000Z</time>
      </trkpt>
      <trkpt lat="43.73589" lon="3.38462">
        <ele>437.79998779297</ele>
        <time>2023-05-26T08:49:10.000Z</time>
      </trkpt>
      <trkpt lat="43.73589" lon="3.38461">
        <ele>437.60000610352</ele>
        <time>2023-05-26T08:49:11.000Z</time>
      </trkpt>
      <trkpt lat="43.73592" lon="3.38453">
        <ele>437.39999389648</ele>
        <time>2023-05-26T08:49:17.000Z</time>
      </trkpt>
      <trkpt lat="43.73594" lon="3.3845">
        <ele>437</ele>
        <time>2023-05-26T08:49:20.000Z</time>
      </trkpt>
      <trkpt lat="43.73596" lon="3.38446">
        <ele>436.79998779297</ele>
        <time>2023-05-26T08:49:24.000Z</time>
      </trkpt>
      <trkpt lat="43.73597" lon="3.38444">
        <ele>436.60000610352</ele>
        <time>2023-05-26T08:49:26.000Z</time>
      </trkpt>
      <trkpt lat="43.736" lon="3.38439">
        <ele>436.39999389648</ele>
        <time>2023-05-26T08:49:31.000Z</time>
      </trkpt>
      <trkpt lat="43.73602" lon="3.38436">
        <ele>436.20001220703</ele>
        <time>2023-05-26T08:49:34.000Z</time>
      </trkpt>
      <trkpt lat="43.73604" lon="3.38434">
        <ele>436</ele>
        <time>2023-05-26T08:49:36.000Z</time>
      </trkpt>
      <trkpt lat="43.73604" lon="3.38433">
        <ele>436</ele>
        <time>2023-05-26T08:49:37.000Z</time>
      </trkpt>
      <trkpt lat="43.73606" lon="3.3843">
        <ele>435.79998779297</ele>
        <time>2023-05-26T08:49:39.000Z</time>
      </trkpt>
      <trkpt lat="43.73608" lon="3.38427">
        <ele>435.60000610352</ele>
        <time>2023-05-26T08:49:43.000Z</time>
      </trkpt>
      <trkpt lat="43.7361" lon="3.38424">
        <ele>435.60000610352</ele>
        <time>2023-05-26T08:49:46.000Z</time>
      </trkpt>
      <trkpt lat="43.73615" lon="3.38416">
        <ele>435.20001220703</ele>
        <time>2023-05-26T08:49:54.000Z</time>
      </trkpt>
      <trkpt lat="43.73615" lon="3.38415">
        <ele>435</ele>
        <time>2023-05-26T08:49:55.000Z</time>
      </trkpt>
      <trkpt lat="43.73617" lon="3.38413">
        <ele>435</ele>
        <time>2023-05-26T08:49:57.000Z</time>
      </trkpt>
      <trkpt lat="43.7362" lon="3.38407">
        <ele>434.60000610352</ele>
        <time>2023-05-26T08:50:04.000Z</time>
      </trkpt>
      <trkpt lat="43.73622" lon="3.38405">
        <ele>434.79998779297</ele>
        <time>2023-05-26T08:50:08.000Z</time>
      </trkpt>
      <trkpt lat="43.73624" lon="3.38402">
        <ele>434.60000610352</ele>
        <time>2023-05-26T08:50:11.000Z</time>
      </trkpt>
      <trkpt lat="43.73627" lon="3.38396">
        <ele>433.79998779297</ele>
        <time>2023-05-26T08:50:18.000Z</time>
      </trkpt>
      <trkpt lat="43.73631" lon="3.38391">
        <ele>433.39999389648</ele>
        <time>2023-05-26T08:50:25.000Z</time>
      </trkpt>
      <trkpt lat="43.73634" lon="3.38386">
        <ele>433</ele>
        <time>2023-05-26T08:50:31.000Z</time>
      </trkpt>
      <trkpt lat="43.73635" lon="3.38386">
        <ele>433</ele>
        <time>2023-05-26T08:50:33.000Z</time>
      </trkpt>
      <trkpt lat="43.73636" lon="3.38383">
        <ele>432.79998779297</ele>
        <time>2023-05-26T08:50:36.000Z</time>
      </trkpt>
      <trkpt lat="43.73639" lon="3.38379">
        <ele>432.60000610352</ele>
        <time>2023-05-26T08:50:41.000Z</time>
      </trkpt>
      <trkpt lat="43.73643" lon="3.38374">
        <ele>432.20001220703</ele>
        <time>2023-05-26T08:50:47.000Z</time>
      </trkpt>
      <trkpt lat="43.73646" lon="3.38368">
        <ele>431.79998779297</ele>
        <time>2023-05-26T08:50:53.000Z</time>
      </trkpt>
      <trkpt lat="43.73648" lon="3.38367">
        <ele>431.60000610352</ele>
        <time>2023-05-26T08:50:55.000Z</time>
      </trkpt>
      <trkpt lat="43.73651" lon="3.38359">
        <ele>431.39999389648</ele>
        <time>2023-05-26T08:51:02.000Z</time>
      </trkpt>
      <trkpt lat="43.73655" lon="3.38355">
        <ele>431.20001220703</ele>
        <time>2023-05-26T08:51:06.000Z</time>
      </trkpt>
      <trkpt lat="43.73656" lon="3.38353">
        <ele>431.20001220703</ele>
        <time>2023-05-26T08:51:08.000Z</time>
      </trkpt>
      <trkpt lat="43.73656" lon="3.38352">
        <ele>431.20001220703</ele>
        <time>2023-05-26T08:51:09.000Z</time>
      </trkpt>
      <trkpt lat="43.73657" lon="3.38351">
        <ele>431.20001220703</ele>
        <time>2023-05-26T08:51:12.000Z</time>
      </trkpt>
      <trkpt lat="43.73659" lon="3.3835">
        <ele>431.39999389648</ele>
        <time>2023-05-26T08:51:14.000Z</time>
      </trkpt>
      <trkpt lat="43.73662" lon="3.38344">
        <ele>431.39999389648</ele>
        <time>2023-05-26T08:51:20.000Z</time>
      </trkpt>
      <trkpt lat="43.73664" lon="3.38343">
        <ele>431.20001220703</ele>
        <time>2023-05-26T08:51:26.000Z</time>
      </trkpt>
      <trkpt lat="43.73667" lon="3.38336">
        <ele>431</ele>
        <time>2023-05-26T08:51:32.000Z</time>
      </trkpt>
      <trkpt lat="43.73671" lon="3.38328">
        <ele>431</ele>
        <time>2023-05-26T08:51:39.000Z</time>
      </trkpt>
      <trkpt lat="43.73675" lon="3.3832">
        <ele>430.79998779297</ele>
        <time>2023-05-26T08:51:46.000Z</time>
      </trkpt>
      <trkpt lat="43.73677" lon="3.38317">
        <ele>430.79998779297</ele>
        <time>2023-05-26T08:51:50.000Z</time>
      </trkpt>
      <trkpt lat="43.7368" lon="3.38314">
        <ele>431</ele>
        <time>2023-05-26T08:51:53.000Z</time>
      </trkpt>
      <trkpt lat="43.73682" lon="3.38313">
        <ele>430.79998779297</ele>
        <time>2023-05-26T08:51:55.000Z</time>
      </trkpt>
      <trkpt lat="43.73683" lon="3.38311">
        <ele>430.60000610352</ele>
        <time>2023-05-26T08:51:58.000Z</time>
      </trkpt>
      <trkpt lat="43.73687" lon="3.38306">
        <ele>430.60000610352</ele>
        <time>2023-05-26T08:52:05.000Z</time>
      </trkpt>
      <trkpt lat="43.73691" lon="3.383">
        <ele>430.20001220703</ele>
        <time>2023-05-26T08:52:11.000Z</time>
      </trkpt>
      <trkpt lat="43.73695" lon="3.38294">
        <ele>430</ele>
        <time>2023-05-26T08:52:17.000Z</time>
      </trkpt>
      <trkpt lat="43.73696" lon="3.38293">
        <ele>430</ele>
        <time>2023-05-26T08:52:18.000Z</time>
      </trkpt>
      <trkpt lat="43.73699" lon="3.38288">
        <ele>430</ele>
        <time>2023-05-26T08:52:22.000Z</time>
      </trkpt>
      <trkpt lat="43.737" lon="3.38286">
        <ele>430</ele>
        <time>2023-05-26T08:52:24.000Z</time>
      </trkpt>
      <trkpt lat="43.73704" lon="3.3828">
        <ele>430</ele>
        <time>2023-05-26T08:52:30.000Z</time>
      </trkpt>
      <trkpt lat="43.73709" lon="3.38273">
        <ele>430</ele>
        <time>2023-05-26T08:52:37.000Z</time>
      </trkpt>
      <trkpt lat="43.73711" lon="3.38271">
        <ele>430</ele>
        <time>2023-05-26T08:52:40.000Z</time>
      </trkpt>
      <trkpt lat="43.73712" lon="3.3827">
        <ele>430</ele>
        <time>2023-05-26T08:52:41.000Z</time>
      </trkpt>
      <trkpt lat="43.73713" lon="3.38268">
        <ele>430</ele>
        <time>2023-05-26T08:52:43.000Z</time>
      </trkpt>
      <trkpt lat="43.73718" lon="3.38263">
        <ele>429.79998779297</ele>
        <time>2023-05-26T08:52:49.000Z</time>
      </trkpt>
      <trkpt lat="43.73723" lon="3.38257">
        <ele>429.60000610352</ele>
        <time>2023-05-26T08:52:56.000Z</time>
      </trkpt>
      <trkpt lat="43.73725" lon="3.38256">
        <ele>429.79998779297</ele>
        <time>2023-05-26T08:52:58.000Z</time>
      </trkpt>
      <trkpt lat="43.73728" lon="3.38251">
        <ele>429.79998779297</ele>
        <time>2023-05-26T08:53:02.000Z</time>
      </trkpt>
      <trkpt lat="43.73728" lon="3.38251">
        <ele>429.79998779297</ele>
        <time>2023-05-26T08:53:03.000Z</time>
      </trkpt>
      <trkpt lat="43.73727" lon="3.38252">
        <ele>430.39999389648</ele>
        <time>2023-05-26T08:53:09.000Z</time>
      </trkpt>
      <trkpt lat="43.73733" lon="3.38245">
        <ele>430</ele>
        <time>2023-05-26T08:53:15.000Z</time>
      </trkpt>
      <trkpt lat="43.7374" lon="3.3824">
        <ele>429.79998779297</ele>
        <time>2023-05-26T08:53:21.000Z</time>
      </trkpt>
      <trkpt lat="43.73747" lon="3.38234">
        <ele>429.79998779297</ele>
        <time>2023-05-26T08:53:29.000Z</time>
      </trkpt>
      <trkpt lat="43.73753" lon="3.38225">
        <ele>429.60000610352</ele>
        <time>2023-05-26T08:53:37.000Z</time>
      </trkpt>
      <trkpt lat="43.73759" lon="3.38213">
        <ele>429.20001220703</ele>
        <time>2023-05-26T08:53:46.000Z</time>
      </trkpt>
      <trkpt lat="43.73762" lon="3.38201">
        <ele>429.20001220703</ele>
        <time>2023-05-26T08:53:53.000Z</time>
      </trkpt>
      <trkpt lat="43.73765" lon="3.38186">
        <ele>428.79998779297</ele>
        <time>2023-05-26T08:54:03.000Z</time>
      </trkpt>
      <trkpt lat="43.73766" lon="3.38184">
        <ele>428.79998779297</ele>
        <time>2023-05-26T08:54:04.000Z</time>
      </trkpt>
      <trkpt lat="43.73769" lon="3.38175">
        <ele>428.60000610352</ele>
        <time>2023-05-26T08:54:10.000Z</time>
      </trkpt>
      <trkpt lat="43.73772" lon="3.38165">
        <ele>428.39999389648</ele>
        <time>2023-05-26T08:54:17.000Z</time>
      </trkpt>
      <trkpt lat="43.73777" lon="3.38153">
        <ele>428</ele>
        <time>2023-05-26T08:54:27.000Z</time>
      </trkpt>
      <trkpt lat="43.73778" lon="3.38149">
        <ele>427.60000610352</ele>
        <time>2023-05-26T08:54:31.000Z</time>
      </trkpt>
      <trkpt lat="43.7378" lon="3.38146">
        <ele>427.20001220703</ele>
        <time>2023-05-26T08:54:34.000Z</time>
      </trkpt>
      <trkpt lat="43.7378" lon="3.38145">
        <ele>426.60000610352</ele>
        <time>2023-05-26T08:54:37.000Z</time>
      </trkpt>
      <trkpt lat="43.73781" lon="3.38143">
        <ele>426.39999389648</ele>
        <time>2023-05-26T08:54:40.000Z</time>
      </trkpt>
      <trkpt lat="43.73781" lon="3.38145">
        <ele>426.60000610352</ele>
        <time>2023-05-26T08:54:49.000Z</time>
      </trkpt>
      <trkpt lat="43.73781" lon="3.38144">
        <ele>426.39999389648</ele>
        <time>2023-05-26T08:54:55.000Z</time>
      </trkpt>
      <trkpt lat="43.73781" lon="3.38141">
        <ele>427</ele>
        <time>2023-05-26T08:55:04.000Z</time>
      </trkpt>
      <trkpt lat="43.73781" lon="3.38146">
        <ele>426.79998779297</ele>
        <time>2023-05-26T08:55:10.000Z</time>
      </trkpt>
      <trkpt lat="43.73781" lon="3.38148">
        <ele>426.79998779297</ele>
        <time>2023-05-26T08:55:17.000Z</time>
      </trkpt>
      <trkpt lat="43.73782" lon="3.38148">
        <ele>426.79998779297</ele>
        <time>2023-05-26T08:55:22.000Z</time>
      </trkpt>
      <trkpt lat="43.73784" lon="3.38151">
        <ele>426.60000610352</ele>
        <time>2023-05-26T08:55:29.000Z</time>
      </trkpt>
      <trkpt lat="43.73788" lon="3.38148">
        <ele>427.39999389648</ele>
        <time>2023-05-26T08:55:34.000Z</time>
      </trkpt>
      <trkpt lat="43.73789" lon="3.38145">
        <ele>427.79998779297</ele>
        <time>2023-05-26T08:55:36.000Z</time>
      </trkpt>
      <trkpt lat="43.73791" lon="3.3814">
        <ele>427.39999389648</ele>
        <time>2023-05-26T08:55:41.000Z</time>
      </trkpt>
      <trkpt lat="43.73793" lon="3.38135">
        <ele>427.39999389648</ele>
        <time>2023-05-26T08:55:47.000Z</time>
      </trkpt>
      <trkpt lat="43.73797" lon="3.38125">
        <ele>427.39999389648</ele>
        <time>2023-05-26T08:55:54.000Z</time>
      </trkpt>
      <trkpt lat="43.738" lon="3.38115">
        <ele>427.60000610352</ele>
        <time>2023-05-26T08:56:02.000Z</time>
      </trkpt>
      <trkpt lat="43.73804" lon="3.38104">
        <ele>427.60000610352</ele>
        <time>2023-05-26T08:56:10.000Z</time>
      </trkpt>
      <trkpt lat="43.73807" lon="3.38094">
        <ele>428</ele>
        <time>2023-05-26T08:56:18.000Z</time>
      </trkpt>
      <trkpt lat="43.7381" lon="3.38085">
        <ele>428</ele>
        <time>2023-05-26T08:56:25.000Z</time>
      </trkpt>
      <trkpt lat="43.73815" lon="3.38073">
        <ele>428</ele>
        <time>2023-05-26T08:56:34.000Z</time>
      </trkpt>
      <trkpt lat="43.73818" lon="3.38059">
        <ele>428.39999389648</ele>
        <time>2023-05-26T08:56:43.000Z</time>
      </trkpt>
      <trkpt lat="43.73819" lon="3.38054">
        <ele>428.60000610352</ele>
        <time>2023-05-26T08:56:48.000Z</time>
      </trkpt>
      <trkpt lat="43.73823" lon="3.3804">
        <ele>428.79998779297</ele>
        <time>2023-05-26T08:56:57.000Z</time>
      </trkpt>
      <trkpt lat="43.73826" lon="3.38032">
        <ele>428.79998779297</ele>
        <time>2023-05-26T08:57:02.000Z</time>
      </trkpt>
      <trkpt lat="43.73827" lon="3.38028">
        <ele>429</ele>
        <time>2023-05-26T08:57:05.000Z</time>
      </trkpt>
      <trkpt lat="43.73832" lon="3.38016">
        <ele>429</ele>
        <time>2023-05-26T08:57:14.000Z</time>
      </trkpt>
      <trkpt lat="43.73836" lon="3.38004">
        <ele>428.79998779297</ele>
        <time>2023-05-26T08:57:23.000Z</time>
      </trkpt>
      <trkpt lat="43.73839" lon="3.37996">
        <ele>428.79998779297</ele>
        <time>2023-05-26T08:57:29.000Z</time>
      </trkpt>
      <trkpt lat="43.73839" lon="3.37994">
        <ele>429</ele>
        <time>2023-05-26T08:57:31.000Z</time>
      </trkpt>
      <trkpt lat="43.73841" lon="3.37991">
        <ele>429.20001220703</ele>
        <time>2023-05-26T08:57:35.000Z</time>
      </trkpt>
      <trkpt lat="43.73844" lon="3.37987">
        <ele>429.39999389648</ele>
        <time>2023-05-26T08:57:39.000Z</time>
      </trkpt>
      <trkpt lat="43.73847" lon="3.37977">
        <ele>429.39999389648</ele>
        <time>2023-05-26T08:57:47.000Z</time>
      </trkpt>
      <trkpt lat="43.73851" lon="3.37964">
        <ele>429.60000610352</ele>
        <time>2023-05-26T08:57:56.000Z</time>
      </trkpt>
      <trkpt lat="43.73855" lon="3.37953">
        <ele>429.39999389648</ele>
        <time>2023-05-26T08:58:04.000Z</time>
      </trkpt>
      <trkpt lat="43.7386" lon="3.37945">
        <ele>429.60000610352</ele>
        <time>2023-05-26T08:58:11.000Z</time>
      </trkpt>
      <trkpt lat="43.73866" lon="3.37934">
        <ele>429.79998779297</ele>
        <time>2023-05-26T08:58:21.000Z</time>
      </trkpt>
      <trkpt lat="43.73867" lon="3.37933">
        <ele>429.79998779297</ele>
        <time>2023-05-26T08:58:22.000Z</time>
      </trkpt>
      <trkpt lat="43.73868" lon="3.37931">
        <ele>429.79998779297</ele>
        <time>2023-05-26T08:58:24.000Z</time>
      </trkpt>
      <trkpt lat="43.73868" lon="3.37929">
        <ele>430</ele>
        <time>2023-05-26T08:58:26.000Z</time>
      </trkpt>
      <trkpt lat="43.7387" lon="3.37923">
        <ele>430.20001220703</ele>
        <time>2023-05-26T08:58:30.000Z</time>
      </trkpt>
      <trkpt lat="43.73872" lon="3.37917">
        <ele>430.20001220703</ele>
        <time>2023-05-26T08:58:35.000Z</time>
      </trkpt>
      <trkpt lat="43.73875" lon="3.37908">
        <ele>430.39999389648</ele>
        <time>2023-05-26T08:58:42.000Z</time>
      </trkpt>
      <trkpt lat="43.73876" lon="3.37897">
        <ele>430.60000610352</ele>
        <time>2023-05-26T08:58:50.000Z</time>
      </trkpt>
      <trkpt lat="43.73878" lon="3.37887">
        <ele>430.60000610352</ele>
        <time>2023-05-26T08:58:57.000Z</time>
      </trkpt>
      <trkpt lat="43.73879" lon="3.37881">
        <ele>430.79998779297</ele>
        <time>2023-05-26T08:59:01.000Z</time>
      </trkpt>
      <trkpt lat="43.73879" lon="3.37878">
        <ele>430.79998779297</ele>
        <time>2023-05-26T08:59:03.000Z</time>
      </trkpt>
      <trkpt lat="43.7388" lon="3.37876">
        <ele>430.79998779297</ele>
        <time>2023-05-26T08:59:04.000Z</time>
      </trkpt>
      <trkpt lat="43.73881" lon="3.37866">
        <ele>431.20001220703</ele>
        <time>2023-05-26T08:59:11.000Z</time>
      </trkpt>
      <trkpt lat="43.73881" lon="3.37854">
        <ele>431.20001220703</ele>
        <time>2023-05-26T08:59:20.000Z</time>
      </trkpt>
      <trkpt lat="43.73881" lon="3.37847">
        <ele>431.20001220703</ele>
        <time>2023-05-26T08:59:26.000Z</time>
      </trkpt>
      <trkpt lat="43.73881" lon="3.37836">
        <ele>431.39999389648</ele>
        <time>2023-05-26T08:59:34.000Z</time>
      </trkpt>
      <trkpt lat="43.73879" lon="3.37829">
        <ele>431.39999389648</ele>
        <time>2023-05-26T08:59:40.000Z</time>
      </trkpt>
      <trkpt lat="43.73875" lon="3.37822">
        <ele>431.60000610352</ele>
        <time>2023-05-26T08:59:47.000Z</time>
      </trkpt>
      <trkpt lat="43.73871" lon="3.37818">
        <ele>431.60000610352</ele>
        <time>2023-05-26T08:59:52.000Z</time>
      </trkpt>
      <trkpt lat="43.73869" lon="3.37816">
        <ele>431.79998779297</ele>
        <time>2023-05-26T08:59:55.000Z</time>
      </trkpt>
      <trkpt lat="43.73864" lon="3.37812">
        <ele>431.60000610352</ele>
        <time>2023-05-26T09:00:01.000Z</time>
      </trkpt>
      <trkpt lat="43.7386" lon="3.3781">
        <ele>431.60000610352</ele>
        <time>2023-05-26T09:00:07.000Z</time>
      </trkpt>
      <trkpt lat="43.73857" lon="3.37804">
        <ele>431.79998779297</ele>
        <time>2023-05-26T09:00:14.000Z</time>
      </trkpt>
      <trkpt lat="43.73853" lon="3.378">
        <ele>431.79998779297</ele>
        <time>2023-05-26T09:00:19.000Z</time>
      </trkpt>
      <trkpt lat="43.73853" lon="3.378">
        <ele>431.79998779297</ele>
        <time>2023-05-26T09:00:20.000Z</time>
      </trkpt>
      <trkpt lat="43.73846" lon="3.37794">
        <ele>432.20001220703</ele>
        <time>2023-05-26T09:00:28.000Z</time>
      </trkpt>
      <trkpt lat="43.7384" lon="3.37789">
        <ele>432.39999389648</ele>
        <time>2023-05-26T09:00:36.000Z</time>
      </trkpt>
      <trkpt lat="43.73833" lon="3.37783">
        <ele>432.60000610352</ele>
        <time>2023-05-26T09:00:46.000Z</time>
      </trkpt>
      <trkpt lat="43.73831" lon="3.37781">
        <ele>432.79998779297</ele>
        <time>2023-05-26T09:00:48.000Z</time>
      </trkpt>
      <trkpt lat="43.73828" lon="3.37778">
        <ele>432.79998779297</ele>
        <time>2023-05-26T09:00:53.000Z</time>
      </trkpt>
      <trkpt lat="43.73822" lon="3.37773">
        <ele>433</ele>
        <time>2023-05-26T09:01:01.000Z</time>
      </trkpt>
      <trkpt lat="43.73817" lon="3.37767">
        <ele>432.79998779297</ele>
        <time>2023-05-26T09:01:08.000Z</time>
      </trkpt>
      <trkpt lat="43.73812" lon="3.37762">
        <ele>433</ele>
        <time>2023-05-26T09:01:14.000Z</time>
      </trkpt>
      <trkpt lat="43.73804" lon="3.37754">
        <ele>433</ele>
        <time>2023-05-26T09:01:23.000Z</time>
      </trkpt>
      <trkpt lat="43.73798" lon="3.37748">
        <ele>433.39999389648</ele>
        <time>2023-05-26T09:01:31.000Z</time>
      </trkpt>
      <trkpt lat="43.73793" lon="3.37744">
        <ele>433.60000610352</ele>
        <time>2023-05-26T09:01:37.000Z</time>
      </trkpt>
      <trkpt lat="43.73785" lon="3.37737">
        <ele>433.60000610352</ele>
        <time>2023-05-26T09:01:46.000Z</time>
      </trkpt>
      <trkpt lat="43.73779" lon="3.37731">
        <ele>433.60000610352</ele>
        <time>2023-05-26T09:01:54.000Z</time>
      </trkpt>
      <trkpt lat="43.73776" lon="3.37727">
        <ele>433.79998779297</ele>
        <time>2023-05-26T09:02:00.000Z</time>
      </trkpt>
      <trkpt lat="43.73775" lon="3.37726">
        <ele>433.79998779297</ele>
        <time>2023-05-26T09:02:01.000Z</time>
      </trkpt>
      <trkpt lat="43.7377" lon="3.37721">
        <ele>433.79998779297</ele>
        <time>2023-05-26T09:02:07.000Z</time>
      </trkpt>
      <trkpt lat="43.73769" lon="3.3772">
        <ele>433.79998779297</ele>
        <time>2023-05-26T09:02:09.000Z</time>
      </trkpt>
      <trkpt lat="43.73768" lon="3.3772">
        <ele>434.20001220703</ele>
        <time>2023-05-26T09:02:12.000Z</time>
      </trkpt>
      <trkpt lat="43.73767" lon="3.37714">
        <ele>434.39999389648</ele>
        <time>2023-05-26T09:02:19.000Z</time>
      </trkpt>
      <trkpt lat="43.73761" lon="3.37704">
        <ele>434.60000610352</ele>
        <time>2023-05-26T09:02:27.000Z</time>
      </trkpt>
      <trkpt lat="43.73757" lon="3.37692">
        <ele>434.79998779297</ele>
        <time>2023-05-26T09:02:36.000Z</time>
      </trkpt>
      <trkpt lat="43.73755" lon="3.37681">
        <ele>435</ele>
        <time>2023-05-26T09:02:45.000Z</time>
      </trkpt>
      <trkpt lat="43.73755" lon="3.37671">
        <ele>435</ele>
        <time>2023-05-26T09:02:53.000Z</time>
      </trkpt>
      <trkpt lat="43.73755" lon="3.37669">
        <ele>435</ele>
        <time>2023-05-26T09:02:54.000Z</time>
      </trkpt>
      <trkpt lat="43.73754" lon="3.37665">
        <ele>435</ele>
        <time>2023-05-26T09:02:57.000Z</time>
      </trkpt>
      <trkpt lat="43.73753" lon="3.37657">
        <ele>435</ele>
        <time>2023-05-26T09:03:04.000Z</time>
      </trkpt>
      <trkpt lat="43.73753" lon="3.37648">
        <ele>435.20001220703</ele>
        <time>2023-05-26T09:03:12.000Z</time>
      </trkpt>
      <trkpt lat="43.73753" lon="3.37638">
        <ele>435.39999389648</ele>
        <time>2023-05-26T09:03:20.000Z</time>
      </trkpt>
      <trkpt lat="43.73753" lon="3.37622">
        <ele>435.60000610352</ele>
        <time>2023-05-26T09:03:31.000Z</time>
      </trkpt>
      <trkpt lat="43.73753" lon="3.37616">
        <ele>435.60000610352</ele>
        <time>2023-05-26T09:03:37.000Z</time>
      </trkpt>
      <trkpt lat="43.73754" lon="3.37606">
        <ele>435.60000610352</ele>
        <time>2023-05-26T09:03:44.000Z</time>
      </trkpt>
      <trkpt lat="43.73754" lon="3.37604">
        <ele>435.60000610352</ele>
        <time>2023-05-26T09:03:46.000Z</time>
      </trkpt>
      <trkpt lat="43.73755" lon="3.37595">
        <ele>435.79998779297</ele>
        <time>2023-05-26T09:03:54.000Z</time>
      </trkpt>
      <trkpt lat="43.73756" lon="3.37583">
        <ele>436</ele>
        <time>2023-05-26T09:04:02.000Z</time>
      </trkpt>
      <trkpt lat="43.73756" lon="3.3758">
        <ele>436</ele>
        <time>2023-05-26T09:04:04.000Z</time>
      </trkpt>
      <trkpt lat="43.73758" lon="3.3757">
        <ele>436.20001220703</ele>
        <time>2023-05-26T09:04:12.000Z</time>
      </trkpt>
      <trkpt lat="43.73759" lon="3.37561">
        <ele>436.39999389648</ele>
        <time>2023-05-26T09:04:19.000Z</time>
      </trkpt>
      <trkpt lat="43.7376" lon="3.37551">
        <ele>436.39999389648</ele>
        <time>2023-05-26T09:04:28.000Z</time>
      </trkpt>
      <trkpt lat="43.73763" lon="3.37535">
        <ele>436.79998779297</ele>
        <time>2023-05-26T09:04:40.000Z</time>
      </trkpt>
      <trkpt lat="43.73763" lon="3.37534">
        <ele>436.79998779297</ele>
        <time>2023-05-26T09:04:41.000Z</time>
      </trkpt>
      <trkpt lat="43.73763" lon="3.37533">
        <ele>436.79998779297</ele>
        <time>2023-05-26T09:04:46.000Z</time>
      </trkpt>
      <trkpt lat="43.73762" lon="3.3753">
        <ele>436.60000610352</ele>
        <time>2023-05-26T09:04:52.000Z</time>
      </trkpt>
      <trkpt lat="43.73761" lon="3.37529">
        <ele>436.20001220703</ele>
        <time>2023-05-26T09:05:01.000Z</time>
      </trkpt>
      <trkpt lat="43.7376" lon="3.37527">
        <ele>436.20001220703</ele>
        <time>2023-05-26T09:05:13.000Z</time>
      </trkpt>
      <trkpt lat="43.73759" lon="3.37527">
        <ele>436.39999389648</ele>
        <time>2023-05-26T09:05:27.000Z</time>
      </trkpt>
      <trkpt lat="43.73758" lon="3.37515">
        <ele>436.60000610352</ele>
        <time>2023-05-26T09:05:38.000Z</time>
      </trkpt>
      <trkpt lat="43.73758" lon="3.37516">
        <ele>437</ele>
        <time>2023-05-26T09:05:43.000Z</time>
      </trkpt>
      <trkpt lat="43.73758" lon="3.37517">
        <ele>437</ele>
        <time>2023-05-26T09:05:47.000Z</time>
      </trkpt>
      <trkpt lat="43.73759" lon="3.37514">
        <ele>436.79998779297</ele>
        <time>2023-05-26T09:05:57.000Z</time>
      </trkpt>
      <trkpt lat="43.73759" lon="3.37516">
        <ele>437.20001220703</ele>
        <time>2023-05-26T09:06:04.000Z</time>
      </trkpt>
      <trkpt lat="43.73759" lon="3.37517">
        <ele>437</ele>
        <time>2023-05-26T09:06:10.000Z</time>
      </trkpt>
      <trkpt lat="43.7376" lon="3.37516">
        <ele>437</ele>
        <time>2023-05-26T09:06:19.000Z</time>
      </trkpt>
      <trkpt lat="43.73761" lon="3.3751">
        <ele>437</ele>
        <time>2023-05-26T09:06:25.000Z</time>
      </trkpt>
      <trkpt lat="43.73764" lon="3.37503">
        <ele>436.79998779297</ele>
        <time>2023-05-26T09:06:32.000Z</time>
      </trkpt>
      <trkpt lat="43.73766" lon="3.37497">
        <ele>437.20001220703</ele>
        <time>2023-05-26T09:06:38.000Z</time>
      </trkpt>
      <trkpt lat="43.73767" lon="3.37496">
        <ele>437.39999389648</ele>
        <time>2023-05-26T09:06:40.000Z</time>
      </trkpt>
      <trkpt lat="43.7377" lon="3.37485">
        <ele>437.39999389648</ele>
        <time>2023-05-26T09:06:48.000Z</time>
      </trkpt>
      <trkpt lat="43.73773" lon="3.37474">
        <ele>437.60000610352</ele>
        <time>2023-05-26T09:06:58.000Z</time>
      </trkpt>
      <trkpt lat="43.73776" lon="3.37468">
        <ele>437.60000610352</ele>
        <time>2023-05-26T09:07:06.000Z</time>
      </trkpt>
      <trkpt lat="43.73777" lon="3.37463">
        <ele>437.60000610352</ele>
        <time>2023-05-26T09:07:13.000Z</time>
      </trkpt>
      <trkpt lat="43.73779" lon="3.37459">
        <ele>437.60000610352</ele>
        <time>2023-05-26T09:07:20.000Z</time>
      </trkpt>
      <trkpt lat="43.73782" lon="3.37447">
        <ele>437.39999389648</ele>
        <time>2023-05-26T09:07:28.000Z</time>
      </trkpt>
      <trkpt lat="43.73785" lon="3.37436">
        <ele>437.20001220703</ele>
        <time>2023-05-26T09:07:39.000Z</time>
      </trkpt>
      <trkpt lat="43.73787" lon="3.37431">
        <ele>437.39999389648</ele>
        <time>2023-05-26T09:07:43.000Z</time>
      </trkpt>
      <trkpt lat="43.73787" lon="3.37429">
        <ele>437.39999389648</ele>
        <time>2023-05-26T09:07:44.000Z</time>
      </trkpt>
      <trkpt lat="43.73793" lon="3.37414">
        <ele>437.20001220703</ele>
        <time>2023-05-26T09:07:54.000Z</time>
      </trkpt>
      <trkpt lat="43.73799" lon="3.37402">
        <ele>437</ele>
        <time>2023-05-26T09:08:04.000Z</time>
      </trkpt>
      <trkpt lat="43.73804" lon="3.37392">
        <ele>437</ele>
        <time>2023-05-26T09:08:12.000Z</time>
      </trkpt>
      <trkpt lat="43.73811" lon="3.37382">
        <ele>436.79998779297</ele>
        <time>2023-05-26T09:08:22.000Z</time>
      </trkpt>
      <trkpt lat="43.73818" lon="3.37373">
        <ele>436.60000610352</ele>
        <time>2023-05-26T09:08:31.000Z</time>
      </trkpt>
      <trkpt lat="43.73823" lon="3.37364">
        <ele>436.60000610352</ele>
        <time>2023-05-26T09:08:39.000Z</time>
      </trkpt>
      <trkpt lat="43.73828" lon="3.37358">
        <ele>436.39999389648</ele>
        <time>2023-05-26T09:08:46.000Z</time>
      </trkpt>
      <trkpt lat="43.73834" lon="3.3735">
        <ele>436</ele>
        <time>2023-05-26T09:08:54.000Z</time>
      </trkpt>
      <trkpt lat="43.73838" lon="3.37346">
        <ele>436</ele>
        <time>2023-05-26T09:08:58.000Z</time>
      </trkpt>
      <trkpt lat="43.73843" lon="3.37343">
        <ele>435.79998779297</ele>
        <time>2023-05-26T09:09:04.000Z</time>
      </trkpt>
      <trkpt lat="43.73847" lon="3.37339">
        <ele>435.79998779297</ele>
        <time>2023-05-26T09:09:11.000Z</time>
      </trkpt>
      <trkpt lat="43.73849" lon="3.3734">
        <ele>436.20001220703</ele>
        <time>2023-05-26T09:09:18.000Z</time>
      </trkpt>
      <trkpt lat="43.73853" lon="3.37335">
        <ele>435.79998779297</ele>
        <time>2023-05-26T09:09:23.000Z</time>
      </trkpt>
      <trkpt lat="43.7386" lon="3.37326">
        <ele>435.60000610352</ele>
        <time>2023-05-26T09:09:31.000Z</time>
      </trkpt>
      <trkpt lat="43.73865" lon="3.37317">
        <ele>435.39999389648</ele>
        <time>2023-05-26T09:09:39.000Z</time>
      </trkpt>
      <trkpt lat="43.73871" lon="3.37304">
        <ele>435.20001220703</ele>
        <time>2023-05-26T09:09:49.000Z</time>
      </trkpt>
      <trkpt lat="43.73873" lon="3.37299">
        <ele>435.20001220703</ele>
        <time>2023-05-26T09:09:53.000Z</time>
      </trkpt>
      <trkpt lat="43.73874" lon="3.37296">
        <ele>435.20001220703</ele>
        <time>2023-05-26T09:09:55.000Z</time>
      </trkpt>
      <trkpt lat="43.73879" lon="3.37284">
        <ele>435</ele>
        <time>2023-05-26T09:10:05.000Z</time>
      </trkpt>
      <trkpt lat="43.73883" lon="3.37272">
        <ele>435</ele>
        <time>2023-05-26T09:10:14.000Z</time>
      </trkpt>
      <trkpt lat="43.73885" lon="3.37265">
        <ele>435.20001220703</ele>
        <time>2023-05-26T09:10:21.000Z</time>
      </trkpt>
      <trkpt lat="43.73888" lon="3.37255">
        <ele>435</ele>
        <time>2023-05-26T09:10:29.000Z</time>
      </trkpt>
      <trkpt lat="43.73888" lon="3.37254">
        <ele>435</ele>
        <time>2023-05-26T09:10:30.000Z</time>
      </trkpt>
      <trkpt lat="43.73892" lon="3.37244">
        <ele>434.79998779297</ele>
        <time>2023-05-26T09:10:38.000Z</time>
      </trkpt>
      <trkpt lat="43.73895" lon="3.37235">
        <ele>434.79998779297</ele>
        <time>2023-05-26T09:10:46.000Z</time>
      </trkpt>
      <trkpt lat="43.739" lon="3.37228">
        <ele>434.60000610352</ele>
        <time>2023-05-26T09:10:53.000Z</time>
      </trkpt>
      <trkpt lat="43.73903" lon="3.37225">
        <ele>434.60000610352</ele>
        <time>2023-05-26T09:10:57.000Z</time>
      </trkpt>
      <trkpt lat="43.73907" lon="3.37223">
        <ele>434.60000610352</ele>
        <time>2023-05-26T09:11:01.000Z</time>
      </trkpt>
      <trkpt lat="43.73908" lon="3.37223">
        <ele>434.60000610352</ele>
        <time>2023-05-26T09:11:02.000Z</time>
      </trkpt>
      <trkpt lat="43.73913" lon="3.37222">
        <ele>434.39999389648</ele>
        <time>2023-05-26T09:11:08.000Z</time>
      </trkpt>
      <trkpt lat="43.73915" lon="3.37222">
        <ele>434.60000610352</ele>
        <time>2023-05-26T09:11:10.000Z</time>
      </trkpt>
      <trkpt lat="43.73918" lon="3.37221">
        <ele>434.60000610352</ele>
        <time>2023-05-26T09:11:15.000Z</time>
      </trkpt>
      <trkpt lat="43.7392" lon="3.37221">
        <ele>434.60000610352</ele>
        <time>2023-05-26T09:11:17.000Z</time>
      </trkpt>
      <trkpt lat="43.73925" lon="3.37221">
        <ele>434.60000610352</ele>
        <time>2023-05-26T09:11:24.000Z</time>
      </trkpt>
      <trkpt lat="43.73933" lon="3.37222">
        <ele>434.39999389648</ele>
        <time>2023-05-26T09:11:33.000Z</time>
      </trkpt>
      <trkpt lat="43.73934" lon="3.37222">
        <ele>434.39999389648</ele>
        <time>2023-05-26T09:11:34.000Z</time>
      </trkpt>
      <trkpt lat="43.7394" lon="3.37223">
        <ele>434</ele>
        <time>2023-05-26T09:11:41.000Z</time>
      </trkpt>
      <trkpt lat="43.73942" lon="3.37223">
        <ele>434</ele>
        <time>2023-05-26T09:11:43.000Z</time>
      </trkpt>
      <trkpt lat="43.73944" lon="3.37223">
        <ele>433.79998779297</ele>
        <time>2023-05-26T09:11:45.000Z</time>
      </trkpt>
      <trkpt lat="43.73948" lon="3.37222">
        <ele>433.79998779297</ele>
        <time>2023-05-26T09:11:48.000Z</time>
      </trkpt>
      <trkpt lat="43.73952" lon="3.37218">
        <ele>433.60000610352</ele>
        <time>2023-05-26T09:11:54.000Z</time>
      </trkpt>
      <trkpt lat="43.73957" lon="3.37211">
        <ele>433.79998779297</ele>
        <time>2023-05-26T09:12:02.000Z</time>
      </trkpt>
      <trkpt lat="43.73963" lon="3.37201">
        <ele>434</ele>
        <time>2023-05-26T09:12:11.000Z</time>
      </trkpt>
      <trkpt lat="43.73967" lon="3.37193">
        <ele>434.20001220703</ele>
        <time>2023-05-26T09:12:18.000Z</time>
      </trkpt>
      <trkpt lat="43.73966" lon="3.37192">
        <ele>434.20001220703</ele>
        <time>2023-05-26T09:12:19.000Z</time>
      </trkpt>
      <trkpt lat="43.73967" lon="3.37187">
        <ele>434.20001220703</ele>
        <time>2023-05-26T09:12:23.000Z</time>
      </trkpt>
      <trkpt lat="43.73968" lon="3.37186">
        <ele>434.39999389648</ele>
        <time>2023-05-26T09:12:27.000Z</time>
      </trkpt>
      <trkpt lat="43.73974" lon="3.3718">
        <ele>434.20001220703</ele>
        <time>2023-05-26T09:12:34.000Z</time>
      </trkpt>
      <trkpt lat="43.73976" lon="3.37173">
        <ele>434.20001220703</ele>
        <time>2023-05-26T09:12:40.000Z</time>
      </trkpt>
      <trkpt lat="43.73976" lon="3.37173">
        <ele>434</ele>
        <time>2023-05-26T09:12:47.000Z</time>
      </trkpt>
      <trkpt lat="43.7398" lon="3.37167">
        <ele>434</ele>
        <time>2023-05-26T09:12:53.000Z</time>
      </trkpt>
      <trkpt lat="43.73983" lon="3.37161">
        <ele>433.79998779297</ele>
        <time>2023-05-26T09:12:59.000Z</time>
      </trkpt>
      <trkpt lat="43.73983" lon="3.3716">
        <ele>433.79998779297</ele>
        <time>2023-05-26T09:13:00.000Z</time>
      </trkpt>
      <trkpt lat="43.73983" lon="3.37158">
        <ele>433.79998779297</ele>
        <time>2023-05-26T09:13:02.000Z</time>
      </trkpt>
      <trkpt lat="43.73984" lon="3.37152">
        <ele>433.79998779297</ele>
        <time>2023-05-26T09:13:06.000Z</time>
      </trkpt>
      <trkpt lat="43.73984" lon="3.3715">
        <ele>433.79998779297</ele>
        <time>2023-05-26T09:13:07.000Z</time>
      </trkpt>
      <trkpt lat="43.73982" lon="3.37139">
        <ele>433.79998779297</ele>
        <time>2023-05-26T09:13:14.000Z</time>
      </trkpt>
      <trkpt lat="43.73982" lon="3.37138">
        <ele>433.79998779297</ele>
        <time>2023-05-26T09:13:15.000Z</time>
      </trkpt>
      <trkpt lat="43.73981" lon="3.37133">
        <ele>433.60000610352</ele>
        <time>2023-05-26T09:13:19.000Z</time>
      </trkpt>
      <trkpt lat="43.73981" lon="3.37132">
        <ele>433.60000610352</ele>
        <time>2023-05-26T09:13:20.000Z</time>
      </trkpt>
      <trkpt lat="43.73979" lon="3.37126">
        <ele>433.39999389648</ele>
        <time>2023-05-26T09:13:25.000Z</time>
      </trkpt>
      <trkpt lat="43.73977" lon="3.37118">
        <ele>433.39999389648</ele>
        <time>2023-05-26T09:13:31.000Z</time>
      </trkpt>
      <trkpt lat="43.73975" lon="3.37108">
        <ele>433.20001220703</ele>
        <time>2023-05-26T09:13:39.000Z</time>
      </trkpt>
      <trkpt lat="43.73974" lon="3.37099">
        <ele>433</ele>
        <time>2023-05-26T09:13:46.000Z</time>
      </trkpt>
      <trkpt lat="43.73973" lon="3.37096">
        <ele>433</ele>
        <time>2023-05-26T09:13:49.000Z</time>
      </trkpt>
      <trkpt lat="43.73972" lon="3.37093">
        <ele>433</ele>
        <time>2023-05-26T09:13:52.000Z</time>
      </trkpt>
      <trkpt lat="43.73971" lon="3.37088">
        <ele>433</ele>
        <time>2023-05-26T09:13:56.000Z</time>
      </trkpt>
      <trkpt lat="43.73971" lon="3.37087">
        <ele>432.79998779297</ele>
        <time>2023-05-26T09:13:57.000Z</time>
      </trkpt>
      <trkpt lat="43.73971" lon="3.37086">
        <ele>432.79998779297</ele>
        <time>2023-05-26T09:13:58.000Z</time>
      </trkpt>
      <trkpt lat="43.73969" lon="3.37077">
        <ele>432.79998779297</ele>
        <time>2023-05-26T09:14:05.000Z</time>
      </trkpt>
      <trkpt lat="43.73967" lon="3.37071">
        <ele>432.60000610352</ele>
        <time>2023-05-26T09:14:11.000Z</time>
      </trkpt>
      <trkpt lat="43.73966" lon="3.3707">
        <ele>432.60000610352</ele>
        <time>2023-05-26T09:14:12.000Z</time>
      </trkpt>
      <trkpt lat="43.73963" lon="3.37063">
        <ele>432.60000610352</ele>
        <time>2023-05-26T09:14:19.000Z</time>
      </trkpt>
      <trkpt lat="43.73963" lon="3.37062">
        <ele>432.60000610352</ele>
        <time>2023-05-26T09:14:20.000Z</time>
      </trkpt>
      <trkpt lat="43.73962" lon="3.37061">
        <ele>432.60000610352</ele>
        <time>2023-05-26T09:14:22.000Z</time>
      </trkpt>
      <trkpt lat="43.7396" lon="3.37057">
        <ele>432.60000610352</ele>
        <time>2023-05-26T09:14:25.000Z</time>
      </trkpt>
      <trkpt lat="43.73959" lon="3.37055">
        <ele>432.79998779297</ele>
        <time>2023-05-26T09:14:31.000Z</time>
      </trkpt>
      <trkpt lat="43.73956" lon="3.37049">
        <ele>432.79998779297</ele>
        <time>2023-05-26T09:14:36.000Z</time>
      </trkpt>
      <trkpt lat="43.73953" lon="3.37042">
        <ele>432.60000610352</ele>
        <time>2023-05-26T09:14:42.000Z</time>
      </trkpt>
      <trkpt lat="43.73949" lon="3.37033">
        <ele>432.60000610352</ele>
        <time>2023-05-26T09:14:49.000Z</time>
      </trkpt>
      <trkpt lat="43.73946" lon="3.37025">
        <ele>432.60000610352</ele>
        <time>2023-05-26T09:14:57.000Z</time>
      </trkpt>
      <trkpt lat="43.73945" lon="3.37017">
        <ele>432.60000610352</ele>
        <time>2023-05-26T09:15:03.000Z</time>
      </trkpt>
      <trkpt lat="43.73946" lon="3.37003">
        <ele>432.60000610352</ele>
        <time>2023-05-26T09:15:13.000Z</time>
      </trkpt>
      <trkpt lat="43.73947" lon="3.36993">
        <ele>432.39999389648</ele>
        <time>2023-05-26T09:15:20.000Z</time>
      </trkpt>
      <trkpt lat="43.73948" lon="3.36989">
        <ele>432.60000610352</ele>
        <time>2023-05-26T09:15:24.000Z</time>
      </trkpt>
      <trkpt lat="43.7395" lon="3.36983">
        <ele>432.60000610352</ele>
        <time>2023-05-26T09:15:28.000Z</time>
      </trkpt>
      <trkpt lat="43.73954" lon="3.36975">
        <ele>432.39999389648</ele>
        <time>2023-05-26T09:15:35.000Z</time>
      </trkpt>
      <trkpt lat="43.73961" lon="3.36966">
        <ele>432.39999389648</ele>
        <time>2023-05-26T09:15:44.000Z</time>
      </trkpt>
      <trkpt lat="43.73968" lon="3.36954">
        <ele>432.20001220703</ele>
        <time>2023-05-26T09:15:54.000Z</time>
      </trkpt>
      <trkpt lat="43.73971" lon="3.36948">
        <ele>431.79998779297</ele>
        <time>2023-05-26T09:15:59.000Z</time>
      </trkpt>
      <trkpt lat="43.73972" lon="3.3694">
        <ele>431.79998779297</ele>
        <time>2023-05-26T09:16:04.000Z</time>
      </trkpt>
      <trkpt lat="43.73971" lon="3.36935">
        <ele>431.79998779297</ele>
        <time>2023-05-26T09:16:10.000Z</time>
      </trkpt>
      <trkpt lat="43.73969" lon="3.36926">
        <ele>432.20001220703</ele>
        <time>2023-05-26T09:16:16.000Z</time>
      </trkpt>
      <trkpt lat="43.73967" lon="3.3692">
        <ele>432.20001220703</ele>
        <time>2023-05-26T09:16:21.000Z</time>
      </trkpt>
      <trkpt lat="43.73966" lon="3.36918">
        <ele>432.20001220703</ele>
        <time>2023-05-26T09:16:23.000Z</time>
      </trkpt>
      <trkpt lat="43.73965" lon="3.36918">
        <ele>432</ele>
        <time>2023-05-26T09:16:29.000Z</time>
      </trkpt>
      <trkpt lat="43.73965" lon="3.3692">
        <ele>432.20001220703</ele>
        <time>2023-05-26T09:16:44.000Z</time>
      </trkpt>
      <trkpt lat="43.73965" lon="3.3692">
        <ele>431.60000610352</ele>
        <time>2023-05-26T09:16:53.000Z</time>
      </trkpt>
      <trkpt lat="43.73964" lon="3.36921">
        <ele>431.20001220703</ele>
        <time>2023-05-26T09:17:05.000Z</time>
      </trkpt>
      <trkpt lat="43.73965" lon="3.36921">
        <ele>432</ele>
        <time>2023-05-26T09:17:16.000Z</time>
      </trkpt>
      <trkpt lat="43.73964" lon="3.36919">
        <ele>432.20001220703</ele>
        <time>2023-05-26T09:17:23.000Z</time>
      </trkpt>
      <trkpt lat="43.73962" lon="3.36911">
        <ele>431.60000610352</ele>
        <time>2023-05-26T09:17:30.000Z</time>
      </trkpt>
      <trkpt lat="43.7396" lon="3.36902">
        <ele>431.60000610352</ele>
        <time>2023-05-26T09:17:38.000Z</time>
      </trkpt>
      <trkpt lat="43.73958" lon="3.36897">
        <ele>431.20001220703</ele>
        <time>2023-05-26T09:17:43.000Z</time>
      </trkpt>
      <trkpt lat="43.73958" lon="3.36895">
        <ele>431.20001220703</ele>
        <time>2023-05-26T09:17:45.000Z</time>
      </trkpt>
      <trkpt lat="43.73957" lon="3.36892">
        <ele>431</ele>
        <time>2023-05-26T09:17:48.000Z</time>
      </trkpt>
      <trkpt lat="43.73953" lon="3.36887">
        <ele>431</ele>
        <time>2023-05-26T09:17:54.000Z</time>
      </trkpt>
      <trkpt lat="43.73949" lon="3.3688">
        <ele>431.20001220703</ele>
        <time>2023-05-26T09:18:01.000Z</time>
      </trkpt>
      <trkpt lat="43.73945" lon="3.36872">
        <ele>431.39999389648</ele>
        <time>2023-05-26T09:18:09.000Z</time>
      </trkpt>
      <trkpt lat="43.73941" lon="3.3686">
        <ele>431.39999389648</ele>
        <time>2023-05-26T09:18:18.000Z</time>
      </trkpt>
      <trkpt lat="43.73936" lon="3.36847">
        <ele>431.39999389648</ele>
        <time>2023-05-26T09:18:29.000Z</time>
      </trkpt>
      <trkpt lat="43.73928" lon="3.36839">
        <ele>431.20001220703</ele>
        <time>2023-05-26T09:18:39.000Z</time>
      </trkpt>
      <trkpt lat="43.73925" lon="3.36834">
        <ele>431.60000610352</ele>
        <time>2023-05-26T09:18:45.000Z</time>
      </trkpt>
      <trkpt lat="43.73925" lon="3.36833">
        <ele>431.60000610352</ele>
        <time>2023-05-26T09:18:46.000Z</time>
      </trkpt>
      <trkpt lat="43.73924" lon="3.36831">
        <ele>432</ele>
        <time>2023-05-26T09:18:52.000Z</time>
      </trkpt>
      <trkpt lat="43.73919" lon="3.36823">
        <ele>431.79998779297</ele>
        <time>2023-05-26T09:19:00.000Z</time>
      </trkpt>
      <trkpt lat="43.73915" lon="3.36815">
        <ele>431.79998779297</ele>
        <time>2023-05-26T09:19:07.000Z</time>
      </trkpt>
      <trkpt lat="43.73911" lon="3.36803">
        <ele>431.39999389648</ele>
        <time>2023-05-26T09:19:16.000Z</time>
      </trkpt>
      <trkpt lat="43.7391" lon="3.36792">
        <ele>431.39999389648</ele>
        <time>2023-05-26T09:19:23.000Z</time>
      </trkpt>
      <trkpt lat="43.73909" lon="3.36781">
        <ele>431</ele>
        <time>2023-05-26T09:19:31.000Z</time>
      </trkpt>
      <trkpt lat="43.73908" lon="3.36781">
        <ele>431</ele>
        <time>2023-05-26T09:19:32.000Z</time>
      </trkpt>
      <trkpt lat="43.73909" lon="3.36778">
        <ele>431.39999389648</ele>
        <time>2023-05-26T09:19:37.000Z</time>
      </trkpt>
      <trkpt lat="43.73909" lon="3.36777">
        <ele>431.39999389648</ele>
        <time>2023-05-26T09:19:38.000Z</time>
      </trkpt>
      <trkpt lat="43.73907" lon="3.36767">
        <ele>431.20001220703</ele>
        <time>2023-05-26T09:19:45.000Z</time>
      </trkpt>
      <trkpt lat="43.73907" lon="3.36761">
        <ele>430.79998779297</ele>
        <time>2023-05-26T09:19:49.000Z</time>
      </trkpt>
      <trkpt lat="43.73905" lon="3.36752">
        <ele>430.79998779297</ele>
        <time>2023-05-26T09:19:55.000Z</time>
      </trkpt>
      <trkpt lat="43.73902" lon="3.36739">
        <ele>430.79998779297</ele>
        <time>2023-05-26T09:20:04.000Z</time>
      </trkpt>
      <trkpt lat="43.739" lon="3.3673">
        <ele>431.20001220703</ele>
        <time>2023-05-26T09:20:11.000Z</time>
      </trkpt>
      <trkpt lat="43.73898" lon="3.36721">
        <ele>431</ele>
        <time>2023-05-26T09:20:17.000Z</time>
      </trkpt>
      <trkpt lat="43.73897" lon="3.36704">
        <ele>430.39999389648</ele>
        <time>2023-05-26T09:20:28.000Z</time>
      </trkpt>
      <trkpt lat="43.73897" lon="3.36689">
        <ele>430.20001220703</ele>
        <time>2023-05-26T09:20:38.000Z</time>
      </trkpt>
      <trkpt lat="43.73897" lon="3.36677">
        <ele>430.39999389648</ele>
        <time>2023-05-26T09:20:46.000Z</time>
      </trkpt>
      <trkpt lat="43.73899" lon="3.36664">
        <ele>430.20001220703</ele>
        <time>2023-05-26T09:20:55.000Z</time>
      </trkpt>
      <trkpt lat="43.73901" lon="3.36653">
        <ele>430.39999389648</ele>
        <time>2023-05-26T09:21:03.000Z</time>
      </trkpt>
      <trkpt lat="43.73902" lon="3.36641">
        <ele>430.20001220703</ele>
        <time>2023-05-26T09:21:11.000Z</time>
      </trkpt>
      <trkpt lat="43.73906" lon="3.36624">
        <ele>430</ele>
        <time>2023-05-26T09:21:22.000Z</time>
      </trkpt>
      <trkpt lat="43.73908" lon="3.36612">
        <ele>430</ele>
        <time>2023-05-26T09:21:30.000Z</time>
      </trkpt>
      <trkpt lat="43.73909" lon="3.36599">
        <ele>430.20001220703</ele>
        <time>2023-05-26T09:21:38.000Z</time>
      </trkpt>
      <trkpt lat="43.73911" lon="3.36589">
        <ele>430.20001220703</ele>
        <time>2023-05-26T09:21:45.000Z</time>
      </trkpt>
      <trkpt lat="43.73914" lon="3.36576">
        <ele>429.79998779297</ele>
        <time>2023-05-26T09:21:54.000Z</time>
      </trkpt>
      <trkpt lat="43.73918" lon="3.36562">
        <ele>430</ele>
        <time>2023-05-26T09:22:03.000Z</time>
      </trkpt>
      <trkpt lat="43.73923" lon="3.36549">
        <ele>429.79998779297</ele>
        <time>2023-05-26T09:22:13.000Z</time>
      </trkpt>
      <trkpt lat="43.73928" lon="3.36537">
        <ele>429.79998779297</ele>
        <time>2023-05-26T09:22:22.000Z</time>
      </trkpt>
      <trkpt lat="43.73935" lon="3.36523">
        <ele>429.79998779297</ele>
        <time>2023-05-26T09:22:33.000Z</time>
      </trkpt>
      <trkpt lat="43.73938" lon="3.36517">
        <ele>429.79998779297</ele>
        <time>2023-05-26T09:22:39.000Z</time>
      </trkpt>
      <trkpt lat="43.7394" lon="3.36513">
        <ele>429.79998779297</ele>
        <time>2023-05-26T09:22:42.000Z</time>
      </trkpt>
      <trkpt lat="43.7394" lon="3.36512">
        <ele>429.79998779297</ele>
        <time>2023-05-26T09:22:43.000Z</time>
      </trkpt>
      <trkpt lat="43.73942" lon="3.36508">
        <ele>429.60000610352</ele>
        <time>2023-05-26T09:22:47.000Z</time>
      </trkpt>
      <trkpt lat="43.73943" lon="3.36506">
        <ele>429.60000610352</ele>
        <time>2023-05-26T09:22:48.000Z</time>
      </trkpt>
      <trkpt lat="43.73948" lon="3.36493">
        <ele>429.39999389648</ele>
        <time>2023-05-26T09:22:58.000Z</time>
      </trkpt>
      <trkpt lat="43.73953" lon="3.36478">
        <ele>429.20001220703</ele>
        <time>2023-05-26T09:23:09.000Z</time>
      </trkpt>
      <trkpt lat="43.73955" lon="3.36466">
        <ele>429</ele>
        <time>2023-05-26T09:23:18.000Z</time>
      </trkpt>
      <trkpt lat="43.73956" lon="3.36455">
        <ele>429</ele>
        <time>2023-05-26T09:23:27.000Z</time>
      </trkpt>
      <trkpt lat="43.73956" lon="3.36454">
        <ele>429</ele>
        <time>2023-05-26T09:23:29.000Z</time>
      </trkpt>
      <trkpt lat="43.73957" lon="3.36448">
        <ele>429.39999389648</ele>
        <time>2023-05-26T09:23:34.000Z</time>
      </trkpt>
      <trkpt lat="43.73958" lon="3.36437">
        <ele>429.60000610352</ele>
        <time>2023-05-26T09:23:42.000Z</time>
      </trkpt>
      <trkpt lat="43.73959" lon="3.36422">
        <ele>429.79998779297</ele>
        <time>2023-05-26T09:23:52.000Z</time>
      </trkpt>
      <trkpt lat="43.73963" lon="3.36409">
        <ele>429.60000610352</ele>
        <time>2023-05-26T09:24:01.000Z</time>
      </trkpt>
      <trkpt lat="43.73965" lon="3.364">
        <ele>429.20001220703</ele>
        <time>2023-05-26T09:24:10.000Z</time>
      </trkpt>
      <trkpt lat="43.73969" lon="3.36397">
        <ele>429.60000610352</ele>
        <time>2023-05-26T09:24:19.000Z</time>
      </trkpt>
      <trkpt lat="43.73975" lon="3.36385">
        <ele>429.20001220703</ele>
        <time>2023-05-26T09:24:29.000Z</time>
      </trkpt>
      <trkpt lat="43.73981" lon="3.36376">
        <ele>429</ele>
        <time>2023-05-26T09:24:37.000Z</time>
      </trkpt>
      <trkpt lat="43.73992" lon="3.36363">
        <ele>429</ele>
        <time>2023-05-26T09:24:49.000Z</time>
      </trkpt>
      <trkpt lat="43.74" lon="3.36354">
        <ele>428.79998779297</ele>
        <time>2023-05-26T09:24:58.000Z</time>
      </trkpt>
      <trkpt lat="43.74008" lon="3.36343">
        <ele>428.79998779297</ele>
        <time>2023-05-26T09:25:08.000Z</time>
      </trkpt>
      <trkpt lat="43.74009" lon="3.3634">
        <ele>428.79998779297</ele>
        <time>2023-05-26T09:25:10.000Z</time>
      </trkpt>
      <trkpt lat="43.74012" lon="3.36332">
        <ele>428.60000610352</ele>
        <time>2023-05-26T09:25:16.000Z</time>
      </trkpt>
      <trkpt lat="43.74011" lon="3.3632">
        <ele>428.60000610352</ele>
        <time>2023-05-26T09:25:24.000Z</time>
      </trkpt>
      <trkpt lat="43.74011" lon="3.36316">
        <ele>429</ele>
        <time>2023-05-26T09:25:30.000Z</time>
      </trkpt>
      <trkpt lat="43.74011" lon="3.36316">
        <ele>428.39999389648</ele>
        <time>2023-05-26T09:25:36.000Z</time>
      </trkpt>
      <trkpt lat="43.74011" lon="3.36317">
        <ele>428.60000610352</ele>
        <time>2023-05-26T09:25:48.000Z</time>
      </trkpt>
      <trkpt lat="43.7401" lon="3.36316">
        <ele>428.20001220703</ele>
        <time>2023-05-26T09:26:01.000Z</time>
      </trkpt>
      <trkpt lat="43.74014" lon="3.36312">
        <ele>428.39999389648</ele>
        <time>2023-05-26T09:26:11.000Z</time>
      </trkpt>
      <trkpt lat="43.74014" lon="3.36312">
        <ele>428.79998779297</ele>
        <time>2023-05-26T09:26:24.000Z</time>
      </trkpt>
      <trkpt lat="43.74014" lon="3.36312">
        <ele>428.60000610352</ele>
        <time>2023-05-26T09:26:33.000Z</time>
      </trkpt>
      <trkpt lat="43.74015" lon="3.36311">
        <ele>428.60000610352</ele>
        <time>2023-05-26T09:26:49.000Z</time>
      </trkpt>
      <trkpt lat="43.74016" lon="3.36309">
        <ele>428.60000610352</ele>
        <time>2023-05-26T09:27:09.000Z</time>
      </trkpt>
      <trkpt lat="43.74014" lon="3.36307">
        <ele>428.79998779297</ele>
        <time>2023-05-26T09:27:27.000Z</time>
      </trkpt>
      <trkpt lat="43.74014" lon="3.36308">
        <ele>429.20001220703</ele>
        <time>2023-05-26T09:27:45.000Z</time>
      </trkpt>
      <trkpt lat="43.74014" lon="3.36307">
        <ele>429</ele>
        <time>2023-05-26T09:27:51.000Z</time>
      </trkpt>
      <trkpt lat="43.74012" lon="3.36301">
        <ele>429.60000610352</ele>
        <time>2023-05-26T09:27:57.000Z</time>
      </trkpt>
      <trkpt lat="43.74012" lon="3.363">
        <ele>429.79998779297</ele>
        <time>2023-05-26T09:27:58.000Z</time>
      </trkpt>
      <trkpt lat="43.7401" lon="3.36293">
        <ele>429.60000610352</ele>
        <time>2023-05-26T09:28:03.000Z</time>
      </trkpt>
      <trkpt lat="43.74009" lon="3.36281">
        <ele>429</ele>
        <time>2023-05-26T09:28:12.000Z</time>
      </trkpt>
      <trkpt lat="43.74009" lon="3.36277">
        <ele>429</ele>
        <time>2023-05-26T09:28:15.000Z</time>
      </trkpt>
      <trkpt lat="43.7401" lon="3.3627">
        <ele>429</ele>
        <time>2023-05-26T09:28:20.000Z</time>
      </trkpt>
      <trkpt lat="43.74013" lon="3.3626">
        <ele>428.79998779297</ele>
        <time>2023-05-26T09:28:28.000Z</time>
      </trkpt>
      <trkpt lat="43.74014" lon="3.36258">
        <ele>428.79998779297</ele>
        <time>2023-05-26T09:28:29.000Z</time>
      </trkpt>
      <trkpt lat="43.74018" lon="3.36248">
        <ele>428.60000610352</ele>
        <time>2023-05-26T09:28:37.000Z</time>
      </trkpt>
      <trkpt lat="43.74023" lon="3.36237">
        <ele>428.79998779297</ele>
        <time>2023-05-26T09:28:46.000Z</time>
      </trkpt>
      <trkpt lat="43.74023" lon="3.36224">
        <ele>428.60000610352</ele>
        <time>2023-05-26T09:28:54.000Z</time>
      </trkpt>
      <trkpt lat="43.74021" lon="3.36214">
        <ele>428</ele>
        <time>2023-05-26T09:29:01.000Z</time>
      </trkpt>
      <trkpt lat="43.74015" lon="3.36204">
        <ele>427.79998779297</ele>
        <time>2023-05-26T09:29:10.000Z</time>
      </trkpt>
      <trkpt lat="43.74014" lon="3.36201">
        <ele>428</ele>
        <time>2023-05-26T09:29:12.000Z</time>
      </trkpt>
      <trkpt lat="43.74011" lon="3.36199">
        <ele>428</ele>
        <time>2023-05-26T09:29:15.000Z</time>
      </trkpt>
      <trkpt lat="43.74009" lon="3.36197">
        <ele>428</ele>
        <time>2023-05-26T09:29:17.000Z</time>
      </trkpt>
      <trkpt lat="43.74006" lon="3.36194">
        <ele>427.79998779297</ele>
        <time>2023-05-26T09:29:21.000Z</time>
      </trkpt>
      <trkpt lat="43.74005" lon="3.3619">
        <ele>427.79998779297</ele>
        <time>2023-05-26T09:29:24.000Z</time>
      </trkpt>
      <trkpt lat="43.74004" lon="3.36189">
        <ele>427.60000610352</ele>
        <time>2023-05-26T09:29:25.000Z</time>
      </trkpt>
      <trkpt lat="43.74002" lon="3.36184">
        <ele>427.79998779297</ele>
        <time>2023-05-26T09:29:29.000Z</time>
      </trkpt>
      <trkpt lat="43.73998" lon="3.36173">
        <ele>427.39999389648</ele>
        <time>2023-05-26T09:29:38.000Z</time>
      </trkpt>
      <trkpt lat="43.73997" lon="3.3616">
        <ele>427.39999389648</ele>
        <time>2023-05-26T09:29:47.000Z</time>
      </trkpt>
      <trkpt lat="43.73998" lon="3.36146">
        <ele>427.39999389648</ele>
        <time>2023-05-26T09:29:56.000Z</time>
      </trkpt>
      <trkpt lat="43.73997" lon="3.36129">
        <ele>427</ele>
        <time>2023-05-26T09:30:06.000Z</time>
      </trkpt>
      <trkpt lat="43.73993" lon="3.36118">
        <ele>426.79998779297</ele>
        <time>2023-05-26T09:30:14.000Z</time>
      </trkpt>
      <trkpt lat="43.73985" lon="3.3611">
        <ele>427.20001220703</ele>
        <time>2023-05-26T09:30:23.000Z</time>
      </trkpt>
      <trkpt lat="43.73975" lon="3.36099">
        <ele>427.39999389648</ele>
        <time>2023-05-26T09:30:34.000Z</time>
      </trkpt>
      <trkpt lat="43.73968" lon="3.36092">
        <ele>427.39999389648</ele>
        <time>2023-05-26T09:30:43.000Z</time>
      </trkpt>
      <trkpt lat="43.7396" lon="3.36088">
        <ele>427</ele>
        <time>2023-05-26T09:30:51.000Z</time>
      </trkpt>
      <trkpt lat="43.73952" lon="3.36089">
        <ele>427</ele>
        <time>2023-05-26T09:31:00.000Z</time>
      </trkpt>
      <trkpt lat="43.73948" lon="3.3609">
        <ele>427.20001220703</ele>
        <time>2023-05-26T09:31:06.000Z</time>
      </trkpt>
      <trkpt lat="43.73946" lon="3.36091">
        <ele>427.79998779297</ele>
        <time>2023-05-26T09:31:15.000Z</time>
      </trkpt>
      <trkpt lat="43.73936" lon="3.36094">
        <ele>427.39999389648</ele>
        <time>2023-05-26T09:31:24.000Z</time>
      </trkpt>
      <trkpt lat="43.73923" lon="3.36093">
        <ele>427.60000610352</ele>
        <time>2023-05-26T09:31:35.000Z</time>
      </trkpt>
      <trkpt lat="43.7391" lon="3.36089">
        <ele>427.79998779297</ele>
        <time>2023-05-26T09:31:46.000Z</time>
      </trkpt>
      <trkpt lat="43.73899" lon="3.36085">
        <ele>427.60000610352</ele>
        <time>2023-05-26T09:31:55.000Z</time>
      </trkpt>
      <trkpt lat="43.73884" lon="3.36079">
        <ele>427.60000610352</ele>
        <time>2023-05-26T09:32:08.000Z</time>
      </trkpt>
      <trkpt lat="43.73875" lon="3.36075">
        <ele>427.39999389648</ele>
        <time>2023-05-26T09:32:17.000Z</time>
      </trkpt>
      <trkpt lat="43.73867" lon="3.36068">
        <ele>427.39999389648</ele>
        <time>2023-05-26T09:32:26.000Z</time>
      </trkpt>
      <trkpt lat="43.73859" lon="3.36059">
        <ele>427.39999389648</ele>
        <time>2023-05-26T09:32:36.000Z</time>
      </trkpt>
      <trkpt lat="43.73852" lon="3.36045">
        <ele>427.20001220703</ele>
        <time>2023-05-26T09:32:46.000Z</time>
      </trkpt>
      <trkpt lat="43.73848" lon="3.36032">
        <ele>427</ele>
        <time>2023-05-26T09:32:55.000Z</time>
      </trkpt>
      <trkpt lat="43.73847" lon="3.36018">
        <ele>427</ele>
        <time>2023-05-26T09:33:05.000Z</time>
      </trkpt>
      <trkpt lat="43.73846" lon="3.36015">
        <ele>427</ele>
        <time>2023-05-26T09:33:13.000Z</time>
      </trkpt>
      <trkpt lat="43.73846" lon="3.36015">
        <ele>426.60000610352</ele>
        <time>2023-05-26T09:33:17.000Z</time>
      </trkpt>
      <trkpt lat="43.73846" lon="3.36015">
        <ele>427.20001220703</ele>
        <time>2023-05-26T09:33:23.000Z</time>
      </trkpt>
      <trkpt lat="43.73846" lon="3.36015">
        <ele>427</ele>
        <time>2023-05-26T09:33:42.000Z</time>
      </trkpt>
      <trkpt lat="43.73845" lon="3.36015">
        <ele>427.20001220703</ele>
        <time>2023-05-26T09:33:56.000Z</time>
      </trkpt>
      <trkpt lat="43.73846" lon="3.36015">
        <ele>427</ele>
        <time>2023-05-26T09:34:09.000Z</time>
      </trkpt>
      <trkpt lat="43.73847" lon="3.36007">
        <ele>427</ele>
        <time>2023-05-26T09:34:16.000Z</time>
      </trkpt>
      <trkpt lat="43.73847" lon="3.35994">
        <ele>426.79998779297</ele>
        <time>2023-05-26T09:34:24.000Z</time>
      </trkpt>
      <trkpt lat="43.73848" lon="3.35983">
        <ele>427</ele>
        <time>2023-05-26T09:34:31.000Z</time>
      </trkpt>
      <trkpt lat="43.73852" lon="3.35966">
        <ele>426.79998779297</ele>
        <time>2023-05-26T09:34:43.000Z</time>
      </trkpt>
      <trkpt lat="43.73855" lon="3.35955">
        <ele>426.79998779297</ele>
        <time>2023-05-26T09:34:50.000Z</time>
      </trkpt>
      <trkpt lat="43.73861" lon="3.35941">
        <ele>426.60000610352</ele>
        <time>2023-05-26T09:35:01.000Z</time>
      </trkpt>
      <trkpt lat="43.73867" lon="3.35925">
        <ele>426.39999389648</ele>
        <time>2023-05-26T09:35:12.000Z</time>
      </trkpt>
      <trkpt lat="43.7387" lon="3.35913">
        <ele>426.79998779297</ele>
        <time>2023-05-26T09:35:21.000Z</time>
      </trkpt>
      <trkpt lat="43.73872" lon="3.35902">
        <ele>426.79998779297</ele>
        <time>2023-05-26T09:35:29.000Z</time>
      </trkpt>
      <trkpt lat="43.73873" lon="3.35888">
        <ele>426.60000610352</ele>
        <time>2023-05-26T09:35:39.000Z</time>
      </trkpt>
      <trkpt lat="43.73872" lon="3.35874">
        <ele>426.79998779297</ele>
        <time>2023-05-26T09:35:49.000Z</time>
      </trkpt>
      <trkpt lat="43.73869" lon="3.35862">
        <ele>426.79998779297</ele>
        <time>2023-05-26T09:35:58.000Z</time>
      </trkpt>
      <trkpt lat="43.73868" lon="3.35851">
        <ele>427</ele>
        <time>2023-05-26T09:36:07.000Z</time>
      </trkpt>
      <trkpt lat="43.73868" lon="3.35829">
        <ele>426.20001220703</ele>
        <time>2023-05-26T09:36:21.000Z</time>
      </trkpt>
      <trkpt lat="43.73868" lon="3.35815">
        <ele>426</ele>
        <time>2023-05-26T09:36:30.000Z</time>
      </trkpt>
      <trkpt lat="43.73868" lon="3.35801">
        <ele>425.79998779297</ele>
        <time>2023-05-26T09:36:39.000Z</time>
      </trkpt>
      <trkpt lat="43.73866" lon="3.35784">
        <ele>425.60000610352</ele>
        <time>2023-05-26T09:36:49.000Z</time>
      </trkpt>
      <trkpt lat="43.73864" lon="3.35769">
        <ele>425.39999389648</ele>
        <time>2023-05-26T09:36:58.000Z</time>
      </trkpt>
      <trkpt lat="43.73862" lon="3.35754">
        <ele>425.39999389648</ele>
        <time>2023-05-26T09:37:07.000Z</time>
      </trkpt>
      <trkpt lat="43.7386" lon="3.35735">
        <ele>425.39999389648</ele>
        <time>2023-05-26T09:37:19.000Z</time>
      </trkpt>
      <trkpt lat="43.73858" lon="3.3572">
        <ele>425.79998779297</ele>
        <time>2023-05-26T09:37:29.000Z</time>
      </trkpt>
      <trkpt lat="43.73858" lon="3.35707">
        <ele>425.79998779297</ele>
        <time>2023-05-26T09:37:37.000Z</time>
      </trkpt>
      <trkpt lat="43.73863" lon="3.35694">
        <ele>425.79998779297</ele>
        <time>2023-05-26T09:37:47.000Z</time>
      </trkpt>
      <trkpt lat="43.73872" lon="3.35679">
        <ele>425.79998779297</ele>
        <time>2023-05-26T09:38:01.000Z</time>
      </trkpt>
      <trkpt lat="43.73878" lon="3.35668">
        <ele>425.39999389648</ele>
        <time>2023-05-26T09:38:10.000Z</time>
      </trkpt>
      <trkpt lat="43.73877" lon="3.35651">
        <ele>425</ele>
        <time>2023-05-26T09:38:20.000Z</time>
      </trkpt>
      <trkpt lat="43.73872" lon="3.35638">
        <ele>425</ele>
        <time>2023-05-26T09:38:29.000Z</time>
      </trkpt>
      <trkpt lat="43.73863" lon="3.35632">
        <ele>425.39999389648</ele>
        <time>2023-05-26T09:38:38.000Z</time>
      </trkpt>
      <trkpt lat="43.73851" lon="3.35629">
        <ele>425.60000610352</ele>
        <time>2023-05-26T09:38:50.000Z</time>
      </trkpt>
      <trkpt lat="43.73842" lon="3.35632">
        <ele>425.20001220703</ele>
        <time>2023-05-26T09:38:59.000Z</time>
      </trkpt>
      <trkpt lat="43.73832" lon="3.35641">
        <ele>425.39999389648</ele>
        <time>2023-05-26T09:39:10.000Z</time>
      </trkpt>
      <trkpt lat="43.73823" lon="3.35651">
        <ele>425.39999389648</ele>
        <time>2023-05-26T09:39:20.000Z</time>
      </trkpt>
      <trkpt lat="43.73817" lon="3.35657">
        <ele>425.39999389648</ele>
        <time>2023-05-26T09:39:27.000Z</time>
      </trkpt>
      <trkpt lat="43.73807" lon="3.35665">
        <ele>425</ele>
        <time>2023-05-26T09:39:37.000Z</time>
      </trkpt>
      <trkpt lat="43.73796" lon="3.35671">
        <ele>425</ele>
        <time>2023-05-26T09:39:48.000Z</time>
      </trkpt>
      <trkpt lat="43.73788" lon="3.35672">
        <ele>425</ele>
        <time>2023-05-26T09:39:55.000Z</time>
      </trkpt>
      <trkpt lat="43.73776" lon="3.35674">
        <ele>425</ele>
        <time>2023-05-26T09:40:05.000Z</time>
      </trkpt>
      <trkpt lat="43.73763" lon="3.35674">
        <ele>425</ele>
        <time>2023-05-26T09:40:17.000Z</time>
      </trkpt>
      <trkpt lat="43.73749" lon="3.35673">
        <ele>425.39999389648</ele>
        <time>2023-05-26T09:40:29.000Z</time>
      </trkpt>
      <trkpt lat="43.73735" lon="3.35671">
        <ele>425.60000610352</ele>
        <time>2023-05-26T09:40:41.000Z</time>
      </trkpt>
      <trkpt lat="43.7372" lon="3.3567">
        <ele>425.60000610352</ele>
        <time>2023-05-26T09:40:54.000Z</time>
      </trkpt>
      <trkpt lat="43.73711" lon="3.35669">
        <ele>425.20001220703</ele>
        <time>2023-05-26T09:41:02.000Z</time>
      </trkpt>
      <trkpt lat="43.73699" lon="3.35667">
        <ele>424.79998779297</ele>
        <time>2023-05-26T09:41:13.000Z</time>
      </trkpt>
      <trkpt lat="43.73697" lon="3.35667">
        <ele>424.60000610352</ele>
        <time>2023-05-26T09:41:15.000Z</time>
      </trkpt>
      <trkpt lat="43.73687" lon="3.35667">
        <ele>424.39999389648</ele>
        <time>2023-05-26T09:41:24.000Z</time>
      </trkpt>
      <trkpt lat="43.73672" lon="3.35669">
        <ele>424.20001220703</ele>
        <time>2023-05-26T09:41:37.000Z</time>
      </trkpt>
      <trkpt lat="43.7366" lon="3.35672">
        <ele>424.20001220703</ele>
        <time>2023-05-26T09:41:48.000Z</time>
      </trkpt>
      <trkpt lat="43.73649" lon="3.35674">
        <ele>424</ele>
        <time>2023-05-26T09:41:57.000Z</time>
      </trkpt>
      <trkpt lat="43.73639" lon="3.35677">
        <ele>424</ele>
        <time>2023-05-26T09:42:06.000Z</time>
      </trkpt>
      <trkpt lat="43.73634" lon="3.35679">
        <ele>424</ele>
        <time>2023-05-26T09:42:14.000Z</time>
      </trkpt>
      <trkpt lat="43.73634" lon="3.35679">
        <ele>424</ele>
        <time>2023-05-26T09:42:23.000Z</time>
      </trkpt>
      <trkpt lat="43.73632" lon="3.3568">
        <ele>423.60000610352</ele>
        <time>2023-05-26T09:42:30.000Z</time>
      </trkpt>
      <trkpt lat="43.73631" lon="3.3568">
        <ele>423.60000610352</ele>
        <time>2023-05-26T09:42:31.000Z</time>
      </trkpt>
      <trkpt lat="43.73617" lon="3.35686">
        <ele>424</ele>
        <time>2023-05-26T09:42:43.000Z</time>
      </trkpt>
      <trkpt lat="43.73602" lon="3.3569">
        <ele>424.20001220703</ele>
        <time>2023-05-26T09:42:55.000Z</time>
      </trkpt>
      <trkpt lat="43.73589" lon="3.35692">
        <ele>424.20001220703</ele>
        <time>2023-05-26T09:43:06.000Z</time>
      </trkpt>
      <trkpt lat="43.73579" lon="3.35692">
        <ele>423.79998779297</ele>
        <time>2023-05-26T09:43:15.000Z</time>
      </trkpt>
      <trkpt lat="43.73572" lon="3.3569">
        <ele>423.60000610352</ele>
        <time>2023-05-26T09:43:22.000Z</time>
      </trkpt>
      <trkpt lat="43.73568" lon="3.35689">
        <ele>423.60000610352</ele>
        <time>2023-05-26T09:43:25.000Z</time>
      </trkpt>
      <trkpt lat="43.73565" lon="3.35687">
        <ele>424</ele>
        <time>2023-05-26T09:43:28.000Z</time>
      </trkpt>
      <trkpt lat="43.73564" lon="3.35687">
        <ele>424</ele>
        <time>2023-05-26T09:43:29.000Z</time>
      </trkpt>
      <trkpt lat="43.73553" lon="3.3568">
        <ele>424</ele>
        <time>2023-05-26T09:43:39.000Z</time>
      </trkpt>
      <trkpt lat="43.73544" lon="3.35673">
        <ele>423.60000610352</ele>
        <time>2023-05-26T09:43:48.000Z</time>
      </trkpt>
      <trkpt lat="43.73535" lon="3.35666">
        <ele>423.39999389648</ele>
        <time>2023-05-26T09:43:58.000Z</time>
      </trkpt>
      <trkpt lat="43.73534" lon="3.35666">
        <ele>423.60000610352</ele>
        <time>2023-05-26T09:44:06.000Z</time>
      </trkpt>
      <trkpt lat="43.73533" lon="3.35666">
        <ele>423.39999389648</ele>
        <time>2023-05-26T09:44:24.000Z</time>
      </trkpt>
      <trkpt lat="43.73531" lon="3.35663">
        <ele>423.20001220703</ele>
        <time>2023-05-26T09:44:32.000Z</time>
      </trkpt>
      <trkpt lat="43.73531" lon="3.35663">
        <ele>423.79998779297</ele>
        <time>2023-05-26T09:44:39.000Z</time>
      </trkpt>
      <trkpt lat="43.73533" lon="3.35664">
        <ele>423.60000610352</ele>
        <time>2023-05-26T09:44:46.000Z</time>
      </trkpt>
      <trkpt lat="43.73533" lon="3.35664">
        <ele>423</ele>
        <time>2023-05-26T09:44:55.000Z</time>
      </trkpt>
      <trkpt lat="43.73532" lon="3.35664">
        <ele>423.20001220703</ele>
        <time>2023-05-26T09:45:05.000Z</time>
      </trkpt>
      <trkpt lat="43.73525" lon="3.35657">
        <ele>423.39999389648</ele>
        <time>2023-05-26T09:45:13.000Z</time>
      </trkpt>
      <trkpt lat="43.73519" lon="3.35652">
        <ele>423.20001220703</ele>
        <time>2023-05-26T09:45:20.000Z</time>
      </trkpt>
      <trkpt lat="43.73508" lon="3.35643">
        <ele>423.39999389648</ele>
        <time>2023-05-26T09:45:32.000Z</time>
      </trkpt>
      <trkpt lat="43.73497" lon="3.35635">
        <ele>423.60000610352</ele>
        <time>2023-05-26T09:45:43.000Z</time>
      </trkpt>
      <trkpt lat="43.73486" lon="3.35626">
        <ele>423.79998779297</ele>
        <time>2023-05-26T09:45:54.000Z</time>
      </trkpt>
      <trkpt lat="43.73476" lon="3.35618">
        <ele>423.39999389648</ele>
        <time>2023-05-26T09:46:04.000Z</time>
      </trkpt>
      <trkpt lat="43.73464" lon="3.35609">
        <ele>423.20001220703</ele>
        <time>2023-05-26T09:46:15.000Z</time>
      </trkpt>
      <trkpt lat="43.73452" lon="3.35598">
        <ele>423.20001220703</ele>
        <time>2023-05-26T09:46:27.000Z</time>
      </trkpt>
      <trkpt lat="43.73441" lon="3.35589">
        <ele>423.20001220703</ele>
        <time>2023-05-26T09:46:38.000Z</time>
      </trkpt>
      <trkpt lat="43.73433" lon="3.35581">
        <ele>423</ele>
        <time>2023-05-26T09:46:47.000Z</time>
      </trkpt>
      <trkpt lat="43.73427" lon="3.35575">
        <ele>423</ele>
        <time>2023-05-26T09:46:54.000Z</time>
      </trkpt>
      <trkpt lat="43.73425" lon="3.35574">
        <ele>423</ele>
        <time>2023-05-26T09:46:56.000Z</time>
      </trkpt>
      <trkpt lat="43.73422" lon="3.35574">
        <ele>423.20001220703</ele>
        <time>2023-05-26T09:47:03.000Z</time>
      </trkpt>
      <trkpt lat="43.73422" lon="3.35572">
        <ele>423</ele>
        <time>2023-05-26T09:47:10.000Z</time>
      </trkpt>
      <trkpt lat="43.73423" lon="3.35572">
        <ele>423.60000610352</ele>
        <time>2023-05-26T09:47:27.000Z</time>
      </trkpt>
      <trkpt lat="43.73422" lon="3.35573">
        <ele>423.39999389648</ele>
        <time>2023-05-26T09:47:36.000Z</time>
      </trkpt>
      <trkpt lat="43.73422" lon="3.35572">
        <ele>423.39999389648</ele>
        <time>2023-05-26T09:47:49.000Z</time>
      </trkpt>
      <trkpt lat="43.73422" lon="3.35572">
        <ele>423.60000610352</ele>
        <time>2023-05-26T09:48:02.000Z</time>
      </trkpt>
      <trkpt lat="43.73421" lon="3.3557">
        <ele>423.39999389648</ele>
        <time>2023-05-26T09:48:08.000Z</time>
      </trkpt>
      <trkpt lat="43.73419" lon="3.35572">
        <ele>423.20001220703</ele>
        <time>2023-05-26T09:48:21.000Z</time>
      </trkpt>
      <trkpt lat="43.73419" lon="3.35571">
        <ele>423</ele>
        <time>2023-05-26T09:48:33.000Z</time>
      </trkpt>
      <trkpt lat="43.73417" lon="3.35576">
        <ele>423</ele>
        <time>2023-05-26T09:48:42.000Z</time>
      </trkpt>
      <trkpt lat="43.73419" lon="3.35572">
        <ele>423</ele>
        <time>2023-05-26T09:48:53.000Z</time>
      </trkpt>
      <trkpt lat="43.73419" lon="3.35572">
        <ele>423.20001220703</ele>
        <time>2023-05-26T09:49:00.000Z</time>
      </trkpt>
      <trkpt lat="43.7342" lon="3.35572">
        <ele>423.20001220703</ele>
        <time>2023-05-26T09:49:06.000Z</time>
      </trkpt>
      <trkpt lat="43.73422" lon="3.35572">
        <ele>423.39999389648</ele>
        <time>2023-05-26T09:49:20.000Z</time>
      </trkpt>
      <trkpt lat="43.73422" lon="3.35572">
        <ele>423.39999389648</ele>
        <time>2023-05-26T09:49:29.000Z</time>
      </trkpt>
      <trkpt lat="43.73421" lon="3.35571">
        <ele>423.60000610352</ele>
        <time>2023-05-26T09:49:38.000Z</time>
      </trkpt>
      <trkpt lat="43.73415" lon="3.35566">
        <ele>423.79998779297</ele>
        <time>2023-05-26T09:49:46.000Z</time>
      </trkpt>
      <trkpt lat="43.73407" lon="3.35559">
        <ele>423.79998779297</ele>
        <time>2023-05-26T09:49:55.000Z</time>
      </trkpt>
      <trkpt lat="43.73406" lon="3.35558">
        <ele>423.79998779297</ele>
        <time>2023-05-26T09:49:57.000Z</time>
      </trkpt>
      <trkpt lat="43.73405" lon="3.35557">
        <ele>424</ele>
        <time>2023-05-26T09:50:01.000Z</time>
      </trkpt>
      <trkpt lat="43.73402" lon="3.35551">
        <ele>423.79998779297</ele>
        <time>2023-05-26T09:50:07.000Z</time>
      </trkpt>
      <trkpt lat="43.73397" lon="3.35543">
        <ele>424</ele>
        <time>2023-05-26T09:50:15.000Z</time>
      </trkpt>
      <trkpt lat="43.73391" lon="3.35532">
        <ele>424.20001220703</ele>
        <time>2023-05-26T09:50:24.000Z</time>
      </trkpt>
      <trkpt lat="43.73385" lon="3.35522">
        <ele>424.20001220703</ele>
        <time>2023-05-26T09:50:34.000Z</time>
      </trkpt>
      <trkpt lat="43.7338" lon="3.35512">
        <ele>424.60000610352</ele>
        <time>2023-05-26T09:50:44.000Z</time>
      </trkpt>
      <trkpt lat="43.73379" lon="3.35511">
        <ele>424.60000610352</ele>
        <time>2023-05-26T09:50:45.000Z</time>
      </trkpt>
      <trkpt lat="43.73376" lon="3.35501">
        <ele>425.20001220703</ele>
        <time>2023-05-26T09:50:54.000Z</time>
      </trkpt>
      <trkpt lat="43.73375" lon="3.35498">
        <ele>425.39999389648</ele>
        <time>2023-05-26T09:50:57.000Z</time>
      </trkpt>
      <trkpt lat="43.73373" lon="3.35493">
        <ele>425.60000610352</ele>
        <time>2023-05-26T09:51:01.000Z</time>
      </trkpt>
      <trkpt lat="43.73369" lon="3.35482">
        <ele>426.20001220703</ele>
        <time>2023-05-26T09:51:10.000Z</time>
      </trkpt>
      <trkpt lat="43.73366" lon="3.35469">
        <ele>426.39999389648</ele>
        <time>2023-05-26T09:51:19.000Z</time>
      </trkpt>
      <trkpt lat="43.73363" lon="3.35457">
        <ele>426.60000610352</ele>
        <time>2023-05-26T09:51:28.000Z</time>
      </trkpt>
      <trkpt lat="43.73362" lon="3.35456">
        <ele>426.60000610352</ele>
        <time>2023-05-26T09:51:29.000Z</time>
      </trkpt>
      <trkpt lat="43.73362" lon="3.35454">
        <ele>426.79998779297</ele>
        <time>2023-05-26T09:51:30.000Z</time>
      </trkpt>
      <trkpt lat="43.7336" lon="3.35448">
        <ele>426.60000610352</ele>
        <time>2023-05-26T09:51:34.000Z</time>
      </trkpt>
      <trkpt lat="43.7336" lon="3.35447">
        <ele>426.39999389648</ele>
        <time>2023-05-26T09:51:35.000Z</time>
      </trkpt>
      <trkpt lat="43.73358" lon="3.35434">
        <ele>426.79998779297</ele>
        <time>2023-05-26T09:51:44.000Z</time>
      </trkpt>
      <trkpt lat="43.73356" lon="3.35421">
        <ele>427</ele>
        <time>2023-05-26T09:51:53.000Z</time>
      </trkpt>
      <trkpt lat="43.73355" lon="3.35409">
        <ele>427</ele>
        <time>2023-05-26T09:52:02.000Z</time>
      </trkpt>
      <trkpt lat="43.73353" lon="3.35398">
        <ele>427.20001220703</ele>
        <time>2023-05-26T09:52:10.000Z</time>
      </trkpt>
      <trkpt lat="43.73353" lon="3.35391">
        <ele>427</ele>
        <time>2023-05-26T09:52:15.000Z</time>
      </trkpt>
      <trkpt lat="43.73352" lon="3.35387">
        <ele>427</ele>
        <time>2023-05-26T09:52:18.000Z</time>
      </trkpt>
      <trkpt lat="43.73352" lon="3.35386">
        <ele>426.79998779297</ele>
        <time>2023-05-26T09:52:19.000Z</time>
      </trkpt>
      <trkpt lat="43.7335" lon="3.35374">
        <ele>427</ele>
        <time>2023-05-26T09:52:28.000Z</time>
      </trkpt>
      <trkpt lat="43.73348" lon="3.35362">
        <ele>427.60000610352</ele>
        <time>2023-05-26T09:52:37.000Z</time>
      </trkpt>
      <trkpt lat="43.73347" lon="3.35352">
        <ele>427.60000610352</ele>
        <time>2023-05-26T09:52:44.000Z</time>
      </trkpt>
      <trkpt lat="43.73345" lon="3.35338">
        <ele>427.79998779297</ele>
        <time>2023-05-26T09:52:54.000Z</time>
      </trkpt>
      <trkpt lat="43.73345" lon="3.35337">
        <ele>427.79998779297</ele>
        <time>2023-05-26T09:52:55.000Z</time>
      </trkpt>
      <trkpt lat="43.73344" lon="3.35328">
        <ele>427.79998779297</ele>
        <time>2023-05-26T09:53:02.000Z</time>
      </trkpt>
      <trkpt lat="43.73342" lon="3.35316">
        <ele>428</ele>
        <time>2023-05-26T09:53:10.000Z</time>
      </trkpt>
      <trkpt lat="43.7334" lon="3.35304">
        <ele>428.39999389648</ele>
        <time>2023-05-26T09:53:19.000Z</time>
      </trkpt>
      <trkpt lat="43.7334" lon="3.35298">
        <ele>428.79998779297</ele>
        <time>2023-05-26T09:53:24.000Z</time>
      </trkpt>
      <trkpt lat="43.73339" lon="3.35295">
        <ele>428.79998779297</ele>
        <time>2023-05-26T09:53:26.000Z</time>
      </trkpt>
      <trkpt lat="43.73338" lon="3.35285">
        <ele>429</ele>
        <time>2023-05-26T09:53:35.000Z</time>
      </trkpt>
      <trkpt lat="43.73336" lon="3.35275">
        <ele>429.20001220703</ele>
        <time>2023-05-26T09:53:43.000Z</time>
      </trkpt>
      <trkpt lat="43.73334" lon="3.35263">
        <ele>429.39999389648</ele>
        <time>2023-05-26T09:53:52.000Z</time>
      </trkpt>
      <trkpt lat="43.73333" lon="3.35251">
        <ele>429.39999389648</ele>
        <time>2023-05-26T09:54:00.000Z</time>
      </trkpt>
      <trkpt lat="43.73331" lon="3.35245">
        <ele>429.39999389648</ele>
        <time>2023-05-26T09:54:05.000Z</time>
      </trkpt>
      <trkpt lat="43.73329" lon="3.35244">
        <ele>429.60000610352</ele>
        <time>2023-05-26T09:54:08.000Z</time>
      </trkpt>
      <trkpt lat="43.73329" lon="3.35243">
        <ele>429.39999389648</ele>
        <time>2023-05-26T09:54:09.000Z</time>
      </trkpt>
      <trkpt lat="43.73325" lon="3.35237">
        <ele>429.60000610352</ele>
        <time>2023-05-26T09:54:15.000Z</time>
      </trkpt>
      <trkpt lat="43.73325" lon="3.35236">
        <ele>429.79998779297</ele>
        <time>2023-05-26T09:54:16.000Z</time>
      </trkpt>
      <trkpt lat="43.73324" lon="3.3523">
        <ele>429.79998779297</ele>
        <time>2023-05-26T09:54:20.000Z</time>
      </trkpt>
      <trkpt lat="43.73323" lon="3.35227">
        <ele>429.79998779297</ele>
        <time>2023-05-26T09:54:22.000Z</time>
      </trkpt>
      <trkpt lat="43.73321" lon="3.35218">
        <ele>429.79998779297</ele>
        <time>2023-05-26T09:54:28.000Z</time>
      </trkpt>
      <trkpt lat="43.7332" lon="3.35217">
        <ele>429.79998779297</ele>
        <time>2023-05-26T09:54:29.000Z</time>
      </trkpt>
      <trkpt lat="43.73317" lon="3.35204">
        <ele>430.20001220703</ele>
        <time>2023-05-26T09:54:38.000Z</time>
      </trkpt>
      <trkpt lat="43.73318" lon="3.35199">
        <ele>430.20001220703</ele>
        <time>2023-05-26T09:54:42.000Z</time>
      </trkpt>
      <trkpt lat="43.73317" lon="3.35195">
        <ele>430</ele>
        <time>2023-05-26T09:54:46.000Z</time>
      </trkpt>
      <trkpt lat="43.73315" lon="3.35192">
        <ele>430.20001220703</ele>
        <time>2023-05-26T09:54:49.000Z</time>
      </trkpt>
      <trkpt lat="43.73314" lon="3.3519">
        <ele>430.20001220703</ele>
        <time>2023-05-26T09:54:51.000Z</time>
      </trkpt>
      <trkpt lat="43.73313" lon="3.35187">
        <ele>430.39999389648</ele>
        <time>2023-05-26T09:54:53.000Z</time>
      </trkpt>
      <trkpt lat="43.73312" lon="3.35186">
        <ele>430.20001220703</ele>
        <time>2023-05-26T09:54:55.000Z</time>
      </trkpt>
      <trkpt lat="43.73312" lon="3.35185">
        <ele>430.20001220703</ele>
        <time>2023-05-26T09:55:00.000Z</time>
      </trkpt>
      <trkpt lat="43.73313" lon="3.35185">
        <ele>430.20001220703</ele>
        <time>2023-05-26T09:55:07.000Z</time>
      </trkpt>
      <trkpt lat="43.73313" lon="3.35185">
        <ele>430.39999389648</ele>
        <time>2023-05-26T09:55:10.000Z</time>
      </trkpt>
      <trkpt lat="43.73312" lon="3.3518">
        <ele>432.20001220703</ele>
        <time>2023-05-26T10:57:17.000Z</time>
      </trkpt>
      <trkpt lat="43.73313" lon="3.3518">
        <ele>432.39999389648</ele>
        <time>2023-05-26T10:57:23.000Z</time>
      </trkpt>
      <trkpt lat="43.73313" lon="3.35181">
        <ele>432.39999389648</ele>
        <time>2023-05-26T10:57:29.000Z</time>
      </trkpt>
      <trkpt lat="43.73314" lon="3.35182">
        <ele>432.39999389648</ele>
        <time>2023-05-26T10:57:42.000Z</time>
      </trkpt>
      <trkpt lat="43.73313" lon="3.35183">
        <ele>432.39999389648</ele>
        <time>2023-05-26T10:57:52.000Z</time>
      </trkpt>
      <trkpt lat="43.73312" lon="3.35179">
        <ele>431.79998779297</ele>
        <time>2023-05-26T10:58:05.000Z</time>
      </trkpt>
      <trkpt lat="43.73312" lon="3.35178">
        <ele>432</ele>
        <time>2023-05-26T10:58:24.000Z</time>
      </trkpt>
      <trkpt lat="43.73315" lon="3.35178">
        <ele>431.79998779297</ele>
        <time>2023-05-26T10:58:31.000Z</time>
      </trkpt>
      <trkpt lat="43.73322" lon="3.35175">
        <ele>432</ele>
        <time>2023-05-26T10:58:38.000Z</time>
      </trkpt>
      <trkpt lat="43.73322" lon="3.35173">
        <ele>432</ele>
        <time>2023-05-26T10:58:39.000Z</time>
      </trkpt>
      <trkpt lat="43.73322" lon="3.35164">
        <ele>432</ele>
        <time>2023-05-26T10:58:45.000Z</time>
      </trkpt>
      <trkpt lat="43.73319" lon="3.35151">
        <ele>431.20001220703</ele>
        <time>2023-05-26T10:58:54.000Z</time>
      </trkpt>
      <trkpt lat="43.73319" lon="3.35151">
        <ele>431</ele>
        <time>2023-05-26T10:58:59.000Z</time>
      </trkpt>
      <trkpt lat="43.73317" lon="3.35145">
        <ele>430.79998779297</ele>
        <time>2023-05-26T10:59:05.000Z</time>
      </trkpt>
      <trkpt lat="43.73314" lon="3.35138">
        <ele>431</ele>
        <time>2023-05-26T10:59:11.000Z</time>
      </trkpt>
      <trkpt lat="43.7331" lon="3.35127">
        <ele>431.39999389648</ele>
        <time>2023-05-26T10:59:19.000Z</time>
      </trkpt>
      <trkpt lat="43.73306" lon="3.35114">
        <ele>431.20001220703</ele>
        <time>2023-05-26T10:59:29.000Z</time>
      </trkpt>
      <trkpt lat="43.73305" lon="3.35109">
        <ele>431.39999389648</ele>
        <time>2023-05-26T10:59:33.000Z</time>
      </trkpt>
      <trkpt lat="43.73302" lon="3.35105">
        <ele>431.20001220703</ele>
        <time>2023-05-26T10:59:37.000Z</time>
      </trkpt>
      <trkpt lat="43.733" lon="3.35101">
        <ele>430.79998779297</ele>
        <time>2023-05-26T10:59:40.000Z</time>
      </trkpt>
      <trkpt lat="43.73299" lon="3.35094">
        <ele>430.39999389648</ele>
        <time>2023-05-26T10:59:45.000Z</time>
      </trkpt>
      <trkpt lat="43.73298" lon="3.35082">
        <ele>430.60000610352</ele>
        <time>2023-05-26T10:59:53.000Z</time>
      </trkpt>
      <trkpt lat="43.73298" lon="3.35073">
        <ele>430.20001220703</ele>
        <time>2023-05-26T10:59:59.000Z</time>
      </trkpt>
      <trkpt lat="43.73298" lon="3.35072">
        <ele>430</ele>
        <time>2023-05-26T11:00:00.000Z</time>
      </trkpt>
      <trkpt lat="43.73298" lon="3.35069">
        <ele>430</ele>
        <time>2023-05-26T11:00:02.000Z</time>
      </trkpt>
      <trkpt lat="43.73298" lon="3.35062">
        <ele>430.60000610352</ele>
        <time>2023-05-26T11:00:07.000Z</time>
      </trkpt>
      <trkpt lat="43.73298" lon="3.35055">
        <ele>430.39999389648</ele>
        <time>2023-05-26T11:00:11.000Z</time>
      </trkpt>
      <trkpt lat="43.73298" lon="3.35051">
        <ele>430</ele>
        <time>2023-05-26T11:00:14.000Z</time>
      </trkpt>
      <trkpt lat="43.73298" lon="3.35049">
        <ele>430</ele>
        <time>2023-05-26T11:00:15.000Z</time>
      </trkpt>
      <trkpt lat="43.73299" lon="3.3504">
        <ele>429.79998779297</ele>
        <time>2023-05-26T11:00:22.000Z</time>
      </trkpt>
      <trkpt lat="43.73299" lon="3.35038">
        <ele>429.60000610352</ele>
        <time>2023-05-26T11:00:23.000Z</time>
      </trkpt>
      <trkpt lat="43.73299" lon="3.35038">
        <ele>429.20001220703</ele>
        <time>2023-05-26T11:00:27.000Z</time>
      </trkpt>
      <trkpt lat="43.73298" lon="3.35029">
        <ele>429.39999389648</ele>
        <time>2023-05-26T11:00:34.000Z</time>
      </trkpt>
      <trkpt lat="43.73298" lon="3.35022">
        <ele>429</ele>
        <time>2023-05-26T11:00:39.000Z</time>
      </trkpt>
      <trkpt lat="43.73298" lon="3.35017">
        <ele>428.79998779297</ele>
        <time>2023-05-26T11:00:43.000Z</time>
      </trkpt>
      <trkpt lat="43.73295" lon="3.35005">
        <ele>428.79998779297</ele>
        <time>2023-05-26T11:00:51.000Z</time>
      </trkpt>
      <trkpt lat="43.7329" lon="3.34993">
        <ele>428.39999389648</ele>
        <time>2023-05-26T11:01:00.000Z</time>
      </trkpt>
      <trkpt lat="43.73285" lon="3.34983">
        <ele>428.20001220703</ele>
        <time>2023-05-26T11:01:08.000Z</time>
      </trkpt>
      <trkpt lat="43.73284" lon="3.34981">
        <ele>428</ele>
        <time>2023-05-26T11:01:10.000Z</time>
      </trkpt>
      <trkpt lat="43.7328" lon="3.34973">
        <ele>427.79998779297</ele>
        <time>2023-05-26T11:01:16.000Z</time>
      </trkpt>
      <trkpt lat="43.73275" lon="3.34964">
        <ele>427.79998779297</ele>
        <time>2023-05-26T11:01:23.000Z</time>
      </trkpt>
      <trkpt lat="43.73268" lon="3.34949">
        <ele>427.60000610352</ele>
        <time>2023-05-26T11:01:34.000Z</time>
      </trkpt>
      <trkpt lat="43.73262" lon="3.34929">
        <ele>427.20001220703</ele>
        <time>2023-05-26T11:01:46.000Z</time>
      </trkpt>
      <trkpt lat="43.73261" lon="3.34927">
        <ele>427</ele>
        <time>2023-05-26T11:01:48.000Z</time>
      </trkpt>
      <trkpt lat="43.73259" lon="3.34914">
        <ele>426.20001220703</ele>
        <time>2023-05-26T11:01:56.000Z</time>
      </trkpt>
      <trkpt lat="43.73257" lon="3.34902">
        <ele>426.60000610352</ele>
        <time>2023-05-26T11:02:04.000Z</time>
      </trkpt>
      <trkpt lat="43.73256" lon="3.34893">
        <ele>426</ele>
        <time>2023-05-26T11:02:10.000Z</time>
      </trkpt>
      <trkpt lat="43.73255" lon="3.34888">
        <ele>426</ele>
        <time>2023-05-26T11:02:14.000Z</time>
      </trkpt>
      <trkpt lat="43.73254" lon="3.34874">
        <ele>425.79998779297</ele>
        <time>2023-05-26T11:02:23.000Z</time>
      </trkpt>
      <trkpt lat="43.73253" lon="3.34863">
        <ele>425.60000610352</ele>
        <time>2023-05-26T11:02:31.000Z</time>
      </trkpt>
      <trkpt lat="43.73252" lon="3.3485">
        <ele>425.20001220703</ele>
        <time>2023-05-26T11:02:40.000Z</time>
      </trkpt>
      <trkpt lat="43.73251" lon="3.34847">
        <ele>425</ele>
        <time>2023-05-26T11:02:42.000Z</time>
      </trkpt>
      <trkpt lat="43.7325" lon="3.34834">
        <ele>425</ele>
        <time>2023-05-26T11:02:51.000Z</time>
      </trkpt>
      <trkpt lat="43.73248" lon="3.3482">
        <ele>424.79998779297</ele>
        <time>2023-05-26T11:03:00.000Z</time>
      </trkpt>
      <trkpt lat="43.73246" lon="3.34804">
        <ele>424.20001220703</ele>
        <time>2023-05-26T11:03:10.000Z</time>
      </trkpt>
      <trkpt lat="43.73245" lon="3.34789">
        <ele>424.20001220703</ele>
        <time>2023-05-26T11:03:20.000Z</time>
      </trkpt>
      <trkpt lat="43.73244" lon="3.34778">
        <ele>424.20001220703</ele>
        <time>2023-05-26T11:03:28.000Z</time>
      </trkpt>
      <trkpt lat="43.73244" lon="3.34776">
        <ele>424.20001220703</ele>
        <time>2023-05-26T11:03:29.000Z</time>
      </trkpt>
      <trkpt lat="43.73244" lon="3.3477">
        <ele>424</ele>
        <time>2023-05-26T11:03:33.000Z</time>
      </trkpt>
      <trkpt lat="43.73244" lon="3.34763">
        <ele>424</ele>
        <time>2023-05-26T11:03:37.000Z</time>
      </trkpt>
      <trkpt lat="43.73244" lon="3.34758">
        <ele>423.79998779297</ele>
        <time>2023-05-26T11:03:40.000Z</time>
      </trkpt>
      <trkpt lat="43.73243" lon="3.34745">
        <ele>423.60000610352</ele>
        <time>2023-05-26T11:03:49.000Z</time>
      </trkpt>
      <trkpt lat="43.73243" lon="3.34743">
        <ele>423.39999389648</ele>
        <time>2023-05-26T11:03:54.000Z</time>
      </trkpt>
      <trkpt lat="43.73244" lon="3.34737">
        <ele>423.39999389648</ele>
        <time>2023-05-26T11:03:59.000Z</time>
      </trkpt>
      <trkpt lat="43.73243" lon="3.34725">
        <ele>423.39999389648</ele>
        <time>2023-05-26T11:04:07.000Z</time>
      </trkpt>
      <trkpt lat="43.73244" lon="3.34709">
        <ele>423</ele>
        <time>2023-05-26T11:04:18.000Z</time>
      </trkpt>
      <trkpt lat="43.73243" lon="3.34707">
        <ele>423</ele>
        <time>2023-05-26T11:04:19.000Z</time>
      </trkpt>
      <trkpt lat="43.73243" lon="3.34693">
        <ele>422.60000610352</ele>
        <time>2023-05-26T11:04:28.000Z</time>
      </trkpt>
      <trkpt lat="43.73242" lon="3.34674">
        <ele>422</ele>
        <time>2023-05-26T11:04:39.000Z</time>
      </trkpt>
      <trkpt lat="43.73242" lon="3.34669">
        <ele>421.79998779297</ele>
        <time>2023-05-26T11:04:42.000Z</time>
      </trkpt>
      <trkpt lat="43.73242" lon="3.34656">
        <ele>421.39999389648</ele>
        <time>2023-05-26T11:04:50.000Z</time>
      </trkpt>
      <trkpt lat="43.73242" lon="3.34639">
        <ele>421.20001220703</ele>
        <time>2023-05-26T11:05:01.000Z</time>
      </trkpt>
      <trkpt lat="43.73241" lon="3.34625">
        <ele>421</ele>
        <time>2023-05-26T11:05:10.000Z</time>
      </trkpt>
      <trkpt lat="43.7324" lon="3.34615">
        <ele>420.79998779297</ele>
        <time>2023-05-26T11:05:17.000Z</time>
      </trkpt>
      <trkpt lat="43.73239" lon="3.34612">
        <ele>420.79998779297</ele>
        <time>2023-05-26T11:05:19.000Z</time>
      </trkpt>
      <trkpt lat="43.73236" lon="3.34598">
        <ele>420.39999389648</ele>
        <time>2023-05-26T11:05:29.000Z</time>
      </trkpt>
      <trkpt lat="43.73234" lon="3.34581">
        <ele>420</ele>
        <time>2023-05-26T11:05:40.000Z</time>
      </trkpt>
      <trkpt lat="43.7323" lon="3.34566">
        <ele>419.79998779297</ele>
        <time>2023-05-26T11:05:50.000Z</time>
      </trkpt>
      <trkpt lat="43.7323" lon="3.34564">
        <ele>419.60000610352</ele>
        <time>2023-05-26T11:05:52.000Z</time>
      </trkpt>
      <trkpt lat="43.73228" lon="3.34556">
        <ele>419.39999389648</ele>
        <time>2023-05-26T11:06:01.000Z</time>
      </trkpt>
      <trkpt lat="43.73227" lon="3.34549">
        <ele>419.20001220703</ele>
        <time>2023-05-26T11:06:08.000Z</time>
      </trkpt>
      <trkpt lat="43.73224" lon="3.34539">
        <ele>419.20001220703</ele>
        <time>2023-05-26T11:06:15.000Z</time>
      </trkpt>
      <trkpt lat="43.7322" lon="3.34529">
        <ele>418.60000610352</ele>
        <time>2023-05-26T11:06:22.000Z</time>
      </trkpt>
      <trkpt lat="43.73218" lon="3.34526">
        <ele>418.60000610352</ele>
        <time>2023-05-26T11:06:25.000Z</time>
      </trkpt>
      <trkpt lat="43.73212" lon="3.34514">
        <ele>418.39999389648</ele>
        <time>2023-05-26T11:06:35.000Z</time>
      </trkpt>
      <trkpt lat="43.73211" lon="3.34512">
        <ele>418.60000610352</ele>
        <time>2023-05-26T11:06:37.000Z</time>
      </trkpt>
      <trkpt lat="43.7321" lon="3.34507">
        <ele>418.79998779297</ele>
        <time>2023-05-26T11:06:41.000Z</time>
      </trkpt>
      <trkpt lat="43.73209" lon="3.34506">
        <ele>418.79998779297</ele>
        <time>2023-05-26T11:06:42.000Z</time>
      </trkpt>
      <trkpt lat="43.73207" lon="3.34497">
        <ele>418.79998779297</ele>
        <time>2023-05-26T11:06:49.000Z</time>
      </trkpt>
      <trkpt lat="43.73204" lon="3.34489">
        <ele>419.20001220703</ele>
        <time>2023-05-26T11:06:56.000Z</time>
      </trkpt>
      <trkpt lat="43.73202" lon="3.34483">
        <ele>419.60000610352</ele>
        <time>2023-05-26T11:07:01.000Z</time>
      </trkpt>
      <trkpt lat="43.732" lon="3.34478">
        <ele>419.79998779297</ele>
        <time>2023-05-26T11:07:05.000Z</time>
      </trkpt>
      <trkpt lat="43.732" lon="3.34478">
        <ele>420.39999389648</ele>
        <time>2023-05-26T11:07:10.000Z</time>
      </trkpt>
      <trkpt lat="43.73199" lon="3.34477">
        <ele>420.60000610352</ele>
        <time>2023-05-26T11:07:16.000Z</time>
      </trkpt>
      <trkpt lat="43.73198" lon="3.34475">
        <ele>420.39999389648</ele>
        <time>2023-05-26T11:07:20.000Z</time>
      </trkpt>
      <trkpt lat="43.73195" lon="3.34467">
        <ele>420.60000610352</ele>
        <time>2023-05-26T11:07:26.000Z</time>
      </trkpt>
      <trkpt lat="43.73192" lon="3.34458">
        <ele>421.20001220703</ele>
        <time>2023-05-26T11:07:33.000Z</time>
      </trkpt>
      <trkpt lat="43.73192" lon="3.34457">
        <ele>421.39999389648</ele>
        <time>2023-05-26T11:07:34.000Z</time>
      </trkpt>
      <trkpt lat="43.7319" lon="3.34452">
        <ele>421.60000610352</ele>
        <time>2023-05-26T11:07:38.000Z</time>
      </trkpt>
      <trkpt lat="43.73188" lon="3.34447">
        <ele>421.79998779297</ele>
        <time>2023-05-26T11:07:42.000Z</time>
      </trkpt>
      <trkpt lat="43.73184" lon="3.34438">
        <ele>422.20001220703</ele>
        <time>2023-05-26T11:07:50.000Z</time>
      </trkpt>
      <trkpt lat="43.7318" lon="3.34427">
        <ele>422.60000610352</ele>
        <time>2023-05-26T11:07:59.000Z</time>
      </trkpt>
      <trkpt lat="43.73179" lon="3.34424">
        <ele>422.60000610352</ele>
        <time>2023-05-26T11:08:01.000Z</time>
      </trkpt>
      <trkpt lat="43.73176" lon="3.34415">
        <ele>423.20001220703</ele>
        <time>2023-05-26T11:08:08.000Z</time>
      </trkpt>
      <trkpt lat="43.73171" lon="3.34401">
        <ele>423.60000610352</ele>
        <time>2023-05-26T11:08:18.000Z</time>
      </trkpt>
      <trkpt lat="43.73169" lon="3.34396">
        <ele>423.60000610352</ele>
        <time>2023-05-26T11:08:22.000Z</time>
      </trkpt>
      <trkpt lat="43.73166" lon="3.34389">
        <ele>424</ele>
        <time>2023-05-26T11:08:27.000Z</time>
      </trkpt>
      <trkpt lat="43.73159" lon="3.34376">
        <ele>424.39999389648</ele>
        <time>2023-05-26T11:08:38.000Z</time>
      </trkpt>
      <trkpt lat="43.73151" lon="3.34371">
        <ele>424.79998779297</ele>
        <time>2023-05-26T11:08:46.000Z</time>
      </trkpt>
      <trkpt lat="43.73144" lon="3.34373">
        <ele>425</ele>
        <time>2023-05-26T11:08:53.000Z</time>
      </trkpt>
      <trkpt lat="43.73137" lon="3.34379">
        <ele>425.39999389648</ele>
        <time>2023-05-26T11:09:01.000Z</time>
      </trkpt>
      <trkpt lat="43.73134" lon="3.34388">
        <ele>425.60000610352</ele>
        <time>2023-05-26T11:09:09.000Z</time>
      </trkpt>
      <trkpt lat="43.73132" lon="3.344">
        <ele>425.79998779297</ele>
        <time>2023-05-26T11:09:17.000Z</time>
      </trkpt>
      <trkpt lat="43.73132" lon="3.34401">
        <ele>425.79998779297</ele>
        <time>2023-05-26T11:09:18.000Z</time>
      </trkpt>
      <trkpt lat="43.73127" lon="3.34409">
        <ele>426.20001220703</ele>
        <time>2023-05-26T11:09:26.000Z</time>
      </trkpt>
      <trkpt lat="43.73125" lon="3.34411">
        <ele>426.20001220703</ele>
        <time>2023-05-26T11:09:31.000Z</time>
      </trkpt>
      <trkpt lat="43.73121" lon="3.34414">
        <ele>426.20001220703</ele>
        <time>2023-05-26T11:09:37.000Z</time>
      </trkpt>
      <trkpt lat="43.73121" lon="3.34412">
        <ele>426</ele>
        <time>2023-05-26T11:09:42.000Z</time>
      </trkpt>
      <trkpt lat="43.73116" lon="3.34407">
        <ele>425.79998779297</ele>
        <time>2023-05-26T11:09:48.000Z</time>
      </trkpt>
      <trkpt lat="43.73109" lon="3.34397">
        <ele>425.79998779297</ele>
        <time>2023-05-26T11:09:57.000Z</time>
      </trkpt>
      <trkpt lat="43.73104" lon="3.34388">
        <ele>425.20001220703</ele>
        <time>2023-05-26T11:10:05.000Z</time>
      </trkpt>
      <trkpt lat="43.73099" lon="3.34382">
        <ele>425</ele>
        <time>2023-05-26T11:10:10.000Z</time>
      </trkpt>
      <trkpt lat="43.73098" lon="3.34378">
        <ele>425</ele>
        <time>2023-05-26T11:10:13.000Z</time>
      </trkpt>
      <trkpt lat="43.73096" lon="3.34376">
        <ele>425</ele>
        <time>2023-05-26T11:10:15.000Z</time>
      </trkpt>
      <trkpt lat="43.73091" lon="3.34369">
        <ele>425.20001220703</ele>
        <time>2023-05-26T11:10:21.000Z</time>
      </trkpt>
      <trkpt lat="43.73086" lon="3.34358">
        <ele>425.20001220703</ele>
        <time>2023-05-26T11:10:31.000Z</time>
      </trkpt>
      <trkpt lat="43.73086" lon="3.34358">
        <ele>424.79998779297</ele>
        <time>2023-05-26T11:10:42.000Z</time>
      </trkpt>
      <trkpt lat="43.73084" lon="3.34356">
        <ele>424.79998779297</ele>
        <time>2023-05-26T11:10:44.000Z</time>
      </trkpt>
      <trkpt lat="43.73082" lon="3.3435">
        <ele>424.79998779297</ele>
        <time>2023-05-26T11:10:48.000Z</time>
      </trkpt>
      <trkpt lat="43.73077" lon="3.3434">
        <ele>424.60000610352</ele>
        <time>2023-05-26T11:10:56.000Z</time>
      </trkpt>
      <trkpt lat="43.73072" lon="3.34328">
        <ele>424.39999389648</ele>
        <time>2023-05-26T11:11:05.000Z</time>
      </trkpt>
      <trkpt lat="43.73066" lon="3.34313">
        <ele>424.60000610352</ele>
        <time>2023-05-26T11:11:16.000Z</time>
      </trkpt>
      <trkpt lat="43.73061" lon="3.34299">
        <ele>424.79998779297</ele>
        <time>2023-05-26T11:11:26.000Z</time>
      </trkpt>
      <trkpt lat="43.73057" lon="3.34286">
        <ele>424.79998779297</ele>
        <time>2023-05-26T11:11:35.000Z</time>
      </trkpt>
      <trkpt lat="43.73056" lon="3.34282">
        <ele>424.79998779297</ele>
        <time>2023-05-26T11:11:42.000Z</time>
      </trkpt>
      <trkpt lat="43.73053" lon="3.34276">
        <ele>424.79998779297</ele>
        <time>2023-05-26T11:11:48.000Z</time>
      </trkpt>
      <trkpt lat="43.7305" lon="3.34266">
        <ele>424.79998779297</ele>
        <time>2023-05-26T11:11:55.000Z</time>
      </trkpt>
      <trkpt lat="43.73048" lon="3.34261">
        <ele>424.39999389648</ele>
        <time>2023-05-26T11:12:02.000Z</time>
      </trkpt>
      <trkpt lat="43.73047" lon="3.34254">
        <ele>424.60000610352</ele>
        <time>2023-05-26T11:12:10.000Z</time>
      </trkpt>
      <trkpt lat="43.73044" lon="3.34241">
        <ele>425</ele>
        <time>2023-05-26T11:12:19.000Z</time>
      </trkpt>
      <trkpt lat="43.73041" lon="3.34225">
        <ele>425</ele>
        <time>2023-05-26T11:12:30.000Z</time>
      </trkpt>
      <trkpt lat="43.73037" lon="3.34213">
        <ele>425.60000610352</ele>
        <time>2023-05-26T11:12:39.000Z</time>
      </trkpt>
      <trkpt lat="43.73035" lon="3.34208">
        <ele>425.79998779297</ele>
        <time>2023-05-26T11:12:42.000Z</time>
      </trkpt>
      <trkpt lat="43.73034" lon="3.34199">
        <ele>426.20001220703</ele>
        <time>2023-05-26T11:12:48.000Z</time>
      </trkpt>
      <trkpt lat="43.73031" lon="3.34185">
        <ele>426</ele>
        <time>2023-05-26T11:12:57.000Z</time>
      </trkpt>
      <trkpt lat="43.73029" lon="3.34172">
        <ele>426</ele>
        <time>2023-05-26T11:13:06.000Z</time>
      </trkpt>
      <trkpt lat="43.73026" lon="3.34156">
        <ele>426.20001220703</ele>
        <time>2023-05-26T11:13:17.000Z</time>
      </trkpt>
      <trkpt lat="43.73025" lon="3.34143">
        <ele>426.60000610352</ele>
        <time>2023-05-26T11:13:26.000Z</time>
      </trkpt>
      <trkpt lat="43.73024" lon="3.34133">
        <ele>426.79998779297</ele>
        <time>2023-05-26T11:13:32.000Z</time>
      </trkpt>
      <trkpt lat="43.73023" lon="3.34129">
        <ele>426.79998779297</ele>
        <time>2023-05-26T11:13:35.000Z</time>
      </trkpt>
      <trkpt lat="43.73023" lon="3.34118">
        <ele>427.20001220703</ele>
        <time>2023-05-26T11:13:42.000Z</time>
      </trkpt>
      <trkpt lat="43.73021" lon="3.34102">
        <ele>427</ele>
        <time>2023-05-26T11:13:52.000Z</time>
      </trkpt>
      <trkpt lat="43.73021" lon="3.34097">
        <ele>427</ele>
        <time>2023-05-26T11:13:55.000Z</time>
      </trkpt>
      <trkpt lat="43.73021" lon="3.34092">
        <ele>427</ele>
        <time>2023-05-26T11:13:59.000Z</time>
      </trkpt>
      <trkpt lat="43.73019" lon="3.34079">
        <ele>427</ele>
        <time>2023-05-26T11:14:07.000Z</time>
      </trkpt>
      <trkpt lat="43.73018" lon="3.34067">
        <ele>427.39999389648</ele>
        <time>2023-05-26T11:14:15.000Z</time>
      </trkpt>
      <trkpt lat="43.73015" lon="3.34056">
        <ele>427.39999389648</ele>
        <time>2023-05-26T11:14:23.000Z</time>
      </trkpt>
      <trkpt lat="43.73014" lon="3.34052">
        <ele>427.79998779297</ele>
        <time>2023-05-26T11:14:29.000Z</time>
      </trkpt>
      <trkpt lat="43.73013" lon="3.34048">
        <ele>427.79998779297</ele>
        <time>2023-05-26T11:14:32.000Z</time>
      </trkpt>
      <trkpt lat="43.73012" lon="3.34042">
        <ele>427.60000610352</ele>
        <time>2023-05-26T11:14:36.000Z</time>
      </trkpt>
      <trkpt lat="43.73008" lon="3.34029">
        <ele>427.20001220703</ele>
        <time>2023-05-26T11:14:45.000Z</time>
      </trkpt>
      <trkpt lat="43.73005" lon="3.34018">
        <ele>427</ele>
        <time>2023-05-26T11:14:52.000Z</time>
      </trkpt>
      <trkpt lat="43.73004" lon="3.34017">
        <ele>427.20001220703</ele>
        <time>2023-05-26T11:14:53.000Z</time>
      </trkpt>
      <trkpt lat="43.72998" lon="3.34007">
        <ele>427.39999389648</ele>
        <time>2023-05-26T11:15:01.000Z</time>
      </trkpt>
      <trkpt lat="43.72992" lon="3.33999">
        <ele>427.79998779297</ele>
        <time>2023-05-26T11:15:08.000Z</time>
      </trkpt>
      <trkpt lat="43.72986" lon="3.33991">
        <ele>428.20001220703</ele>
        <time>2023-05-26T11:15:16.000Z</time>
      </trkpt>
      <trkpt lat="43.7298" lon="3.33981">
        <ele>428.39999389648</ele>
        <time>2023-05-26T11:15:24.000Z</time>
      </trkpt>
      <trkpt lat="43.72975" lon="3.33972">
        <ele>428.39999389648</ele>
        <time>2023-05-26T11:15:32.000Z</time>
      </trkpt>
      <trkpt lat="43.72972" lon="3.33966">
        <ele>428.39999389648</ele>
        <time>2023-05-26T11:15:37.000Z</time>
      </trkpt>
      <trkpt lat="43.7297" lon="3.33963">
        <ele>428.39999389648</ele>
        <time>2023-05-26T11:15:39.000Z</time>
      </trkpt>
      <trkpt lat="43.72968" lon="3.33959">
        <ele>428.39999389648</ele>
        <time>2023-05-26T11:15:42.000Z</time>
      </trkpt>
      <trkpt lat="43.72965" lon="3.33957">
        <ele>428.39999389648</ele>
        <time>2023-05-26T11:15:46.000Z</time>
      </trkpt>
      <trkpt lat="43.72964" lon="3.33956">
        <ele>428.60000610352</ele>
        <time>2023-05-26T11:15:52.000Z</time>
      </trkpt>
      <trkpt lat="43.72964" lon="3.33956">
        <ele>428.20001220703</ele>
        <time>2023-05-26T11:16:03.000Z</time>
      </trkpt>
      <trkpt lat="43.72964" lon="3.33955">
        <ele>428.20001220703</ele>
        <time>2023-05-26T11:16:09.000Z</time>
      </trkpt>
      <trkpt lat="43.72964" lon="3.33954">
        <ele>428</ele>
        <time>2023-05-26T11:16:22.000Z</time>
      </trkpt>
      <trkpt lat="43.72962" lon="3.33948">
        <ele>428.39999389648</ele>
        <time>2023-05-26T11:16:29.000Z</time>
      </trkpt>
      <trkpt lat="43.72955" lon="3.33936">
        <ele>428.79998779297</ele>
        <time>2023-05-26T11:16:38.000Z</time>
      </trkpt>
      <trkpt lat="43.72949" lon="3.33927">
        <ele>428.60000610352</ele>
        <time>2023-05-26T11:16:45.000Z</time>
      </trkpt>
      <trkpt lat="43.72942" lon="3.33916">
        <ele>427.79998779297</ele>
        <time>2023-05-26T11:16:54.000Z</time>
      </trkpt>
      <trkpt lat="43.72936" lon="3.33909">
        <ele>426.79998779297</ele>
        <time>2023-05-26T11:17:00.000Z</time>
      </trkpt>
      <trkpt lat="43.72934" lon="3.33907">
        <ele>426.60000610352</ele>
        <time>2023-05-26T11:17:02.000Z</time>
      </trkpt>
      <trkpt lat="43.72926" lon="3.33897">
        <ele>425.79998779297</ele>
        <time>2023-05-26T11:17:11.000Z</time>
      </trkpt>
      <trkpt lat="43.72924" lon="3.33893">
        <ele>425.39999389648</ele>
        <time>2023-05-26T11:17:14.000Z</time>
      </trkpt>
      <trkpt lat="43.72917" lon="3.33884">
        <ele>424.60000610352</ele>
        <time>2023-05-26T11:17:22.000Z</time>
      </trkpt>
      <trkpt lat="43.72913" lon="3.3388">
        <ele>424.39999389648</ele>
        <time>2023-05-26T11:17:26.000Z</time>
      </trkpt>
      <trkpt lat="43.72903" lon="3.33868">
        <ele>423.60000610352</ele>
        <time>2023-05-26T11:17:37.000Z</time>
      </trkpt>
      <trkpt lat="43.72896" lon="3.33858">
        <ele>423.39999389648</ele>
        <time>2023-05-26T11:17:46.000Z</time>
      </trkpt>
      <trkpt lat="43.72888" lon="3.33847">
        <ele>423</ele>
        <time>2023-05-26T11:17:56.000Z</time>
      </trkpt>
      <trkpt lat="43.72881" lon="3.33837">
        <ele>422.79998779297</ele>
        <time>2023-05-26T11:18:05.000Z</time>
      </trkpt>
      <trkpt lat="43.72874" lon="3.33827">
        <ele>422.79998779297</ele>
        <time>2023-05-26T11:18:14.000Z</time>
      </trkpt>
      <trkpt lat="43.72868" lon="3.33819">
        <ele>422.79998779297</ele>
        <time>2023-05-26T11:18:22.000Z</time>
      </trkpt>
      <trkpt lat="43.72865" lon="3.33815">
        <ele>422.79998779297</ele>
        <time>2023-05-26T11:18:27.000Z</time>
      </trkpt>
      <trkpt lat="43.72862" lon="3.33812">
        <ele>422.60000610352</ele>
        <time>2023-05-26T11:18:30.000Z</time>
      </trkpt>
      <trkpt lat="43.72858" lon="3.33808">
        <ele>422.39999389648</ele>
        <time>2023-05-26T11:18:35.000Z</time>
      </trkpt>
      <trkpt lat="43.7285" lon="3.33802">
        <ele>422.79998779297</ele>
        <time>2023-05-26T11:18:44.000Z</time>
      </trkpt>
      <trkpt lat="43.72837" lon="3.33796">
        <ele>422.79998779297</ele>
        <time>2023-05-26T11:18:55.000Z</time>
      </trkpt>
      <trkpt lat="43.72827" lon="3.33794">
        <ele>423</ele>
        <time>2023-05-26T11:19:04.000Z</time>
      </trkpt>
      <trkpt lat="43.72819" lon="3.3379">
        <ele>422.60000610352</ele>
        <time>2023-05-26T11:19:11.000Z</time>
      </trkpt>
      <trkpt lat="43.72811" lon="3.33784">
        <ele>422.20001220703</ele>
        <time>2023-05-26T11:19:19.000Z</time>
      </trkpt>
      <trkpt lat="43.72809" lon="3.33781">
        <ele>422</ele>
        <time>2023-05-26T11:19:21.000Z</time>
      </trkpt>
      <trkpt lat="43.72807" lon="3.33778">
        <ele>421.79998779297</ele>
        <time>2023-05-26T11:19:25.000Z</time>
      </trkpt>
      <trkpt lat="43.72804" lon="3.33774">
        <ele>421.60000610352</ele>
        <time>2023-05-26T11:19:28.000Z</time>
      </trkpt>
      <trkpt lat="43.728" lon="3.33769">
        <ele>421.20001220703</ele>
        <time>2023-05-26T11:19:33.000Z</time>
      </trkpt>
      <trkpt lat="43.72792" lon="3.3376">
        <ele>420.60000610352</ele>
        <time>2023-05-26T11:19:42.000Z</time>
      </trkpt>
      <trkpt lat="43.72783" lon="3.33747">
        <ele>419.60000610352</ele>
        <time>2023-05-26T11:19:53.000Z</time>
      </trkpt>
      <trkpt lat="43.72782" lon="3.33745">
        <ele>419.39999389648</ele>
        <time>2023-05-26T11:19:55.000Z</time>
      </trkpt>
      <trkpt lat="43.72779" lon="3.33741">
        <ele>419</ele>
        <time>2023-05-26T11:19:59.000Z</time>
      </trkpt>
      <trkpt lat="43.72776" lon="3.33737">
        <ele>418.39999389648</ele>
        <time>2023-05-26T11:20:04.000Z</time>
      </trkpt>
      <trkpt lat="43.72776" lon="3.33736">
        <ele>418.39999389648</ele>
        <time>2023-05-26T11:20:05.000Z</time>
      </trkpt>
      <trkpt lat="43.72774" lon="3.33734">
        <ele>418.20001220703</ele>
        <time>2023-05-26T11:20:07.000Z</time>
      </trkpt>
      <trkpt lat="43.72767" lon="3.33729">
        <ele>417.39999389648</ele>
        <time>2023-05-26T11:20:14.000Z</time>
      </trkpt>
      <trkpt lat="43.72766" lon="3.33728">
        <ele>417.39999389648</ele>
        <time>2023-05-26T11:20:15.000Z</time>
      </trkpt>
      <trkpt lat="43.72761" lon="3.33724">
        <ele>416.79998779297</ele>
        <time>2023-05-26T11:20:20.000Z</time>
      </trkpt>
      <trkpt lat="43.72757" lon="3.33722">
        <ele>416.39999389648</ele>
        <time>2023-05-26T11:20:25.000Z</time>
      </trkpt>
      <trkpt lat="43.72755" lon="3.33722">
        <ele>416.20001220703</ele>
        <time>2023-05-26T11:20:27.000Z</time>
      </trkpt>
      <trkpt lat="43.72745" lon="3.33718">
        <ele>415.79998779297</ele>
        <time>2023-05-26T11:20:36.000Z</time>
      </trkpt>
      <trkpt lat="43.72735" lon="3.33713">
        <ele>415.79998779297</ele>
        <time>2023-05-26T11:20:46.000Z</time>
      </trkpt>
      <trkpt lat="43.72727" lon="3.33711">
        <ele>415.79998779297</ele>
        <time>2023-05-26T11:20:54.000Z</time>
      </trkpt>
      <trkpt lat="43.72718" lon="3.33709">
        <ele>415.79998779297</ele>
        <time>2023-05-26T11:21:03.000Z</time>
      </trkpt>
      <trkpt lat="43.72708" lon="3.33707">
        <ele>416.20001220703</ele>
        <time>2023-05-26T11:21:12.000Z</time>
      </trkpt>
      <trkpt lat="43.72698" lon="3.33704">
        <ele>416.60000610352</ele>
        <time>2023-05-26T11:21:22.000Z</time>
      </trkpt>
      <trkpt lat="43.7269" lon="3.337">
        <ele>417.39999389648</ele>
        <time>2023-05-26T11:21:30.000Z</time>
      </trkpt>
      <trkpt lat="43.72689" lon="3.33699">
        <ele>417.39999389648</ele>
        <time>2023-05-26T11:21:31.000Z</time>
      </trkpt>
      <trkpt lat="43.72681" lon="3.33696">
        <ele>418.20001220703</ele>
        <time>2023-05-26T11:21:40.000Z</time>
      </trkpt>
      <trkpt lat="43.72679" lon="3.33695">
        <ele>418.39999389648</ele>
        <time>2023-05-26T11:21:42.000Z</time>
      </trkpt>
      <trkpt lat="43.72671" lon="3.33693">
        <ele>418.60000610352</ele>
        <time>2023-05-26T11:21:50.000Z</time>
      </trkpt>
      <trkpt lat="43.72661" lon="3.33688">
        <ele>419.20001220703</ele>
        <time>2023-05-26T11:22:02.000Z</time>
      </trkpt>
      <trkpt lat="43.72657" lon="3.33687">
        <ele>419.39999389648</ele>
        <time>2023-05-26T11:22:06.000Z</time>
      </trkpt>
      <trkpt lat="43.72652" lon="3.33684">
        <ele>419.60000610352</ele>
        <time>2023-05-26T11:22:12.000Z</time>
      </trkpt>
      <trkpt lat="43.72645" lon="3.3368">
        <ele>420.20001220703</ele>
        <time>2023-05-26T11:22:20.000Z</time>
      </trkpt>
      <trkpt lat="43.72643" lon="3.33679">
        <ele>420.39999389648</ele>
        <time>2023-05-26T11:22:23.000Z</time>
      </trkpt>
      <trkpt lat="43.72637" lon="3.33677">
        <ele>420.60000610352</ele>
        <time>2023-05-26T11:22:29.000Z</time>
      </trkpt>
      <trkpt lat="43.7263" lon="3.33675">
        <ele>421.20001220703</ele>
        <time>2023-05-26T11:22:38.000Z</time>
      </trkpt>
      <trkpt lat="43.72629" lon="3.33674">
        <ele>421.39999389648</ele>
        <time>2023-05-26T11:22:40.000Z</time>
      </trkpt>
      <trkpt lat="43.72625" lon="3.33673">
        <ele>421.79998779297</ele>
        <time>2023-05-26T11:22:45.000Z</time>
      </trkpt>
      <trkpt lat="43.72618" lon="3.3367">
        <ele>422.60000610352</ele>
        <time>2023-05-26T11:22:53.000Z</time>
      </trkpt>
      <trkpt lat="43.72617" lon="3.33669">
        <ele>422.79998779297</ele>
        <time>2023-05-26T11:22:54.000Z</time>
      </trkpt>
      <trkpt lat="43.72612" lon="3.33665">
        <ele>423.20001220703</ele>
        <time>2023-05-26T11:23:00.000Z</time>
      </trkpt>
      <trkpt lat="43.72612" lon="3.33664">
        <ele>423.20001220703</ele>
        <time>2023-05-26T11:23:01.000Z</time>
      </trkpt>
      <trkpt lat="43.72607" lon="3.33662">
        <ele>423.20001220703</ele>
        <time>2023-05-26T11:23:06.000Z</time>
      </trkpt>
      <trkpt lat="43.72606" lon="3.33662">
        <ele>423.20001220703</ele>
        <time>2023-05-26T11:23:07.000Z</time>
      </trkpt>
      <trkpt lat="43.72603" lon="3.3366">
        <ele>423.79998779297</ele>
        <time>2023-05-26T11:23:10.000Z</time>
      </trkpt>
      <trkpt lat="43.72598" lon="3.33658">
        <ele>423.79998779297</ele>
        <time>2023-05-26T11:23:15.000Z</time>
      </trkpt>
      <trkpt lat="43.72587" lon="3.33653">
        <ele>424.39999389648</ele>
        <time>2023-05-26T11:23:26.000Z</time>
      </trkpt>
      <trkpt lat="43.72577" lon="3.33647">
        <ele>424.60000610352</ele>
        <time>2023-05-26T11:23:36.000Z</time>
      </trkpt>
      <trkpt lat="43.72576" lon="3.33646">
        <ele>424.79998779297</ele>
        <time>2023-05-26T11:23:37.000Z</time>
      </trkpt>
      <trkpt lat="43.72566" lon="3.33642">
        <ele>425.20001220703</ele>
        <time>2023-05-26T11:23:45.000Z</time>
      </trkpt>
      <trkpt lat="43.72563" lon="3.33641">
        <ele>425.20001220703</ele>
        <time>2023-05-26T11:23:51.000Z</time>
      </trkpt>
      <trkpt lat="43.72561" lon="3.33639">
        <ele>425</ele>
        <time>2023-05-26T11:24:02.000Z</time>
      </trkpt>
      <trkpt lat="43.7256" lon="3.33638">
        <ele>424.20001220703</ele>
        <time>2023-05-26T11:24:09.000Z</time>
      </trkpt>
      <trkpt lat="43.7256" lon="3.33638">
        <ele>425</ele>
        <time>2023-05-26T11:24:19.000Z</time>
      </trkpt>
      <trkpt lat="43.7256" lon="3.3364">
        <ele>424.60000610352</ele>
        <time>2023-05-26T11:24:31.000Z</time>
      </trkpt>
      <trkpt lat="43.72561" lon="3.3364">
        <ele>424.60000610352</ele>
        <time>2023-05-26T11:24:39.000Z</time>
      </trkpt>
      <trkpt lat="43.7256" lon="3.3364">
        <ele>424.39999389648</ele>
        <time>2023-05-26T11:24:47.000Z</time>
      </trkpt>
      <trkpt lat="43.72558" lon="3.3364">
        <ele>424.20001220703</ele>
        <time>2023-05-26T11:24:54.000Z</time>
      </trkpt>
      <trkpt lat="43.72554" lon="3.33644">
        <ele>424.20001220703</ele>
        <time>2023-05-26T11:25:01.000Z</time>
      </trkpt>
      <trkpt lat="43.72555" lon="3.33641">
        <ele>424.60000610352</ele>
        <time>2023-05-26T11:25:09.000Z</time>
      </trkpt>
      <trkpt lat="43.72556" lon="3.33639">
        <ele>424</ele>
        <time>2023-05-26T11:25:15.000Z</time>
      </trkpt>
      <trkpt lat="43.72556" lon="3.33639">
        <ele>424.20001220703</ele>
        <time>2023-05-26T11:25:23.000Z</time>
      </trkpt>
      <trkpt lat="43.72557" lon="3.33639">
        <ele>424.20001220703</ele>
        <time>2023-05-26T11:25:33.000Z</time>
      </trkpt>
      <trkpt lat="43.72557" lon="3.3364">
        <ele>424.20001220703</ele>
        <time>2023-05-26T11:25:39.000Z</time>
      </trkpt>
      <trkpt lat="43.72552" lon="3.33639">
        <ele>424</ele>
        <time>2023-05-26T11:25:45.000Z</time>
      </trkpt>
      <trkpt lat="43.72549" lon="3.33638">
        <ele>423.60000610352</ele>
        <time>2023-05-26T11:25:49.000Z</time>
      </trkpt>
      <trkpt lat="43.72545" lon="3.33636">
        <ele>423.20001220703</ele>
        <time>2023-05-26T11:25:54.000Z</time>
      </trkpt>
      <trkpt lat="43.72542" lon="3.33635">
        <ele>423.20001220703</ele>
        <time>2023-05-26T11:26:01.000Z</time>
      </trkpt>
      <trkpt lat="43.72534" lon="3.33634">
        <ele>423</ele>
        <time>2023-05-26T11:26:09.000Z</time>
      </trkpt>
      <trkpt lat="43.72527" lon="3.33631">
        <ele>422.60000610352</ele>
        <time>2023-05-26T11:26:17.000Z</time>
      </trkpt>
      <trkpt lat="43.72525" lon="3.33631">
        <ele>422.39999389648</ele>
        <time>2023-05-26T11:26:19.000Z</time>
      </trkpt>
      <trkpt lat="43.72522" lon="3.33631">
        <ele>422.39999389648</ele>
        <time>2023-05-26T11:26:22.000Z</time>
      </trkpt>
      <trkpt lat="43.72517" lon="3.33628">
        <ele>421.79998779297</ele>
        <time>2023-05-26T11:26:27.000Z</time>
      </trkpt>
      <trkpt lat="43.72515" lon="3.33627">
        <ele>421.39999389648</ele>
        <time>2023-05-26T11:26:29.000Z</time>
      </trkpt>
      <trkpt lat="43.72511" lon="3.33625">
        <ele>420.60000610352</ele>
        <time>2023-05-26T11:26:36.000Z</time>
      </trkpt>
      <trkpt lat="43.72509" lon="3.33624">
        <ele>420.39999389648</ele>
        <time>2023-05-26T11:26:38.000Z</time>
      </trkpt>
      <trkpt lat="43.72508" lon="3.33624">
        <ele>420.39999389648</ele>
        <time>2023-05-26T11:26:39.000Z</time>
      </trkpt>
      <trkpt lat="43.72507" lon="3.33623">
        <ele>420.20001220703</ele>
        <time>2023-05-26T11:26:41.000Z</time>
      </trkpt>
      <trkpt lat="43.72502" lon="3.3362">
        <ele>419.60000610352</ele>
        <time>2023-05-26T11:26:47.000Z</time>
      </trkpt>
      <trkpt lat="43.725" lon="3.33619">
        <ele>419.39999389648</ele>
        <time>2023-05-26T11:26:49.000Z</time>
      </trkpt>
      <trkpt lat="43.72494" lon="3.33616">
        <ele>419</ele>
        <time>2023-05-26T11:26:55.000Z</time>
      </trkpt>
      <trkpt lat="43.72489" lon="3.33613">
        <ele>418.39999389648</ele>
        <time>2023-05-26T11:27:01.000Z</time>
      </trkpt>
      <trkpt lat="43.72488" lon="3.33611">
        <ele>418</ele>
        <time>2023-05-26T11:27:03.000Z</time>
      </trkpt>
      <trkpt lat="43.72486" lon="3.33609">
        <ele>417.79998779297</ele>
        <time>2023-05-26T11:27:05.000Z</time>
      </trkpt>
      <trkpt lat="43.72484" lon="3.33608">
        <ele>417.39999389648</ele>
        <time>2023-05-26T11:27:07.000Z</time>
      </trkpt>
      <trkpt lat="43.72483" lon="3.33606">
        <ele>417</ele>
        <time>2023-05-26T11:27:09.000Z</time>
      </trkpt>
      <trkpt lat="43.72476" lon="3.33602">
        <ele>416.39999389648</ele>
        <time>2023-05-26T11:27:17.000Z</time>
      </trkpt>
      <trkpt lat="43.72474" lon="3.33602">
        <ele>416</ele>
        <time>2023-05-26T11:27:19.000Z</time>
      </trkpt>
      <trkpt lat="43.72471" lon="3.33599">
        <ele>415.39999389648</ele>
        <time>2023-05-26T11:27:24.000Z</time>
      </trkpt>
      <trkpt lat="43.7247" lon="3.33598">
        <ele>415.20001220703</ele>
        <time>2023-05-26T11:27:25.000Z</time>
      </trkpt>
      <trkpt lat="43.72468" lon="3.33597">
        <ele>415</ele>
        <time>2023-05-26T11:27:27.000Z</time>
      </trkpt>
      <trkpt lat="43.72466" lon="3.33595">
        <ele>414.60000610352</ele>
        <time>2023-05-26T11:27:31.000Z</time>
      </trkpt>
      <trkpt lat="43.72462" lon="3.33594">
        <ele>414.20001220703</ele>
        <time>2023-05-26T11:27:35.000Z</time>
      </trkpt>
      <trkpt lat="43.72458" lon="3.33593">
        <ele>413.60000610352</ele>
        <time>2023-05-26T11:27:40.000Z</time>
      </trkpt>
      <trkpt lat="43.72454" lon="3.3359">
        <ele>413.20001220703</ele>
        <time>2023-05-26T11:27:44.000Z</time>
      </trkpt>
      <trkpt lat="43.7245" lon="3.33587">
        <ele>412.79998779297</ele>
        <time>2023-05-26T11:27:49.000Z</time>
      </trkpt>
      <trkpt lat="43.72445" lon="3.33583">
        <ele>412</ele>
        <time>2023-05-26T11:27:55.000Z</time>
      </trkpt>
      <trkpt lat="43.72444" lon="3.33582">
        <ele>411.79998779297</ele>
        <time>2023-05-26T11:27:57.000Z</time>
      </trkpt>
      <trkpt lat="43.72438" lon="3.33576">
        <ele>411.20001220703</ele>
        <time>2023-05-26T11:28:04.000Z</time>
      </trkpt>
      <trkpt lat="43.72437" lon="3.33576">
        <ele>411</ele>
        <time>2023-05-26T11:28:05.000Z</time>
      </trkpt>
      <trkpt lat="43.72432" lon="3.33572">
        <ele>410.39999389648</ele>
        <time>2023-05-26T11:28:11.000Z</time>
      </trkpt>
      <trkpt lat="43.72431" lon="3.33571">
        <ele>410</ele>
        <time>2023-05-26T11:28:13.000Z</time>
      </trkpt>
      <trkpt lat="43.72428" lon="3.3357">
        <ele>409.20001220703</ele>
        <time>2023-05-26T11:28:16.000Z</time>
      </trkpt>
      <trkpt lat="43.72426" lon="3.33569">
        <ele>408.79998779297</ele>
        <time>2023-05-26T11:28:18.000Z</time>
      </trkpt>
      <trkpt lat="43.72425" lon="3.33569">
        <ele>408.79998779297</ele>
        <time>2023-05-26T11:28:19.000Z</time>
      </trkpt>
      <trkpt lat="43.7242" lon="3.33564">
        <ele>407.79998779297</ele>
        <time>2023-05-26T11:28:26.000Z</time>
      </trkpt>
      <trkpt lat="43.72419" lon="3.33563">
        <ele>407.79998779297</ele>
        <time>2023-05-26T11:28:27.000Z</time>
      </trkpt>
      <trkpt lat="43.72415" lon="3.3356">
        <ele>406.79998779297</ele>
        <time>2023-05-26T11:28:32.000Z</time>
      </trkpt>
      <trkpt lat="43.72413" lon="3.33557">
        <ele>405.79998779297</ele>
        <time>2023-05-26T11:28:36.000Z</time>
      </trkpt>
      <trkpt lat="43.72412" lon="3.33556">
        <ele>405.79998779297</ele>
        <time>2023-05-26T11:28:37.000Z</time>
      </trkpt>
      <trkpt lat="43.72408" lon="3.33552">
        <ele>405</ele>
        <time>2023-05-26T11:28:43.000Z</time>
      </trkpt>
      <trkpt lat="43.72407" lon="3.3355">
        <ele>404.79998779297</ele>
        <time>2023-05-26T11:28:45.000Z</time>
      </trkpt>
      <trkpt lat="43.72403" lon="3.33545">
        <ele>403.60000610352</ele>
        <time>2023-05-26T11:28:52.000Z</time>
      </trkpt>
      <trkpt lat="43.72402" lon="3.33543">
        <ele>403.20001220703</ele>
        <time>2023-05-26T11:28:54.000Z</time>
      </trkpt>
      <trkpt lat="43.72399" lon="3.33538">
        <ele>402.60000610352</ele>
        <time>2023-05-26T11:28:59.000Z</time>
      </trkpt>
      <trkpt lat="43.72396" lon="3.33535">
        <ele>402.39999389648</ele>
        <time>2023-05-26T11:29:02.000Z</time>
      </trkpt>
      <trkpt lat="43.72394" lon="3.33533">
        <ele>401.60000610352</ele>
        <time>2023-05-26T11:29:06.000Z</time>
      </trkpt>
      <trkpt lat="43.72392" lon="3.3353">
        <ele>401</ele>
        <time>2023-05-26T11:29:10.000Z</time>
      </trkpt>
      <trkpt lat="43.72389" lon="3.33528">
        <ele>400.39999389648</ele>
        <time>2023-05-26T11:29:13.000Z</time>
      </trkpt>
      <trkpt lat="43.72386" lon="3.33524">
        <ele>399.79998779297</ele>
        <time>2023-05-26T11:29:18.000Z</time>
      </trkpt>
      <trkpt lat="43.72384" lon="3.33521">
        <ele>399.39999389648</ele>
        <time>2023-05-26T11:29:21.000Z</time>
      </trkpt>
      <trkpt lat="43.7238" lon="3.33517">
        <ele>398.39999389648</ele>
        <time>2023-05-26T11:29:26.000Z</time>
      </trkpt>
      <trkpt lat="43.72378" lon="3.33515">
        <ele>397.39999389648</ele>
        <time>2023-05-26T11:29:31.000Z</time>
      </trkpt>
      <trkpt lat="43.72378" lon="3.33515">
        <ele>397</ele>
        <time>2023-05-26T11:29:34.000Z</time>
      </trkpt>
      <trkpt lat="43.72378" lon="3.33514">
        <ele>397.39999389648</ele>
        <time>2023-05-26T11:29:48.000Z</time>
      </trkpt>
      <trkpt lat="43.72378" lon="3.33513">
        <ele>397.60000610352</ele>
        <time>2023-05-26T11:29:58.000Z</time>
      </trkpt>
      <trkpt lat="43.72378" lon="3.33511">
        <ele>397.39999389648</ele>
        <time>2023-05-26T11:30:11.000Z</time>
      </trkpt>
      <trkpt lat="43.72376" lon="3.33508">
        <ele>397</ele>
        <time>2023-05-26T11:30:17.000Z</time>
      </trkpt>
      <trkpt lat="43.72372" lon="3.33504">
        <ele>396.39999389648</ele>
        <time>2023-05-26T11:30:23.000Z</time>
      </trkpt>
      <trkpt lat="43.72371" lon="3.33502">
        <ele>396.20001220703</ele>
        <time>2023-05-26T11:30:25.000Z</time>
      </trkpt>
      <trkpt lat="43.72366" lon="3.33496">
        <ele>395.20001220703</ele>
        <time>2023-05-26T11:30:32.000Z</time>
      </trkpt>
      <trkpt lat="43.72364" lon="3.33493">
        <ele>394.60000610352</ele>
        <time>2023-05-26T11:30:35.000Z</time>
      </trkpt>
      <trkpt lat="43.72363" lon="3.33492">
        <ele>394.20001220703</ele>
        <time>2023-05-26T11:30:36.000Z</time>
      </trkpt>
      <trkpt lat="43.7236" lon="3.33489">
        <ele>393</ele>
        <time>2023-05-26T11:30:40.000Z</time>
      </trkpt>
      <trkpt lat="43.72357" lon="3.33485">
        <ele>392.20001220703</ele>
        <time>2023-05-26T11:30:44.000Z</time>
      </trkpt>
      <trkpt lat="43.72356" lon="3.33484">
        <ele>392</ele>
        <time>2023-05-26T11:30:45.000Z</time>
      </trkpt>
      <trkpt lat="43.72356" lon="3.33484">
        <ele>391.79998779297</ele>
        <time>2023-05-26T11:30:46.000Z</time>
      </trkpt>
      <trkpt lat="43.72353" lon="3.33481">
        <ele>391.39999389648</ele>
        <time>2023-05-26T11:30:50.000Z</time>
      </trkpt>
      <trkpt lat="43.72352" lon="3.33479">
        <ele>391.20001220703</ele>
        <time>2023-05-26T11:30:51.000Z</time>
      </trkpt>
      <trkpt lat="43.7235" lon="3.33478">
        <ele>390.60000610352</ele>
        <time>2023-05-26T11:30:53.000Z</time>
      </trkpt>
      <trkpt lat="43.72346" lon="3.33473">
        <ele>389.60000610352</ele>
        <time>2023-05-26T11:30:59.000Z</time>
      </trkpt>
      <trkpt lat="43.72344" lon="3.33471">
        <ele>389.39999389648</ele>
        <time>2023-05-26T11:31:01.000Z</time>
      </trkpt>
      <trkpt lat="43.72342" lon="3.33468">
        <ele>388.60000610352</ele>
        <time>2023-05-26T11:31:05.000Z</time>
      </trkpt>
      <trkpt lat="43.72341" lon="3.33467">
        <ele>388.39999389648</ele>
        <time>2023-05-26T11:31:06.000Z</time>
      </trkpt>
      <trkpt lat="43.7234" lon="3.33466">
        <ele>388.20001220703</ele>
        <time>2023-05-26T11:31:08.000Z</time>
      </trkpt>
      <trkpt lat="43.72338" lon="3.33465">
        <ele>387.79998779297</ele>
        <time>2023-05-26T11:31:10.000Z</time>
      </trkpt>
      <trkpt lat="43.72337" lon="3.33464">
        <ele>387.60000610352</ele>
        <time>2023-05-26T11:31:11.000Z</time>
      </trkpt>
      <trkpt lat="43.72338" lon="3.33463">
        <ele>386.79998779297</ele>
        <time>2023-05-26T11:31:16.000Z</time>
      </trkpt>
      <trkpt lat="43.72336" lon="3.33463">
        <ele>386.60000610352</ele>
        <time>2023-05-26T11:31:25.000Z</time>
      </trkpt>
      <trkpt lat="43.72336" lon="3.33462">
        <ele>387</ele>
        <time>2023-05-26T11:31:37.000Z</time>
      </trkpt>
      <trkpt lat="43.72331" lon="3.33459">
        <ele>386.60000610352</ele>
        <time>2023-05-26T11:31:49.000Z</time>
      </trkpt>
      <trkpt lat="43.72329" lon="3.33459">
        <ele>386.39999389648</ele>
        <time>2023-05-26T11:31:51.000Z</time>
      </trkpt>
      <trkpt lat="43.72324" lon="3.33456">
        <ele>385.60000610352</ele>
        <time>2023-05-26T11:31:58.000Z</time>
      </trkpt>
      <trkpt lat="43.72322" lon="3.33455">
        <ele>385.39999389648</ele>
        <time>2023-05-26T11:32:01.000Z</time>
      </trkpt>
      <trkpt lat="43.72318" lon="3.33454">
        <ele>384.79998779297</ele>
        <time>2023-05-26T11:32:05.000Z</time>
      </trkpt>
      <trkpt lat="43.72314" lon="3.33452">
        <ele>384.20001220703</ele>
        <time>2023-05-26T11:32:09.000Z</time>
      </trkpt>
      <trkpt lat="43.7231" lon="3.33448">
        <ele>383.60000610352</ele>
        <time>2023-05-26T11:32:14.000Z</time>
      </trkpt>
      <trkpt lat="43.72304" lon="3.33445">
        <ele>383.20001220703</ele>
        <time>2023-05-26T11:32:20.000Z</time>
      </trkpt>
      <trkpt lat="43.72303" lon="3.33444">
        <ele>383</ele>
        <time>2023-05-26T11:32:21.000Z</time>
      </trkpt>
      <trkpt lat="43.72295" lon="3.3344">
        <ele>382.39999389648</ele>
        <time>2023-05-26T11:32:28.000Z</time>
      </trkpt>
      <trkpt lat="43.72294" lon="3.33439">
        <ele>382</ele>
        <time>2023-05-26T11:32:30.000Z</time>
      </trkpt>
      <trkpt lat="43.72284" lon="3.33435">
        <ele>381.60000610352</ele>
        <time>2023-05-26T11:32:39.000Z</time>
      </trkpt>
      <trkpt lat="43.72271" lon="3.33431">
        <ele>381.20001220703</ele>
        <time>2023-05-26T11:32:51.000Z</time>
      </trkpt>
      <trkpt lat="43.72261" lon="3.33426">
        <ele>381.20001220703</ele>
        <time>2023-05-26T11:33:01.000Z</time>
      </trkpt>
      <trkpt lat="43.72251" lon="3.33422">
        <ele>381.20001220703</ele>
        <time>2023-05-26T11:33:11.000Z</time>
      </trkpt>
      <trkpt lat="43.72242" lon="3.33418">
        <ele>381.39999389648</ele>
        <time>2023-05-26T11:33:20.000Z</time>
      </trkpt>
      <trkpt lat="43.72231" lon="3.33414">
        <ele>381.79998779297</ele>
        <time>2023-05-26T11:33:31.000Z</time>
      </trkpt>
      <trkpt lat="43.72223" lon="3.33411">
        <ele>382</ele>
        <time>2023-05-26T11:33:39.000Z</time>
      </trkpt>
      <trkpt lat="43.72214" lon="3.33409">
        <ele>381.79998779297</ele>
        <time>2023-05-26T11:33:47.000Z</time>
      </trkpt>
      <trkpt lat="43.72208" lon="3.33407">
        <ele>381.60000610352</ele>
        <time>2023-05-26T11:33:54.000Z</time>
      </trkpt>
      <trkpt lat="43.72204" lon="3.33405">
        <ele>381.39999389648</ele>
        <time>2023-05-26T11:33:58.000Z</time>
      </trkpt>
      <trkpt lat="43.72201" lon="3.33404">
        <ele>381.39999389648</ele>
        <time>2023-05-26T11:34:01.000Z</time>
      </trkpt>
      <trkpt lat="43.722" lon="3.33404">
        <ele>381.39999389648</ele>
        <time>2023-05-26T11:34:02.000Z</time>
      </trkpt>
      <trkpt lat="43.72193" lon="3.33402">
        <ele>381.39999389648</ele>
        <time>2023-05-26T11:34:09.000Z</time>
      </trkpt>
      <trkpt lat="43.7219" lon="3.33402">
        <ele>381.20001220703</ele>
        <time>2023-05-26T11:34:15.000Z</time>
      </trkpt>
      <trkpt lat="43.7219" lon="3.33402">
        <ele>381</ele>
        <time>2023-05-26T11:34:22.000Z</time>
      </trkpt>
      <trkpt lat="43.7219" lon="3.33401">
        <ele>381</ele>
        <time>2023-05-26T11:34:33.000Z</time>
      </trkpt>
      <trkpt lat="43.7219" lon="3.33401">
        <ele>381.39999389648</ele>
        <time>2023-05-26T11:34:42.000Z</time>
      </trkpt>
      <trkpt lat="43.72189" lon="3.33401">
        <ele>381</ele>
        <time>2023-05-26T11:34:53.000Z</time>
      </trkpt>
      <trkpt lat="43.72189" lon="3.334">
        <ele>381.20001220703</ele>
        <time>2023-05-26T11:35:01.000Z</time>
      </trkpt>
      <trkpt lat="43.72188" lon="3.334">
        <ele>381.39999389648</ele>
        <time>2023-05-26T11:35:13.000Z</time>
      </trkpt>
      <trkpt lat="43.72188" lon="3.334">
        <ele>381.20001220703</ele>
        <time>2023-05-26T11:35:23.000Z</time>
      </trkpt>
      <trkpt lat="43.72189" lon="3.334">
        <ele>381.39999389648</ele>
        <time>2023-05-26T11:35:31.000Z</time>
      </trkpt>
      <trkpt lat="43.72187" lon="3.334">
        <ele>381.60000610352</ele>
        <time>2023-05-26T11:35:39.000Z</time>
      </trkpt>
      <trkpt lat="43.7218" lon="3.33397">
        <ele>381</ele>
        <time>2023-05-26T11:35:46.000Z</time>
      </trkpt>
      <trkpt lat="43.7217" lon="3.33393">
        <ele>380.79998779297</ele>
        <time>2023-05-26T11:35:56.000Z</time>
      </trkpt>
      <trkpt lat="43.72165" lon="3.33391">
        <ele>381</ele>
        <time>2023-05-26T11:36:00.000Z</time>
      </trkpt>
      <trkpt lat="43.72162" lon="3.33389">
        <ele>380.79998779297</ele>
        <time>2023-05-26T11:36:03.000Z</time>
      </trkpt>
      <trkpt lat="43.7216" lon="3.33388">
        <ele>380.60000610352</ele>
        <time>2023-05-26T11:36:05.000Z</time>
      </trkpt>
      <trkpt lat="43.72153" lon="3.33384">
        <ele>380.60000610352</ele>
        <time>2023-05-26T11:36:12.000Z</time>
      </trkpt>
      <trkpt lat="43.72147" lon="3.3338">
        <ele>380.20001220703</ele>
        <time>2023-05-26T11:36:19.000Z</time>
      </trkpt>
      <trkpt lat="43.72145" lon="3.33377">
        <ele>380</ele>
        <time>2023-05-26T11:36:22.000Z</time>
      </trkpt>
      <trkpt lat="43.72142" lon="3.33373">
        <ele>379.60000610352</ele>
        <time>2023-05-26T11:36:26.000Z</time>
      </trkpt>
      <trkpt lat="43.72137" lon="3.33368">
        <ele>379.20001220703</ele>
        <time>2023-05-26T11:36:35.000Z</time>
      </trkpt>
      <trkpt lat="43.72137" lon="3.33368">
        <ele>379.20001220703</ele>
        <time>2023-05-26T11:36:43.000Z</time>
      </trkpt>
      <trkpt lat="43.72133" lon="3.33364">
        <ele>379.20001220703</ele>
        <time>2023-05-26T11:36:49.000Z</time>
      </trkpt>
      <trkpt lat="43.72131" lon="3.3336">
        <ele>378.79998779297</ele>
        <time>2023-05-26T11:36:52.000Z</time>
      </trkpt>
      <trkpt lat="43.72128" lon="3.33356">
        <ele>378.60000610352</ele>
        <time>2023-05-26T11:36:56.000Z</time>
      </trkpt>
      <trkpt lat="43.72121" lon="3.33348">
        <ele>378.60000610352</ele>
        <time>2023-05-26T11:37:04.000Z</time>
      </trkpt>
      <trkpt lat="43.72114" lon="3.33342">
        <ele>378</ele>
        <time>2023-05-26T11:37:11.000Z</time>
      </trkpt>
      <trkpt lat="43.72113" lon="3.33341">
        <ele>378</ele>
        <time>2023-05-26T11:37:12.000Z</time>
      </trkpt>
      <trkpt lat="43.72106" lon="3.33334">
        <ele>377.79998779297</ele>
        <time>2023-05-26T11:37:20.000Z</time>
      </trkpt>
      <trkpt lat="43.72104" lon="3.33333">
        <ele>377.79998779297</ele>
        <time>2023-05-26T11:37:21.000Z</time>
      </trkpt>
      <trkpt lat="43.72097" lon="3.33325">
        <ele>377.20001220703</ele>
        <time>2023-05-26T11:37:29.000Z</time>
      </trkpt>
      <trkpt lat="43.72095" lon="3.33324">
        <ele>376.79998779297</ele>
        <time>2023-05-26T11:37:31.000Z</time>
      </trkpt>
      <trkpt lat="43.72092" lon="3.33318">
        <ele>376.39999389648</ele>
        <time>2023-05-26T11:37:36.000Z</time>
      </trkpt>
      <trkpt lat="43.72087" lon="3.33307">
        <ele>375.79998779297</ele>
        <time>2023-05-26T11:37:45.000Z</time>
      </trkpt>
      <trkpt lat="43.72087" lon="3.33306">
        <ele>375.60000610352</ele>
        <time>2023-05-26T11:37:46.000Z</time>
      </trkpt>
      <trkpt lat="43.72083" lon="3.33297">
        <ele>374.60000610352</ele>
        <time>2023-05-26T11:37:53.000Z</time>
      </trkpt>
      <trkpt lat="43.72082" lon="3.33296">
        <ele>374.60000610352</ele>
        <time>2023-05-26T11:37:54.000Z</time>
      </trkpt>
      <trkpt lat="43.72076" lon="3.33285">
        <ele>373.60000610352</ele>
        <time>2023-05-26T11:38:03.000Z</time>
      </trkpt>
      <trkpt lat="43.7207" lon="3.33274">
        <ele>373.20001220703</ele>
        <time>2023-05-26T11:38:12.000Z</time>
      </trkpt>
      <trkpt lat="43.72063" lon="3.33267">
        <ele>372.79998779297</ele>
        <time>2023-05-26T11:38:20.000Z</time>
      </trkpt>
      <trkpt lat="43.72053" lon="3.33257">
        <ele>372.79998779297</ele>
        <time>2023-05-26T11:38:31.000Z</time>
      </trkpt>
      <trkpt lat="43.7205" lon="3.33254">
        <ele>372.60000610352</ele>
        <time>2023-05-26T11:38:35.000Z</time>
      </trkpt>
      <trkpt lat="43.72047" lon="3.33248">
        <ele>372.39999389648</ele>
        <time>2023-05-26T11:38:40.000Z</time>
      </trkpt>
      <trkpt lat="43.72039" lon="3.33237">
        <ele>371.79998779297</ele>
        <time>2023-05-26T11:38:50.000Z</time>
      </trkpt>
      <trkpt lat="43.72031" lon="3.33228">
        <ele>372</ele>
        <time>2023-05-26T11:39:00.000Z</time>
      </trkpt>
      <trkpt lat="43.72027" lon="3.33219">
        <ele>371.60000610352</ele>
        <time>2023-05-26T11:39:08.000Z</time>
      </trkpt>
      <trkpt lat="43.72027" lon="3.33218">
        <ele>371.60000610352</ele>
        <time>2023-05-26T11:39:09.000Z</time>
      </trkpt>
      <trkpt lat="43.72027" lon="3.33218">
        <ele>371.39999389648</ele>
        <time>2023-05-26T11:39:15.000Z</time>
      </trkpt>
      <trkpt lat="43.72028" lon="3.33218">
        <ele>371.60000610352</ele>
        <time>2023-05-26T11:39:21.000Z</time>
      </trkpt>
      <trkpt lat="43.72027" lon="3.33216">
        <ele>371.60000610352</ele>
        <time>2023-05-26T11:39:28.000Z</time>
      </trkpt>
      <trkpt lat="43.72027" lon="3.33216">
        <ele>371.60000610352</ele>
        <time>2023-05-26T11:39:37.000Z</time>
      </trkpt>
      <trkpt lat="43.72027" lon="3.33216">
        <ele>371.60000610352</ele>
        <time>2023-05-26T11:39:46.000Z</time>
      </trkpt>
      <trkpt lat="43.72027" lon="3.33215">
        <ele>371.39999389648</ele>
        <time>2023-05-26T11:39:57.000Z</time>
      </trkpt>
      <trkpt lat="43.72027" lon="3.33216">
        <ele>371.20001220703</ele>
        <time>2023-05-26T11:40:11.000Z</time>
      </trkpt>
      <trkpt lat="43.72027" lon="3.33215">
        <ele>371.60000610352</ele>
        <time>2023-05-26T11:40:20.000Z</time>
      </trkpt>
      <trkpt lat="43.72027" lon="3.33215">
        <ele>371.39999389648</ele>
        <time>2023-05-26T11:40:33.000Z</time>
      </trkpt>
      <trkpt lat="43.72027" lon="3.33214">
        <ele>371.39999389648</ele>
        <time>2023-05-26T11:40:48.000Z</time>
      </trkpt>
      <trkpt lat="43.72027" lon="3.33214">
        <ele>371.39999389648</ele>
        <time>2023-05-26T11:40:55.000Z</time>
      </trkpt>
      <trkpt lat="43.72029" lon="3.33213">
        <ele>371.20001220703</ele>
        <time>2023-05-26T11:41:04.000Z</time>
      </trkpt>
      <trkpt lat="43.72033" lon="3.33207">
        <ele>371.39999389648</ele>
        <time>2023-05-26T11:41:11.000Z</time>
      </trkpt>
      <trkpt lat="43.72033" lon="3.33207">
        <ele>371.20001220703</ele>
        <time>2023-05-26T11:41:17.000Z</time>
      </trkpt>
      <trkpt lat="43.72029" lon="3.33212">
        <ele>370.60000610352</ele>
        <time>2023-05-26T11:41:22.000Z</time>
      </trkpt>
      <trkpt lat="43.72027" lon="3.33213">
        <ele>370.60000610352</ele>
        <time>2023-05-26T11:41:25.000Z</time>
      </trkpt>
      <trkpt lat="43.72028" lon="3.33213">
        <ele>371.20001220703</ele>
        <time>2023-05-26T11:41:33.000Z</time>
      </trkpt>
      <trkpt lat="43.72027" lon="3.33214">
        <ele>371.20001220703</ele>
        <time>2023-05-26T11:41:46.000Z</time>
      </trkpt>
      <trkpt lat="43.72031" lon="3.3321">
        <ele>371.20001220703</ele>
        <time>2023-05-26T11:41:55.000Z</time>
      </trkpt>
      <trkpt lat="43.72042" lon="3.33195">
        <ele>370.79998779297</ele>
        <time>2023-05-26T11:42:06.000Z</time>
      </trkpt>
      <trkpt lat="43.72054" lon="3.3318">
        <ele>370</ele>
        <time>2023-05-26T11:42:18.000Z</time>
      </trkpt>
      <trkpt lat="43.7206" lon="3.33168">
        <ele>369.60000610352</ele>
        <time>2023-05-26T11:42:26.000Z</time>
      </trkpt>
      <trkpt lat="43.72062" lon="3.33165">
        <ele>369.39999389648</ele>
        <time>2023-05-26T11:42:29.000Z</time>
      </trkpt>
      <trkpt lat="43.72062" lon="3.33159">
        <ele>368.79998779297</ele>
        <time>2023-05-26T11:42:36.000Z</time>
      </trkpt>
      <trkpt lat="43.72061" lon="3.33153">
        <ele>368.60000610352</ele>
        <time>2023-05-26T11:42:43.000Z</time>
      </trkpt>
      <trkpt lat="43.72061" lon="3.33152">
        <ele>368.39999389648</ele>
        <time>2023-05-26T11:42:44.000Z</time>
      </trkpt>
      <trkpt lat="43.7206" lon="3.33145">
        <ele>367.39999389648</ele>
        <time>2023-05-26T11:42:49.000Z</time>
      </trkpt>
      <trkpt lat="43.7206" lon="3.33144">
        <ele>367.20001220703</ele>
        <time>2023-05-26T11:42:50.000Z</time>
      </trkpt>
      <trkpt lat="43.72059" lon="3.33134">
        <ele>366.60000610352</ele>
        <time>2023-05-26T11:42:58.000Z</time>
      </trkpt>
      <trkpt lat="43.72059" lon="3.33132">
        <ele>366.79998779297</ele>
        <time>2023-05-26T11:43:06.000Z</time>
      </trkpt>
      <trkpt lat="43.72059" lon="3.33132">
        <ele>366.20001220703</ele>
        <time>2023-05-26T11:43:13.000Z</time>
      </trkpt>
      <trkpt lat="43.72059" lon="3.33133">
        <ele>365.60000610352</ele>
        <time>2023-05-26T11:43:18.000Z</time>
      </trkpt>
      <trkpt lat="43.72059" lon="3.3313">
        <ele>366.20001220703</ele>
        <time>2023-05-26T11:43:29.000Z</time>
      </trkpt>
      <trkpt lat="43.72061" lon="3.3312">
        <ele>366</ele>
        <time>2023-05-26T11:43:36.000Z</time>
      </trkpt>
      <trkpt lat="43.72064" lon="3.33114">
        <ele>365.20001220703</ele>
        <time>2023-05-26T11:43:41.000Z</time>
      </trkpt>
      <trkpt lat="43.72065" lon="3.3311">
        <ele>364.60000610352</ele>
        <time>2023-05-26T11:43:44.000Z</time>
      </trkpt>
      <trkpt lat="43.72067" lon="3.33106">
        <ele>364</ele>
        <time>2023-05-26T11:43:47.000Z</time>
      </trkpt>
      <trkpt lat="43.7207" lon="3.33099">
        <ele>363.39999389648</ele>
        <time>2023-05-26T11:43:53.000Z</time>
      </trkpt>
      <trkpt lat="43.72072" lon="3.33093">
        <ele>363</ele>
        <time>2023-05-26T11:43:58.000Z</time>
      </trkpt>
      <trkpt lat="43.72073" lon="3.33092">
        <ele>362.79998779297</ele>
        <time>2023-05-26T11:44:00.000Z</time>
      </trkpt>
      <trkpt lat="43.72072" lon="3.33092">
        <ele>362.20001220703</ele>
        <time>2023-05-26T11:44:10.000Z</time>
      </trkpt>
      <trkpt lat="43.72072" lon="3.33092">
        <ele>362</ele>
        <time>2023-05-26T11:44:19.000Z</time>
      </trkpt>
      <trkpt lat="43.72073" lon="3.33091">
        <ele>362</ele>
        <time>2023-05-26T11:44:23.000Z</time>
      </trkpt>
      <trkpt lat="43.72074" lon="3.33087">
        <ele>362</ele>
        <time>2023-05-26T11:44:28.000Z</time>
      </trkpt>
      <trkpt lat="43.72077" lon="3.33083">
        <ele>361.20001220703</ele>
        <time>2023-05-26T11:44:35.000Z</time>
      </trkpt>
      <trkpt lat="43.72077" lon="3.33083">
        <ele>361</ele>
        <time>2023-05-26T11:44:36.000Z</time>
      </trkpt>
      <trkpt lat="43.72079" lon="3.33081">
        <ele>360</ele>
        <time>2023-05-26T11:44:42.000Z</time>
      </trkpt>
      <trkpt lat="43.7208" lon="3.3308">
        <ele>359.39999389648</ele>
        <time>2023-05-26T11:44:46.000Z</time>
      </trkpt>
      <trkpt lat="43.72081" lon="3.33078">
        <ele>358.79998779297</ele>
        <time>2023-05-26T11:44:50.000Z</time>
      </trkpt>
      <trkpt lat="43.72081" lon="3.33077">
        <ele>358.39999389648</ele>
        <time>2023-05-26T11:44:52.000Z</time>
      </trkpt>
      <trkpt lat="43.72083" lon="3.33077">
        <ele>357.79998779297</ele>
        <time>2023-05-26T11:44:55.000Z</time>
      </trkpt>
      <trkpt lat="43.72084" lon="3.33074">
        <ele>357.20001220703</ele>
        <time>2023-05-26T11:45:00.000Z</time>
      </trkpt>
      <trkpt lat="43.72084" lon="3.33071">
        <ele>356.79998779297</ele>
        <time>2023-05-26T11:45:04.000Z</time>
      </trkpt>
      <trkpt lat="43.72086" lon="3.33071">
        <ele>356.39999389648</ele>
        <time>2023-05-26T11:45:09.000Z</time>
      </trkpt>
      <trkpt lat="43.72084" lon="3.33073">
        <ele>355.79998779297</ele>
        <time>2023-05-26T11:45:17.000Z</time>
      </trkpt>
      <trkpt lat="43.72085" lon="3.33074">
        <ele>355.60000610352</ele>
        <time>2023-05-26T11:45:18.000Z</time>
      </trkpt>
      <trkpt lat="43.72086" lon="3.33068">
        <ele>356.20001220703</ele>
        <time>2023-05-26T11:45:31.000Z</time>
      </trkpt>
      <trkpt lat="43.72086" lon="3.33066">
        <ele>356.79998779297</ele>
        <time>2023-05-26T11:45:37.000Z</time>
      </trkpt>
      <trkpt lat="43.72086" lon="3.33066">
        <ele>356.79998779297</ele>
        <time>2023-05-26T11:45:41.000Z</time>
      </trkpt>
      <trkpt lat="43.72086" lon="3.33065">
        <ele>355.79998779297</ele>
        <time>2023-05-26T11:45:47.000Z</time>
      </trkpt>
      <trkpt lat="43.72087" lon="3.33065">
        <ele>355.79998779297</ele>
        <time>2023-05-26T11:45:54.000Z</time>
      </trkpt>
      <trkpt lat="43.72088" lon="3.33065">
        <ele>355.60000610352</ele>
        <time>2023-05-26T11:46:09.000Z</time>
      </trkpt>
      <trkpt lat="43.72088" lon="3.33065">
        <ele>356</ele>
        <time>2023-05-26T11:46:16.000Z</time>
      </trkpt>
      <trkpt lat="43.72088" lon="3.33065">
        <ele>356.20001220703</ele>
        <time>2023-05-26T11:46:22.000Z</time>
      </trkpt>
      <trkpt lat="43.7209" lon="3.33061">
        <ele>355.20001220703</ele>
        <time>2023-05-26T11:46:31.000Z</time>
      </trkpt>
      <trkpt lat="43.72091" lon="3.33059">
        <ele>354.79998779297</ele>
        <time>2023-05-26T11:46:35.000Z</time>
      </trkpt>
      <trkpt lat="43.72092" lon="3.33057">
        <ele>354.20001220703</ele>
        <time>2023-05-26T11:46:40.000Z</time>
      </trkpt>
      <trkpt lat="43.72093" lon="3.33055">
        <ele>353.60000610352</ele>
        <time>2023-05-26T11:46:44.000Z</time>
      </trkpt>
      <trkpt lat="43.72093" lon="3.33053">
        <ele>353.39999389648</ele>
        <time>2023-05-26T11:46:47.000Z</time>
      </trkpt>
      <trkpt lat="43.72094" lon="3.3305">
        <ele>352.60000610352</ele>
        <time>2023-05-26T11:46:52.000Z</time>
      </trkpt>
      <trkpt lat="43.72094" lon="3.33049">
        <ele>352.39999389648</ele>
        <time>2023-05-26T11:46:54.000Z</time>
      </trkpt>
      <trkpt lat="43.72095" lon="3.33046">
        <ele>351.60000610352</ele>
        <time>2023-05-26T11:46:59.000Z</time>
      </trkpt>
      <trkpt lat="43.72096" lon="3.33046">
        <ele>351.39999389648</ele>
        <time>2023-05-26T11:47:01.000Z</time>
      </trkpt>
      <trkpt lat="43.72098" lon="3.33042">
        <ele>350.39999389648</ele>
        <time>2023-05-26T11:47:07.000Z</time>
      </trkpt>
      <trkpt lat="43.72099" lon="3.3304">
        <ele>350</ele>
        <time>2023-05-26T11:47:10.000Z</time>
      </trkpt>
      <trkpt lat="43.72101" lon="3.33037">
        <ele>349.20001220703</ele>
        <time>2023-05-26T11:47:15.000Z</time>
      </trkpt>
      <trkpt lat="43.72102" lon="3.33036">
        <ele>348.79998779297</ele>
        <time>2023-05-26T11:47:18.000Z</time>
      </trkpt>
      <trkpt lat="43.72104" lon="3.33033">
        <ele>348.20001220703</ele>
        <time>2023-05-26T11:47:25.000Z</time>
      </trkpt>
      <trkpt lat="43.72104" lon="3.33032">
        <ele>348.20001220703</ele>
        <time>2023-05-26T11:47:26.000Z</time>
      </trkpt>
      <trkpt lat="43.72107" lon="3.33029">
        <ele>347.39999389648</ele>
        <time>2023-05-26T11:47:33.000Z</time>
      </trkpt>
      <trkpt lat="43.72108" lon="3.33029">
        <ele>347.20001220703</ele>
        <time>2023-05-26T11:47:35.000Z</time>
      </trkpt>
      <trkpt lat="43.7211" lon="3.33028">
        <ele>346.79998779297</ele>
        <time>2023-05-26T11:47:40.000Z</time>
      </trkpt>
      <trkpt lat="43.72112" lon="3.33027">
        <ele>346.20001220703</ele>
        <time>2023-05-26T11:47:44.000Z</time>
      </trkpt>
      <trkpt lat="43.72115" lon="3.33027">
        <ele>345.39999389648</ele>
        <time>2023-05-26T11:47:50.000Z</time>
      </trkpt>
      <trkpt lat="43.72116" lon="3.33027">
        <ele>345.20001220703</ele>
        <time>2023-05-26T11:47:53.000Z</time>
      </trkpt>
      <trkpt lat="43.72119" lon="3.33026">
        <ele>344.79998779297</ele>
        <time>2023-05-26T11:47:58.000Z</time>
      </trkpt>
      <trkpt lat="43.7212" lon="3.33026">
        <ele>344</ele>
        <time>2023-05-26T11:48:03.000Z</time>
      </trkpt>
      <trkpt lat="43.72121" lon="3.33026">
        <ele>343.79998779297</ele>
        <time>2023-05-26T11:48:05.000Z</time>
      </trkpt>
      <trkpt lat="43.72124" lon="3.33026">
        <ele>343.79998779297</ele>
        <time>2023-05-26T11:48:10.000Z</time>
      </trkpt>
      <trkpt lat="43.72128" lon="3.33029">
        <ele>343</ele>
        <time>2023-05-26T11:48:18.000Z</time>
      </trkpt>
      <trkpt lat="43.72131" lon="3.3303">
        <ele>342</ele>
        <time>2023-05-26T11:48:25.000Z</time>
      </trkpt>
      <trkpt lat="43.72133" lon="3.3303">
        <ele>341.60000610352</ele>
        <time>2023-05-26T11:48:27.000Z</time>
      </trkpt>
      <trkpt lat="43.72136" lon="3.33031">
        <ele>341</ele>
        <time>2023-05-26T11:48:33.000Z</time>
      </trkpt>
      <trkpt lat="43.72137" lon="3.33032">
        <ele>340.60000610352</ele>
        <time>2023-05-26T11:48:35.000Z</time>
      </trkpt>
      <trkpt lat="43.72139" lon="3.33033">
        <ele>339.79998779297</ele>
        <time>2023-05-26T11:48:40.000Z</time>
      </trkpt>
      <trkpt lat="43.72142" lon="3.33032">
        <ele>339.60000610352</ele>
        <time>2023-05-26T11:48:44.000Z</time>
      </trkpt>
      <trkpt lat="43.72145" lon="3.33034">
        <ele>339.39999389648</ele>
        <time>2023-05-26T11:48:50.000Z</time>
      </trkpt>
      <trkpt lat="43.72148" lon="3.33035">
        <ele>338.79998779297</ele>
        <time>2023-05-26T11:48:54.000Z</time>
      </trkpt>
      <trkpt lat="43.7215" lon="3.33037">
        <ele>337.79998779297</ele>
        <time>2023-05-26T11:48:59.000Z</time>
      </trkpt>
      <trkpt lat="43.72151" lon="3.33037">
        <ele>337.79998779297</ele>
        <time>2023-05-26T11:49:00.000Z</time>
      </trkpt>
      <trkpt lat="43.72153" lon="3.33038">
        <ele>337.39999389648</ele>
        <time>2023-05-26T11:49:05.000Z</time>
      </trkpt>
      <trkpt lat="43.72157" lon="3.33039">
        <ele>336.60000610352</ele>
        <time>2023-05-26T11:49:11.000Z</time>
      </trkpt>
      <trkpt lat="43.72158" lon="3.33039">
        <ele>336.39999389648</ele>
        <time>2023-05-26T11:49:13.000Z</time>
      </trkpt>
      <trkpt lat="43.72162" lon="3.3304">
        <ele>335.39999389648</ele>
        <time>2023-05-26T11:49:18.000Z</time>
      </trkpt>
      <trkpt lat="43.72162" lon="3.3304">
        <ele>335.39999389648</ele>
        <time>2023-05-26T11:49:19.000Z</time>
      </trkpt>
      <trkpt lat="43.72166" lon="3.33041">
        <ele>334.60000610352</ele>
        <time>2023-05-26T11:49:26.000Z</time>
      </trkpt>
      <trkpt lat="43.72165" lon="3.33038">
        <ele>334.39999389648</ele>
        <time>2023-05-26T11:49:28.000Z</time>
      </trkpt>
      <trkpt lat="43.72166" lon="3.33038">
        <ele>333.60000610352</ele>
        <time>2023-05-26T11:49:32.000Z</time>
      </trkpt>
      <trkpt lat="43.72168" lon="3.33037">
        <ele>333.39999389648</ele>
        <time>2023-05-26T11:49:35.000Z</time>
      </trkpt>
      <trkpt lat="43.72169" lon="3.33036">
        <ele>332.79998779297</ele>
        <time>2023-05-26T11:49:41.000Z</time>
      </trkpt>
      <trkpt lat="43.72173" lon="3.33037">
        <ele>332.39999389648</ele>
        <time>2023-05-26T11:49:46.000Z</time>
      </trkpt>
      <trkpt lat="43.72172" lon="3.33037">
        <ele>332</ele>
        <time>2023-05-26T11:49:49.000Z</time>
      </trkpt>
      <trkpt lat="43.72176" lon="3.33039">
        <ele>331.39999389648</ele>
        <time>2023-05-26T11:49:55.000Z</time>
      </trkpt>
      <trkpt lat="43.72177" lon="3.33039">
        <ele>331.20001220703</ele>
        <time>2023-05-26T11:49:56.000Z</time>
      </trkpt>
      <trkpt lat="43.72181" lon="3.33041">
        <ele>330.60000610352</ele>
        <time>2023-05-26T11:50:03.000Z</time>
      </trkpt>
      <trkpt lat="43.72182" lon="3.33042">
        <ele>330.20001220703</ele>
        <time>2023-05-26T11:50:06.000Z</time>
      </trkpt>
      <trkpt lat="43.72184" lon="3.33043">
        <ele>329.79998779297</ele>
        <time>2023-05-26T11:50:09.000Z</time>
      </trkpt>
      <trkpt lat="43.72187" lon="3.33045">
        <ele>329.20001220703</ele>
        <time>2023-05-26T11:50:15.000Z</time>
      </trkpt>
      <trkpt lat="43.72188" lon="3.33045">
        <ele>329</ele>
        <time>2023-05-26T11:50:16.000Z</time>
      </trkpt>
      <trkpt lat="43.72191" lon="3.33047">
        <ele>328.39999389648</ele>
        <time>2023-05-26T11:50:23.000Z</time>
      </trkpt>
      <trkpt lat="43.72193" lon="3.33047">
        <ele>328.20001220703</ele>
        <time>2023-05-26T11:50:25.000Z</time>
      </trkpt>
      <trkpt lat="43.72193" lon="3.33049">
        <ele>327.60000610352</ele>
        <time>2023-05-26T11:50:29.000Z</time>
      </trkpt>
      <trkpt lat="43.72198" lon="3.33051">
        <ele>327.39999389648</ele>
        <time>2023-05-26T11:50:38.000Z</time>
      </trkpt>
      <trkpt lat="43.72198" lon="3.33053">
        <ele>327.20001220703</ele>
        <time>2023-05-26T11:50:40.000Z</time>
      </trkpt>
      <trkpt lat="43.72202" lon="3.33054">
        <ele>326.79998779297</ele>
        <time>2023-05-26T11:50:46.000Z</time>
      </trkpt>
      <trkpt lat="43.72207" lon="3.3306">
        <ele>326.20001220703</ele>
        <time>2023-05-26T11:50:56.000Z</time>
      </trkpt>
      <trkpt lat="43.72212" lon="3.33065">
        <ele>325</ele>
        <time>2023-05-26T11:51:05.000Z</time>
      </trkpt>
      <trkpt lat="43.72216" lon="3.33066">
        <ele>324</ele>
        <time>2023-05-26T11:51:13.000Z</time>
      </trkpt>
      <trkpt lat="43.72216" lon="3.33066">
        <ele>323.79998779297</ele>
        <time>2023-05-26T11:51:14.000Z</time>
      </trkpt>
      <trkpt lat="43.72219" lon="3.33067">
        <ele>323.20001220703</ele>
        <time>2023-05-26T11:51:21.000Z</time>
      </trkpt>
      <trkpt lat="43.72221" lon="3.33066">
        <ele>322.79998779297</ele>
        <time>2023-05-26T11:51:24.000Z</time>
      </trkpt>
      <trkpt lat="43.72222" lon="3.33068">
        <ele>322.39999389648</ele>
        <time>2023-05-26T11:51:28.000Z</time>
      </trkpt>
      <trkpt lat="43.72224" lon="3.3307">
        <ele>321.79998779297</ele>
        <time>2023-05-26T11:51:32.000Z</time>
      </trkpt>
      <trkpt lat="43.72225" lon="3.3307">
        <ele>321.39999389648</ele>
        <time>2023-05-26T11:51:35.000Z</time>
      </trkpt>
      <trkpt lat="43.72227" lon="3.33072">
        <ele>320.79998779297</ele>
        <time>2023-05-26T11:51:41.000Z</time>
      </trkpt>
      <trkpt lat="43.72227" lon="3.33073">
        <ele>320.60000610352</ele>
        <time>2023-05-26T11:51:44.000Z</time>
      </trkpt>
      <trkpt lat="43.72229" lon="3.33071">
        <ele>320</ele>
        <time>2023-05-26T11:51:50.000Z</time>
      </trkpt>
      <trkpt lat="43.7223" lon="3.3307">
        <ele>319.79998779297</ele>
        <time>2023-05-26T11:51:53.000Z</time>
      </trkpt>
      <trkpt lat="43.7223" lon="3.33068">
        <ele>319.39999389648</ele>
        <time>2023-05-26T11:51:56.000Z</time>
      </trkpt>
      <trkpt lat="43.7223" lon="3.33065">
        <ele>318.79998779297</ele>
        <time>2023-05-26T11:52:03.000Z</time>
      </trkpt>
      <trkpt lat="43.7223" lon="3.33065">
        <ele>318.79998779297</ele>
        <time>2023-05-26T11:52:04.000Z</time>
      </trkpt>
      <trkpt lat="43.72229" lon="3.33061">
        <ele>318</ele>
        <time>2023-05-26T11:52:11.000Z</time>
      </trkpt>
      <trkpt lat="43.72228" lon="3.3306">
        <ele>317.60000610352</ele>
        <time>2023-05-26T11:52:13.000Z</time>
      </trkpt>
      <trkpt lat="43.72227" lon="3.33058">
        <ele>317</ele>
        <time>2023-05-26T11:52:19.000Z</time>
      </trkpt>
      <trkpt lat="43.72226" lon="3.33056">
        <ele>316.60000610352</ele>
        <time>2023-05-26T11:52:23.000Z</time>
      </trkpt>
      <trkpt lat="43.72226" lon="3.33053">
        <ele>316.20001220703</ele>
        <time>2023-05-26T11:52:27.000Z</time>
      </trkpt>
      <trkpt lat="43.72225" lon="3.33051">
        <ele>315.79998779297</ele>
        <time>2023-05-26T11:52:33.000Z</time>
      </trkpt>
      <trkpt lat="43.72226" lon="3.33051">
        <ele>315.60000610352</ele>
        <time>2023-05-26T11:52:34.000Z</time>
      </trkpt>
      <trkpt lat="43.72226" lon="3.3305">
        <ele>315.20001220703</ele>
        <time>2023-05-26T11:52:40.000Z</time>
      </trkpt>
      <trkpt lat="43.72228" lon="3.33048">
        <ele>315</ele>
        <time>2023-05-26T11:52:50.000Z</time>
      </trkpt>
      <trkpt lat="43.72228" lon="3.33052">
        <ele>314.60000610352</ele>
        <time>2023-05-26T11:52:53.000Z</time>
      </trkpt>
      <trkpt lat="43.72231" lon="3.33047">
        <ele>314.20001220703</ele>
        <time>2023-05-26T11:52:58.000Z</time>
      </trkpt>
      <trkpt lat="43.72231" lon="3.33047">
        <ele>314</ele>
        <time>2023-05-26T11:53:04.000Z</time>
      </trkpt>
      <trkpt lat="43.72233" lon="3.33048">
        <ele>314.20001220703</ele>
        <time>2023-05-26T11:53:15.000Z</time>
      </trkpt>
      <trkpt lat="43.72232" lon="3.33047">
        <ele>314.20001220703</ele>
        <time>2023-05-26T11:53:24.000Z</time>
      </trkpt>
      <trkpt lat="43.72232" lon="3.33046">
        <ele>314.20001220703</ele>
        <time>2023-05-26T11:53:36.000Z</time>
      </trkpt>
      <trkpt lat="43.72233" lon="3.33046">
        <ele>314.20001220703</ele>
        <time>2023-05-26T11:53:45.000Z</time>
      </trkpt>
      <trkpt lat="43.72233" lon="3.33045">
        <ele>314.60000610352</ele>
        <time>2023-05-26T11:53:56.000Z</time>
      </trkpt>
      <trkpt lat="43.72236" lon="3.33045">
        <ele>314.20001220703</ele>
        <time>2023-05-26T11:54:04.000Z</time>
      </trkpt>
      <trkpt lat="43.7224" lon="3.33047">
        <ele>313.60000610352</ele>
        <time>2023-05-26T11:54:10.000Z</time>
      </trkpt>
      <trkpt lat="43.72242" lon="3.33048">
        <ele>313</ele>
        <time>2023-05-26T11:54:13.000Z</time>
      </trkpt>
      <trkpt lat="43.72244" lon="3.33049">
        <ele>312.39999389648</ele>
        <time>2023-05-26T11:54:17.000Z</time>
      </trkpt>
      <trkpt lat="43.72245" lon="3.33051">
        <ele>312</ele>
        <time>2023-05-26T11:54:20.000Z</time>
      </trkpt>
      <trkpt lat="43.72247" lon="3.33053">
        <ele>311.39999389648</ele>
        <time>2023-05-26T11:54:27.000Z</time>
      </trkpt>
      <trkpt lat="43.72248" lon="3.33053">
        <ele>311.39999389648</ele>
        <time>2023-05-26T11:54:28.000Z</time>
      </trkpt>
      <trkpt lat="43.72252" lon="3.33056">
        <ele>310.60000610352</ele>
        <time>2023-05-26T11:54:34.000Z</time>
      </trkpt>
      <trkpt lat="43.72253" lon="3.33057">
        <ele>310.39999389648</ele>
        <time>2023-05-26T11:54:36.000Z</time>
      </trkpt>
      <trkpt lat="43.72256" lon="3.33059">
        <ele>309.79998779297</ele>
        <time>2023-05-26T11:54:42.000Z</time>
      </trkpt>
      <trkpt lat="43.72257" lon="3.33061">
        <ele>309.39999389648</ele>
        <time>2023-05-26T11:54:47.000Z</time>
      </trkpt>
      <trkpt lat="43.72258" lon="3.33062">
        <ele>309</ele>
        <time>2023-05-26T11:54:49.000Z</time>
      </trkpt>
      <trkpt lat="43.72261" lon="3.33065">
        <ele>308.20001220703</ele>
        <time>2023-05-26T11:54:55.000Z</time>
      </trkpt>
      <trkpt lat="43.72262" lon="3.33066">
        <ele>307.60000610352</ele>
        <time>2023-05-26T11:54:59.000Z</time>
      </trkpt>
      <trkpt lat="43.72264" lon="3.33068">
        <ele>307.20001220703</ele>
        <time>2023-05-26T11:55:03.000Z</time>
      </trkpt>
      <trkpt lat="43.72265" lon="3.33069">
        <ele>306.79998779297</ele>
        <time>2023-05-26T11:55:05.000Z</time>
      </trkpt>
      <trkpt lat="43.72265" lon="3.33069">
        <ele>306.20001220703</ele>
        <time>2023-05-26T11:55:10.000Z</time>
      </trkpt>
      <trkpt lat="43.72266" lon="3.33069">
        <ele>306</ele>
        <time>2023-05-26T11:55:11.000Z</time>
      </trkpt>
      <trkpt lat="43.72271" lon="3.33072">
        <ele>305.20001220703</ele>
        <time>2023-05-26T11:55:18.000Z</time>
      </trkpt>
      <trkpt lat="43.72272" lon="3.33072">
        <ele>305.20001220703</ele>
        <time>2023-05-26T11:55:19.000Z</time>
      </trkpt>
      <trkpt lat="43.72275" lon="3.33074">
        <ele>304.20001220703</ele>
        <time>2023-05-26T11:55:25.000Z</time>
      </trkpt>
      <trkpt lat="43.72275" lon="3.33074">
        <ele>304</ele>
        <time>2023-05-26T11:55:26.000Z</time>
      </trkpt>
      <trkpt lat="43.72277" lon="3.33075">
        <ele>303.39999389648</ele>
        <time>2023-05-26T11:55:33.000Z</time>
      </trkpt>
      <trkpt lat="43.72279" lon="3.33079">
        <ele>303</ele>
        <time>2023-05-26T11:55:41.000Z</time>
      </trkpt>
      <trkpt lat="43.72284" lon="3.33084">
        <ele>302</ele>
        <time>2023-05-26T11:55:50.000Z</time>
      </trkpt>
      <trkpt lat="43.72287" lon="3.33087">
        <ele>301.60000610352</ele>
        <time>2023-05-26T11:55:58.000Z</time>
      </trkpt>
      <trkpt lat="43.7229" lon="3.33088">
        <ele>301</ele>
        <time>2023-05-26T11:56:03.000Z</time>
      </trkpt>
      <trkpt lat="43.72293" lon="3.33089">
        <ele>300.60000610352</ele>
        <time>2023-05-26T11:56:07.000Z</time>
      </trkpt>
      <trkpt lat="43.72297" lon="3.33092">
        <ele>300.20001220703</ele>
        <time>2023-05-26T11:56:14.000Z</time>
      </trkpt>
      <trkpt lat="43.72298" lon="3.33094">
        <ele>299.79998779297</ele>
        <time>2023-05-26T11:56:17.000Z</time>
      </trkpt>
      <trkpt lat="43.72299" lon="3.33096">
        <ele>299.60000610352</ele>
        <time>2023-05-26T11:56:21.000Z</time>
      </trkpt>
      <trkpt lat="43.723" lon="3.33099">
        <ele>299.20001220703</ele>
        <time>2023-05-26T11:56:28.000Z</time>
      </trkpt>
      <trkpt lat="43.72303" lon="3.33102">
        <ele>298.79998779297</ele>
        <time>2023-05-26T11:56:34.000Z</time>
      </trkpt>
      <trkpt lat="43.72305" lon="3.33103">
        <ele>298.60000610352</ele>
        <time>2023-05-26T11:56:36.000Z</time>
      </trkpt>
      <trkpt lat="43.72308" lon="3.33105">
        <ele>297.79998779297</ele>
        <time>2023-05-26T11:56:43.000Z</time>
      </trkpt>
      <trkpt lat="43.72311" lon="3.33107">
        <ele>297.20001220703</ele>
        <time>2023-05-26T11:56:47.000Z</time>
      </trkpt>
      <trkpt lat="43.72313" lon="3.33106">
        <ele>296.79998779297</ele>
        <time>2023-05-26T11:56:52.000Z</time>
      </trkpt>
      <trkpt lat="43.72315" lon="3.33106">
        <ele>296.39999389648</ele>
        <time>2023-05-26T11:56:55.000Z</time>
      </trkpt>
      <trkpt lat="43.72318" lon="3.33106">
        <ele>295.79998779297</ele>
        <time>2023-05-26T11:57:00.000Z</time>
      </trkpt>
      <trkpt lat="43.72319" lon="3.33105">
        <ele>295.60000610352</ele>
        <time>2023-05-26T11:57:02.000Z</time>
      </trkpt>
      <trkpt lat="43.72322" lon="3.33106">
        <ele>294.79998779297</ele>
        <time>2023-05-26T11:57:09.000Z</time>
      </trkpt>
      <trkpt lat="43.72322" lon="3.33105">
        <ele>294.60000610352</ele>
        <time>2023-05-26T11:57:11.000Z</time>
      </trkpt>
      <trkpt lat="43.72323" lon="3.33104">
        <ele>294.20001220703</ele>
        <time>2023-05-26T11:57:16.000Z</time>
      </trkpt>
      <trkpt lat="43.72323" lon="3.33105">
        <ele>293.79998779297</ele>
        <time>2023-05-26T11:57:27.000Z</time>
      </trkpt>
      <trkpt lat="43.72323" lon="3.33107">
        <ele>294.60000610352</ele>
        <time>2023-05-26T11:57:39.000Z</time>
      </trkpt>
      <trkpt lat="43.72323" lon="3.33107">
        <ele>294.20001220703</ele>
        <time>2023-05-26T11:57:52.000Z</time>
      </trkpt>
      <trkpt lat="43.72325" lon="3.33108">
        <ele>294.20001220703</ele>
        <time>2023-05-26T11:58:07.000Z</time>
      </trkpt>
      <trkpt lat="43.72326" lon="3.33109">
        <ele>294.39999389648</ele>
        <time>2023-05-26T11:58:20.000Z</time>
      </trkpt>
      <trkpt lat="43.72329" lon="3.33108">
        <ele>294</ele>
        <time>2023-05-26T11:58:33.000Z</time>
      </trkpt>
      <trkpt lat="43.7233" lon="3.33104">
        <ele>293.60000610352</ele>
        <time>2023-05-26T11:58:39.000Z</time>
      </trkpt>
      <trkpt lat="43.7233" lon="3.33104">
        <ele>293.39999389648</ele>
        <time>2023-05-26T11:58:41.000Z</time>
      </trkpt>
      <trkpt lat="43.72333" lon="3.33101">
        <ele>292.60000610352</ele>
        <time>2023-05-26T11:58:49.000Z</time>
      </trkpt>
      <trkpt lat="43.72334" lon="3.33098">
        <ele>292</ele>
        <time>2023-05-26T11:58:56.000Z</time>
      </trkpt>
      <trkpt lat="43.72334" lon="3.331">
        <ele>291.60000610352</ele>
        <time>2023-05-26T11:58:59.000Z</time>
      </trkpt>
      <trkpt lat="43.72335" lon="3.33097">
        <ele>291.39999389648</ele>
        <time>2023-05-26T11:59:05.000Z</time>
      </trkpt>
      <trkpt lat="43.72337" lon="3.33093">
        <ele>291.20001220703</ele>
        <time>2023-05-26T11:59:12.000Z</time>
      </trkpt>
      <trkpt lat="43.72338" lon="3.33091">
        <ele>290.60000610352</ele>
        <time>2023-05-26T11:59:20.000Z</time>
      </trkpt>
      <trkpt lat="43.72339" lon="3.3309">
        <ele>290.60000610352</ele>
        <time>2023-05-26T11:59:23.000Z</time>
      </trkpt>
      <trkpt lat="43.7234" lon="3.33086">
        <ele>290</ele>
        <time>2023-05-26T11:59:28.000Z</time>
      </trkpt>
      <trkpt lat="43.72341" lon="3.33084">
        <ele>289.39999389648</ele>
        <time>2023-05-26T11:59:32.000Z</time>
      </trkpt>
      <trkpt lat="43.72341" lon="3.33084">
        <ele>289</ele>
        <time>2023-05-26T11:59:35.000Z</time>
      </trkpt>
      <trkpt lat="43.72343" lon="3.3308">
        <ele>288.39999389648</ele>
        <time>2023-05-26T11:59:43.000Z</time>
      </trkpt>
      <trkpt lat="43.72343" lon="3.33079">
        <ele>288.20001220703</ele>
        <time>2023-05-26T11:59:44.000Z</time>
      </trkpt>
      <trkpt lat="43.72344" lon="3.33077">
        <ele>287.20001220703</ele>
        <time>2023-05-26T11:59:50.000Z</time>
      </trkpt>
      <trkpt lat="43.72346" lon="3.33072">
        <ele>286.60000610352</ele>
        <time>2023-05-26T11:59:56.000Z</time>
      </trkpt>
      <trkpt lat="43.72347" lon="3.33069">
        <ele>286</ele>
        <time>2023-05-26T12:00:00.000Z</time>
      </trkpt>
      <trkpt lat="43.72348" lon="3.33066">
        <ele>285.39999389648</ele>
        <time>2023-05-26T12:00:04.000Z</time>
      </trkpt>
      <trkpt lat="43.72348" lon="3.33062">
        <ele>285</ele>
        <time>2023-05-26T12:00:09.000Z</time>
      </trkpt>
      <trkpt lat="43.72349" lon="3.33059">
        <ele>284.39999389648</ele>
        <time>2023-05-26T12:00:12.000Z</time>
      </trkpt>
      <trkpt lat="43.72349" lon="3.33057">
        <ele>284</ele>
        <time>2023-05-26T12:00:15.000Z</time>
      </trkpt>
      <trkpt lat="43.72348" lon="3.33052">
        <ele>283.20001220703</ele>
        <time>2023-05-26T12:00:21.000Z</time>
      </trkpt>
      <trkpt lat="43.72348" lon="3.3305">
        <ele>282.79998779297</ele>
        <time>2023-05-26T12:00:23.000Z</time>
      </trkpt>
      <trkpt lat="43.72348" lon="3.3305">
        <ele>282.20001220703</ele>
        <time>2023-05-26T12:00:28.000Z</time>
      </trkpt>
      <trkpt lat="43.72347" lon="3.33043">
        <ele>282.20001220703</ele>
        <time>2023-05-26T12:00:33.000Z</time>
      </trkpt>
      <trkpt lat="43.72346" lon="3.33039">
        <ele>281.79998779297</ele>
        <time>2023-05-26T12:00:36.000Z</time>
      </trkpt>
      <trkpt lat="43.72345" lon="3.33031">
        <ele>280.60000610352</ele>
        <time>2023-05-26T12:00:42.000Z</time>
      </trkpt>
      <trkpt lat="43.72344" lon="3.3302">
        <ele>279.39999389648</ele>
        <time>2023-05-26T12:00:50.000Z</time>
      </trkpt>
      <trkpt lat="43.72344" lon="3.33018">
        <ele>279.20001220703</ele>
        <time>2023-05-26T12:00:51.000Z</time>
      </trkpt>
      <trkpt lat="43.72343" lon="3.3301">
        <ele>278.39999389648</ele>
        <time>2023-05-26T12:00:57.000Z</time>
      </trkpt>
      <trkpt lat="43.72343" lon="3.33009">
        <ele>278.39999389648</ele>
        <time>2023-05-26T12:00:58.000Z</time>
      </trkpt>
      <trkpt lat="43.72342" lon="3.33003">
        <ele>277.79998779297</ele>
        <time>2023-05-26T12:01:02.000Z</time>
      </trkpt>
      <trkpt lat="43.72343" lon="3.33001">
        <ele>277.20001220703</ele>
        <time>2023-05-26T12:01:04.000Z</time>
      </trkpt>
      <trkpt lat="43.72343" lon="3.32999">
        <ele>277</ele>
        <time>2023-05-26T12:01:05.000Z</time>
      </trkpt>
      <trkpt lat="43.72343" lon="3.32994">
        <ele>276.20001220703</ele>
        <time>2023-05-26T12:01:09.000Z</time>
      </trkpt>
      <trkpt lat="43.72344" lon="3.32991">
        <ele>275.79998779297</ele>
        <time>2023-05-26T12:01:12.000Z</time>
      </trkpt>
      <trkpt lat="43.72344" lon="3.32989">
        <ele>275.60000610352</ele>
        <time>2023-05-26T12:01:14.000Z</time>
      </trkpt>
      <trkpt lat="43.72344" lon="3.32984">
        <ele>275.20001220703</ele>
        <time>2023-05-26T12:01:17.000Z</time>
      </trkpt>
      <trkpt lat="43.72344" lon="3.32983">
        <ele>274.79998779297</ele>
        <time>2023-05-26T12:01:18.000Z</time>
      </trkpt>
      <trkpt lat="43.72343" lon="3.32977">
        <ele>274</ele>
        <time>2023-05-26T12:01:22.000Z</time>
      </trkpt>
      <trkpt lat="43.72343" lon="3.32974">
        <ele>273.60000610352</ele>
        <time>2023-05-26T12:01:24.000Z</time>
      </trkpt>
      <trkpt lat="43.72343" lon="3.32967">
        <ele>273</ele>
        <time>2023-05-26T12:01:30.000Z</time>
      </trkpt>
      <trkpt lat="43.72344" lon="3.32965">
        <ele>272.79998779297</ele>
        <time>2023-05-26T12:01:31.000Z</time>
      </trkpt>
      <trkpt lat="43.72344" lon="3.32956">
        <ele>271.60000610352</ele>
        <time>2023-05-26T12:01:37.000Z</time>
      </trkpt>
      <trkpt lat="43.72345" lon="3.32952">
        <ele>271.20001220703</ele>
        <time>2023-05-26T12:01:40.000Z</time>
      </trkpt>
      <trkpt lat="43.72346" lon="3.32949">
        <ele>270.79998779297</ele>
        <time>2023-05-26T12:01:42.000Z</time>
      </trkpt>
      <trkpt lat="43.72346" lon="3.32949">
        <ele>270.60000610352</ele>
        <time>2023-05-26T12:01:43.000Z</time>
      </trkpt>
      <trkpt lat="43.72345" lon="3.32948">
        <ele>270</ele>
        <time>2023-05-26T12:01:47.000Z</time>
      </trkpt>
      <trkpt lat="43.72346" lon="3.32949">
        <ele>269.79998779297</ele>
        <time>2023-05-26T12:01:55.000Z</time>
      </trkpt>
      <trkpt lat="43.72344" lon="3.32938">
        <ele>269.60000610352</ele>
        <time>2023-05-26T12:02:19.000Z</time>
      </trkpt>
      <trkpt lat="43.72344" lon="3.32939">
        <ele>269.39999389648</ele>
        <time>2023-05-26T12:02:20.000Z</time>
      </trkpt>
      <trkpt lat="43.72345" lon="3.32938">
        <ele>269.39999389648</ele>
        <time>2023-05-26T12:02:29.000Z</time>
      </trkpt>
      <trkpt lat="43.72346" lon="3.32937">
        <ele>269.39999389648</ele>
        <time>2023-05-26T12:02:36.000Z</time>
      </trkpt>
      <trkpt lat="43.72347" lon="3.32937">
        <ele>269.39999389648</ele>
        <time>2023-05-26T12:02:44.000Z</time>
      </trkpt>
      <trkpt lat="43.72347" lon="3.32936">
        <ele>269.39999389648</ele>
        <time>2023-05-26T12:02:52.000Z</time>
      </trkpt>
      <trkpt lat="43.7235" lon="3.32937">
        <ele>269.20001220703</ele>
        <time>2023-05-26T12:03:03.000Z</time>
      </trkpt>
      <trkpt lat="43.7235" lon="3.32938">
        <ele>269.39999389648</ele>
        <time>2023-05-26T12:03:12.000Z</time>
      </trkpt>
      <trkpt lat="43.72351" lon="3.32939">
        <ele>270.60000610352</ele>
        <time>2023-05-26T12:03:25.000Z</time>
      </trkpt>
      <trkpt lat="43.72351" lon="3.32939">
        <ele>269.79998779297</ele>
        <time>2023-05-26T12:03:33.000Z</time>
      </trkpt>
      <trkpt lat="43.72351" lon="3.32937">
        <ele>269.60000610352</ele>
        <time>2023-05-26T12:03:40.000Z</time>
      </trkpt>
      <trkpt lat="43.72351" lon="3.32938">
        <ele>269.60000610352</ele>
        <time>2023-05-26T12:03:41.000Z</time>
      </trkpt>
      <trkpt lat="43.72351" lon="3.32938">
        <ele>269.79998779297</ele>
        <time>2023-05-26T12:03:48.000Z</time>
      </trkpt>
      <trkpt lat="43.7235" lon="3.32937">
        <ele>269.60000610352</ele>
        <time>2023-05-26T12:03:56.000Z</time>
      </trkpt>
      <trkpt lat="43.72351" lon="3.32939">
        <ele>269.60000610352</ele>
        <time>2023-05-26T12:04:05.000Z</time>
      </trkpt>
      <trkpt lat="43.72351" lon="3.32939">
        <ele>269.60000610352</ele>
        <time>2023-05-26T12:04:13.000Z</time>
      </trkpt>
      <trkpt lat="43.72352" lon="3.32939">
        <ele>269.79998779297</ele>
        <time>2023-05-26T12:04:22.000Z</time>
      </trkpt>
      <trkpt lat="43.72352" lon="3.32938">
        <ele>269.79998779297</ele>
        <time>2023-05-26T12:04:36.000Z</time>
      </trkpt>
      <trkpt lat="43.72351" lon="3.32938">
        <ele>269.79998779297</ele>
        <time>2023-05-26T12:04:45.000Z</time>
      </trkpt>
      <trkpt lat="43.72351" lon="3.32937">
        <ele>269.39999389648</ele>
        <time>2023-05-26T12:04:54.000Z</time>
      </trkpt>
      <trkpt lat="43.72351" lon="3.32938">
        <ele>269.60000610352</ele>
        <time>2023-05-26T12:05:02.000Z</time>
      </trkpt>
      <trkpt lat="43.72351" lon="3.32939">
        <ele>269.39999389648</ele>
        <time>2023-05-26T12:05:10.000Z</time>
      </trkpt>
      <trkpt lat="43.72351" lon="3.32939">
        <ele>269.79998779297</ele>
        <time>2023-05-26T12:05:18.000Z</time>
      </trkpt>
      <trkpt lat="43.72352" lon="3.32939">
        <ele>269.79998779297</ele>
        <time>2023-05-26T12:05:24.000Z</time>
      </trkpt>
      <trkpt lat="43.72351" lon="3.32939">
        <ele>269.60000610352</ele>
        <time>2023-05-26T12:05:32.000Z</time>
      </trkpt>
      <trkpt lat="43.72351" lon="3.32937">
        <ele>270.20001220703</ele>
        <time>2023-05-26T12:05:46.000Z</time>
      </trkpt>
      <trkpt lat="43.72351" lon="3.32938">
        <ele>270.20001220703</ele>
        <time>2023-05-26T12:05:54.000Z</time>
      </trkpt>
      <trkpt lat="43.7235" lon="3.32936">
        <ele>270</ele>
        <time>2023-05-26T12:06:02.000Z</time>
      </trkpt>
      <trkpt lat="43.7235" lon="3.32936">
        <ele>270.20001220703</ele>
        <time>2023-05-26T12:06:11.000Z</time>
      </trkpt>
      <trkpt lat="43.7235" lon="3.32937">
        <ele>269.79998779297</ele>
        <time>2023-05-26T12:06:19.000Z</time>
      </trkpt>
      <trkpt lat="43.7235" lon="3.32936">
        <ele>269.79998779297</ele>
        <time>2023-05-26T12:06:31.000Z</time>
      </trkpt>
      <trkpt lat="43.72352" lon="3.32935">
        <ele>269.60000610352</ele>
        <time>2023-05-26T12:06:48.000Z</time>
      </trkpt>
      <trkpt lat="43.72352" lon="3.32935">
        <ele>270</ele>
        <time>2023-05-26T12:07:01.000Z</time>
      </trkpt>
      <trkpt lat="43.72352" lon="3.32935">
        <ele>270.20001220703</ele>
        <time>2023-05-26T12:07:17.000Z</time>
      </trkpt>
      <trkpt lat="43.72352" lon="3.32935">
        <ele>270.60000610352</ele>
        <time>2023-05-26T12:07:22.000Z</time>
      </trkpt>
      <trkpt lat="43.72352" lon="3.32935">
        <ele>270.60000610352</ele>
        <time>2023-05-26T12:07:26.000Z</time>
      </trkpt>
      <trkpt lat="43.72352" lon="3.32936">
        <ele>270.60000610352</ele>
        <time>2023-05-26T12:07:39.000Z</time>
      </trkpt>
      <trkpt lat="43.72352" lon="3.32936">
        <ele>270.60000610352</ele>
        <time>2023-05-26T12:07:48.000Z</time>
      </trkpt>
      <trkpt lat="43.72351" lon="3.32937">
        <ele>270.79998779297</ele>
        <time>2023-05-26T12:08:08.000Z</time>
      </trkpt>
      <trkpt lat="43.72351" lon="3.32938">
        <ele>270.60000610352</ele>
        <time>2023-05-26T12:08:27.000Z</time>
      </trkpt>
      <trkpt lat="43.72351" lon="3.32938">
        <ele>270</ele>
        <time>2023-05-26T12:08:35.000Z</time>
      </trkpt>
      <trkpt lat="43.72351" lon="3.32938">
        <ele>269.79998779297</ele>
        <time>2023-05-26T12:09:01.000Z</time>
      </trkpt>
      <trkpt lat="43.72351" lon="3.32939">
        <ele>270.20001220703</ele>
        <time>2023-05-26T12:09:16.000Z</time>
      </trkpt>
      <trkpt lat="43.72352" lon="3.32939">
        <ele>270.20001220703</ele>
        <time>2023-05-26T12:09:32.000Z</time>
      </trkpt>
      <trkpt lat="43.72351" lon="3.32937">
        <ele>270.20001220703</ele>
        <time>2023-05-26T12:09:38.000Z</time>
      </trkpt>
      <trkpt lat="43.72353" lon="3.32938">
        <ele>270.20001220703</ele>
        <time>2023-05-26T12:09:43.000Z</time>
      </trkpt>
      <trkpt lat="43.72353" lon="3.32939">
        <ele>270</ele>
        <time>2023-05-26T12:09:51.000Z</time>
      </trkpt>
      <trkpt lat="43.72353" lon="3.32939">
        <ele>269.39999389648</ele>
        <time>2023-05-26T12:09:54.000Z</time>
      </trkpt>
      <trkpt lat="43.72353" lon="3.32939">
        <ele>269.60000610352</ele>
        <time>2023-05-26T12:09:58.000Z</time>
      </trkpt>
      <trkpt lat="43.72353" lon="3.3294">
        <ele>270</ele>
        <time>2023-05-26T12:10:04.000Z</time>
      </trkpt>
      <trkpt lat="43.72354" lon="3.3294">
        <ele>270.39999389648</ele>
        <time>2023-05-26T12:10:13.000Z</time>
      </trkpt>
      <trkpt lat="43.72354" lon="3.3294">
        <ele>269.60000610352</ele>
        <time>2023-05-26T12:10:22.000Z</time>
      </trkpt>
      <trkpt lat="43.72355" lon="3.32941">
        <ele>269.79998779297</ele>
        <time>2023-05-26T12:10:28.000Z</time>
      </trkpt>
      <trkpt lat="43.72355" lon="3.3294">
        <ele>269.39999389648</ele>
        <time>2023-05-26T12:10:36.000Z</time>
      </trkpt>
      <trkpt lat="43.72356" lon="3.32939">
        <ele>270</ele>
        <time>2023-05-26T12:10:43.000Z</time>
      </trkpt>
      <trkpt lat="43.72355" lon="3.32938">
        <ele>269.79998779297</ele>
        <time>2023-05-26T12:10:48.000Z</time>
      </trkpt>
      <trkpt lat="43.72354" lon="3.32937">
        <ele>270</ele>
        <time>2023-05-26T12:10:56.000Z</time>
      </trkpt>
      <trkpt lat="43.72355" lon="3.32936">
        <ele>269.60000610352</ele>
        <time>2023-05-26T12:11:07.000Z</time>
      </trkpt>
      <trkpt lat="43.72355" lon="3.32934">
        <ele>269.60000610352</ele>
        <time>2023-05-26T12:11:16.000Z</time>
      </trkpt>
      <trkpt lat="43.72354" lon="3.32931">
        <ele>269.60000610352</ele>
        <time>2023-05-26T12:11:26.000Z</time>
      </trkpt>
      <trkpt lat="43.72355" lon="3.3293">
        <ele>269.20001220703</ele>
        <time>2023-05-26T12:11:33.000Z</time>
      </trkpt>
      <trkpt lat="43.72354" lon="3.32925">
        <ele>268.79998779297</ele>
        <time>2023-05-26T12:11:38.000Z</time>
      </trkpt>
      <trkpt lat="43.72354" lon="3.32922">
        <ele>268.39999389648</ele>
        <time>2023-05-26T12:11:41.000Z</time>
      </trkpt>
      <trkpt lat="43.72353" lon="3.32918">
        <ele>268</ele>
        <time>2023-05-26T12:11:46.000Z</time>
      </trkpt>
      <trkpt lat="43.72354" lon="3.32911">
        <ele>267.60000610352</ele>
        <time>2023-05-26T12:11:51.000Z</time>
      </trkpt>
      <trkpt lat="43.72354" lon="3.32908">
        <ele>267.39999389648</ele>
        <time>2023-05-26T12:11:53.000Z</time>
      </trkpt>
      <trkpt lat="43.72355" lon="3.32898">
        <ele>266.39999389648</ele>
        <time>2023-05-26T12:12:00.000Z</time>
      </trkpt>
      <trkpt lat="43.72356" lon="3.32889">
        <ele>265.60000610352</ele>
        <time>2023-05-26T12:12:07.000Z</time>
      </trkpt>
      <trkpt lat="43.72356" lon="3.32886">
        <ele>265.39999389648</ele>
        <time>2023-05-26T12:12:10.000Z</time>
      </trkpt>
      <trkpt lat="43.72357" lon="3.32878">
        <ele>265.20001220703</ele>
        <time>2023-05-26T12:12:18.000Z</time>
      </trkpt>
      <trkpt lat="43.72357" lon="3.32871">
        <ele>264.79998779297</ele>
        <time>2023-05-26T12:12:25.000Z</time>
      </trkpt>
      <trkpt lat="43.72357" lon="3.32864">
        <ele>264.20001220703</ele>
        <time>2023-05-26T12:12:33.000Z</time>
      </trkpt>
      <trkpt lat="43.72358" lon="3.32857">
        <ele>263.79998779297</ele>
        <time>2023-05-26T12:12:40.000Z</time>
      </trkpt>
      <trkpt lat="43.72358" lon="3.3285">
        <ele>263.79998779297</ele>
        <time>2023-05-26T12:12:47.000Z</time>
      </trkpt>
      <trkpt lat="43.72358" lon="3.3284">
        <ele>263.39999389648</ele>
        <time>2023-05-26T12:12:55.000Z</time>
      </trkpt>
      <trkpt lat="43.72359" lon="3.32831">
        <ele>263.39999389648</ele>
        <time>2023-05-26T12:13:04.000Z</time>
      </trkpt>
      <trkpt lat="43.72359" lon="3.32821">
        <ele>263.20001220703</ele>
        <time>2023-05-26T12:13:14.000Z</time>
      </trkpt>
      <trkpt lat="43.7236" lon="3.32814">
        <ele>262.60000610352</ele>
        <time>2023-05-26T12:13:22.000Z</time>
      </trkpt>
      <trkpt lat="43.7236" lon="3.32804">
        <ele>262.39999389648</ele>
        <time>2023-05-26T12:13:30.000Z</time>
      </trkpt>
      <trkpt lat="43.7236" lon="3.32803">
        <ele>262.20001220703</ele>
        <time>2023-05-26T12:13:31.000Z</time>
      </trkpt>
      <trkpt lat="43.7236" lon="3.32795">
        <ele>261.60000610352</ele>
        <time>2023-05-26T12:13:36.000Z</time>
      </trkpt>
      <trkpt lat="43.7236" lon="3.32793">
        <ele>261.39999389648</ele>
        <time>2023-05-26T12:13:38.000Z</time>
      </trkpt>
      <trkpt lat="43.7236" lon="3.3279">
        <ele>261.20001220703</ele>
        <time>2023-05-26T12:13:41.000Z</time>
      </trkpt>
      <trkpt lat="43.7236" lon="3.32786">
        <ele>261</ele>
        <time>2023-05-26T12:13:44.000Z</time>
      </trkpt>
      <trkpt lat="43.7236" lon="3.32784">
        <ele>261</ele>
        <time>2023-05-26T12:13:45.000Z</time>
      </trkpt>
      <trkpt lat="43.72358" lon="3.32776">
        <ele>260.60000610352</ele>
        <time>2023-05-26T12:13:52.000Z</time>
      </trkpt>
      <trkpt lat="43.72358" lon="3.32775">
        <ele>260.39999389648</ele>
        <time>2023-05-26T12:13:53.000Z</time>
      </trkpt>
      <trkpt lat="43.72358" lon="3.32768">
        <ele>260</ele>
        <time>2023-05-26T12:13:58.000Z</time>
      </trkpt>
      <trkpt lat="43.72356" lon="3.32763">
        <ele>259.60000610352</ele>
        <time>2023-05-26T12:14:02.000Z</time>
      </trkpt>
      <trkpt lat="43.72356" lon="3.32757">
        <ele>259.39999389648</ele>
        <time>2023-05-26T12:14:06.000Z</time>
      </trkpt>
      <trkpt lat="43.72355" lon="3.32752">
        <ele>259</ele>
        <time>2023-05-26T12:14:09.000Z</time>
      </trkpt>
      <trkpt lat="43.72355" lon="3.32749">
        <ele>258.60000610352</ele>
        <time>2023-05-26T12:14:11.000Z</time>
      </trkpt>
      <trkpt lat="43.72353" lon="3.32734">
        <ele>258</ele>
        <time>2023-05-26T12:14:20.000Z</time>
      </trkpt>
      <trkpt lat="43.72352" lon="3.32733">
        <ele>258</ele>
        <time>2023-05-26T12:14:21.000Z</time>
      </trkpt>
      <trkpt lat="43.72351" lon="3.32722">
        <ele>257.20001220703</ele>
        <time>2023-05-26T12:14:29.000Z</time>
      </trkpt>
      <trkpt lat="43.72351" lon="3.32718">
        <ele>256.79998779297</ele>
        <time>2023-05-26T12:14:32.000Z</time>
      </trkpt>
      <trkpt lat="43.72351" lon="3.32711">
        <ele>256.60000610352</ele>
        <time>2023-05-26T12:14:38.000Z</time>
      </trkpt>
      <trkpt lat="43.72349" lon="3.32709">
        <ele>256</ele>
        <time>2023-05-26T12:14:43.000Z</time>
      </trkpt>
      <trkpt lat="43.72349" lon="3.32708">
        <ele>256</ele>
        <time>2023-05-26T12:14:51.000Z</time>
      </trkpt>
      <trkpt lat="43.72351" lon="3.32707">
        <ele>255.80000305176</ele>
        <time>2023-05-26T12:14:59.000Z</time>
      </trkpt>
      <trkpt lat="43.72351" lon="3.32705">
        <ele>255.80000305176</ele>
        <time>2023-05-26T12:15:05.000Z</time>
      </trkpt>
      <trkpt lat="43.72351" lon="3.32705">
        <ele>255.60000610352</ele>
        <time>2023-05-26T12:15:08.000Z</time>
      </trkpt>
      <trkpt lat="43.72352" lon="3.32703">
        <ele>255.60000610352</ele>
        <time>2023-05-26T12:15:14.000Z</time>
      </trkpt>
      <trkpt lat="43.72352" lon="3.327">
        <ele>255.60000610352</ele>
        <time>2023-05-26T12:15:22.000Z</time>
      </trkpt>
      <trkpt lat="43.72352" lon="3.32694">
        <ele>255.39999389648</ele>
        <time>2023-05-26T12:15:29.000Z</time>
      </trkpt>
      <trkpt lat="43.7235" lon="3.32682">
        <ele>254.60000610352</ele>
        <time>2023-05-26T12:15:37.000Z</time>
      </trkpt>
      <trkpt lat="43.72349" lon="3.3268">
        <ele>254.39999389648</ele>
        <time>2023-05-26T12:15:39.000Z</time>
      </trkpt>
      <trkpt lat="43.72347" lon="3.32677">
        <ele>254</ele>
        <time>2023-05-26T12:15:43.000Z</time>
      </trkpt>
      <trkpt lat="43.72346" lon="3.32675">
        <ele>253.60000610352</ele>
        <time>2023-05-26T12:15:46.000Z</time>
      </trkpt>
      <trkpt lat="43.72344" lon="3.32668">
        <ele>253</ele>
        <time>2023-05-26T12:15:52.000Z</time>
      </trkpt>
      <trkpt lat="43.72344" lon="3.32666">
        <ele>252.80000305176</ele>
        <time>2023-05-26T12:15:53.000Z</time>
      </trkpt>
      <trkpt lat="43.72344" lon="3.32664">
        <ele>252.39999389648</ele>
        <time>2023-05-26T12:15:55.000Z</time>
      </trkpt>
      <trkpt lat="43.72345" lon="3.3266">
        <ele>252</ele>
        <time>2023-05-26T12:15:58.000Z</time>
      </trkpt>
      <trkpt lat="43.72347" lon="3.32657">
        <ele>251.60000610352</ele>
        <time>2023-05-26T12:16:01.000Z</time>
      </trkpt>
      <trkpt lat="43.72349" lon="3.32654">
        <ele>251.39999389648</ele>
        <time>2023-05-26T12:16:04.000Z</time>
      </trkpt>
      <trkpt lat="43.72352" lon="3.3265">
        <ele>250.60000610352</ele>
        <time>2023-05-26T12:16:10.000Z</time>
      </trkpt>
      <trkpt lat="43.72353" lon="3.32649">
        <ele>250.19999694824</ele>
        <time>2023-05-26T12:16:14.000Z</time>
      </trkpt>
      <trkpt lat="43.72355" lon="3.32647">
        <ele>250.19999694824</ele>
        <time>2023-05-26T12:16:17.000Z</time>
      </trkpt>
      <trkpt lat="43.72362" lon="3.32641">
        <ele>249.19999694824</ele>
        <time>2023-05-26T12:16:25.000Z</time>
      </trkpt>
      <trkpt lat="43.72363" lon="3.3264">
        <ele>249</ele>
        <time>2023-05-26T12:16:27.000Z</time>
      </trkpt>
      <trkpt lat="43.72369" lon="3.32638">
        <ele>248.19999694824</ele>
        <time>2023-05-26T12:16:34.000Z</time>
      </trkpt>
      <trkpt lat="43.72372" lon="3.32637">
        <ele>247.80000305176</ele>
        <time>2023-05-26T12:16:37.000Z</time>
      </trkpt>
      <trkpt lat="43.72378" lon="3.32635">
        <ele>247.19999694824</ele>
        <time>2023-05-26T12:16:44.000Z</time>
      </trkpt>
      <trkpt lat="43.72379" lon="3.32635">
        <ele>247</ele>
        <time>2023-05-26T12:16:45.000Z</time>
      </trkpt>
      <trkpt lat="43.72384" lon="3.32634">
        <ele>246.39999389648</ele>
        <time>2023-05-26T12:16:52.000Z</time>
      </trkpt>
      <trkpt lat="43.72387" lon="3.32633">
        <ele>246</ele>
        <time>2023-05-26T12:16:56.000Z</time>
      </trkpt>
      <trkpt lat="43.72389" lon="3.32632">
        <ele>245.80000305176</ele>
        <time>2023-05-26T12:16:59.000Z</time>
      </trkpt>
      <trkpt lat="43.72396" lon="3.32629">
        <ele>245.19999694824</ele>
        <time>2023-05-26T12:17:06.000Z</time>
      </trkpt>
      <trkpt lat="43.72396" lon="3.32629">
        <ele>245</ele>
        <time>2023-05-26T12:17:07.000Z</time>
      </trkpt>
      <trkpt lat="43.72403" lon="3.32625">
        <ele>244.80000305176</ele>
        <time>2023-05-26T12:17:15.000Z</time>
      </trkpt>
      <trkpt lat="43.7241" lon="3.32623">
        <ele>243.80000305176</ele>
        <time>2023-05-26T12:17:22.000Z</time>
      </trkpt>
      <trkpt lat="43.72411" lon="3.32622">
        <ele>243.60000610352</ele>
        <time>2023-05-26T12:17:24.000Z</time>
      </trkpt>
      <trkpt lat="43.72417" lon="3.32621">
        <ele>242.80000305176</ele>
        <time>2023-05-26T12:17:31.000Z</time>
      </trkpt>
      <trkpt lat="43.72418" lon="3.32622">
        <ele>242.80000305176</ele>
        <time>2023-05-26T12:17:32.000Z</time>
      </trkpt>
      <trkpt lat="43.72424" lon="3.32619">
        <ele>242.19999694824</ele>
        <time>2023-05-26T12:17:39.000Z</time>
      </trkpt>
      <trkpt lat="43.72425" lon="3.32619">
        <ele>242</ele>
        <time>2023-05-26T12:17:41.000Z</time>
      </trkpt>
      <trkpt lat="43.72426" lon="3.32619">
        <ele>241.80000305176</ele>
        <time>2023-05-26T12:17:42.000Z</time>
      </trkpt>
      <trkpt lat="43.72427" lon="3.32618">
        <ele>241.80000305176</ele>
        <time>2023-05-26T12:17:44.000Z</time>
      </trkpt>
      <trkpt lat="43.72428" lon="3.32618">
        <ele>241.39999389648</ele>
        <time>2023-05-26T12:17:51.000Z</time>
      </trkpt>
      <trkpt lat="43.72428" lon="3.32617">
        <ele>241.39999389648</ele>
        <time>2023-05-26T12:18:01.000Z</time>
      </trkpt>
      <trkpt lat="43.72429" lon="3.3261">
        <ele>241</ele>
        <time>2023-05-26T12:18:15.000Z</time>
      </trkpt>
      <trkpt lat="43.72429" lon="3.3261">
        <ele>240.80000305176</ele>
        <time>2023-05-26T12:18:16.000Z</time>
      </trkpt>
      <trkpt lat="43.72429" lon="3.32609">
        <ele>241</ele>
        <time>2023-05-26T12:18:27.000Z</time>
      </trkpt>
      <trkpt lat="43.72432" lon="3.32608">
        <ele>241.39999389648</ele>
        <time>2023-05-26T12:18:37.000Z</time>
      </trkpt>
      <trkpt lat="43.72438" lon="3.32606">
        <ele>241</ele>
        <time>2023-05-26T12:18:44.000Z</time>
      </trkpt>
      <trkpt lat="43.72447" lon="3.32602">
        <ele>239.80000305176</ele>
        <time>2023-05-26T12:18:55.000Z</time>
      </trkpt>
      <trkpt lat="43.72448" lon="3.32602">
        <ele>239.60000610352</ele>
        <time>2023-05-26T12:18:56.000Z</time>
      </trkpt>
      <trkpt lat="43.72452" lon="3.32603">
        <ele>238.80000305176</ele>
        <time>2023-05-26T12:19:01.000Z</time>
      </trkpt>
      <trkpt lat="43.72456" lon="3.32604">
        <ele>238</ele>
        <time>2023-05-26T12:19:06.000Z</time>
      </trkpt>
      <trkpt lat="43.72458" lon="3.32604">
        <ele>237.60000610352</ele>
        <time>2023-05-26T12:19:08.000Z</time>
      </trkpt>
      <trkpt lat="43.72465" lon="3.32601">
        <ele>236.60000610352</ele>
        <time>2023-05-26T12:19:14.000Z</time>
      </trkpt>
      <trkpt lat="43.72464" lon="3.32601">
        <ele>236</ele>
        <time>2023-05-26T12:19:19.000Z</time>
      </trkpt>
      <trkpt lat="43.72469" lon="3.32599">
        <ele>236.19999694824</ele>
        <time>2023-05-26T12:19:26.000Z</time>
      </trkpt>
      <trkpt lat="43.72479" lon="3.32599">
        <ele>235.60000610352</ele>
        <time>2023-05-26T12:19:35.000Z</time>
      </trkpt>
      <trkpt lat="43.72483" lon="3.326">
        <ele>235.39999389648</ele>
        <time>2023-05-26T12:19:38.000Z</time>
      </trkpt>
      <trkpt lat="43.72489" lon="3.32601">
        <ele>235</ele>
        <time>2023-05-26T12:19:44.000Z</time>
      </trkpt>
      <trkpt lat="43.72494" lon="3.32602">
        <ele>234.39999389648</ele>
        <time>2023-05-26T12:19:48.000Z</time>
      </trkpt>
      <trkpt lat="43.72502" lon="3.32602">
        <ele>233.80000305176</ele>
        <time>2023-05-26T12:19:55.000Z</time>
      </trkpt>
      <trkpt lat="43.72502" lon="3.32602">
        <ele>233.80000305176</ele>
        <time>2023-05-26T12:20:01.000Z</time>
      </trkpt>
      <trkpt lat="43.72505" lon="3.326">
        <ele>233.60000610352</ele>
        <time>2023-05-26T12:20:12.000Z</time>
      </trkpt>
      <trkpt lat="43.72506" lon="3.326">
        <ele>233.80000305176</ele>
        <time>2023-05-26T12:20:26.000Z</time>
      </trkpt>
      <trkpt lat="43.7251" lon="3.326">
        <ele>233.80000305176</ele>
        <time>2023-05-26T12:20:32.000Z</time>
      </trkpt>
      <trkpt lat="43.72516" lon="3.32602">
        <ele>233.39999389648</ele>
        <time>2023-05-26T12:20:38.000Z</time>
      </trkpt>
      <trkpt lat="43.72517" lon="3.32602">
        <ele>233.19999694824</ele>
        <time>2023-05-26T12:20:39.000Z</time>
      </trkpt>
      <trkpt lat="43.72523" lon="3.32602">
        <ele>232.39999389648</ele>
        <time>2023-05-26T12:20:46.000Z</time>
      </trkpt>
      <trkpt lat="43.72525" lon="3.326">
        <ele>232</ele>
        <time>2023-05-26T12:20:48.000Z</time>
      </trkpt>
      <trkpt lat="43.72528" lon="3.32596">
        <ele>231.39999389648</ele>
        <time>2023-05-26T12:20:51.000Z</time>
      </trkpt>
      <trkpt lat="43.72529" lon="3.32595">
        <ele>231.39999389648</ele>
        <time>2023-05-26T12:20:52.000Z</time>
      </trkpt>
      <trkpt lat="43.7253" lon="3.32592">
        <ele>231</ele>
        <time>2023-05-26T12:20:54.000Z</time>
      </trkpt>
      <trkpt lat="43.72533" lon="3.32585">
        <ele>230.19999694824</ele>
        <time>2023-05-26T12:21:00.000Z</time>
      </trkpt>
      <trkpt lat="43.72534" lon="3.32583">
        <ele>230.19999694824</ele>
        <time>2023-05-26T12:21:02.000Z</time>
      </trkpt>
      <trkpt lat="43.72536" lon="3.32578">
        <ele>229.19999694824</ele>
        <time>2023-05-26T12:21:10.000Z</time>
      </trkpt>
      <trkpt lat="43.72536" lon="3.32576">
        <ele>228.80000305176</ele>
        <time>2023-05-26T12:21:19.000Z</time>
      </trkpt>
      <trkpt lat="43.72538" lon="3.32574">
        <ele>228.60000610352</ele>
        <time>2023-05-26T12:21:28.000Z</time>
      </trkpt>
      <trkpt lat="43.7254" lon="3.3257">
        <ele>228</ele>
        <time>2023-05-26T12:21:32.000Z</time>
      </trkpt>
      <trkpt lat="43.72542" lon="3.32565">
        <ele>227.39999389648</ele>
        <time>2023-05-26T12:21:36.000Z</time>
      </trkpt>
      <trkpt lat="43.72543" lon="3.32562">
        <ele>227.39999389648</ele>
        <time>2023-05-26T12:21:39.000Z</time>
      </trkpt>
      <trkpt lat="43.72544" lon="3.32561">
        <ele>227</ele>
        <time>2023-05-26T12:21:43.000Z</time>
      </trkpt>
      <trkpt lat="43.72547" lon="3.32559">
        <ele>226.39999389648</ele>
        <time>2023-05-26T12:21:49.000Z</time>
      </trkpt>
      <trkpt lat="43.72551" lon="3.3256">
        <ele>226</ele>
        <time>2023-05-26T12:21:53.000Z</time>
      </trkpt>
      <trkpt lat="43.72554" lon="3.32561">
        <ele>225.60000610352</ele>
        <time>2023-05-26T12:21:57.000Z</time>
      </trkpt>
      <trkpt lat="43.72556" lon="3.32562">
        <ele>225.60000610352</ele>
        <time>2023-05-26T12:21:59.000Z</time>
      </trkpt>
      <trkpt lat="43.72559" lon="3.32564">
        <ele>225</ele>
        <time>2023-05-26T12:22:03.000Z</time>
      </trkpt>
      <trkpt lat="43.7256" lon="3.32564">
        <ele>224.80000305176</ele>
        <time>2023-05-26T12:22:04.000Z</time>
      </trkpt>
      <trkpt lat="43.72563" lon="3.32565">
        <ele>224.19999694824</ele>
        <time>2023-05-26T12:22:08.000Z</time>
      </trkpt>
      <trkpt lat="43.72564" lon="3.32565">
        <ele>224</ele>
        <time>2023-05-26T12:22:10.000Z</time>
      </trkpt>
      <trkpt lat="43.72566" lon="3.32565">
        <ele>223.80000305176</ele>
        <time>2023-05-26T12:22:12.000Z</time>
      </trkpt>
      <trkpt lat="43.72567" lon="3.32565">
        <ele>223.60000610352</ele>
        <time>2023-05-26T12:22:13.000Z</time>
      </trkpt>
      <trkpt lat="43.72568" lon="3.32565">
        <ele>223.19999694824</ele>
        <time>2023-05-26T12:22:16.000Z</time>
      </trkpt>
      <trkpt lat="43.72571" lon="3.32564">
        <ele>222.80000305176</ele>
        <time>2023-05-26T12:22:19.000Z</time>
      </trkpt>
      <trkpt lat="43.72573" lon="3.32561">
        <ele>222.19999694824</ele>
        <time>2023-05-26T12:22:22.000Z</time>
      </trkpt>
      <trkpt lat="43.72573" lon="3.32561">
        <ele>221.60000610352</ele>
        <time>2023-05-26T12:22:24.000Z</time>
      </trkpt>
      <trkpt lat="43.72573" lon="3.32561">
        <ele>221</ele>
        <time>2023-05-26T12:22:29.000Z</time>
      </trkpt>
      <trkpt lat="43.72575" lon="3.32559">
        <ele>220.80000305176</ele>
        <time>2023-05-26T12:22:37.000Z</time>
      </trkpt>
      <trkpt lat="43.72575" lon="3.32559">
        <ele>220.60000610352</ele>
        <time>2023-05-26T12:22:39.000Z</time>
      </trkpt>
      <trkpt lat="43.72576" lon="3.32559">
        <ele>220.60000610352</ele>
        <time>2023-05-26T12:22:45.000Z</time>
      </trkpt>
      <trkpt lat="43.72576" lon="3.32558">
        <ele>220.60000610352</ele>
        <time>2023-05-26T12:22:52.000Z</time>
      </trkpt>
      <trkpt lat="43.72576" lon="3.32556">
        <ele>220.60000610352</ele>
        <time>2023-05-26T12:23:10.000Z</time>
      </trkpt>
      <trkpt lat="43.7258" lon="3.32552">
        <ele>220.39999389648</ele>
        <time>2023-05-26T12:23:16.000Z</time>
      </trkpt>
      <trkpt lat="43.72585" lon="3.32548">
        <ele>219.60000610352</ele>
        <time>2023-05-26T12:23:22.000Z</time>
      </trkpt>
      <trkpt lat="43.72586" lon="3.32548">
        <ele>219.39999389648</ele>
        <time>2023-05-26T12:23:24.000Z</time>
      </trkpt>
      <trkpt lat="43.72587" lon="3.32547">
        <ele>219</ele>
        <time>2023-05-26T12:23:26.000Z</time>
      </trkpt>
      <trkpt lat="43.7259" lon="3.32545">
        <ele>218.60000610352</ele>
        <time>2023-05-26T12:23:30.000Z</time>
      </trkpt>
      <trkpt lat="43.72595" lon="3.32543">
        <ele>217.80000305176</ele>
        <time>2023-05-26T12:23:36.000Z</time>
      </trkpt>
      <trkpt lat="43.72597" lon="3.32542">
        <ele>217.39999389648</ele>
        <time>2023-05-26T12:23:38.000Z</time>
      </trkpt>
      <trkpt lat="43.726" lon="3.32537">
        <ele>216.80000305176</ele>
        <time>2023-05-26T12:23:44.000Z</time>
      </trkpt>
      <trkpt lat="43.72601" lon="3.32536">
        <ele>216.80000305176</ele>
        <time>2023-05-26T12:23:45.000Z</time>
      </trkpt>
      <trkpt lat="43.72603" lon="3.32534">
        <ele>216.39999389648</ele>
        <time>2023-05-26T12:23:48.000Z</time>
      </trkpt>
      <trkpt lat="43.72605" lon="3.32532">
        <ele>216</ele>
        <time>2023-05-26T12:23:51.000Z</time>
      </trkpt>
      <trkpt lat="43.72609" lon="3.3253">
        <ele>215.39999389648</ele>
        <time>2023-05-26T12:23:56.000Z</time>
      </trkpt>
      <trkpt lat="43.7261" lon="3.3253">
        <ele>215.19999694824</ele>
        <time>2023-05-26T12:23:58.000Z</time>
      </trkpt>
      <trkpt lat="43.72611" lon="3.3253">
        <ele>215</ele>
        <time>2023-05-26T12:23:59.000Z</time>
      </trkpt>
      <trkpt lat="43.72615" lon="3.32528">
        <ele>214.19999694824</ele>
        <time>2023-05-26T12:24:05.000Z</time>
      </trkpt>
      <trkpt lat="43.72616" lon="3.32528">
        <ele>214.19999694824</ele>
        <time>2023-05-26T12:24:06.000Z</time>
      </trkpt>
      <trkpt lat="43.72621" lon="3.32526">
        <ele>213.39999389648</ele>
        <time>2023-05-26T12:24:11.000Z</time>
      </trkpt>
      <trkpt lat="43.72622" lon="3.32526">
        <ele>213.19999694824</ele>
        <time>2023-05-26T12:24:12.000Z</time>
      </trkpt>
      <trkpt lat="43.72622" lon="3.32526">
        <ele>213.19999694824</ele>
        <time>2023-05-26T12:24:13.000Z</time>
      </trkpt>
      <trkpt lat="43.72628" lon="3.32523">
        <ele>212.19999694824</ele>
        <time>2023-05-26T12:24:21.000Z</time>
      </trkpt>
      <trkpt lat="43.7263" lon="3.32522">
        <ele>211.80000305176</ele>
        <time>2023-05-26T12:24:23.000Z</time>
      </trkpt>
      <trkpt lat="43.72634" lon="3.3252">
        <ele>211.19999694824</ele>
        <time>2023-05-26T12:24:28.000Z</time>
      </trkpt>
      <trkpt lat="43.72635" lon="3.32519">
        <ele>211</ele>
        <time>2023-05-26T12:24:29.000Z</time>
      </trkpt>
      <trkpt lat="43.72638" lon="3.32518">
        <ele>210.39999389648</ele>
        <time>2023-05-26T12:24:33.000Z</time>
      </trkpt>
      <trkpt lat="43.72641" lon="3.32516">
        <ele>210</ele>
        <time>2023-05-26T12:24:36.000Z</time>
      </trkpt>
      <trkpt lat="43.72644" lon="3.32512">
        <ele>209.39999389648</ele>
        <time>2023-05-26T12:24:40.000Z</time>
      </trkpt>
      <trkpt lat="43.72646" lon="3.3251">
        <ele>209.19999694824</ele>
        <time>2023-05-26T12:24:43.000Z</time>
      </trkpt>
      <trkpt lat="43.72647" lon="3.32509">
        <ele>209</ele>
        <time>2023-05-26T12:24:44.000Z</time>
      </trkpt>
      <trkpt lat="43.72649" lon="3.32506">
        <ele>208.39999389648</ele>
        <time>2023-05-26T12:24:48.000Z</time>
      </trkpt>
      <trkpt lat="43.7265" lon="3.32504">
        <ele>207.80000305176</ele>
        <time>2023-05-26T12:24:51.000Z</time>
      </trkpt>
      <trkpt lat="43.72652" lon="3.325">
        <ele>207.19999694824</ele>
        <time>2023-05-26T12:24:55.000Z</time>
      </trkpt>
      <trkpt lat="43.72654" lon="3.32497">
        <ele>206.80000305176</ele>
        <time>2023-05-26T12:24:59.000Z</time>
      </trkpt>
      <trkpt lat="43.72656" lon="3.32495">
        <ele>206</ele>
        <time>2023-05-26T12:25:03.000Z</time>
      </trkpt>
      <trkpt lat="43.72658" lon="3.32493">
        <ele>205.60000610352</ele>
        <time>2023-05-26T12:25:05.000Z</time>
      </trkpt>
      <trkpt lat="43.72661" lon="3.3249">
        <ele>205.19999694824</ele>
        <time>2023-05-26T12:25:09.000Z</time>
      </trkpt>
      <trkpt lat="43.72664" lon="3.32487">
        <ele>204.39999389648</ele>
        <time>2023-05-26T12:25:13.000Z</time>
      </trkpt>
      <trkpt lat="43.72667" lon="3.32486">
        <ele>204</ele>
        <time>2023-05-26T12:25:16.000Z</time>
      </trkpt>
      <trkpt lat="43.7267" lon="3.32483">
        <ele>203.60000610352</ele>
        <time>2023-05-26T12:25:20.000Z</time>
      </trkpt>
      <trkpt lat="43.7267" lon="3.32482">
        <ele>203.39999389648</ele>
        <time>2023-05-26T12:25:21.000Z</time>
      </trkpt>
      <trkpt lat="43.72673" lon="3.32481">
        <ele>203</ele>
        <time>2023-05-26T12:25:24.000Z</time>
      </trkpt>
      <trkpt lat="43.72676" lon="3.32479">
        <ele>202.39999389648</ele>
        <time>2023-05-26T12:25:27.000Z</time>
      </trkpt>
      <trkpt lat="43.72679" lon="3.32477">
        <ele>202</ele>
        <time>2023-05-26T12:25:30.000Z</time>
      </trkpt>
      <trkpt lat="43.72679" lon="3.32476">
        <ele>201.80000305176</ele>
        <time>2023-05-26T12:25:31.000Z</time>
      </trkpt>
      <trkpt lat="43.72681" lon="3.32475">
        <ele>201.60000610352</ele>
        <time>2023-05-26T12:25:33.000Z</time>
      </trkpt>
      <trkpt lat="43.72683" lon="3.32473">
        <ele>201.39999389648</ele>
        <time>2023-05-26T12:25:36.000Z</time>
      </trkpt>
      <trkpt lat="43.72683" lon="3.32473">
        <ele>201.19999694824</ele>
        <time>2023-05-26T12:25:37.000Z</time>
      </trkpt>
      <trkpt lat="43.72686" lon="3.32472">
        <ele>200.60000610352</ele>
        <time>2023-05-26T12:25:41.000Z</time>
      </trkpt>
      <trkpt lat="43.72688" lon="3.32471">
        <ele>200.19999694824</ele>
        <time>2023-05-26T12:25:43.000Z</time>
      </trkpt>
      <trkpt lat="43.72689" lon="3.32472">
        <ele>199.39999389648</ele>
        <time>2023-05-26T12:25:48.000Z</time>
      </trkpt>
      <trkpt lat="43.72689" lon="3.32472">
        <ele>199.19999694824</ele>
        <time>2023-05-26T12:25:50.000Z</time>
      </trkpt>
      <trkpt lat="43.7269" lon="3.32468">
        <ele>199</ele>
        <time>2023-05-26T12:25:58.000Z</time>
      </trkpt>
      <trkpt lat="43.72689" lon="3.32469">
        <ele>198.39999389648</ele>
        <time>2023-05-26T12:26:07.000Z</time>
      </trkpt>
      <trkpt lat="43.7269" lon="3.32464">
        <ele>198.19999694824</ele>
        <time>2023-05-26T12:26:17.000Z</time>
      </trkpt>
      <trkpt lat="43.7269" lon="3.32464">
        <ele>198.19999694824</ele>
        <time>2023-05-26T12:26:18.000Z</time>
      </trkpt>
      <trkpt lat="43.72689" lon="3.32462">
        <ele>198.60000610352</ele>
        <time>2023-05-26T12:26:27.000Z</time>
      </trkpt>
      <trkpt lat="43.7269" lon="3.32462">
        <ele>199.39999389648</ele>
        <time>2023-05-26T12:26:33.000Z</time>
      </trkpt>
      <trkpt lat="43.7269" lon="3.32462">
        <ele>199.60000610352</ele>
        <time>2023-05-26T12:26:35.000Z</time>
      </trkpt>
      <trkpt lat="43.72691" lon="3.32462">
        <ele>199.80000305176</ele>
        <time>2023-05-26T12:26:48.000Z</time>
      </trkpt>
      <trkpt lat="43.72692" lon="3.32463">
        <ele>199.80000305176</ele>
        <time>2023-05-26T12:26:58.000Z</time>
      </trkpt>
      <trkpt lat="43.72694" lon="3.32464">
        <ele>199.80000305176</ele>
        <time>2023-05-26T12:27:10.000Z</time>
      </trkpt>
      <trkpt lat="43.72694" lon="3.32464">
        <ele>199.80000305176</ele>
        <time>2023-05-26T12:27:19.000Z</time>
      </trkpt>
      <trkpt lat="43.72695" lon="3.32463">
        <ele>199.80000305176</ele>
        <time>2023-05-26T12:27:27.000Z</time>
      </trkpt>
      <trkpt lat="43.72692" lon="3.32459">
        <ele>199.39999389648</ele>
        <time>2023-05-26T12:27:34.000Z</time>
      </trkpt>
      <trkpt lat="43.72685" lon="3.32454">
        <ele>198.60000610352</ele>
        <time>2023-05-26T12:27:42.000Z</time>
      </trkpt>
      <trkpt lat="43.72685" lon="3.32453">
        <ele>198.39999389648</ele>
        <time>2023-05-26T12:27:43.000Z</time>
      </trkpt>
      <trkpt lat="43.72687" lon="3.3245">
        <ele>197.60000610352</ele>
        <time>2023-05-26T12:27:47.000Z</time>
      </trkpt>
      <trkpt lat="43.72689" lon="3.3245">
        <ele>197.19999694824</ele>
        <time>2023-05-26T12:27:49.000Z</time>
      </trkpt>
      <trkpt lat="43.72693" lon="3.32451">
        <ele>196.60000610352</ele>
        <time>2023-05-26T12:27:53.000Z</time>
      </trkpt>
      <trkpt lat="43.72696" lon="3.32451">
        <ele>196.19999694824</ele>
        <time>2023-05-26T12:27:56.000Z</time>
      </trkpt>
      <trkpt lat="43.72699" lon="3.32453">
        <ele>195.60000610352</ele>
        <time>2023-05-26T12:28:00.000Z</time>
      </trkpt>
      <trkpt lat="43.72703" lon="3.32455">
        <ele>195</ele>
        <time>2023-05-26T12:28:05.000Z</time>
      </trkpt>
      <trkpt lat="43.72704" lon="3.32455">
        <ele>195</ele>
        <time>2023-05-26T12:28:06.000Z</time>
      </trkpt>
      <trkpt lat="43.72711" lon="3.32458">
        <ele>194.19999694824</ele>
        <time>2023-05-26T12:28:13.000Z</time>
      </trkpt>
      <trkpt lat="43.72714" lon="3.32458">
        <ele>194</ele>
        <time>2023-05-26T12:28:16.000Z</time>
      </trkpt>
      <trkpt lat="43.72718" lon="3.32459">
        <ele>193.39999389648</ele>
        <time>2023-05-26T12:28:21.000Z</time>
      </trkpt>
      <trkpt lat="43.72724" lon="3.32459">
        <ele>193</ele>
        <time>2023-05-26T12:28:26.000Z</time>
      </trkpt>
      <trkpt lat="43.72728" lon="3.32459">
        <ele>192.80000305176</ele>
        <time>2023-05-26T12:28:29.000Z</time>
      </trkpt>
      <trkpt lat="43.72735" lon="3.3246">
        <ele>192.39999389648</ele>
        <time>2023-05-26T12:28:34.000Z</time>
      </trkpt>
      <trkpt lat="43.72737" lon="3.32459">
        <ele>192.39999389648</ele>
        <time>2023-05-26T12:28:36.000Z</time>
      </trkpt>
      <trkpt lat="43.72742" lon="3.3246">
        <ele>192</ele>
        <time>2023-05-26T12:28:40.000Z</time>
      </trkpt>
      <trkpt lat="43.72744" lon="3.32461">
        <ele>191.60000610352</ele>
        <time>2023-05-26T12:28:43.000Z</time>
      </trkpt>
      <trkpt lat="43.7275" lon="3.32466">
        <ele>191.19999694824</ele>
        <time>2023-05-26T12:28:50.000Z</time>
      </trkpt>
      <trkpt lat="43.72751" lon="3.32466">
        <ele>191.19999694824</ele>
        <time>2023-05-26T12:28:51.000Z</time>
      </trkpt>
      <trkpt lat="43.72753" lon="3.32467">
        <ele>191</ele>
        <time>2023-05-26T12:28:55.000Z</time>
      </trkpt>
      <trkpt lat="43.72754" lon="3.32468">
        <ele>190.80000305176</ele>
        <time>2023-05-26T12:28:56.000Z</time>
      </trkpt>
      <trkpt lat="43.72757" lon="3.32469">
        <ele>190.60000610352</ele>
        <time>2023-05-26T12:29:00.000Z</time>
      </trkpt>
      <trkpt lat="43.72767" lon="3.32474">
        <ele>189.80000305176</ele>
        <time>2023-05-26T12:29:08.000Z</time>
      </trkpt>
      <trkpt lat="43.72769" lon="3.32475">
        <ele>189.60000610352</ele>
        <time>2023-05-26T12:29:10.000Z</time>
      </trkpt>
      <trkpt lat="43.72779" lon="3.32479">
        <ele>189</ele>
        <time>2023-05-26T12:29:17.000Z</time>
      </trkpt>
      <trkpt lat="43.7278" lon="3.32479">
        <ele>188.80000305176</ele>
        <time>2023-05-26T12:29:18.000Z</time>
      </trkpt>
      <trkpt lat="43.7279" lon="3.32484">
        <ele>188</ele>
        <time>2023-05-26T12:29:26.000Z</time>
      </trkpt>
      <trkpt lat="43.72792" lon="3.32484">
        <ele>187.80000305176</ele>
        <time>2023-05-26T12:29:28.000Z</time>
      </trkpt>
      <trkpt lat="43.72798" lon="3.32484">
        <ele>187.39999389648</ele>
        <time>2023-05-26T12:29:33.000Z</time>
      </trkpt>
      <trkpt lat="43.72799" lon="3.32484">
        <ele>187.39999389648</ele>
        <time>2023-05-26T12:29:34.000Z</time>
      </trkpt>
      <trkpt lat="43.72806" lon="3.32485">
        <ele>186.80000305176</ele>
        <time>2023-05-26T12:29:40.000Z</time>
      </trkpt>
      <trkpt lat="43.72812" lon="3.32483">
        <ele>186</ele>
        <time>2023-05-26T12:29:46.000Z</time>
      </trkpt>
      <trkpt lat="43.72813" lon="3.32483">
        <ele>185.60000610352</ele>
        <time>2023-05-26T12:29:47.000Z</time>
      </trkpt>
      <trkpt lat="43.72814" lon="3.32483">
        <ele>188.80000305176</ele>
        <time>2023-05-26T12:29:48.000Z</time>
      </trkpt>
      <trkpt lat="43.72815" lon="3.32482">
        <ele>191.80000305176</ele>
        <time>2023-05-26T12:29:49.000Z</time>
      </trkpt>
      <trkpt lat="43.72816" lon="3.32482">
        <ele>194.60000610352</ele>
        <time>2023-05-26T12:29:50.000Z</time>
      </trkpt>
      <trkpt lat="43.72818" lon="3.32481">
        <ele>196</ele>
        <time>2023-05-26T12:29:52.000Z</time>
      </trkpt>
      <trkpt lat="43.72818" lon="3.32481">
        <ele>193.39999389648</ele>
        <time>2023-05-26T12:29:53.000Z</time>
      </trkpt>
      <trkpt lat="43.72818" lon="3.32481">
        <ele>189</ele>
        <time>2023-05-26T12:29:55.000Z</time>
      </trkpt>
      <trkpt lat="43.72819" lon="3.3248">
        <ele>188.60000610352</ele>
        <time>2023-05-26T12:29:56.000Z</time>
      </trkpt>
      <trkpt lat="43.72819" lon="3.32481">
        <ele>187.80000305176</ele>
        <time>2023-05-26T12:29:57.000Z</time>
      </trkpt>
      <trkpt lat="43.72819" lon="3.32481">
        <ele>186.39999389648</ele>
        <time>2023-05-26T12:29:58.000Z</time>
      </trkpt>
      <trkpt lat="43.72819" lon="3.32482">
        <ele>184.39999389648</ele>
        <time>2023-05-26T12:29:59.000Z</time>
      </trkpt>
      <trkpt lat="43.72819" lon="3.32483">
        <ele>187.80000305176</ele>
        <time>2023-05-26T12:30:00.000Z</time>
      </trkpt>
      <trkpt lat="43.72821" lon="3.32484">
        <ele>187.60000610352</ele>
        <time>2023-05-26T12:30:02.000Z</time>
      </trkpt>
      <trkpt lat="43.72824" lon="3.32486">
        <ele>185.19999694824</ele>
        <time>2023-05-26T12:30:05.000Z</time>
      </trkpt>
      <trkpt lat="43.72829" lon="3.32487">
        <ele>184.60000610352</ele>
        <time>2023-05-26T12:30:10.000Z</time>
      </trkpt>
      <trkpt lat="43.72838" lon="3.3249">
        <ele>184.39999389648</ele>
        <time>2023-05-26T12:30:18.000Z</time>
      </trkpt>
      <trkpt lat="43.7284" lon="3.32491">
        <ele>184.19999694824</ele>
        <time>2023-05-26T12:30:20.000Z</time>
      </trkpt>
      <trkpt lat="43.72845" lon="3.32493">
        <ele>183.60000610352</ele>
        <time>2023-05-26T12:30:25.000Z</time>
      </trkpt>
      <trkpt lat="43.72849" lon="3.32495">
        <ele>183.19999694824</ele>
        <time>2023-05-26T12:30:30.000Z</time>
      </trkpt>
      <trkpt lat="43.72852" lon="3.32496">
        <ele>182.80000305176</ele>
        <time>2023-05-26T12:30:33.000Z</time>
      </trkpt>
      <trkpt lat="43.7286" lon="3.32497">
        <ele>182.19999694824</ele>
        <time>2023-05-26T12:30:39.000Z</time>
      </trkpt>
      <trkpt lat="43.72861" lon="3.32498">
        <ele>182.19999694824</ele>
        <time>2023-05-26T12:30:40.000Z</time>
      </trkpt>
      <trkpt lat="43.72873" lon="3.325">
        <ele>181.19999694824</ele>
        <time>2023-05-26T12:30:49.000Z</time>
      </trkpt>
      <trkpt lat="43.72874" lon="3.325">
        <ele>181.19999694824</ele>
        <time>2023-05-26T12:30:50.000Z</time>
      </trkpt>
      <trkpt lat="43.72884" lon="3.32502">
        <ele>180.39999389648</ele>
        <time>2023-05-26T12:30:59.000Z</time>
      </trkpt>
      <trkpt lat="43.72888" lon="3.32503">
        <ele>180.19999694824</ele>
        <time>2023-05-26T12:31:03.000Z</time>
      </trkpt>
      <trkpt lat="43.72894" lon="3.32504">
        <ele>179.80000305176</ele>
        <time>2023-05-26T12:31:08.000Z</time>
      </trkpt>
      <trkpt lat="43.72901" lon="3.32503">
        <ele>179.19999694824</ele>
        <time>2023-05-26T12:31:15.000Z</time>
      </trkpt>
      <trkpt lat="43.72904" lon="3.32503">
        <ele>179</ele>
        <time>2023-05-26T12:31:17.000Z</time>
      </trkpt>
      <trkpt lat="43.7291" lon="3.32501">
        <ele>178.60000610352</ele>
        <time>2023-05-26T12:31:23.000Z</time>
      </trkpt>
      <trkpt lat="43.7292" lon="3.32497">
        <ele>178.39999389648</ele>
        <time>2023-05-26T12:31:32.000Z</time>
      </trkpt>
      <trkpt lat="43.72923" lon="3.32496">
        <ele>178</ele>
        <time>2023-05-26T12:31:35.000Z</time>
      </trkpt>
      <trkpt lat="43.72932" lon="3.32491">
        <ele>177.39999389648</ele>
        <time>2023-05-26T12:31:43.000Z</time>
      </trkpt>
      <trkpt lat="43.72933" lon="3.32489">
        <ele>177.19999694824</ele>
        <time>2023-05-26T12:31:45.000Z</time>
      </trkpt>
      <trkpt lat="43.72933" lon="3.32487">
        <ele>177</ele>
        <time>2023-05-26T12:31:47.000Z</time>
      </trkpt>
      <trkpt lat="43.72933" lon="3.32486">
        <ele>176.80000305176</ele>
        <time>2023-05-26T12:31:49.000Z</time>
      </trkpt>
      <trkpt lat="43.72932" lon="3.32478">
        <ele>176.60000610352</ele>
        <time>2023-05-26T12:31:55.000Z</time>
      </trkpt>
      <trkpt lat="43.72934" lon="3.32469">
        <ele>176.39999389648</ele>
        <time>2023-05-26T12:32:03.000Z</time>
      </trkpt>
      <trkpt lat="43.72935" lon="3.3247">
        <ele>176.39999389648</ele>
        <time>2023-05-26T12:32:08.000Z</time>
      </trkpt>
      <trkpt lat="43.72937" lon="3.32473">
        <ele>176.19999694824</ele>
        <time>2023-05-26T12:32:17.000Z</time>
      </trkpt>
      <trkpt lat="43.72939" lon="3.32475">
        <ele>177.80000305176</ele>
        <time>2023-05-26T12:32:27.000Z</time>
      </trkpt>
      <trkpt lat="43.72942" lon="3.32478">
        <ele>176</ele>
        <time>2023-05-26T12:32:36.000Z</time>
      </trkpt>
      <trkpt lat="43.72945" lon="3.32482">
        <ele>176</ele>
        <time>2023-05-26T12:32:43.000Z</time>
      </trkpt>
      <trkpt lat="43.72945" lon="3.32482">
        <ele>176</ele>
        <time>2023-05-26T12:32:44.000Z</time>
      </trkpt>
      <trkpt lat="43.72944" lon="3.32483">
        <ele>176</ele>
        <time>2023-05-26T12:32:55.000Z</time>
      </trkpt>
      <trkpt lat="43.7295" lon="3.32493">
        <ele>176</ele>
        <time>2023-05-26T12:33:07.000Z</time>
      </trkpt>
      <trkpt lat="43.72952" lon="3.32498">
        <ele>176.19999694824</ele>
        <time>2023-05-26T12:33:19.000Z</time>
      </trkpt>
      <trkpt lat="43.72951" lon="3.32498">
        <ele>176</ele>
        <time>2023-05-26T12:33:29.000Z</time>
      </trkpt>
      <trkpt lat="43.72951" lon="3.32499">
        <ele>176</ele>
        <time>2023-05-26T12:33:38.000Z</time>
      </trkpt>
      <trkpt lat="43.72955" lon="3.32497">
        <ele>176</ele>
        <time>2023-05-26T12:33:46.000Z</time>
      </trkpt>
      <trkpt lat="43.72957" lon="3.32496">
        <ele>175.80000305176</ele>
        <time>2023-05-26T12:33:51.000Z</time>
      </trkpt>
      <trkpt lat="43.72961" lon="3.32492">
        <ele>175.80000305176</ele>
        <time>2023-05-26T12:33:57.000Z</time>
      </trkpt>
      <trkpt lat="43.72963" lon="3.32489">
        <ele>175.60000610352</ele>
        <time>2023-05-26T12:34:01.000Z</time>
      </trkpt>
      <trkpt lat="43.72967" lon="3.32487">
        <ele>175.60000610352</ele>
        <time>2023-05-26T12:34:05.000Z</time>
      </trkpt>
      <trkpt lat="43.72969" lon="3.32482">
        <ele>175.60000610352</ele>
        <time>2023-05-26T12:34:08.000Z</time>
      </trkpt>
      <trkpt lat="43.72971" lon="3.3248">
        <ele>175.60000610352</ele>
        <time>2023-05-26T12:34:10.000Z</time>
      </trkpt>
      <trkpt lat="43.72972" lon="3.32475">
        <ele>175.80000305176</ele>
        <time>2023-05-26T12:34:16.000Z</time>
      </trkpt>
      <trkpt lat="43.72973" lon="3.32466">
        <ele>175.80000305176</ele>
        <time>2023-05-26T12:34:21.000Z</time>
      </trkpt>
      <trkpt lat="43.72973" lon="3.32463">
        <ele>175.80000305176</ele>
        <time>2023-05-26T12:34:23.000Z</time>
      </trkpt>
      <trkpt lat="43.72977" lon="3.32451">
        <ele>175.60000610352</ele>
        <time>2023-05-26T12:34:31.000Z</time>
      </trkpt>
      <trkpt lat="43.72981" lon="3.32448">
        <ele>175.39999389648</ele>
        <time>2023-05-26T12:34:37.000Z</time>
      </trkpt>
      <trkpt lat="43.72981" lon="3.32449">
        <ele>175.39999389648</ele>
        <time>2023-05-26T12:34:38.000Z</time>
      </trkpt>
      <trkpt lat="43.72982" lon="3.32449">
        <ele>175.39999389648</ele>
        <time>2023-05-26T12:34:39.000Z</time>
      </trkpt>
      <trkpt lat="43.72983" lon="3.3245">
        <ele>175.39999389648</ele>
        <time>2023-05-26T12:34:43.000Z</time>
      </trkpt>
      <trkpt lat="43.72988" lon="3.32447">
        <ele>175.39999389648</ele>
        <time>2023-05-26T12:34:49.000Z</time>
      </trkpt>
      <trkpt lat="43.72992" lon="3.32446">
        <ele>175.39999389648</ele>
        <time>2023-05-26T12:34:54.000Z</time>
      </trkpt>
      <trkpt lat="43.72993" lon="3.32445">
        <ele>175.39999389648</ele>
        <time>2023-05-26T12:34:55.000Z</time>
      </trkpt>
      <trkpt lat="43.72997" lon="3.32443">
        <ele>175.39999389648</ele>
        <time>2023-05-26T12:34:58.000Z</time>
      </trkpt>
      <trkpt lat="43.72999" lon="3.32442">
        <ele>175.39999389648</ele>
        <time>2023-05-26T12:35:02.000Z</time>
      </trkpt>
      <trkpt lat="43.73001" lon="3.32442">
        <ele>175.39999389648</ele>
        <time>2023-05-26T12:35:04.000Z</time>
      </trkpt>
      <trkpt lat="43.73004" lon="3.32442">
        <ele>175.39999389648</ele>
        <time>2023-05-26T12:35:07.000Z</time>
      </trkpt>
      <trkpt lat="43.73006" lon="3.32441">
        <ele>175.39999389648</ele>
        <time>2023-05-26T12:35:10.000Z</time>
      </trkpt>
      <trkpt lat="43.73009" lon="3.3244">
        <ele>175.39999389648</ele>
        <time>2023-05-26T12:35:12.000Z</time>
      </trkpt>
      <trkpt lat="43.73009" lon="3.3244">
        <ele>175.39999389648</ele>
        <time>2023-05-26T12:35:13.000Z</time>
      </trkpt>
      <trkpt lat="43.73013" lon="3.3244">
        <ele>175.19999694824</ele>
        <time>2023-05-26T12:35:16.000Z</time>
      </trkpt>
      <trkpt lat="43.7302" lon="3.32438">
        <ele>175</ele>
        <time>2023-05-26T12:35:21.000Z</time>
      </trkpt>
      <trkpt lat="43.73022" lon="3.32438">
        <ele>175</ele>
        <time>2023-05-26T12:35:23.000Z</time>
      </trkpt>
      <trkpt lat="43.73024" lon="3.32438">
        <ele>175</ele>
        <time>2023-05-26T12:35:28.000Z</time>
      </trkpt>
      <trkpt lat="43.73024" lon="3.32437">
        <ele>174.80000305176</ele>
        <time>2023-05-26T12:35:29.000Z</time>
      </trkpt>
      <trkpt lat="43.73024" lon="3.32438">
        <ele>175.19999694824</ele>
        <time>2023-05-26T12:35:37.000Z</time>
      </trkpt>
      <trkpt lat="43.73024" lon="3.32439">
        <ele>175.39999389648</ele>
        <time>2023-05-26T12:35:45.000Z</time>
      </trkpt>
      <trkpt lat="43.73025" lon="3.32439">
        <ele>175.39999389648</ele>
        <time>2023-05-26T12:35:51.000Z</time>
      </trkpt>
      <trkpt lat="43.73028" lon="3.32439">
        <ele>175.19999694824</ele>
        <time>2023-05-26T12:35:55.000Z</time>
      </trkpt>
      <trkpt lat="43.73031" lon="3.32438">
        <ele>175</ele>
        <time>2023-05-26T12:36:00.000Z</time>
      </trkpt>
      <trkpt lat="43.73035" lon="3.32437">
        <ele>175</ele>
        <time>2023-05-26T12:36:04.000Z</time>
      </trkpt>
      <trkpt lat="43.73038" lon="3.3244">
        <ele>175</ele>
        <time>2023-05-26T12:36:08.000Z</time>
      </trkpt>
      <trkpt lat="43.7304" lon="3.32441">
        <ele>174.80000305176</ele>
        <time>2023-05-26T12:36:10.000Z</time>
      </trkpt>
      <trkpt lat="43.73046" lon="3.32445">
        <ele>175</ele>
        <time>2023-05-26T12:36:16.000Z</time>
      </trkpt>
      <trkpt lat="43.73049" lon="3.32445">
        <ele>175</ele>
        <time>2023-05-26T12:36:21.000Z</time>
      </trkpt>
      <trkpt lat="43.73051" lon="3.32444">
        <ele>175.19999694824</ele>
        <time>2023-05-26T12:36:24.000Z</time>
      </trkpt>
      <trkpt lat="43.73052" lon="3.32444">
        <ele>175.39999389648</ele>
        <time>2023-05-26T12:36:25.000Z</time>
      </trkpt>
      <trkpt lat="43.73057" lon="3.32444">
        <ele>175.39999389648</ele>
        <time>2023-05-26T12:36:29.000Z</time>
      </trkpt>
      <trkpt lat="43.73064" lon="3.32442">
        <ele>175.60000610352</ele>
        <time>2023-05-26T12:36:35.000Z</time>
      </trkpt>
      <trkpt lat="43.73069" lon="3.32441">
        <ele>175.60000610352</ele>
        <time>2023-05-26T12:36:39.000Z</time>
      </trkpt>
      <trkpt lat="43.7307" lon="3.3244">
        <ele>175.80000305176</ele>
        <time>2023-05-26T12:36:40.000Z</time>
      </trkpt>
      <trkpt lat="43.73071" lon="3.32439">
        <ele>175.80000305176</ele>
        <time>2023-05-26T12:36:41.000Z</time>
      </trkpt>
      <trkpt lat="43.73078" lon="3.32435">
        <ele>175.80000305176</ele>
        <time>2023-05-26T12:36:46.000Z</time>
      </trkpt>
      <trkpt lat="43.73079" lon="3.32434">
        <ele>175.80000305176</ele>
        <time>2023-05-26T12:36:47.000Z</time>
      </trkpt>
      <trkpt lat="43.73084" lon="3.32433">
        <ele>176</ele>
        <time>2023-05-26T12:36:51.000Z</time>
      </trkpt>
      <trkpt lat="43.73085" lon="3.32432">
        <ele>176</ele>
        <time>2023-05-26T12:36:52.000Z</time>
      </trkpt>
      <trkpt lat="43.73086" lon="3.32431">
        <ele>176</ele>
        <time>2023-05-26T12:36:53.000Z</time>
      </trkpt>
      <trkpt lat="43.73089" lon="3.3243">
        <ele>176.19999694824</ele>
        <time>2023-05-26T12:36:56.000Z</time>
      </trkpt>
      <trkpt lat="43.73091" lon="3.32427">
        <ele>176.39999389648</ele>
        <time>2023-05-26T12:36:58.000Z</time>
      </trkpt>
      <trkpt lat="43.73096" lon="3.32418">
        <ele>176.60000610352</ele>
        <time>2023-05-26T12:37:02.000Z</time>
      </trkpt>
      <trkpt lat="43.73097" lon="3.32414">
        <ele>176.60000610352</ele>
        <time>2023-05-26T12:37:03.000Z</time>
      </trkpt>
      <trkpt lat="43.73097" lon="3.32413">
        <ele>176.80000305176</ele>
        <time>2023-05-26T12:37:05.000Z</time>
      </trkpt>
      <trkpt lat="43.73097" lon="3.32411">
        <ele>176.80000305176</ele>
        <time>2023-05-26T12:37:06.000Z</time>
      </trkpt>
      <trkpt lat="43.73097" lon="3.32407">
        <ele>177</ele>
        <time>2023-05-26T12:37:08.000Z</time>
      </trkpt>
      <trkpt lat="43.73097" lon="3.32403">
        <ele>177</ele>
        <time>2023-05-26T12:37:10.000Z</time>
      </trkpt>
      <trkpt lat="43.73097" lon="3.32401">
        <ele>177</ele>
        <time>2023-05-26T12:37:11.000Z</time>
      </trkpt>
      <trkpt lat="43.73097" lon="3.32397">
        <ele>177</ele>
        <time>2023-05-26T12:37:14.000Z</time>
      </trkpt>
      <trkpt lat="43.73098" lon="3.32395">
        <ele>177</ele>
        <time>2023-05-26T12:37:16.000Z</time>
      </trkpt>
      <trkpt lat="43.73098" lon="3.32395">
        <ele>177</ele>
        <time>2023-05-26T12:37:17.000Z</time>
      </trkpt>
      <trkpt lat="43.731" lon="3.32394">
        <ele>177.19999694824</ele>
        <time>2023-05-26T12:37:25.000Z</time>
      </trkpt>
      <trkpt lat="43.73101" lon="3.32393">
        <ele>176.80000305176</ele>
        <time>2023-05-26T12:37:31.000Z</time>
      </trkpt>
      <trkpt lat="43.73101" lon="3.32393">
        <ele>177</ele>
        <time>2023-05-26T12:37:37.000Z</time>
      </trkpt>
      <trkpt lat="43.73102" lon="3.32391">
        <ele>177.60000610352</ele>
        <time>2023-05-26T12:37:47.000Z</time>
      </trkpt>
      <trkpt lat="43.73101" lon="3.32391">
        <ele>177.60000610352</ele>
        <time>2023-05-26T12:38:08.000Z</time>
      </trkpt>
      <trkpt lat="43.73101" lon="3.32391">
        <ele>178.60000610352</ele>
        <time>2023-05-26T12:38:10.000Z</time>
      </trkpt>
      <trkpt lat="43.73102" lon="3.3239">
        <ele>177.39999389648</ele>
        <time>2023-05-26T12:38:14.000Z</time>
      </trkpt>
      <trkpt lat="43.73103" lon="3.32389">
        <ele>177.39999389648</ele>
        <time>2023-05-26T12:38:22.000Z</time>
      </trkpt>
      <trkpt lat="43.73103" lon="3.32388">
        <ele>177.19999694824</ele>
        <time>2023-05-26T12:38:32.000Z</time>
      </trkpt>
      <trkpt lat="43.73102" lon="3.32389">
        <ele>176.60000610352</ele>
        <time>2023-05-26T12:38:44.000Z</time>
      </trkpt>
      <trkpt lat="43.73102" lon="3.32389">
        <ele>176.80000305176</ele>
        <time>2023-05-26T12:38:53.000Z</time>
      </trkpt>
      <trkpt lat="43.73102" lon="3.32388">
        <ele>177.19999694824</ele>
        <time>2023-05-26T12:39:04.000Z</time>
      </trkpt>
      <trkpt lat="43.73105" lon="3.32386">
        <ele>177.19999694824</ele>
        <time>2023-05-26T12:39:17.000Z</time>
      </trkpt>
      <trkpt lat="43.73106" lon="3.32386">
        <ele>177.19999694824</ele>
        <time>2023-05-26T12:39:27.000Z</time>
      </trkpt>
      <trkpt lat="43.73105" lon="3.32386">
        <ele>177.19999694824</ele>
        <time>2023-05-26T12:39:39.000Z</time>
      </trkpt>
      <trkpt lat="43.73111" lon="3.32383">
        <ele>177.19999694824</ele>
        <time>2023-05-26T12:39:48.000Z</time>
      </trkpt>
      <trkpt lat="43.73112" lon="3.32383">
        <ele>176.39999389648</ele>
        <time>2023-05-26T12:39:56.000Z</time>
      </trkpt>
      <trkpt lat="43.73114" lon="3.32383">
        <ele>176.80000305176</ele>
        <time>2023-05-26T12:40:02.000Z</time>
      </trkpt>
      <trkpt lat="43.73116" lon="3.3238">
        <ele>176.80000305176</ele>
        <time>2023-05-26T12:40:07.000Z</time>
      </trkpt>
      <trkpt lat="43.7312" lon="3.32382">
        <ele>177</ele>
        <time>2023-05-26T12:40:11.000Z</time>
      </trkpt>
      <trkpt lat="43.73123" lon="3.32391">
        <ele>176.60000610352</ele>
        <time>2023-05-26T12:40:18.000Z</time>
      </trkpt>
      <trkpt lat="43.73125" lon="3.32395">
        <ele>176.39999389648</ele>
        <time>2023-05-26T12:40:22.000Z</time>
      </trkpt>
      <trkpt lat="43.73126" lon="3.32395">
        <ele>176.39999389648</ele>
        <time>2023-05-26T12:40:24.000Z</time>
      </trkpt>
      <trkpt lat="43.73129" lon="3.32395">
        <ele>176.19999694824</ele>
        <time>2023-05-26T12:40:28.000Z</time>
      </trkpt>
      <trkpt lat="43.73128" lon="3.32395">
        <ele>176.19999694824</ele>
        <time>2023-05-26T12:40:30.000Z</time>
      </trkpt>
      <trkpt lat="43.73121" lon="3.32399">
        <ele>176.39999389648</ele>
        <time>2023-05-26T12:40:35.000Z</time>
      </trkpt>
      <trkpt lat="43.73117" lon="3.32399">
        <ele>176.39999389648</ele>
        <time>2023-05-26T12:40:37.000Z</time>
      </trkpt>
      <trkpt lat="43.73114" lon="3.32397">
        <ele>176.39999389648</ele>
        <time>2023-05-26T12:40:40.000Z</time>
      </trkpt>
      <trkpt lat="43.7311" lon="3.32389">
        <ele>176.60000610352</ele>
        <time>2023-05-26T12:40:46.000Z</time>
      </trkpt>
      <trkpt lat="43.7311" lon="3.32387">
        <ele>177</ele>
        <time>2023-05-26T12:40:51.000Z</time>
      </trkpt>
      <trkpt lat="43.73104" lon="3.32388">
        <ele>177.19999694824</ele>
        <time>2023-05-26T12:40:56.000Z</time>
      </trkpt>
      <trkpt lat="43.731" lon="3.32392">
        <ele>177</ele>
        <time>2023-05-26T12:41:02.000Z</time>
      </trkpt>
      <trkpt lat="43.73098" lon="3.32393">
        <ele>177</ele>
        <time>2023-05-26T12:41:07.000Z</time>
      </trkpt>
      <trkpt lat="43.73099" lon="3.32393">
        <ele>177.19999694824</ele>
        <time>2023-05-26T12:41:16.000Z</time>
      </trkpt>
      <trkpt lat="43.73101" lon="3.32393">
        <ele>177.39999389648</ele>
        <time>2023-05-26T12:41:26.000Z</time>
      </trkpt>
      <trkpt lat="43.73105" lon="3.3239">
        <ele>177.39999389648</ele>
        <time>2023-05-26T12:41:36.000Z</time>
      </trkpt>
      <trkpt lat="43.73106" lon="3.3239">
        <ele>177.39999389648</ele>
        <time>2023-05-26T12:41:38.000Z</time>
      </trkpt>
      <trkpt lat="43.73107" lon="3.32389">
        <ele>177.60000610352</ele>
        <time>2023-05-26T12:41:46.000Z</time>
      </trkpt>
      <trkpt lat="43.73107" lon="3.32389">
        <ele>177.60000610352</ele>
        <time>2023-05-26T12:42:00.000Z</time>
      </trkpt>
      <trkpt lat="43.73107" lon="3.32388">
        <ele>177.60000610352</ele>
        <time>2023-05-26T12:42:13.000Z</time>
      </trkpt>
      <trkpt lat="43.73107" lon="3.32388">
        <ele>177.19999694824</ele>
        <time>2023-05-26T12:42:20.000Z</time>
      </trkpt>
      <trkpt lat="43.73107" lon="3.32388">
        <ele>177.60000610352</ele>
        <time>2023-05-26T12:42:30.000Z</time>
      </trkpt>
      <trkpt lat="43.73107" lon="3.32388">
        <ele>179.19999694824</ele>
        <time>2023-05-26T12:42:34.000Z</time>
      </trkpt>
      <trkpt lat="43.73108" lon="3.32387">
        <ele>180.39999389648</ele>
        <time>2023-05-26T12:42:36.000Z</time>
      </trkpt>
      <trkpt lat="43.73108" lon="3.32387">
        <ele>178.39999389648</ele>
        <time>2023-05-26T12:42:38.000Z</time>
      </trkpt>
      <trkpt lat="43.73108" lon="3.32386">
        <ele>176.80000305176</ele>
        <time>2023-05-26T12:42:39.000Z</time>
      </trkpt>
      <trkpt lat="43.73109" lon="3.32386">
        <ele>175.60000610352</ele>
        <time>2023-05-26T12:42:41.000Z</time>
      </trkpt>
      <trkpt lat="43.73109" lon="3.32385">
        <ele>176.80000305176</ele>
        <time>2023-05-26T12:42:42.000Z</time>
      </trkpt>
      <trkpt lat="43.7311" lon="3.32384">
        <ele>177</ele>
        <time>2023-05-26T12:42:49.000Z</time>
      </trkpt>
      <trkpt lat="43.73107" lon="3.32385">
        <ele>177</ele>
        <time>2023-05-26T12:42:56.000Z</time>
      </trkpt>
      <trkpt lat="43.73108" lon="3.32384">
        <ele>177.60000610352</ele>
        <time>2023-05-26T12:43:06.000Z</time>
      </trkpt>
      <trkpt lat="43.73107" lon="3.32385">
        <ele>177.39999389648</ele>
        <time>2023-05-26T12:43:14.000Z</time>
      </trkpt>
      <trkpt lat="43.73105" lon="3.32387">
        <ele>177.39999389648</ele>
        <time>2023-05-26T12:43:22.000Z</time>
      </trkpt>
      <trkpt lat="43.73103" lon="3.32387">
        <ele>177.39999389648</ele>
        <time>2023-05-26T12:43:34.000Z</time>
      </trkpt>
      <trkpt lat="43.73105" lon="3.32386">
        <ele>177.39999389648</ele>
        <time>2023-05-26T12:43:46.000Z</time>
      </trkpt>
      <trkpt lat="43.73107" lon="3.32384">
        <ele>177.39999389648</ele>
        <time>2023-05-26T12:43:54.000Z</time>
      </trkpt>
      <trkpt lat="43.73107" lon="3.32384">
        <ele>177.39999389648</ele>
        <time>2023-05-26T12:44:05.000Z</time>
      </trkpt>
      <trkpt lat="43.7311" lon="3.32383">
        <ele>177.39999389648</ele>
        <time>2023-05-26T12:44:14.000Z</time>
      </trkpt>
      <trkpt lat="43.7311" lon="3.32382">
        <ele>177.39999389648</ele>
        <time>2023-05-26T12:44:26.000Z</time>
      </trkpt>
      <trkpt lat="43.73113" lon="3.32379">
        <ele>177.39999389648</ele>
        <time>2023-05-26T12:44:37.000Z</time>
      </trkpt>
      <trkpt lat="43.73116" lon="3.32378">
        <ele>177.39999389648</ele>
        <time>2023-05-26T12:44:47.000Z</time>
      </trkpt>
      <trkpt lat="43.73117" lon="3.32377">
        <ele>177.60000610352</ele>
        <time>2023-05-26T12:44:58.000Z</time>
      </trkpt>
      <trkpt lat="43.73118" lon="3.32376">
        <ele>177.60000610352</ele>
        <time>2023-05-26T12:45:07.000Z</time>
      </trkpt>
      <trkpt lat="43.73119" lon="3.32376">
        <ele>177.80000305176</ele>
        <time>2023-05-26T12:45:14.000Z</time>
      </trkpt>
      <trkpt lat="43.73119" lon="3.32376">
        <ele>177.80000305176</ele>
        <time>2023-05-26T12:45:21.000Z</time>
      </trkpt>
      <trkpt lat="43.73119" lon="3.32379">
        <ele>178.19999694824</ele>
        <time>2023-05-26T12:45:34.000Z</time>
      </trkpt>
      <trkpt lat="43.73119" lon="3.32381">
        <ele>178.19999694824</ele>
        <time>2023-05-26T12:45:46.000Z</time>
      </trkpt>
      <trkpt lat="43.73121" lon="3.32381">
        <ele>178.19999694824</ele>
        <time>2023-05-26T12:45:53.000Z</time>
      </trkpt>
      <trkpt lat="43.73121" lon="3.32384">
        <ele>178</ele>
        <time>2023-05-26T12:46:01.000Z</time>
      </trkpt>
      <trkpt lat="43.73122" lon="3.32383">
        <ele>177.80000305176</ele>
        <time>2023-05-26T12:46:09.000Z</time>
      </trkpt>
      <trkpt lat="43.7312" lon="3.32385">
        <ele>178.19999694824</ele>
        <time>2023-05-26T12:46:15.000Z</time>
      </trkpt>
      <trkpt lat="43.7312" lon="3.32385">
        <ele>177</ele>
        <time>2023-05-26T12:46:20.000Z</time>
      </trkpt>
      <trkpt lat="43.73119" lon="3.32385">
        <ele>176.80000305176</ele>
        <time>2023-05-26T12:46:22.000Z</time>
      </trkpt>
      <trkpt lat="43.73117" lon="3.32386">
        <ele>177.80000305176</ele>
        <time>2023-05-26T12:46:27.000Z</time>
      </trkpt>
      <trkpt lat="43.73116" lon="3.32389">
        <ele>177.60000610352</ele>
        <time>2023-05-26T12:46:37.000Z</time>
      </trkpt>
      <trkpt lat="43.73118" lon="3.32389">
        <ele>177.60000610352</ele>
        <time>2023-05-26T12:46:44.000Z</time>
      </trkpt>
      <trkpt lat="43.73119" lon="3.32388">
        <ele>177.80000305176</ele>
        <time>2023-05-26T12:46:50.000Z</time>
      </trkpt>
      <trkpt lat="43.73121" lon="3.32385">
        <ele>177.80000305176</ele>
        <time>2023-05-26T12:46:57.000Z</time>
      </trkpt>
      <trkpt lat="43.73113" lon="3.32375">
        <ele>177.80000305176</ele>
        <time>2023-05-26T12:47:06.000Z</time>
      </trkpt>
      <trkpt lat="43.73111" lon="3.32375">
        <ele>178.39999389648</ele>
        <time>2023-05-26T12:47:11.000Z</time>
      </trkpt>
      <trkpt lat="43.73112" lon="3.32374">
        <ele>178.39999389648</ele>
        <time>2023-05-26T12:47:13.000Z</time>
      </trkpt>
      <trkpt lat="43.73117" lon="3.32368">
        <ele>177.80000305176</ele>
        <time>2023-05-26T12:47:19.000Z</time>
      </trkpt>
      <trkpt lat="43.73115" lon="3.32366">
        <ele>178</ele>
        <time>2023-05-26T12:47:24.000Z</time>
      </trkpt>
      <trkpt lat="43.73113" lon="3.32352">
        <ele>177.80000305176</ele>
        <time>2023-05-26T12:47:33.000Z</time>
      </trkpt>
      <trkpt lat="43.7311" lon="3.32338">
        <ele>177.60000610352</ele>
        <time>2023-05-26T12:47:41.000Z</time>
      </trkpt>
      <trkpt lat="43.73107" lon="3.32326">
        <ele>177.80000305176</ele>
        <time>2023-05-26T12:47:49.000Z</time>
      </trkpt>
      <trkpt lat="43.73107" lon="3.32316">
        <ele>177.80000305176</ele>
        <time>2023-05-26T12:47:55.000Z</time>
      </trkpt>
      <trkpt lat="43.73105" lon="3.32309">
        <ele>176.80000305176</ele>
        <time>2023-05-26T12:47:59.000Z</time>
      </trkpt>
      <trkpt lat="43.73104" lon="3.32308">
        <ele>176.60000610352</ele>
        <time>2023-05-26T12:48:00.000Z</time>
      </trkpt>
      <trkpt lat="43.73103" lon="3.32306">
        <ele>176.19999694824</ele>
        <time>2023-05-26T12:48:02.000Z</time>
      </trkpt>
      <trkpt lat="43.73104" lon="3.32303">
        <ele>176</ele>
        <time>2023-05-26T12:48:07.000Z</time>
      </trkpt>
      <trkpt lat="43.73104" lon="3.32302">
        <ele>176</ele>
        <time>2023-05-26T12:48:08.000Z</time>
      </trkpt>
      <trkpt lat="43.73103" lon="3.32299">
        <ele>176.19999694824</ele>
        <time>2023-05-26T12:48:13.000Z</time>
      </trkpt>
      <trkpt lat="43.73101" lon="3.32288">
        <ele>175.60000610352</ele>
        <time>2023-05-26T12:48:20.000Z</time>
      </trkpt>
      <trkpt lat="43.73101" lon="3.32285">
        <ele>175.80000305176</ele>
        <time>2023-05-26T12:48:23.000Z</time>
      </trkpt>
      <trkpt lat="43.73102" lon="3.32281">
        <ele>176</ele>
        <time>2023-05-26T12:48:25.000Z</time>
      </trkpt>
      <trkpt lat="43.73102" lon="3.32278">
        <ele>176</ele>
        <time>2023-05-26T12:48:27.000Z</time>
      </trkpt>
      <trkpt lat="43.73102" lon="3.32271">
        <ele>176.19999694824</ele>
        <time>2023-05-26T12:48:31.000Z</time>
      </trkpt>
      <trkpt lat="43.73102" lon="3.32269">
        <ele>176.19999694824</ele>
        <time>2023-05-26T12:48:32.000Z</time>
      </trkpt>
      <trkpt lat="43.73102" lon="3.32261">
        <ele>176.39999389648</ele>
        <time>2023-05-26T12:48:37.000Z</time>
      </trkpt>
      <trkpt lat="43.73101" lon="3.3226">
        <ele>176.39999389648</ele>
        <time>2023-05-26T12:48:38.000Z</time>
      </trkpt>
      <trkpt lat="43.731" lon="3.32254">
        <ele>176.80000305176</ele>
        <time>2023-05-26T12:48:42.000Z</time>
      </trkpt>
      <trkpt lat="43.73099" lon="3.32249">
        <ele>177</ele>
        <time>2023-05-26T12:48:45.000Z</time>
      </trkpt>
      <trkpt lat="43.73099" lon="3.3224">
        <ele>177.39999389648</ele>
        <time>2023-05-26T12:48:51.000Z</time>
      </trkpt>
      <trkpt lat="43.73099" lon="3.32238">
        <ele>177.39999389648</ele>
        <time>2023-05-26T12:48:52.000Z</time>
      </trkpt>
      <trkpt lat="43.731" lon="3.32234">
        <ele>177.60000610352</ele>
        <time>2023-05-26T12:48:55.000Z</time>
      </trkpt>
      <trkpt lat="43.73099" lon="3.32229">
        <ele>177.80000305176</ele>
        <time>2023-05-26T12:48:59.000Z</time>
      </trkpt>
      <trkpt lat="43.73097" lon="3.32226">
        <ele>178</ele>
        <time>2023-05-26T12:49:01.000Z</time>
      </trkpt>
      <trkpt lat="43.73096" lon="3.32223">
        <ele>178.19999694824</ele>
        <time>2023-05-26T12:49:03.000Z</time>
      </trkpt>
      <trkpt lat="43.73097" lon="3.32216">
        <ele>178.19999694824</ele>
        <time>2023-05-26T12:49:07.000Z</time>
      </trkpt>
      <trkpt lat="43.73098" lon="3.32213">
        <ele>178.19999694824</ele>
        <time>2023-05-26T12:49:09.000Z</time>
      </trkpt>
      <trkpt lat="43.73098" lon="3.32207">
        <ele>178.39999389648</ele>
        <time>2023-05-26T12:49:13.000Z</time>
      </trkpt>
      <trkpt lat="43.73099" lon="3.32205">
        <ele>178.39999389648</ele>
        <time>2023-05-26T12:49:14.000Z</time>
      </trkpt>
      <trkpt lat="43.73098" lon="3.322">
        <ele>178.60000610352</ele>
        <time>2023-05-26T12:49:17.000Z</time>
      </trkpt>
      <trkpt lat="43.73098" lon="3.32195">
        <ele>178.80000305176</ele>
        <time>2023-05-26T12:49:21.000Z</time>
      </trkpt>
      <trkpt lat="43.73098" lon="3.32188">
        <ele>179.19999694824</ele>
        <time>2023-05-26T12:49:26.000Z</time>
      </trkpt>
      <trkpt lat="43.73099" lon="3.32185">
        <ele>179.39999389648</ele>
        <time>2023-05-26T12:49:28.000Z</time>
      </trkpt>
      <trkpt lat="43.73099" lon="3.32184">
        <ele>179.39999389648</ele>
        <time>2023-05-26T12:49:29.000Z</time>
      </trkpt>
      <trkpt lat="43.73099" lon="3.32176">
        <ele>179.80000305176</ele>
        <time>2023-05-26T12:49:35.000Z</time>
      </trkpt>
      <trkpt lat="43.73099" lon="3.32174">
        <ele>179.80000305176</ele>
        <time>2023-05-26T12:49:36.000Z</time>
      </trkpt>
      <trkpt lat="43.73099" lon="3.32171">
        <ele>180.39999389648</ele>
        <time>2023-05-26T12:49:42.000Z</time>
      </trkpt>
      <trkpt lat="43.73099" lon="3.32171">
        <ele>180.80000305176</ele>
        <time>2023-05-26T12:49:44.000Z</time>
      </trkpt>
      <trkpt lat="43.73099" lon="3.32164">
        <ele>180.80000305176</ele>
        <time>2023-05-26T12:49:52.000Z</time>
      </trkpt>
      <trkpt lat="43.73096" lon="3.32158">
        <ele>181</ele>
        <time>2023-05-26T12:49:58.000Z</time>
      </trkpt>
      <trkpt lat="43.73095" lon="3.32152">
        <ele>181.39999389648</ele>
        <time>2023-05-26T12:50:03.000Z</time>
      </trkpt>
      <trkpt lat="43.73095" lon="3.32151">
        <ele>181.39999389648</ele>
        <time>2023-05-26T12:50:04.000Z</time>
      </trkpt>
      <trkpt lat="43.73094" lon="3.32149">
        <ele>181.60000610352</ele>
        <time>2023-05-26T12:50:06.000Z</time>
      </trkpt>
      <trkpt lat="43.73093" lon="3.32144">
        <ele>181.80000305176</ele>
        <time>2023-05-26T12:50:10.000Z</time>
      </trkpt>
      <trkpt lat="43.73093" lon="3.32142">
        <ele>182</ele>
        <time>2023-05-26T12:50:14.000Z</time>
      </trkpt>
      <trkpt lat="43.73094" lon="3.3214">
        <ele>182</ele>
        <time>2023-05-26T12:50:16.000Z</time>
      </trkpt>
      <trkpt lat="43.73094" lon="3.32138">
        <ele>182.39999389648</ele>
        <time>2023-05-26T12:50:23.000Z</time>
      </trkpt>
      <trkpt lat="43.73094" lon="3.3214">
        <ele>182.39999389648</ele>
        <time>2023-05-26T12:50:31.000Z</time>
      </trkpt>
      <trkpt lat="43.73091" lon="3.32141">
        <ele>182.60000610352</ele>
        <time>2023-05-26T12:50:37.000Z</time>
      </trkpt>
      <trkpt lat="43.73086" lon="3.32139">
        <ele>182.60000610352</ele>
        <time>2023-05-26T12:50:45.000Z</time>
      </trkpt>
      <trkpt lat="43.73083" lon="3.32138">
        <ele>182.80000305176</ele>
        <time>2023-05-26T12:50:49.000Z</time>
      </trkpt>
      <trkpt lat="43.73083" lon="3.32137">
        <ele>183</ele>
        <time>2023-05-26T12:50:51.000Z</time>
      </trkpt>
      <trkpt lat="43.73082" lon="3.3214">
        <ele>182.80000305176</ele>
        <time>2023-05-26T12:50:58.000Z</time>
      </trkpt>
      <trkpt lat="43.73081" lon="3.32144">
        <ele>182.80000305176</ele>
        <time>2023-05-26T12:51:11.000Z</time>
      </trkpt>
      <trkpt lat="43.73082" lon="3.32146">
        <ele>182.60000610352</ele>
        <time>2023-05-26T12:51:21.000Z</time>
      </trkpt>
      <trkpt lat="43.73087" lon="3.32147">
        <ele>182.39999389648</ele>
        <time>2023-05-26T12:51:26.000Z</time>
      </trkpt>
      <trkpt lat="43.73089" lon="3.3215">
        <ele>182.39999389648</ele>
        <time>2023-05-26T12:51:31.000Z</time>
      </trkpt>
      <trkpt lat="43.7309" lon="3.32151">
        <ele>182.39999389648</ele>
        <time>2023-05-26T12:51:32.000Z</time>
      </trkpt>
      <trkpt lat="43.73089" lon="3.32155">
        <ele>182.19999694824</ele>
        <time>2023-05-26T12:51:36.000Z</time>
      </trkpt>
      <trkpt lat="43.7309" lon="3.32154">
        <ele>181.80000305176</ele>
        <time>2023-05-26T12:51:41.000Z</time>
      </trkpt>
      <trkpt lat="43.73094" lon="3.32152">
        <ele>181.80000305176</ele>
        <time>2023-05-26T12:51:47.000Z</time>
      </trkpt>
      <trkpt lat="43.731" lon="3.32151">
        <ele>181.60000610352</ele>
        <time>2023-05-26T12:51:55.000Z</time>
      </trkpt>
      <trkpt lat="43.73104" lon="3.3215">
        <ele>181.60000610352</ele>
        <time>2023-05-26T12:51:59.000Z</time>
      </trkpt>
      <trkpt lat="43.73104" lon="3.3215">
        <ele>181.60000610352</ele>
        <time>2023-05-26T12:52:00.000Z</time>
      </trkpt>
      <trkpt lat="43.73105" lon="3.32148">
        <ele>181.60000610352</ele>
        <time>2023-05-26T12:52:01.000Z</time>
      </trkpt>
      <trkpt lat="43.73106" lon="3.32147">
        <ele>181.60000610352</ele>
        <time>2023-05-26T12:52:04.000Z</time>
      </trkpt>
      <trkpt lat="43.73108" lon="3.32146">
        <ele>182</ele>
        <time>2023-05-26T12:52:11.000Z</time>
      </trkpt>
      <trkpt lat="43.73109" lon="3.32148">
        <ele>182.19999694824</ele>
        <time>2023-05-26T12:52:18.000Z</time>
      </trkpt>
      <trkpt lat="43.73113" lon="3.32144">
        <ele>182</ele>
        <time>2023-05-26T12:52:24.000Z</time>
      </trkpt>
      <trkpt lat="43.73108" lon="3.32142">
        <ele>181.60000610352</ele>
        <time>2023-05-26T12:52:32.000Z</time>
      </trkpt>
      <trkpt lat="43.73127" lon="3.32149">
        <ele>181.60000610352</ele>
        <time>2023-05-26T12:52:49.000Z</time>
      </trkpt>
      <trkpt lat="43.73126" lon="3.3215">
        <ele>181.80000305176</ele>
        <time>2023-05-26T12:52:51.000Z</time>
      </trkpt>
      <trkpt lat="43.73124" lon="3.3213">
        <ele>181.60000610352</ele>
        <time>2023-05-26T12:52:56.000Z</time>
      </trkpt>
      <trkpt lat="43.73128" lon="3.32174">
        <ele>184.60000610352</ele>
        <time>2023-05-26T12:53:34.000Z</time>
      </trkpt>
      <trkpt lat="43.73126" lon="3.32187">
        <ele>185.19999694824</ele>
        <time>2023-05-26T12:57:20.000Z</time>
      </trkpt>
      <trkpt lat="43.73127" lon="3.32187">
        <ele>185.19999694824</ele>
        <time>2023-05-26T12:57:21.000Z</time>
      </trkpt>
      <trkpt lat="43.73127" lon="3.32188">
        <ele>185.19999694824</ele>
        <time>2023-05-26T12:57:26.000Z</time>
      </trkpt>
      <trkpt lat="43.73126" lon="3.32177">
        <ele>185</ele>
        <time>2023-05-26T12:57:28.000Z</time>
      </trkpt>
      <trkpt lat="43.73116" lon="3.32188">
        <ele>184.80000305176</ele>
        <time>2023-05-26T12:57:31.000Z</time>
      </trkpt>
      <trkpt lat="43.73119" lon="3.32186">
        <ele>185</ele>
        <time>2023-05-26T12:57:35.000Z</time>
      </trkpt>
      <trkpt lat="43.73115" lon="3.32183">
        <ele>185.39999389648</ele>
        <time>2023-05-26T12:57:39.000Z</time>
      </trkpt>
      <trkpt lat="43.73121" lon="3.32175">
        <ele>185</ele>
        <time>2023-05-26T12:57:44.000Z</time>
      </trkpt>
      <trkpt lat="43.73121" lon="3.32175">
        <ele>185</ele>
        <time>2023-05-26T12:57:45.000Z</time>
      </trkpt>
      <trkpt lat="43.73122" lon="3.32171">
        <ele>185</ele>
        <time>2023-05-26T12:57:47.000Z</time>
      </trkpt>
      <trkpt lat="43.73122" lon="3.32168">
        <ele>184.80000305176</ele>
        <time>2023-05-26T12:57:49.000Z</time>
      </trkpt>
      <trkpt lat="43.73092" lon="3.3214">
        <ele>185.80000305176</ele>
        <time>2023-05-26T13:01:22.000Z</time>
      </trkpt>
      <trkpt lat="43.73043" lon="3.32154">
        <ele>185.60000610352</ele>
        <time>2023-05-26T13:01:24.000Z</time>
      </trkpt>
      <trkpt lat="43.73067" lon="3.32151">
        <ele>185.60000610352</ele>
        <time>2023-05-26T13:01:26.000Z</time>
      </trkpt>
      <trkpt lat="43.73074" lon="3.32149">
        <ele>185.19999694824</ele>
        <time>2023-05-26T13:01:28.000Z</time>
      </trkpt>
      <trkpt lat="43.73073" lon="3.32149">
        <ele>185</ele>
        <time>2023-05-26T13:01:29.000Z</time>
      </trkpt>
      <trkpt lat="43.73074" lon="3.32149">
        <ele>185</ele>
        <time>2023-05-26T13:01:32.000Z</time>
      </trkpt>
      <trkpt lat="43.73075" lon="3.32151">
        <ele>185</ele>
        <time>2023-05-26T13:01:34.000Z</time>
      </trkpt>
      <trkpt lat="43.73078" lon="3.32154">
        <ele>185</ele>
        <time>2023-05-26T13:01:36.000Z</time>
      </trkpt>
      <trkpt lat="43.73085" lon="3.32159">
        <ele>185.19999694824</ele>
        <time>2023-05-26T13:01:40.000Z</time>
      </trkpt>
      <trkpt lat="43.73144" lon="3.32121">
        <ele>185.19999694824</ele>
        <time>2023-05-26T13:01:56.000Z</time>
      </trkpt>
      <trkpt lat="43.73147" lon="3.32119">
        <ele>185.19999694824</ele>
        <time>2023-05-26T13:01:57.000Z</time>
      </trkpt>
      <trkpt lat="43.73122" lon="3.32149">
        <ele>185</ele>
        <time>2023-05-26T13:03:14.000Z</time>
      </trkpt>
      <trkpt lat="43.7312" lon="3.32147">
        <ele>185.19999694824</ele>
        <time>2023-05-26T13:03:15.000Z</time>
      </trkpt>
      <trkpt lat="43.7314" lon="3.32133">
        <ele>185.19999694824</ele>
        <time>2023-05-26T13:03:16.000Z</time>
      </trkpt>
      <trkpt lat="43.73118" lon="3.3215">
        <ele>185.19999694824</ele>
        <time>2023-05-26T13:03:19.000Z</time>
      </trkpt>
      <trkpt lat="43.73112" lon="3.32159">
        <ele>185</ele>
        <time>2023-05-26T13:03:21.000Z</time>
      </trkpt>
      <trkpt lat="43.73082" lon="3.32175">
        <ele>185</ele>
        <time>2023-05-26T13:03:24.000Z</time>
      </trkpt>
      <trkpt lat="43.73081" lon="3.32183">
        <ele>185.39999389648</ele>
        <time>2023-05-26T13:03:26.000Z</time>
      </trkpt>
      <trkpt lat="43.73083" lon="3.32189">
        <ele>185.60000610352</ele>
        <time>2023-05-26T13:03:29.000Z</time>
      </trkpt>
      <trkpt lat="43.73087" lon="3.32187">
        <ele>185.60000610352</ele>
        <time>2023-05-26T13:03:31.000Z</time>
      </trkpt>
      <trkpt lat="43.73092" lon="3.32186">
        <ele>185.60000610352</ele>
        <time>2023-05-26T13:03:33.000Z</time>
      </trkpt>
      <trkpt lat="43.73095" lon="3.32186">
        <ele>185.39999389648</ele>
        <time>2023-05-26T13:03:35.000Z</time>
      </trkpt>
      <trkpt lat="43.73096" lon="3.32178">
        <ele>185.39999389648</ele>
        <time>2023-05-26T13:03:40.000Z</time>
      </trkpt>
      <trkpt lat="43.73099" lon="3.32176">
        <ele>185.39999389648</ele>
        <time>2023-05-26T13:03:43.000Z</time>
      </trkpt>
      <trkpt lat="43.73099" lon="3.32177">
        <ele>185.39999389648</ele>
        <time>2023-05-26T13:03:44.000Z</time>
      </trkpt>
    </trkseg>
  </trk>
</gpx>